<?xml version="1.0" encoding="UTF-8" standalone="no" ?>
<gpx xmlns="http://www.topografix.com/GPX/1/1" xmlns:xsi="http://www.w3.org/2001/XMLSchema-instance" xsi:schemaLocation="http://www.topografix.com/GPX/1/1 http://www.topografix.com/GPX/1/1/gpx.xsd" version="1.1" creator="VisuGPX - https://www.visugpx.com">
  <metadata>
    <name>Pornichet 30/01/2022</name>
    <desc><![CDATA[Sortie dimanche 30 janvier 2022]]></desc>
  </metadata>
  <trk>
    <name><![CDATA[Pornichet Cyclisme]]></name>
    <trkseg>
      <trkpt lat="47.26411" lon="-2.31561">
        <ele>7.1999998092651</ele>
        <time>2022-01-30T07:58:52.000Z</time>
      </trkpt>
      <trkpt lat="47.26411" lon="-2.31575">
        <ele>7.1999998092651</ele>
        <time>2022-01-30T07:58:55.000Z</time>
      </trkpt>
      <trkpt lat="47.26411" lon="-2.31579">
        <ele>7</ele>
        <time>2022-01-30T07:58:56.000Z</time>
      </trkpt>
      <trkpt lat="47.26412" lon="-2.31584">
        <ele>7</ele>
        <time>2022-01-30T07:58:57.000Z</time>
      </trkpt>
      <trkpt lat="47.26411" lon="-2.31612">
        <ele>7</ele>
        <time>2022-01-30T07:59:03.000Z</time>
      </trkpt>
      <trkpt lat="47.2641" lon="-2.31644">
        <ele>7</ele>
        <time>2022-01-30T07:59:09.000Z</time>
      </trkpt>
      <trkpt lat="47.2641" lon="-2.31658">
        <ele>7</ele>
        <time>2022-01-30T07:59:12.000Z</time>
      </trkpt>
      <trkpt lat="47.26407" lon="-2.31661">
        <ele>7</ele>
        <time>2022-01-30T07:59:13.000Z</time>
      </trkpt>
      <trkpt lat="47.26394" lon="-2.31669">
        <ele>7</ele>
        <time>2022-01-30T07:59:17.000Z</time>
      </trkpt>
      <trkpt lat="47.26368" lon="-2.31684">
        <ele>6.5999999046326</ele>
        <time>2022-01-30T07:59:23.000Z</time>
      </trkpt>
      <trkpt lat="47.26364" lon="-2.31687">
        <ele>6.1999998092651</ele>
        <time>2022-01-30T07:59:24.000Z</time>
      </trkpt>
      <trkpt lat="47.2636" lon="-2.31689">
        <ele>5.8000001907349</ele>
        <time>2022-01-30T07:59:25.000Z</time>
      </trkpt>
      <trkpt lat="47.26355" lon="-2.31692">
        <ele>5.4000000953674</ele>
        <time>2022-01-30T07:59:26.000Z</time>
      </trkpt>
      <trkpt lat="47.2635" lon="-2.31694">
        <ele>5</ele>
        <time>2022-01-30T07:59:27.000Z</time>
      </trkpt>
      <trkpt lat="47.26341" lon="-2.31699">
        <ele>5</ele>
        <time>2022-01-30T07:59:29.000Z</time>
      </trkpt>
      <trkpt lat="47.26336" lon="-2.31701">
        <ele>5</ele>
        <time>2022-01-30T07:59:30.000Z</time>
      </trkpt>
      <trkpt lat="47.26331" lon="-2.31704">
        <ele>5</ele>
        <time>2022-01-30T07:59:31.000Z</time>
      </trkpt>
      <trkpt lat="47.26311" lon="-2.31714">
        <ele>4.5999999046326</ele>
        <time>2022-01-30T07:59:35.000Z</time>
      </trkpt>
      <trkpt lat="47.26307" lon="-2.31717">
        <ele>4.1999998092651</ele>
        <time>2022-01-30T07:59:36.000Z</time>
      </trkpt>
      <trkpt lat="47.26303" lon="-2.3172">
        <ele>3.7999999523163</ele>
        <time>2022-01-30T07:59:37.000Z</time>
      </trkpt>
      <trkpt lat="47.26301" lon="-2.31723">
        <ele>3.4000000953674</ele>
        <time>2022-01-30T07:59:38.000Z</time>
      </trkpt>
      <trkpt lat="47.26301" lon="-2.31727">
        <ele>3</ele>
        <time>2022-01-30T07:59:39.000Z</time>
      </trkpt>
      <trkpt lat="47.26303" lon="-2.31745">
        <ele>3</ele>
        <time>2022-01-30T07:59:43.000Z</time>
      </trkpt>
      <trkpt lat="47.26307" lon="-2.31768">
        <ele>3</ele>
        <time>2022-01-30T07:59:48.000Z</time>
      </trkpt>
      <trkpt lat="47.26307" lon="-2.31799">
        <ele>3</ele>
        <time>2022-01-30T07:59:54.000Z</time>
      </trkpt>
      <trkpt lat="47.26307" lon="-2.31804">
        <ele>3</ele>
        <time>2022-01-30T07:59:55.000Z</time>
      </trkpt>
      <trkpt lat="47.26304" lon="-2.31839">
        <ele>3</ele>
        <time>2022-01-30T08:00:01.000Z</time>
      </trkpt>
      <trkpt lat="47.26301" lon="-2.31873">
        <ele>3</ele>
        <time>2022-01-30T08:00:07.000Z</time>
      </trkpt>
      <trkpt lat="47.26298" lon="-2.31883">
        <ele>3</ele>
        <time>2022-01-30T08:00:10.000Z</time>
      </trkpt>
      <trkpt lat="47.26296" lon="-2.31886">
        <ele>3</ele>
        <time>2022-01-30T08:00:11.000Z</time>
      </trkpt>
      <trkpt lat="47.26294" lon="-2.31888">
        <ele>2.5999999046326</ele>
        <time>2022-01-30T08:00:12.000Z</time>
      </trkpt>
      <trkpt lat="47.26291" lon="-2.31891">
        <ele>2.2000000476837</ele>
        <time>2022-01-30T08:00:13.000Z</time>
      </trkpt>
      <trkpt lat="47.26288" lon="-2.31894">
        <ele>1.7999999523163</ele>
        <time>2022-01-30T08:00:14.000Z</time>
      </trkpt>
      <trkpt lat="47.26285" lon="-2.31898">
        <ele>1.3999999761581</ele>
        <time>2022-01-30T08:00:15.000Z</time>
      </trkpt>
      <trkpt lat="47.26282" lon="-2.31902">
        <ele>1</ele>
        <time>2022-01-30T08:00:16.000Z</time>
      </trkpt>
      <trkpt lat="47.26279" lon="-2.31906">
        <ele>1</ele>
        <time>2022-01-30T08:00:17.000Z</time>
      </trkpt>
      <trkpt lat="47.26266" lon="-2.3193">
        <ele>1</ele>
        <time>2022-01-30T08:00:23.000Z</time>
      </trkpt>
      <trkpt lat="47.26255" lon="-2.31949">
        <ele>1</ele>
        <time>2022-01-30T08:00:28.000Z</time>
      </trkpt>
      <trkpt lat="47.2624" lon="-2.31965">
        <ele>1</ele>
        <time>2022-01-30T08:00:33.000Z</time>
      </trkpt>
      <trkpt lat="47.26229" lon="-2.31976">
        <ele>1</ele>
        <time>2022-01-30T08:00:39.000Z</time>
      </trkpt>
      <trkpt lat="47.26217" lon="-2.3199">
        <ele>1</ele>
        <time>2022-01-30T08:00:45.000Z</time>
      </trkpt>
      <trkpt lat="47.2621" lon="-2.31996">
        <ele>1</ele>
        <time>2022-01-30T08:00:48.000Z</time>
      </trkpt>
      <trkpt lat="47.26207" lon="-2.32002">
        <ele>1</ele>
        <time>2022-01-30T08:00:50.000Z</time>
      </trkpt>
      <trkpt lat="47.26203" lon="-2.32014">
        <ele>1</ele>
        <time>2022-01-30T08:00:54.000Z</time>
      </trkpt>
      <trkpt lat="47.26201" lon="-2.32015">
        <ele>1</ele>
        <time>2022-01-30T08:00:55.000Z</time>
      </trkpt>
      <trkpt lat="47.26192" lon="-2.32013">
        <ele>1</ele>
        <time>2022-01-30T08:00:59.000Z</time>
      </trkpt>
      <trkpt lat="47.26189" lon="-2.32013">
        <ele>1</ele>
        <time>2022-01-30T08:01:00.000Z</time>
      </trkpt>
      <trkpt lat="47.2617" lon="-2.32021">
        <ele>1</ele>
        <time>2022-01-30T08:01:06.000Z</time>
      </trkpt>
      <trkpt lat="47.2616" lon="-2.32039">
        <ele>1</ele>
        <time>2022-01-30T08:01:10.000Z</time>
      </trkpt>
      <trkpt lat="47.26149" lon="-2.32072">
        <ele>1</ele>
        <time>2022-01-30T08:01:16.000Z</time>
      </trkpt>
      <trkpt lat="47.26137" lon="-2.32122">
        <ele>1</ele>
        <time>2022-01-30T08:01:25.000Z</time>
      </trkpt>
      <trkpt lat="47.26125" lon="-2.32159">
        <ele>1</ele>
        <time>2022-01-30T08:01:32.000Z</time>
      </trkpt>
      <trkpt lat="47.2611" lon="-2.32195">
        <ele>1</ele>
        <time>2022-01-30T08:01:39.000Z</time>
      </trkpt>
      <trkpt lat="47.26094" lon="-2.32224">
        <ele>1</ele>
        <time>2022-01-30T08:01:45.000Z</time>
      </trkpt>
      <trkpt lat="47.26091" lon="-2.32229">
        <ele>1</ele>
        <time>2022-01-30T08:01:46.000Z</time>
      </trkpt>
      <trkpt lat="47.26088" lon="-2.32234">
        <ele>1</ele>
        <time>2022-01-30T08:01:47.000Z</time>
      </trkpt>
      <trkpt lat="47.26078" lon="-2.32245">
        <ele>1</ele>
        <time>2022-01-30T08:01:50.000Z</time>
      </trkpt>
      <trkpt lat="47.26075" lon="-2.32249">
        <ele>1</ele>
        <time>2022-01-30T08:01:51.000Z</time>
      </trkpt>
      <trkpt lat="47.26052" lon="-2.32273">
        <ele>1</ele>
        <time>2022-01-30T08:01:58.000Z</time>
      </trkpt>
      <trkpt lat="47.2603" lon="-2.32298">
        <ele>1</ele>
        <time>2022-01-30T08:02:05.000Z</time>
      </trkpt>
      <trkpt lat="47.26012" lon="-2.32321">
        <ele>1</ele>
        <time>2022-01-30T08:02:11.000Z</time>
      </trkpt>
      <trkpt lat="47.2599" lon="-2.32349">
        <ele>1</ele>
        <time>2022-01-30T08:02:18.000Z</time>
      </trkpt>
      <trkpt lat="47.25974" lon="-2.32371">
        <ele>1</ele>
        <time>2022-01-30T08:02:24.000Z</time>
      </trkpt>
      <trkpt lat="47.25972" lon="-2.32372">
        <ele>1</ele>
        <time>2022-01-30T08:02:27.000Z</time>
      </trkpt>
      <trkpt lat="47.2597" lon="-2.32374">
        <ele>1</ele>
        <time>2022-01-30T08:02:30.000Z</time>
      </trkpt>
      <trkpt lat="47.25966" lon="-2.32378">
        <ele>1</ele>
        <time>2022-01-30T08:02:32.000Z</time>
      </trkpt>
      <trkpt lat="47.25953" lon="-2.32397">
        <ele>1</ele>
        <time>2022-01-30T08:02:37.000Z</time>
      </trkpt>
      <trkpt lat="47.25927" lon="-2.3243">
        <ele>1</ele>
        <time>2022-01-30T08:02:45.000Z</time>
      </trkpt>
      <trkpt lat="47.25905" lon="-2.32459">
        <ele>1</ele>
        <time>2022-01-30T08:02:52.000Z</time>
      </trkpt>
      <trkpt lat="47.25898" lon="-2.32467">
        <ele>1</ele>
        <time>2022-01-30T08:02:54.000Z</time>
      </trkpt>
      <trkpt lat="47.25891" lon="-2.32472">
        <ele>1</ele>
        <time>2022-01-30T08:02:56.000Z</time>
      </trkpt>
      <trkpt lat="47.25887" lon="-2.32473">
        <ele>1</ele>
        <time>2022-01-30T08:02:57.000Z</time>
      </trkpt>
      <trkpt lat="47.25879" lon="-2.32474">
        <ele>1</ele>
        <time>2022-01-30T08:02:59.000Z</time>
      </trkpt>
      <trkpt lat="47.25862" lon="-2.32476">
        <ele>1</ele>
        <time>2022-01-30T08:03:03.000Z</time>
      </trkpt>
      <trkpt lat="47.25839" lon="-2.32472">
        <ele>1</ele>
        <time>2022-01-30T08:03:08.000Z</time>
      </trkpt>
      <trkpt lat="47.25831" lon="-2.32468">
        <ele>1</ele>
        <time>2022-01-30T08:03:10.000Z</time>
      </trkpt>
      <trkpt lat="47.25805" lon="-2.32458">
        <ele>1</ele>
        <time>2022-01-30T08:03:16.000Z</time>
      </trkpt>
      <trkpt lat="47.25797" lon="-2.32458">
        <ele>1.3999999761581</ele>
        <time>2022-01-30T08:03:18.000Z</time>
      </trkpt>
      <trkpt lat="47.25794" lon="-2.32458">
        <ele>1.7999999523163</ele>
        <time>2022-01-30T08:03:19.000Z</time>
      </trkpt>
      <trkpt lat="47.2579" lon="-2.32457">
        <ele>2.2000000476837</ele>
        <time>2022-01-30T08:03:20.000Z</time>
      </trkpt>
      <trkpt lat="47.25786" lon="-2.32456">
        <ele>2.5999999046326</ele>
        <time>2022-01-30T08:03:21.000Z</time>
      </trkpt>
      <trkpt lat="47.25783" lon="-2.32452">
        <ele>3</ele>
        <time>2022-01-30T08:03:22.000Z</time>
      </trkpt>
      <trkpt lat="47.2578" lon="-2.32448">
        <ele>3</ele>
        <time>2022-01-30T08:03:23.000Z</time>
      </trkpt>
      <trkpt lat="47.25768" lon="-2.3243">
        <ele>3</ele>
        <time>2022-01-30T08:03:27.000Z</time>
      </trkpt>
      <trkpt lat="47.25759" lon="-2.32426">
        <ele>3</ele>
        <time>2022-01-30T08:03:29.000Z</time>
      </trkpt>
      <trkpt lat="47.2575" lon="-2.32426">
        <ele>3</ele>
        <time>2022-01-30T08:03:31.000Z</time>
      </trkpt>
      <trkpt lat="47.25736" lon="-2.32426">
        <ele>3</ele>
        <time>2022-01-30T08:03:34.000Z</time>
      </trkpt>
      <trkpt lat="47.25698" lon="-2.32423">
        <ele>3</ele>
        <time>2022-01-30T08:03:42.000Z</time>
      </trkpt>
      <trkpt lat="47.25677" lon="-2.32423">
        <ele>3</ele>
        <time>2022-01-30T08:03:47.000Z</time>
      </trkpt>
      <trkpt lat="47.25669" lon="-2.32423">
        <ele>3</ele>
        <time>2022-01-30T08:03:49.000Z</time>
      </trkpt>
      <trkpt lat="47.25666" lon="-2.32427">
        <ele>3</ele>
        <time>2022-01-30T08:03:50.000Z</time>
      </trkpt>
      <trkpt lat="47.25664" lon="-2.32438">
        <ele>3</ele>
        <time>2022-01-30T08:03:52.000Z</time>
      </trkpt>
      <trkpt lat="47.25667" lon="-2.32456">
        <ele>3</ele>
        <time>2022-01-30T08:03:55.000Z</time>
      </trkpt>
      <trkpt lat="47.25668" lon="-2.32461">
        <ele>3</ele>
        <time>2022-01-30T08:03:56.000Z</time>
      </trkpt>
      <trkpt lat="47.25679" lon="-2.32494">
        <ele>3</ele>
        <time>2022-01-30T08:04:02.000Z</time>
      </trkpt>
      <trkpt lat="47.25682" lon="-2.32505">
        <ele>3.7999999523163</ele>
        <time>2022-01-30T08:04:04.000Z</time>
      </trkpt>
      <trkpt lat="47.25684" lon="-2.32511">
        <ele>4.1999998092651</ele>
        <time>2022-01-30T08:04:05.000Z</time>
      </trkpt>
      <trkpt lat="47.25686" lon="-2.32516">
        <ele>4.5999999046326</ele>
        <time>2022-01-30T08:04:06.000Z</time>
      </trkpt>
      <trkpt lat="47.25687" lon="-2.32521">
        <ele>5.1999998092651</ele>
        <time>2022-01-30T08:04:07.000Z</time>
      </trkpt>
      <trkpt lat="47.2569" lon="-2.32532">
        <ele>5.1999998092651</ele>
        <time>2022-01-30T08:04:09.000Z</time>
      </trkpt>
      <trkpt lat="47.25696" lon="-2.32552">
        <ele>5.1999998092651</ele>
        <time>2022-01-30T08:04:13.000Z</time>
      </trkpt>
      <trkpt lat="47.25703" lon="-2.32573">
        <ele>5.1999998092651</ele>
        <time>2022-01-30T08:04:17.000Z</time>
      </trkpt>
      <trkpt lat="47.25704" lon="-2.32578">
        <ele>5.5999999046326</ele>
        <time>2022-01-30T08:04:18.000Z</time>
      </trkpt>
      <trkpt lat="47.25705" lon="-2.32583">
        <ele>6</ele>
        <time>2022-01-30T08:04:19.000Z</time>
      </trkpt>
      <trkpt lat="47.25707" lon="-2.32589">
        <ele>6.4000000953674</ele>
        <time>2022-01-30T08:04:20.000Z</time>
      </trkpt>
      <trkpt lat="47.25708" lon="-2.32594">
        <ele>6.8000001907349</ele>
        <time>2022-01-30T08:04:21.000Z</time>
      </trkpt>
      <trkpt lat="47.2571" lon="-2.32599">
        <ele>7.1999998092651</ele>
        <time>2022-01-30T08:04:22.000Z</time>
      </trkpt>
      <trkpt lat="47.2571" lon="-2.32616">
        <ele>7.1999998092651</ele>
        <time>2022-01-30T08:04:25.000Z</time>
      </trkpt>
      <trkpt lat="47.25706" lon="-2.32624">
        <ele>7.1999998092651</ele>
        <time>2022-01-30T08:04:27.000Z</time>
      </trkpt>
      <trkpt lat="47.25699" lon="-2.32628">
        <ele>7.1999998092651</ele>
        <time>2022-01-30T08:04:29.000Z</time>
      </trkpt>
      <trkpt lat="47.25692" lon="-2.3263">
        <ele>7.1999998092651</ele>
        <time>2022-01-30T08:04:31.000Z</time>
      </trkpt>
      <trkpt lat="47.25678" lon="-2.32637">
        <ele>7.5999999046326</ele>
        <time>2022-01-30T08:04:35.000Z</time>
      </trkpt>
      <trkpt lat="47.25674" lon="-2.32639">
        <ele>8</ele>
        <time>2022-01-30T08:04:36.000Z</time>
      </trkpt>
      <trkpt lat="47.25671" lon="-2.32641">
        <ele>8.3999996185303</ele>
        <time>2022-01-30T08:04:37.000Z</time>
      </trkpt>
      <trkpt lat="47.25667" lon="-2.32642">
        <ele>8.8000001907349</ele>
        <time>2022-01-30T08:04:38.000Z</time>
      </trkpt>
      <trkpt lat="47.25663" lon="-2.32644">
        <ele>9.1999998092651</ele>
        <time>2022-01-30T08:04:39.000Z</time>
      </trkpt>
      <trkpt lat="47.25659" lon="-2.32645">
        <ele>9.1999998092651</ele>
        <time>2022-01-30T08:04:40.000Z</time>
      </trkpt>
      <trkpt lat="47.2563" lon="-2.32657">
        <ele>9.1999998092651</ele>
        <time>2022-01-30T08:04:48.000Z</time>
      </trkpt>
      <trkpt lat="47.25604" lon="-2.32671">
        <ele>9.6000003814697</ele>
        <time>2022-01-30T08:04:55.000Z</time>
      </trkpt>
      <trkpt lat="47.25601" lon="-2.32672">
        <ele>10</ele>
        <time>2022-01-30T08:04:56.000Z</time>
      </trkpt>
      <trkpt lat="47.25597" lon="-2.32673">
        <ele>10.39999961853</ele>
        <time>2022-01-30T08:04:57.000Z</time>
      </trkpt>
      <trkpt lat="47.25593" lon="-2.32675">
        <ele>10.800000190735</ele>
        <time>2022-01-30T08:04:58.000Z</time>
      </trkpt>
      <trkpt lat="47.25589" lon="-2.32676">
        <ele>11.199999809265</ele>
        <time>2022-01-30T08:04:59.000Z</time>
      </trkpt>
      <trkpt lat="47.25573" lon="-2.32684">
        <ele>11.199999809265</ele>
        <time>2022-01-30T08:05:03.000Z</time>
      </trkpt>
      <trkpt lat="47.25544" lon="-2.32695">
        <ele>11.199999809265</ele>
        <time>2022-01-30T08:05:10.000Z</time>
      </trkpt>
      <trkpt lat="47.25517" lon="-2.32702">
        <ele>11.199999809265</ele>
        <time>2022-01-30T08:05:16.000Z</time>
      </trkpt>
      <trkpt lat="47.25499" lon="-2.32703">
        <ele>11.199999809265</ele>
        <time>2022-01-30T08:05:20.000Z</time>
      </trkpt>
      <trkpt lat="47.25491" lon="-2.32706">
        <ele>11.199999809265</ele>
        <time>2022-01-30T08:05:22.000Z</time>
      </trkpt>
      <trkpt lat="47.25487" lon="-2.32708">
        <ele>11.199999809265</ele>
        <time>2022-01-30T08:05:23.000Z</time>
      </trkpt>
      <trkpt lat="47.25471" lon="-2.32722">
        <ele>11.199999809265</ele>
        <time>2022-01-30T08:05:27.000Z</time>
      </trkpt>
      <trkpt lat="47.25468" lon="-2.32727">
        <ele>11.199999809265</ele>
        <time>2022-01-30T08:05:28.000Z</time>
      </trkpt>
      <trkpt lat="47.25452" lon="-2.3275">
        <ele>11.199999809265</ele>
        <time>2022-01-30T08:05:33.000Z</time>
      </trkpt>
      <trkpt lat="47.25438" lon="-2.32775">
        <ele>11.199999809265</ele>
        <time>2022-01-30T08:05:38.000Z</time>
      </trkpt>
      <trkpt lat="47.25434" lon="-2.32786">
        <ele>11.199999809265</ele>
        <time>2022-01-30T08:05:40.000Z</time>
      </trkpt>
      <trkpt lat="47.25432" lon="-2.3279">
        <ele>11.199999809265</ele>
        <time>2022-01-30T08:05:41.000Z</time>
      </trkpt>
      <trkpt lat="47.25422" lon="-2.32804">
        <ele>11.199999809265</ele>
        <time>2022-01-30T08:05:44.000Z</time>
      </trkpt>
      <trkpt lat="47.25415" lon="-2.32813">
        <ele>10.800000190735</ele>
        <time>2022-01-30T08:05:46.000Z</time>
      </trkpt>
      <trkpt lat="47.25411" lon="-2.32818">
        <ele>10.39999961853</ele>
        <time>2022-01-30T08:05:47.000Z</time>
      </trkpt>
      <trkpt lat="47.25407" lon="-2.32823">
        <ele>10</ele>
        <time>2022-01-30T08:05:48.000Z</time>
      </trkpt>
      <trkpt lat="47.25404" lon="-2.32828">
        <ele>9.6000003814697</ele>
        <time>2022-01-30T08:05:49.000Z</time>
      </trkpt>
      <trkpt lat="47.254" lon="-2.32832">
        <ele>9.1999998092651</ele>
        <time>2022-01-30T08:05:50.000Z</time>
      </trkpt>
      <trkpt lat="47.25393" lon="-2.3284">
        <ele>9.1999998092651</ele>
        <time>2022-01-30T08:05:52.000Z</time>
      </trkpt>
      <trkpt lat="47.25383" lon="-2.32852">
        <ele>9.1999998092651</ele>
        <time>2022-01-30T08:05:55.000Z</time>
      </trkpt>
      <trkpt lat="47.25371" lon="-2.32862">
        <ele>9.1999998092651</ele>
        <time>2022-01-30T08:05:58.000Z</time>
      </trkpt>
      <trkpt lat="47.25353" lon="-2.32881">
        <ele>9.1999998092651</ele>
        <time>2022-01-30T08:06:03.000Z</time>
      </trkpt>
      <trkpt lat="47.25346" lon="-2.3289">
        <ele>9.1999998092651</ele>
        <time>2022-01-30T08:06:05.000Z</time>
      </trkpt>
      <trkpt lat="47.25321" lon="-2.32916">
        <ele>9.1999998092651</ele>
        <time>2022-01-30T08:06:12.000Z</time>
      </trkpt>
      <trkpt lat="47.25308" lon="-2.32934">
        <ele>9.1999998092651</ele>
        <time>2022-01-30T08:06:17.000Z</time>
      </trkpt>
      <trkpt lat="47.25311" lon="-2.32955">
        <ele>9.1999998092651</ele>
        <time>2022-01-30T08:06:21.000Z</time>
      </trkpt>
      <trkpt lat="47.25325" lon="-2.32997">
        <ele>9.1999998092651</ele>
        <time>2022-01-30T08:06:29.000Z</time>
      </trkpt>
      <trkpt lat="47.25338" lon="-2.33034">
        <ele>9.1999998092651</ele>
        <time>2022-01-30T08:06:36.000Z</time>
      </trkpt>
      <trkpt lat="47.25348" lon="-2.33061">
        <ele>9.1999998092651</ele>
        <time>2022-01-30T08:06:41.000Z</time>
      </trkpt>
      <trkpt lat="47.2535" lon="-2.33066">
        <ele>9.1999998092651</ele>
        <time>2022-01-30T08:06:42.000Z</time>
      </trkpt>
      <trkpt lat="47.25354" lon="-2.33077">
        <ele>8.8000001907349</ele>
        <time>2022-01-30T08:06:44.000Z</time>
      </trkpt>
      <trkpt lat="47.25356" lon="-2.33082">
        <ele>8.3999996185303</ele>
        <time>2022-01-30T08:06:45.000Z</time>
      </trkpt>
      <trkpt lat="47.25358" lon="-2.33086">
        <ele>8</ele>
        <time>2022-01-30T08:06:46.000Z</time>
      </trkpt>
      <trkpt lat="47.2536" lon="-2.33091">
        <ele>7.5999999046326</ele>
        <time>2022-01-30T08:06:47.000Z</time>
      </trkpt>
      <trkpt lat="47.25362" lon="-2.33095">
        <ele>7.1999998092651</ele>
        <time>2022-01-30T08:06:48.000Z</time>
      </trkpt>
      <trkpt lat="47.25366" lon="-2.33102">
        <ele>7.1999998092651</ele>
        <time>2022-01-30T08:06:50.000Z</time>
      </trkpt>
      <trkpt lat="47.25369" lon="-2.33115">
        <ele>7.1999998092651</ele>
        <time>2022-01-30T08:06:55.000Z</time>
      </trkpt>
      <trkpt lat="47.25369" lon="-2.33114">
        <ele>7.1999998092651</ele>
        <time>2022-01-30T08:06:56.000Z</time>
      </trkpt>
      <trkpt lat="47.25369" lon="-2.33118">
        <ele>7.1999998092651</ele>
        <time>2022-01-30T08:06:59.000Z</time>
      </trkpt>
      <trkpt lat="47.25369" lon="-2.33116">
        <ele>7.1999998092651</ele>
        <time>2022-01-30T08:07:01.000Z</time>
      </trkpt>
      <trkpt lat="47.25378" lon="-2.33119">
        <ele>5.1999998092651</ele>
        <time>2022-01-30T08:12:31.000Z</time>
      </trkpt>
      <trkpt lat="47.2538" lon="-2.33124">
        <ele>5.1999998092651</ele>
        <time>2022-01-30T08:12:34.000Z</time>
      </trkpt>
      <trkpt lat="47.25385" lon="-2.33135">
        <ele>5.1999998092651</ele>
        <time>2022-01-30T08:12:39.000Z</time>
      </trkpt>
      <trkpt lat="47.25389" lon="-2.33137">
        <ele>5.1999998092651</ele>
        <time>2022-01-30T08:12:41.000Z</time>
      </trkpt>
      <trkpt lat="47.25398" lon="-2.3313">
        <ele>5.1999998092651</ele>
        <time>2022-01-30T08:12:45.000Z</time>
      </trkpt>
      <trkpt lat="47.25421" lon="-2.33118">
        <ele>5.1999998092651</ele>
        <time>2022-01-30T08:12:53.000Z</time>
      </trkpt>
      <trkpt lat="47.25445" lon="-2.33109">
        <ele>5.1999998092651</ele>
        <time>2022-01-30T08:13:00.000Z</time>
      </trkpt>
      <trkpt lat="47.25472" lon="-2.33095">
        <ele>5.1999998092651</ele>
        <time>2022-01-30T08:13:08.000Z</time>
      </trkpt>
      <trkpt lat="47.25489" lon="-2.33082">
        <ele>5.1999998092651</ele>
        <time>2022-01-30T08:13:14.000Z</time>
      </trkpt>
      <trkpt lat="47.25497" lon="-2.33078">
        <ele>5.1999998092651</ele>
        <time>2022-01-30T08:13:17.000Z</time>
      </trkpt>
      <trkpt lat="47.255" lon="-2.33081">
        <ele>5.1999998092651</ele>
        <time>2022-01-30T08:13:18.000Z</time>
      </trkpt>
      <trkpt lat="47.25499" lon="-2.33096">
        <ele>5.1999998092651</ele>
        <time>2022-01-30T08:13:21.000Z</time>
      </trkpt>
      <trkpt lat="47.25501" lon="-2.3312">
        <ele>5.1999998092651</ele>
        <time>2022-01-30T08:13:25.000Z</time>
      </trkpt>
      <trkpt lat="47.25502" lon="-2.33127">
        <ele>5.1999998092651</ele>
        <time>2022-01-30T08:13:26.000Z</time>
      </trkpt>
      <trkpt lat="47.25508" lon="-2.33182">
        <ele>5.1999998092651</ele>
        <time>2022-01-30T08:13:35.000Z</time>
      </trkpt>
      <trkpt lat="47.25515" lon="-2.33231">
        <ele>5.1999998092651</ele>
        <time>2022-01-30T08:13:43.000Z</time>
      </trkpt>
      <trkpt lat="47.25522" lon="-2.33286">
        <ele>5.1999998092651</ele>
        <time>2022-01-30T08:13:52.000Z</time>
      </trkpt>
      <trkpt lat="47.2553" lon="-2.33338">
        <ele>5.1999998092651</ele>
        <time>2022-01-30T08:14:01.000Z</time>
      </trkpt>
      <trkpt lat="47.25537" lon="-2.33387">
        <ele>5.1999998092651</ele>
        <time>2022-01-30T08:14:09.000Z</time>
      </trkpt>
      <trkpt lat="47.2555" lon="-2.3344">
        <ele>5.1999998092651</ele>
        <time>2022-01-30T08:14:17.000Z</time>
      </trkpt>
      <trkpt lat="47.25554" lon="-2.33452">
        <ele>5.1999998092651</ele>
        <time>2022-01-30T08:14:19.000Z</time>
      </trkpt>
      <trkpt lat="47.25568" lon="-2.3348">
        <ele>5.1999998092651</ele>
        <time>2022-01-30T08:14:24.000Z</time>
      </trkpt>
      <trkpt lat="47.2559" lon="-2.33518">
        <ele>5.1999998092651</ele>
        <time>2022-01-30T08:14:31.000Z</time>
      </trkpt>
      <trkpt lat="47.25614" lon="-2.33544">
        <ele>5.1999998092651</ele>
        <time>2022-01-30T08:14:37.000Z</time>
      </trkpt>
      <trkpt lat="47.25648" lon="-2.33568">
        <ele>5.1999998092651</ele>
        <time>2022-01-30T08:14:44.000Z</time>
      </trkpt>
      <trkpt lat="47.25654" lon="-2.33569">
        <ele>5.1999998092651</ele>
        <time>2022-01-30T08:14:45.000Z</time>
      </trkpt>
      <trkpt lat="47.25682" lon="-2.33577">
        <ele>5.1999998092651</ele>
        <time>2022-01-30T08:14:50.000Z</time>
      </trkpt>
      <trkpt lat="47.25698" lon="-2.33579">
        <ele>5.1999998092651</ele>
        <time>2022-01-30T08:14:53.000Z</time>
      </trkpt>
      <trkpt lat="47.25714" lon="-2.33578">
        <ele>5.1999998092651</ele>
        <time>2022-01-30T08:14:56.000Z</time>
      </trkpt>
      <trkpt lat="47.25758" lon="-2.33576">
        <ele>5.1999998092651</ele>
        <time>2022-01-30T08:15:04.000Z</time>
      </trkpt>
      <trkpt lat="47.25808" lon="-2.33572">
        <ele>5.1999998092651</ele>
        <time>2022-01-30T08:15:13.000Z</time>
      </trkpt>
      <trkpt lat="47.25854" lon="-2.33571">
        <ele>5.1999998092651</ele>
        <time>2022-01-30T08:15:21.000Z</time>
      </trkpt>
      <trkpt lat="47.25876" lon="-2.33566">
        <ele>5.1999998092651</ele>
        <time>2022-01-30T08:15:25.000Z</time>
      </trkpt>
      <trkpt lat="47.25886" lon="-2.3356">
        <ele>5.1999998092651</ele>
        <time>2022-01-30T08:15:27.000Z</time>
      </trkpt>
      <trkpt lat="47.25901" lon="-2.33551">
        <ele>4.8000001907349</ele>
        <time>2022-01-30T08:15:30.000Z</time>
      </trkpt>
      <trkpt lat="47.25906" lon="-2.33546">
        <ele>4.4000000953674</ele>
        <time>2022-01-30T08:15:31.000Z</time>
      </trkpt>
      <trkpt lat="47.25911" lon="-2.33542">
        <ele>4</ele>
        <time>2022-01-30T08:15:32.000Z</time>
      </trkpt>
      <trkpt lat="47.25917" lon="-2.33537">
        <ele>3.5999999046326</ele>
        <time>2022-01-30T08:15:33.000Z</time>
      </trkpt>
      <trkpt lat="47.25922" lon="-2.33533">
        <ele>3.2000000476837</ele>
        <time>2022-01-30T08:15:34.000Z</time>
      </trkpt>
      <trkpt lat="47.25948" lon="-2.33509">
        <ele>3.2000000476837</ele>
        <time>2022-01-30T08:15:39.000Z</time>
      </trkpt>
      <trkpt lat="47.25963" lon="-2.33495">
        <ele>2.7999999523163</ele>
        <time>2022-01-30T08:15:42.000Z</time>
      </trkpt>
      <trkpt lat="47.25968" lon="-2.33492">
        <ele>2.4000000953674</ele>
        <time>2022-01-30T08:15:43.000Z</time>
      </trkpt>
      <trkpt lat="47.25973" lon="-2.33491">
        <ele>2</ele>
        <time>2022-01-30T08:15:44.000Z</time>
      </trkpt>
      <trkpt lat="47.25979" lon="-2.33491">
        <ele>1.6000000238419</ele>
        <time>2022-01-30T08:15:45.000Z</time>
      </trkpt>
      <trkpt lat="47.25985" lon="-2.3349">
        <ele>1.2000000476837</ele>
        <time>2022-01-30T08:15:46.000Z</time>
      </trkpt>
      <trkpt lat="47.26" lon="-2.33489">
        <ele>1.2000000476837</ele>
        <time>2022-01-30T08:15:49.000Z</time>
      </trkpt>
      <trkpt lat="47.26024" lon="-2.33482">
        <ele>1.2000000476837</ele>
        <time>2022-01-30T08:15:54.000Z</time>
      </trkpt>
      <trkpt lat="47.26036" lon="-2.33473">
        <ele>1.2000000476837</ele>
        <time>2022-01-30T08:15:57.000Z</time>
      </trkpt>
      <trkpt lat="47.26046" lon="-2.33453">
        <ele>1.2000000476837</ele>
        <time>2022-01-30T08:16:01.000Z</time>
      </trkpt>
      <trkpt lat="47.26056" lon="-2.33439">
        <ele>1.2000000476837</ele>
        <time>2022-01-30T08:16:04.000Z</time>
      </trkpt>
      <trkpt lat="47.26063" lon="-2.33428">
        <ele>1.2000000476837</ele>
        <time>2022-01-30T08:16:06.000Z</time>
      </trkpt>
      <trkpt lat="47.26074" lon="-2.33404">
        <ele>1.2000000476837</ele>
        <time>2022-01-30T08:16:10.000Z</time>
      </trkpt>
      <trkpt lat="47.26078" lon="-2.33399">
        <ele>1.2000000476837</ele>
        <time>2022-01-30T08:16:11.000Z</time>
      </trkpt>
      <trkpt lat="47.26083" lon="-2.33397">
        <ele>1.2000000476837</ele>
        <time>2022-01-30T08:16:12.000Z</time>
      </trkpt>
      <trkpt lat="47.26093" lon="-2.33398">
        <ele>1.2000000476837</ele>
        <time>2022-01-30T08:16:14.000Z</time>
      </trkpt>
      <trkpt lat="47.26108" lon="-2.33409">
        <ele>1.2000000476837</ele>
        <time>2022-01-30T08:16:17.000Z</time>
      </trkpt>
      <trkpt lat="47.26112" lon="-2.33415">
        <ele>1.2000000476837</ele>
        <time>2022-01-30T08:16:18.000Z</time>
      </trkpt>
      <trkpt lat="47.26128" lon="-2.33434">
        <ele>1.2000000476837</ele>
        <time>2022-01-30T08:16:22.000Z</time>
      </trkpt>
      <trkpt lat="47.26139" lon="-2.33433">
        <ele>1.2000000476837</ele>
        <time>2022-01-30T08:16:25.000Z</time>
      </trkpt>
      <trkpt lat="47.26142" lon="-2.33431">
        <ele>1.2000000476837</ele>
        <time>2022-01-30T08:16:26.000Z</time>
      </trkpt>
      <trkpt lat="47.26146" lon="-2.33429">
        <ele>1.2000000476837</ele>
        <time>2022-01-30T08:16:27.000Z</time>
      </trkpt>
      <trkpt lat="47.26154" lon="-2.33432">
        <ele>1.2000000476837</ele>
        <time>2022-01-30T08:16:29.000Z</time>
      </trkpt>
      <trkpt lat="47.26163" lon="-2.33436">
        <ele>1.2000000476837</ele>
        <time>2022-01-30T08:16:31.000Z</time>
      </trkpt>
      <trkpt lat="47.26172" lon="-2.33439">
        <ele>1.2000000476837</ele>
        <time>2022-01-30T08:16:33.000Z</time>
      </trkpt>
      <trkpt lat="47.26181" lon="-2.33439">
        <ele>1.2000000476837</ele>
        <time>2022-01-30T08:16:35.000Z</time>
      </trkpt>
      <trkpt lat="47.26195" lon="-2.33435">
        <ele>1.2000000476837</ele>
        <time>2022-01-30T08:16:38.000Z</time>
      </trkpt>
      <trkpt lat="47.262" lon="-2.33434">
        <ele>1.2000000476837</ele>
        <time>2022-01-30T08:16:39.000Z</time>
      </trkpt>
      <trkpt lat="47.26229" lon="-2.33427">
        <ele>1.2000000476837</ele>
        <time>2022-01-30T08:16:45.000Z</time>
      </trkpt>
      <trkpt lat="47.26238" lon="-2.33424">
        <ele>1.2000000476837</ele>
        <time>2022-01-30T08:16:47.000Z</time>
      </trkpt>
      <trkpt lat="47.26248" lon="-2.33423">
        <ele>1.2000000476837</ele>
        <time>2022-01-30T08:16:49.000Z</time>
      </trkpt>
      <trkpt lat="47.26252" lon="-2.33423">
        <ele>1.2000000476837</ele>
        <time>2022-01-30T08:16:50.000Z</time>
      </trkpt>
      <trkpt lat="47.26257" lon="-2.33427">
        <ele>1.2000000476837</ele>
        <time>2022-01-30T08:16:51.000Z</time>
      </trkpt>
      <trkpt lat="47.26268" lon="-2.33427">
        <ele>1.2000000476837</ele>
        <time>2022-01-30T08:16:53.000Z</time>
      </trkpt>
      <trkpt lat="47.26277" lon="-2.33425">
        <ele>1.2000000476837</ele>
        <time>2022-01-30T08:16:55.000Z</time>
      </trkpt>
      <trkpt lat="47.26297" lon="-2.3342">
        <ele>1.2000000476837</ele>
        <time>2022-01-30T08:16:59.000Z</time>
      </trkpt>
      <trkpt lat="47.26307" lon="-2.33417">
        <ele>1.2000000476837</ele>
        <time>2022-01-30T08:17:01.000Z</time>
      </trkpt>
      <trkpt lat="47.26319" lon="-2.33406">
        <ele>1.2000000476837</ele>
        <time>2022-01-30T08:17:04.000Z</time>
      </trkpt>
      <trkpt lat="47.26323" lon="-2.33402">
        <ele>1.2000000476837</ele>
        <time>2022-01-30T08:17:05.000Z</time>
      </trkpt>
      <trkpt lat="47.26343" lon="-2.3339">
        <ele>1.2000000476837</ele>
        <time>2022-01-30T08:17:09.000Z</time>
      </trkpt>
      <trkpt lat="47.26383" lon="-2.33368">
        <ele>1.2000000476837</ele>
        <time>2022-01-30T08:17:17.000Z</time>
      </trkpt>
      <trkpt lat="47.26421" lon="-2.33342">
        <ele>1.2000000476837</ele>
        <time>2022-01-30T08:17:25.000Z</time>
      </trkpt>
      <trkpt lat="47.26426" lon="-2.33339">
        <ele>1.2000000476837</ele>
        <time>2022-01-30T08:17:26.000Z</time>
      </trkpt>
      <trkpt lat="47.26463" lon="-2.3331">
        <ele>1.2000000476837</ele>
        <time>2022-01-30T08:17:34.000Z</time>
      </trkpt>
      <trkpt lat="47.26487" lon="-2.33283">
        <ele>1.2000000476837</ele>
        <time>2022-01-30T08:17:40.000Z</time>
      </trkpt>
      <trkpt lat="47.26493" lon="-2.33277">
        <ele>1.2000000476837</ele>
        <time>2022-01-30T08:17:42.000Z</time>
      </trkpt>
      <trkpt lat="47.26497" lon="-2.33277">
        <ele>1.2000000476837</ele>
        <time>2022-01-30T08:17:43.000Z</time>
      </trkpt>
      <trkpt lat="47.26509" lon="-2.33284">
        <ele>1.2000000476837</ele>
        <time>2022-01-30T08:17:46.000Z</time>
      </trkpt>
      <trkpt lat="47.26513" lon="-2.33288">
        <ele>1.2000000476837</ele>
        <time>2022-01-30T08:17:47.000Z</time>
      </trkpt>
      <trkpt lat="47.26521" lon="-2.33295">
        <ele>1.2000000476837</ele>
        <time>2022-01-30T08:17:49.000Z</time>
      </trkpt>
      <trkpt lat="47.26526" lon="-2.33306">
        <ele>1.2000000476837</ele>
        <time>2022-01-30T08:17:51.000Z</time>
      </trkpt>
      <trkpt lat="47.26528" lon="-2.33336">
        <ele>1.2000000476837</ele>
        <time>2022-01-30T08:17:55.000Z</time>
      </trkpt>
      <trkpt lat="47.26531" lon="-2.33359">
        <ele>1.2000000476837</ele>
        <time>2022-01-30T08:17:58.000Z</time>
      </trkpt>
      <trkpt lat="47.26533" lon="-2.33367">
        <ele>1.2000000476837</ele>
        <time>2022-01-30T08:17:59.000Z</time>
      </trkpt>
      <trkpt lat="47.26537" lon="-2.33383">
        <ele>1.2000000476837</ele>
        <time>2022-01-30T08:18:01.000Z</time>
      </trkpt>
      <trkpt lat="47.26544" lon="-2.33414">
        <ele>1.2000000476837</ele>
        <time>2022-01-30T08:18:05.000Z</time>
      </trkpt>
      <trkpt lat="47.26553" lon="-2.33469">
        <ele>1.2000000476837</ele>
        <time>2022-01-30T08:18:12.000Z</time>
      </trkpt>
      <trkpt lat="47.26556" lon="-2.33491">
        <ele>1.2000000476837</ele>
        <time>2022-01-30T08:18:15.000Z</time>
      </trkpt>
      <trkpt lat="47.26562" lon="-2.33511">
        <ele>1.2000000476837</ele>
        <time>2022-01-30T08:18:18.000Z</time>
      </trkpt>
      <trkpt lat="47.26563" lon="-2.33517">
        <ele>1.2000000476837</ele>
        <time>2022-01-30T08:18:19.000Z</time>
      </trkpt>
      <trkpt lat="47.26567" lon="-2.33547">
        <ele>1.2000000476837</ele>
        <time>2022-01-30T08:18:23.000Z</time>
      </trkpt>
      <trkpt lat="47.26572" lon="-2.33592">
        <ele>1.2000000476837</ele>
        <time>2022-01-30T08:18:29.000Z</time>
      </trkpt>
      <trkpt lat="47.26573" lon="-2.336">
        <ele>1.2000000476837</ele>
        <time>2022-01-30T08:18:30.000Z</time>
      </trkpt>
      <trkpt lat="47.26575" lon="-2.33614">
        <ele>1.2000000476837</ele>
        <time>2022-01-30T08:18:32.000Z</time>
      </trkpt>
      <trkpt lat="47.26578" lon="-2.33636">
        <ele>1.2000000476837</ele>
        <time>2022-01-30T08:18:35.000Z</time>
      </trkpt>
      <trkpt lat="47.26581" lon="-2.33656">
        <ele>1.2000000476837</ele>
        <time>2022-01-30T08:18:38.000Z</time>
      </trkpt>
      <trkpt lat="47.26582" lon="-2.33661">
        <ele>1.6000000238419</ele>
        <time>2022-01-30T08:18:39.000Z</time>
      </trkpt>
      <trkpt lat="47.26584" lon="-2.33666">
        <ele>2</ele>
        <time>2022-01-30T08:18:40.000Z</time>
      </trkpt>
      <trkpt lat="47.26587" lon="-2.33671">
        <ele>2.4000000953674</ele>
        <time>2022-01-30T08:18:41.000Z</time>
      </trkpt>
      <trkpt lat="47.26589" lon="-2.33676">
        <ele>2.7999999523163</ele>
        <time>2022-01-30T08:18:42.000Z</time>
      </trkpt>
      <trkpt lat="47.26592" lon="-2.33681">
        <ele>3.2000000476837</ele>
        <time>2022-01-30T08:18:43.000Z</time>
      </trkpt>
      <trkpt lat="47.266" lon="-2.33693">
        <ele>3.2000000476837</ele>
        <time>2022-01-30T08:18:46.000Z</time>
      </trkpt>
      <trkpt lat="47.26616" lon="-2.33699">
        <ele>3.2000000476837</ele>
        <time>2022-01-30T08:18:50.000Z</time>
      </trkpt>
      <trkpt lat="47.26639" lon="-2.33698">
        <ele>3.2000000476837</ele>
        <time>2022-01-30T08:18:55.000Z</time>
      </trkpt>
      <trkpt lat="47.2666" lon="-2.33697">
        <ele>3.2000000476837</ele>
        <time>2022-01-30T08:18:59.000Z</time>
      </trkpt>
      <trkpt lat="47.26675" lon="-2.33698">
        <ele>3.2000000476837</ele>
        <time>2022-01-30T08:19:02.000Z</time>
      </trkpt>
      <trkpt lat="47.2671" lon="-2.33697">
        <ele>3.2000000476837</ele>
        <time>2022-01-30T08:19:08.000Z</time>
      </trkpt>
      <trkpt lat="47.26759" lon="-2.33698">
        <ele>3.2000000476837</ele>
        <time>2022-01-30T08:19:17.000Z</time>
      </trkpt>
      <trkpt lat="47.26772" lon="-2.337">
        <ele>3.2000000476837</ele>
        <time>2022-01-30T08:19:20.000Z</time>
      </trkpt>
      <trkpt lat="47.26778" lon="-2.33693">
        <ele>3.2000000476837</ele>
        <time>2022-01-30T08:19:22.000Z</time>
      </trkpt>
      <trkpt lat="47.26778" lon="-2.33674">
        <ele>3.2000000476837</ele>
        <time>2022-01-30T08:19:25.000Z</time>
      </trkpt>
      <trkpt lat="47.26778" lon="-2.33659">
        <ele>3.2000000476837</ele>
        <time>2022-01-30T08:19:27.000Z</time>
      </trkpt>
      <trkpt lat="47.26778" lon="-2.33626">
        <ele>3.2000000476837</ele>
        <time>2022-01-30T08:19:31.000Z</time>
      </trkpt>
      <trkpt lat="47.2678" lon="-2.33577">
        <ele>2.7999999523163</ele>
        <time>2022-01-30T08:19:37.000Z</time>
      </trkpt>
      <trkpt lat="47.26781" lon="-2.33571">
        <ele>2.4000000953674</ele>
        <time>2022-01-30T08:19:38.000Z</time>
      </trkpt>
      <trkpt lat="47.26785" lon="-2.33566">
        <ele>2</ele>
        <time>2022-01-30T08:19:39.000Z</time>
      </trkpt>
      <trkpt lat="47.26789" lon="-2.33563">
        <ele>1.6000000238419</ele>
        <time>2022-01-30T08:19:40.000Z</time>
      </trkpt>
      <trkpt lat="47.26794" lon="-2.3356">
        <ele>1.2000000476837</ele>
        <time>2022-01-30T08:19:41.000Z</time>
      </trkpt>
      <trkpt lat="47.26818" lon="-2.3355">
        <ele>1.2000000476837</ele>
        <time>2022-01-30T08:19:46.000Z</time>
      </trkpt>
      <trkpt lat="47.26823" lon="-2.33549">
        <ele>1.2000000476837</ele>
        <time>2022-01-30T08:19:47.000Z</time>
      </trkpt>
      <trkpt lat="47.26854" lon="-2.33537">
        <ele>1.2000000476837</ele>
        <time>2022-01-30T08:19:53.000Z</time>
      </trkpt>
      <trkpt lat="47.2688" lon="-2.3353">
        <ele>1.2000000476837</ele>
        <time>2022-01-30T08:19:58.000Z</time>
      </trkpt>
      <trkpt lat="47.26885" lon="-2.33526">
        <ele>1.2000000476837</ele>
        <time>2022-01-30T08:19:59.000Z</time>
      </trkpt>
      <trkpt lat="47.26889" lon="-2.33511">
        <ele>1.2000000476837</ele>
        <time>2022-01-30T08:20:02.000Z</time>
      </trkpt>
      <trkpt lat="47.26888" lon="-2.33506">
        <ele>1.6000000238419</ele>
        <time>2022-01-30T08:20:03.000Z</time>
      </trkpt>
      <trkpt lat="47.26887" lon="-2.33501">
        <ele>2</ele>
        <time>2022-01-30T08:20:04.000Z</time>
      </trkpt>
      <trkpt lat="47.26886" lon="-2.33496">
        <ele>2.4000000953674</ele>
        <time>2022-01-30T08:20:05.000Z</time>
      </trkpt>
      <trkpt lat="47.26884" lon="-2.33491">
        <ele>3.2000000476837</ele>
        <time>2022-01-30T08:20:06.000Z</time>
      </trkpt>
      <trkpt lat="47.26883" lon="-2.33485">
        <ele>3.2000000476837</ele>
        <time>2022-01-30T08:20:07.000Z</time>
      </trkpt>
      <trkpt lat="47.26883" lon="-2.3348">
        <ele>3.5999999046326</ele>
        <time>2022-01-30T08:20:08.000Z</time>
      </trkpt>
      <trkpt lat="47.26883" lon="-2.33476">
        <ele>4</ele>
        <time>2022-01-30T08:20:09.000Z</time>
      </trkpt>
      <trkpt lat="47.26882" lon="-2.33471">
        <ele>4.4000000953674</ele>
        <time>2022-01-30T08:20:10.000Z</time>
      </trkpt>
      <trkpt lat="47.26881" lon="-2.33467">
        <ele>4.8000001907349</ele>
        <time>2022-01-30T08:20:11.000Z</time>
      </trkpt>
      <trkpt lat="47.2688" lon="-2.33464">
        <ele>5.4000000953674</ele>
        <time>2022-01-30T08:20:12.000Z</time>
      </trkpt>
      <trkpt lat="47.26879" lon="-2.33455">
        <ele>5.8000001907349</ele>
        <time>2022-01-30T08:20:14.000Z</time>
      </trkpt>
      <trkpt lat="47.26878" lon="-2.33449">
        <ele>6.1999998092651</ele>
        <time>2022-01-30T08:20:15.000Z</time>
      </trkpt>
      <trkpt lat="47.26878" lon="-2.33444">
        <ele>6.5999999046326</ele>
        <time>2022-01-30T08:20:16.000Z</time>
      </trkpt>
      <trkpt lat="47.26877" lon="-2.3344">
        <ele>7</ele>
        <time>2022-01-30T08:20:17.000Z</time>
      </trkpt>
      <trkpt lat="47.26878" lon="-2.33435">
        <ele>7.5999999046326</ele>
        <time>2022-01-30T08:20:18.000Z</time>
      </trkpt>
      <trkpt lat="47.26885" lon="-2.33418">
        <ele>8</ele>
        <time>2022-01-30T08:20:23.000Z</time>
      </trkpt>
      <trkpt lat="47.26887" lon="-2.33415">
        <ele>8.3999996185303</ele>
        <time>2022-01-30T08:20:24.000Z</time>
      </trkpt>
      <trkpt lat="47.2689" lon="-2.33413">
        <ele>8.8000001907349</ele>
        <time>2022-01-30T08:20:25.000Z</time>
      </trkpt>
      <trkpt lat="47.26893" lon="-2.33411">
        <ele>9.1999998092651</ele>
        <time>2022-01-30T08:20:26.000Z</time>
      </trkpt>
      <trkpt lat="47.26896" lon="-2.3341">
        <ele>9.6000003814697</ele>
        <time>2022-01-30T08:20:27.000Z</time>
      </trkpt>
      <trkpt lat="47.26899" lon="-2.33409">
        <ele>9.6000003814697</ele>
        <time>2022-01-30T08:20:28.000Z</time>
      </trkpt>
      <trkpt lat="47.26919" lon="-2.33398">
        <ele>9.6000003814697</ele>
        <time>2022-01-30T08:20:34.000Z</time>
      </trkpt>
      <trkpt lat="47.26936" lon="-2.3339">
        <ele>9.6000003814697</ele>
        <time>2022-01-30T08:20:39.000Z</time>
      </trkpt>
      <trkpt lat="47.26958" lon="-2.3338">
        <ele>9.6000003814697</ele>
        <time>2022-01-30T08:20:45.000Z</time>
      </trkpt>
      <trkpt lat="47.2697" lon="-2.33371">
        <ele>9.6000003814697</ele>
        <time>2022-01-30T08:20:49.000Z</time>
      </trkpt>
      <trkpt lat="47.2697" lon="-2.33367">
        <ele>9.6000003814697</ele>
        <time>2022-01-30T08:20:50.000Z</time>
      </trkpt>
      <trkpt lat="47.26966" lon="-2.33353">
        <ele>9.6000003814697</ele>
        <time>2022-01-30T08:20:53.000Z</time>
      </trkpt>
      <trkpt lat="47.26964" lon="-2.33348">
        <ele>9.6000003814697</ele>
        <time>2022-01-30T08:20:54.000Z</time>
      </trkpt>
      <trkpt lat="47.26956" lon="-2.33325">
        <ele>9.6000003814697</ele>
        <time>2022-01-30T08:20:58.000Z</time>
      </trkpt>
      <trkpt lat="47.2695" lon="-2.33306">
        <ele>9.6000003814697</ele>
        <time>2022-01-30T08:21:01.000Z</time>
      </trkpt>
      <trkpt lat="47.26933" lon="-2.33254">
        <ele>9.6000003814697</ele>
        <time>2022-01-30T08:21:09.000Z</time>
      </trkpt>
      <trkpt lat="47.2693" lon="-2.33242">
        <ele>10</ele>
        <time>2022-01-30T08:21:11.000Z</time>
      </trkpt>
      <trkpt lat="47.26929" lon="-2.33235">
        <ele>10.39999961853</ele>
        <time>2022-01-30T08:21:12.000Z</time>
      </trkpt>
      <trkpt lat="47.2693" lon="-2.33228">
        <ele>10.800000190735</ele>
        <time>2022-01-30T08:21:13.000Z</time>
      </trkpt>
      <trkpt lat="47.26931" lon="-2.33223">
        <ele>11.199999809265</ele>
        <time>2022-01-30T08:21:14.000Z</time>
      </trkpt>
      <trkpt lat="47.26933" lon="-2.33218">
        <ele>11.60000038147</ele>
        <time>2022-01-30T08:21:15.000Z</time>
      </trkpt>
      <trkpt lat="47.2694" lon="-2.33213">
        <ele>11.60000038147</ele>
        <time>2022-01-30T08:21:17.000Z</time>
      </trkpt>
      <trkpt lat="47.26949" lon="-2.33209">
        <ele>11.60000038147</ele>
        <time>2022-01-30T08:21:19.000Z</time>
      </trkpt>
      <trkpt lat="47.26963" lon="-2.33201">
        <ele>11.60000038147</ele>
        <time>2022-01-30T08:21:22.000Z</time>
      </trkpt>
      <trkpt lat="47.26972" lon="-2.33193">
        <ele>11.60000038147</ele>
        <time>2022-01-30T08:21:24.000Z</time>
      </trkpt>
      <trkpt lat="47.26984" lon="-2.33178">
        <ele>11.60000038147</ele>
        <time>2022-01-30T08:21:27.000Z</time>
      </trkpt>
      <trkpt lat="47.26993" lon="-2.33168">
        <ele>11.60000038147</ele>
        <time>2022-01-30T08:21:29.000Z</time>
      </trkpt>
      <trkpt lat="47.27007" lon="-2.33157">
        <ele>11.60000038147</ele>
        <time>2022-01-30T08:21:32.000Z</time>
      </trkpt>
      <trkpt lat="47.27012" lon="-2.33153">
        <ele>11.60000038147</ele>
        <time>2022-01-30T08:21:33.000Z</time>
      </trkpt>
      <trkpt lat="47.27031" lon="-2.33133">
        <ele>11.60000038147</ele>
        <time>2022-01-30T08:21:37.000Z</time>
      </trkpt>
      <trkpt lat="47.27066" lon="-2.33096">
        <ele>11.60000038147</ele>
        <time>2022-01-30T08:21:44.000Z</time>
      </trkpt>
      <trkpt lat="47.27101" lon="-2.3306">
        <ele>11.60000038147</ele>
        <time>2022-01-30T08:21:51.000Z</time>
      </trkpt>
      <trkpt lat="47.27128" lon="-2.33039">
        <ele>12</ele>
        <time>2022-01-30T08:21:56.000Z</time>
      </trkpt>
      <trkpt lat="47.27133" lon="-2.33035">
        <ele>12.39999961853</ele>
        <time>2022-01-30T08:21:57.000Z</time>
      </trkpt>
      <trkpt lat="47.27138" lon="-2.33031">
        <ele>12.800000190735</ele>
        <time>2022-01-30T08:21:58.000Z</time>
      </trkpt>
      <trkpt lat="47.27143" lon="-2.33027">
        <ele>13.199999809265</ele>
        <time>2022-01-30T08:21:59.000Z</time>
      </trkpt>
      <trkpt lat="47.27149" lon="-2.33023">
        <ele>13.60000038147</ele>
        <time>2022-01-30T08:22:00.000Z</time>
      </trkpt>
      <trkpt lat="47.27164" lon="-2.33011">
        <ele>13.60000038147</ele>
        <time>2022-01-30T08:22:03.000Z</time>
      </trkpt>
      <trkpt lat="47.27209" lon="-2.32982">
        <ele>13.60000038147</ele>
        <time>2022-01-30T08:22:11.000Z</time>
      </trkpt>
      <trkpt lat="47.27223" lon="-2.32985">
        <ele>13.60000038147</ele>
        <time>2022-01-30T08:22:14.000Z</time>
      </trkpt>
      <trkpt lat="47.27229" lon="-2.32996">
        <ele>13.60000038147</ele>
        <time>2022-01-30T08:22:16.000Z</time>
      </trkpt>
      <trkpt lat="47.27239" lon="-2.33012">
        <ele>13.60000038147</ele>
        <time>2022-01-30T08:22:19.000Z</time>
      </trkpt>
      <trkpt lat="47.27258" lon="-2.33045">
        <ele>13.60000038147</ele>
        <time>2022-01-30T08:22:25.000Z</time>
      </trkpt>
      <trkpt lat="47.27275" lon="-2.33072">
        <ele>13.60000038147</ele>
        <time>2022-01-30T08:22:31.000Z</time>
      </trkpt>
      <trkpt lat="47.27297" lon="-2.33103">
        <ele>13.60000038147</ele>
        <time>2022-01-30T08:22:38.000Z</time>
      </trkpt>
      <trkpt lat="47.27307" lon="-2.33113">
        <ele>13.60000038147</ele>
        <time>2022-01-30T08:22:41.000Z</time>
      </trkpt>
      <trkpt lat="47.2731" lon="-2.33113">
        <ele>13.60000038147</ele>
        <time>2022-01-30T08:22:42.000Z</time>
      </trkpt>
      <trkpt lat="47.27317" lon="-2.33106">
        <ele>14</ele>
        <time>2022-01-30T08:22:44.000Z</time>
      </trkpt>
      <trkpt lat="47.27319" lon="-2.33102">
        <ele>14.39999961853</ele>
        <time>2022-01-30T08:22:45.000Z</time>
      </trkpt>
      <trkpt lat="47.27321" lon="-2.33097">
        <ele>14.800000190735</ele>
        <time>2022-01-30T08:22:46.000Z</time>
      </trkpt>
      <trkpt lat="47.27324" lon="-2.33091">
        <ele>15.199999809265</ele>
        <time>2022-01-30T08:22:47.000Z</time>
      </trkpt>
      <trkpt lat="47.27326" lon="-2.33085">
        <ele>15.60000038147</ele>
        <time>2022-01-30T08:22:48.000Z</time>
      </trkpt>
      <trkpt lat="47.27332" lon="-2.33066">
        <ele>15.60000038147</ele>
        <time>2022-01-30T08:22:51.000Z</time>
      </trkpt>
      <trkpt lat="47.27343" lon="-2.33033">
        <ele>15.60000038147</ele>
        <time>2022-01-30T08:22:56.000Z</time>
      </trkpt>
      <trkpt lat="47.27345" lon="-2.33026">
        <ele>15.60000038147</ele>
        <time>2022-01-30T08:22:57.000Z</time>
      </trkpt>
      <trkpt lat="47.27358" lon="-2.32988">
        <ele>15.60000038147</ele>
        <time>2022-01-30T08:23:03.000Z</time>
      </trkpt>
      <trkpt lat="47.27364" lon="-2.32977">
        <ele>15.60000038147</ele>
        <time>2022-01-30T08:23:05.000Z</time>
      </trkpt>
      <trkpt lat="47.2738" lon="-2.32944">
        <ele>15.60000038147</ele>
        <time>2022-01-30T08:23:11.000Z</time>
      </trkpt>
      <trkpt lat="47.27383" lon="-2.32938">
        <ele>15.60000038147</ele>
        <time>2022-01-30T08:23:12.000Z</time>
      </trkpt>
      <trkpt lat="47.27392" lon="-2.32922">
        <ele>15.60000038147</ele>
        <time>2022-01-30T08:23:16.000Z</time>
      </trkpt>
      <trkpt lat="47.27399" lon="-2.32904">
        <ele>15.60000038147</ele>
        <time>2022-01-30T08:23:21.000Z</time>
      </trkpt>
      <trkpt lat="47.27409" lon="-2.32881">
        <ele>15.60000038147</ele>
        <time>2022-01-30T08:23:26.000Z</time>
      </trkpt>
      <trkpt lat="47.27411" lon="-2.32876">
        <ele>15.60000038147</ele>
        <time>2022-01-30T08:23:27.000Z</time>
      </trkpt>
      <trkpt lat="47.27416" lon="-2.32859">
        <ele>15.60000038147</ele>
        <time>2022-01-30T08:23:30.000Z</time>
      </trkpt>
      <trkpt lat="47.27427" lon="-2.32824">
        <ele>15.60000038147</ele>
        <time>2022-01-30T08:23:35.000Z</time>
      </trkpt>
      <trkpt lat="47.27429" lon="-2.32816">
        <ele>15.60000038147</ele>
        <time>2022-01-30T08:23:36.000Z</time>
      </trkpt>
      <trkpt lat="47.27433" lon="-2.32787">
        <ele>15.60000038147</ele>
        <time>2022-01-30T08:23:40.000Z</time>
      </trkpt>
      <trkpt lat="47.2744" lon="-2.3275">
        <ele>15.60000038147</ele>
        <time>2022-01-30T08:23:45.000Z</time>
      </trkpt>
      <trkpt lat="47.27444" lon="-2.32741">
        <ele>15.60000038147</ele>
        <time>2022-01-30T08:23:46.000Z</time>
      </trkpt>
      <trkpt lat="47.27471" lon="-2.3269">
        <ele>15.60000038147</ele>
        <time>2022-01-30T08:23:52.000Z</time>
      </trkpt>
      <trkpt lat="47.27495" lon="-2.32668">
        <ele>15.60000038147</ele>
        <time>2022-01-30T08:23:56.000Z</time>
      </trkpt>
      <trkpt lat="47.2751" lon="-2.32636">
        <ele>15.60000038147</ele>
        <time>2022-01-30T08:24:00.000Z</time>
      </trkpt>
      <trkpt lat="47.27513" lon="-2.32629">
        <ele>15.60000038147</ele>
        <time>2022-01-30T08:24:01.000Z</time>
      </trkpt>
      <trkpt lat="47.27523" lon="-2.32612">
        <ele>15.60000038147</ele>
        <time>2022-01-30T08:24:04.000Z</time>
      </trkpt>
      <trkpt lat="47.27539" lon="-2.32598">
        <ele>15.60000038147</ele>
        <time>2022-01-30T08:24:07.000Z</time>
      </trkpt>
      <trkpt lat="47.27546" lon="-2.32587">
        <ele>15.60000038147</ele>
        <time>2022-01-30T08:24:09.000Z</time>
      </trkpt>
      <trkpt lat="47.2755" lon="-2.32575">
        <ele>15.60000038147</ele>
        <time>2022-01-30T08:24:11.000Z</time>
      </trkpt>
      <trkpt lat="47.27549" lon="-2.32571">
        <ele>15.60000038147</ele>
        <time>2022-01-30T08:24:12.000Z</time>
      </trkpt>
      <trkpt lat="47.27541" lon="-2.32558">
        <ele>15.60000038147</ele>
        <time>2022-01-30T08:24:15.000Z</time>
      </trkpt>
      <trkpt lat="47.27535" lon="-2.32533">
        <ele>15.60000038147</ele>
        <time>2022-01-30T08:24:20.000Z</time>
      </trkpt>
      <trkpt lat="47.27537" lon="-2.32522">
        <ele>15.60000038147</ele>
        <time>2022-01-30T08:24:22.000Z</time>
      </trkpt>
      <trkpt lat="47.27541" lon="-2.32507">
        <ele>15.60000038147</ele>
        <time>2022-01-30T08:24:25.000Z</time>
      </trkpt>
      <trkpt lat="47.27554" lon="-2.32467">
        <ele>15.60000038147</ele>
        <time>2022-01-30T08:24:34.000Z</time>
      </trkpt>
      <trkpt lat="47.27562" lon="-2.32435">
        <ele>15.60000038147</ele>
        <time>2022-01-30T08:24:40.000Z</time>
      </trkpt>
      <trkpt lat="47.27571" lon="-2.32423">
        <ele>15.60000038147</ele>
        <time>2022-01-30T08:24:44.000Z</time>
      </trkpt>
      <trkpt lat="47.27576" lon="-2.32411">
        <ele>15.60000038147</ele>
        <time>2022-01-30T08:24:47.000Z</time>
      </trkpt>
      <trkpt lat="47.27576" lon="-2.32405">
        <ele>15.60000038147</ele>
        <time>2022-01-30T08:24:48.000Z</time>
      </trkpt>
      <trkpt lat="47.27577" lon="-2.32399">
        <ele>15.60000038147</ele>
        <time>2022-01-30T08:24:49.000Z</time>
      </trkpt>
      <trkpt lat="47.2758" lon="-2.32379">
        <ele>15.60000038147</ele>
        <time>2022-01-30T08:24:52.000Z</time>
      </trkpt>
      <trkpt lat="47.27582" lon="-2.32372">
        <ele>15.60000038147</ele>
        <time>2022-01-30T08:24:53.000Z</time>
      </trkpt>
      <trkpt lat="47.27599" lon="-2.32326">
        <ele>15.60000038147</ele>
        <time>2022-01-30T08:25:00.000Z</time>
      </trkpt>
      <trkpt lat="47.27606" lon="-2.32302">
        <ele>15.60000038147</ele>
        <time>2022-01-30T08:25:05.000Z</time>
      </trkpt>
      <trkpt lat="47.2761" lon="-2.32291">
        <ele>15.60000038147</ele>
        <time>2022-01-30T08:25:09.000Z</time>
      </trkpt>
      <trkpt lat="47.27609" lon="-2.32286">
        <ele>15.60000038147</ele>
        <time>2022-01-30T08:25:11.000Z</time>
      </trkpt>
      <trkpt lat="47.27603" lon="-2.32278">
        <ele>15.60000038147</ele>
        <time>2022-01-30T08:25:15.000Z</time>
      </trkpt>
      <trkpt lat="47.276" lon="-2.32276">
        <ele>15.60000038147</ele>
        <time>2022-01-30T08:25:16.000Z</time>
      </trkpt>
      <trkpt lat="47.27586" lon="-2.32267">
        <ele>15.60000038147</ele>
        <time>2022-01-30T08:25:20.000Z</time>
      </trkpt>
      <trkpt lat="47.27582" lon="-2.32263">
        <ele>15.60000038147</ele>
        <time>2022-01-30T08:25:21.000Z</time>
      </trkpt>
      <trkpt lat="47.27554" lon="-2.32239">
        <ele>15.60000038147</ele>
        <time>2022-01-30T08:25:27.000Z</time>
      </trkpt>
      <trkpt lat="47.27523" lon="-2.32209">
        <ele>15.60000038147</ele>
        <time>2022-01-30T08:25:34.000Z</time>
      </trkpt>
      <trkpt lat="47.27495" lon="-2.32172">
        <ele>15.60000038147</ele>
        <time>2022-01-30T08:25:40.000Z</time>
      </trkpt>
      <trkpt lat="47.27459" lon="-2.32126">
        <ele>15.60000038147</ele>
        <time>2022-01-30T08:25:47.000Z</time>
      </trkpt>
      <trkpt lat="47.27413" lon="-2.32069">
        <ele>15.60000038147</ele>
        <time>2022-01-30T08:25:56.000Z</time>
      </trkpt>
      <trkpt lat="47.27376" lon="-2.3203">
        <ele>15.60000038147</ele>
        <time>2022-01-30T08:26:02.000Z</time>
      </trkpt>
      <trkpt lat="47.27328" lon="-2.3198">
        <ele>15.60000038147</ele>
        <time>2022-01-30T08:26:09.000Z</time>
      </trkpt>
      <trkpt lat="47.27322" lon="-2.31973">
        <ele>15.60000038147</ele>
        <time>2022-01-30T08:26:10.000Z</time>
      </trkpt>
      <trkpt lat="47.27291" lon="-2.31947">
        <ele>15.60000038147</ele>
        <time>2022-01-30T08:26:15.000Z</time>
      </trkpt>
      <trkpt lat="47.27274" lon="-2.31939">
        <ele>15.60000038147</ele>
        <time>2022-01-30T08:26:18.000Z</time>
      </trkpt>
      <trkpt lat="47.27262" lon="-2.31935">
        <ele>15.60000038147</ele>
        <time>2022-01-30T08:26:20.000Z</time>
      </trkpt>
      <trkpt lat="47.27232" lon="-2.31926">
        <ele>15.60000038147</ele>
        <time>2022-01-30T08:26:26.000Z</time>
      </trkpt>
      <trkpt lat="47.27217" lon="-2.31923">
        <ele>15.60000038147</ele>
        <time>2022-01-30T08:26:30.000Z</time>
      </trkpt>
      <trkpt lat="47.27214" lon="-2.31926">
        <ele>15.60000038147</ele>
        <time>2022-01-30T08:26:31.000Z</time>
      </trkpt>
      <trkpt lat="47.27202" lon="-2.31945">
        <ele>15.60000038147</ele>
        <time>2022-01-30T08:26:35.000Z</time>
      </trkpt>
      <trkpt lat="47.27199" lon="-2.31949">
        <ele>15.60000038147</ele>
        <time>2022-01-30T08:26:36.000Z</time>
      </trkpt>
      <trkpt lat="47.27183" lon="-2.31963">
        <ele>15.60000038147</ele>
        <time>2022-01-30T08:26:40.000Z</time>
      </trkpt>
      <trkpt lat="47.27169" lon="-2.31985">
        <ele>15.60000038147</ele>
        <time>2022-01-30T08:26:44.000Z</time>
      </trkpt>
      <trkpt lat="47.27159" lon="-2.31991">
        <ele>15.60000038147</ele>
        <time>2022-01-30T08:26:47.000Z</time>
      </trkpt>
      <trkpt lat="47.27148" lon="-2.31983">
        <ele>15.60000038147</ele>
        <time>2022-01-30T08:26:51.000Z</time>
      </trkpt>
      <trkpt lat="47.27144" lon="-2.31981">
        <ele>15.60000038147</ele>
        <time>2022-01-30T08:26:52.000Z</time>
      </trkpt>
      <trkpt lat="47.27127" lon="-2.31967">
        <ele>15.60000038147</ele>
        <time>2022-01-30T08:26:57.000Z</time>
      </trkpt>
      <trkpt lat="47.27107" lon="-2.31959">
        <ele>15.60000038147</ele>
        <time>2022-01-30T08:27:03.000Z</time>
      </trkpt>
      <trkpt lat="47.27097" lon="-2.31956">
        <ele>15.60000038147</ele>
        <time>2022-01-30T08:27:08.000Z</time>
      </trkpt>
      <trkpt lat="47.27085" lon="-2.31956">
        <ele>15.60000038147</ele>
        <time>2022-01-30T08:27:15.000Z</time>
      </trkpt>
      <trkpt lat="47.27084" lon="-2.31955">
        <ele>15.60000038147</ele>
        <time>2022-01-30T08:27:17.000Z</time>
      </trkpt>
      <trkpt lat="47.27077" lon="-2.31955">
        <ele>13.60000038147</ele>
        <time>2022-01-30T08:27:36.000Z</time>
      </trkpt>
      <trkpt lat="47.27073" lon="-2.31956">
        <ele>13.60000038147</ele>
        <time>2022-01-30T08:27:38.000Z</time>
      </trkpt>
      <trkpt lat="47.27068" lon="-2.31957">
        <ele>13.60000038147</ele>
        <time>2022-01-30T08:27:43.000Z</time>
      </trkpt>
      <trkpt lat="47.27072" lon="-2.31954">
        <ele>11.60000038147</ele>
        <time>2022-01-30T08:28:08.000Z</time>
      </trkpt>
      <trkpt lat="47.27075" lon="-2.31943">
        <ele>11.60000038147</ele>
        <time>2022-01-30T08:28:12.000Z</time>
      </trkpt>
      <trkpt lat="47.27075" lon="-2.31936">
        <ele>11.60000038147</ele>
        <time>2022-01-30T08:28:14.000Z</time>
      </trkpt>
      <trkpt lat="47.27075" lon="-2.31933">
        <ele>11.199999809265</ele>
        <time>2022-01-30T08:28:15.000Z</time>
      </trkpt>
      <trkpt lat="47.27075" lon="-2.3193">
        <ele>10.800000190735</ele>
        <time>2022-01-30T08:28:16.000Z</time>
      </trkpt>
      <trkpt lat="47.27075" lon="-2.31927">
        <ele>10.39999961853</ele>
        <time>2022-01-30T08:28:17.000Z</time>
      </trkpt>
      <trkpt lat="47.27074" lon="-2.31923">
        <ele>10</ele>
        <time>2022-01-30T08:28:18.000Z</time>
      </trkpt>
      <trkpt lat="47.27074" lon="-2.31919">
        <ele>9.6000003814697</ele>
        <time>2022-01-30T08:28:19.000Z</time>
      </trkpt>
      <trkpt lat="47.27071" lon="-2.31891">
        <ele>9.6000003814697</ele>
        <time>2022-01-30T08:28:26.000Z</time>
      </trkpt>
      <trkpt lat="47.27075" lon="-2.31873">
        <ele>9.6000003814697</ele>
        <time>2022-01-30T08:28:32.000Z</time>
      </trkpt>
      <trkpt lat="47.27077" lon="-2.31865">
        <ele>9.6000003814697</ele>
        <time>2022-01-30T08:28:35.000Z</time>
      </trkpt>
      <trkpt lat="47.27076" lon="-2.31859">
        <ele>9.6000003814697</ele>
        <time>2022-01-30T08:28:37.000Z</time>
      </trkpt>
      <trkpt lat="47.27069" lon="-2.31854">
        <ele>9.6000003814697</ele>
        <time>2022-01-30T08:28:41.000Z</time>
      </trkpt>
      <trkpt lat="47.27061" lon="-2.31838">
        <ele>9.6000003814697</ele>
        <time>2022-01-30T08:28:46.000Z</time>
      </trkpt>
      <trkpt lat="47.2706" lon="-2.31829">
        <ele>9.6000003814697</ele>
        <time>2022-01-30T08:28:48.000Z</time>
      </trkpt>
      <trkpt lat="47.27057" lon="-2.31811">
        <ele>9.6000003814697</ele>
        <time>2022-01-30T08:28:52.000Z</time>
      </trkpt>
      <trkpt lat="47.27055" lon="-2.31786">
        <ele>9.6000003814697</ele>
        <time>2022-01-30T08:28:58.000Z</time>
      </trkpt>
      <trkpt lat="47.27052" lon="-2.31765">
        <ele>9.6000003814697</ele>
        <time>2022-01-30T08:29:04.000Z</time>
      </trkpt>
      <trkpt lat="47.27051" lon="-2.31743">
        <ele>9.6000003814697</ele>
        <time>2022-01-30T08:29:10.000Z</time>
      </trkpt>
      <trkpt lat="47.2705" lon="-2.31736">
        <ele>9.6000003814697</ele>
        <time>2022-01-30T08:29:12.000Z</time>
      </trkpt>
      <trkpt lat="47.27047" lon="-2.31728">
        <ele>9.6000003814697</ele>
        <time>2022-01-30T08:29:14.000Z</time>
      </trkpt>
      <trkpt lat="47.27034" lon="-2.31714">
        <ele>9.6000003814697</ele>
        <time>2022-01-30T08:29:19.000Z</time>
      </trkpt>
      <trkpt lat="47.27026" lon="-2.31706">
        <ele>9.6000003814697</ele>
        <time>2022-01-30T08:29:23.000Z</time>
      </trkpt>
      <trkpt lat="47.27026" lon="-2.31702">
        <ele>9.6000003814697</ele>
        <time>2022-01-30T08:29:24.000Z</time>
      </trkpt>
      <trkpt lat="47.27029" lon="-2.3169">
        <ele>9.6000003814697</ele>
        <time>2022-01-30T08:29:27.000Z</time>
      </trkpt>
      <trkpt lat="47.27032" lon="-2.3168">
        <ele>9.6000003814697</ele>
        <time>2022-01-30T08:29:29.000Z</time>
      </trkpt>
      <trkpt lat="47.27033" lon="-2.31645">
        <ele>9.6000003814697</ele>
        <time>2022-01-30T08:29:35.000Z</time>
      </trkpt>
      <trkpt lat="47.27028" lon="-2.31614">
        <ele>9.6000003814697</ele>
        <time>2022-01-30T08:29:41.000Z</time>
      </trkpt>
      <trkpt lat="47.27025" lon="-2.31594">
        <ele>9.6000003814697</ele>
        <time>2022-01-30T08:29:46.000Z</time>
      </trkpt>
      <trkpt lat="47.27023" lon="-2.3159">
        <ele>9.6000003814697</ele>
        <time>2022-01-30T08:29:47.000Z</time>
      </trkpt>
      <trkpt lat="47.27017" lon="-2.31576">
        <ele>9.6000003814697</ele>
        <time>2022-01-30T08:29:51.000Z</time>
      </trkpt>
      <trkpt lat="47.27012" lon="-2.3156">
        <ele>10</ele>
        <time>2022-01-30T08:29:55.000Z</time>
      </trkpt>
      <trkpt lat="47.27011" lon="-2.31556">
        <ele>10.39999961853</ele>
        <time>2022-01-30T08:29:56.000Z</time>
      </trkpt>
      <trkpt lat="47.27009" lon="-2.31552">
        <ele>10.800000190735</ele>
        <time>2022-01-30T08:29:57.000Z</time>
      </trkpt>
      <trkpt lat="47.27008" lon="-2.31548">
        <ele>11.199999809265</ele>
        <time>2022-01-30T08:29:58.000Z</time>
      </trkpt>
      <trkpt lat="47.27007" lon="-2.31544">
        <ele>11.60000038147</ele>
        <time>2022-01-30T08:29:59.000Z</time>
      </trkpt>
      <trkpt lat="47.27003" lon="-2.3153">
        <ele>11.60000038147</ele>
        <time>2022-01-30T08:30:02.000Z</time>
      </trkpt>
      <trkpt lat="47.26994" lon="-2.31499">
        <ele>11.60000038147</ele>
        <time>2022-01-30T08:30:08.000Z</time>
      </trkpt>
      <trkpt lat="47.26991" lon="-2.3147">
        <ele>11.60000038147</ele>
        <time>2022-01-30T08:30:14.000Z</time>
      </trkpt>
      <trkpt lat="47.26989" lon="-2.31447">
        <ele>11.60000038147</ele>
        <time>2022-01-30T08:30:19.000Z</time>
      </trkpt>
      <trkpt lat="47.26986" lon="-2.31422">
        <ele>11.60000038147</ele>
        <time>2022-01-30T08:30:24.000Z</time>
      </trkpt>
      <trkpt lat="47.26985" lon="-2.31385">
        <ele>11.60000038147</ele>
        <time>2022-01-30T08:30:31.000Z</time>
      </trkpt>
      <trkpt lat="47.26983" lon="-2.31351">
        <ele>12</ele>
        <time>2022-01-30T08:30:38.000Z</time>
      </trkpt>
      <trkpt lat="47.26982" lon="-2.31346">
        <ele>12.39999961853</ele>
        <time>2022-01-30T08:30:39.000Z</time>
      </trkpt>
      <trkpt lat="47.26982" lon="-2.31341">
        <ele>12.800000190735</ele>
        <time>2022-01-30T08:30:40.000Z</time>
      </trkpt>
      <trkpt lat="47.26981" lon="-2.31336">
        <ele>13.199999809265</ele>
        <time>2022-01-30T08:30:41.000Z</time>
      </trkpt>
      <trkpt lat="47.2698" lon="-2.3133">
        <ele>13.60000038147</ele>
        <time>2022-01-30T08:30:42.000Z</time>
      </trkpt>
      <trkpt lat="47.26978" lon="-2.31319">
        <ele>13.60000038147</ele>
        <time>2022-01-30T08:30:44.000Z</time>
      </trkpt>
      <trkpt lat="47.26975" lon="-2.31288">
        <ele>13.60000038147</ele>
        <time>2022-01-30T08:30:51.000Z</time>
      </trkpt>
      <trkpt lat="47.26974" lon="-2.31282">
        <ele>13.60000038147</ele>
        <time>2022-01-30T08:30:54.000Z</time>
      </trkpt>
      <trkpt lat="47.26975" lon="-2.31277">
        <ele>13.60000038147</ele>
        <time>2022-01-30T08:31:22.000Z</time>
      </trkpt>
      <trkpt lat="47.26972" lon="-2.31259">
        <ele>13.60000038147</ele>
        <time>2022-01-30T08:31:26.000Z</time>
      </trkpt>
      <trkpt lat="47.26974" lon="-2.31236">
        <ele>13.60000038147</ele>
        <time>2022-01-30T08:31:30.000Z</time>
      </trkpt>
      <trkpt lat="47.26978" lon="-2.31216">
        <ele>13.60000038147</ele>
        <time>2022-01-30T08:31:33.000Z</time>
      </trkpt>
      <trkpt lat="47.26982" lon="-2.31195">
        <ele>13.60000038147</ele>
        <time>2022-01-30T08:31:36.000Z</time>
      </trkpt>
      <trkpt lat="47.26987" lon="-2.31152">
        <ele>13.60000038147</ele>
        <time>2022-01-30T08:31:41.000Z</time>
      </trkpt>
      <trkpt lat="47.26991" lon="-2.31115">
        <ele>13.60000038147</ele>
        <time>2022-01-30T08:31:45.000Z</time>
      </trkpt>
      <trkpt lat="47.2699" lon="-2.31097">
        <ele>13.60000038147</ele>
        <time>2022-01-30T08:31:47.000Z</time>
      </trkpt>
      <trkpt lat="47.26989" lon="-2.31089">
        <ele>13.60000038147</ele>
        <time>2022-01-30T08:31:48.000Z</time>
      </trkpt>
      <trkpt lat="47.26988" lon="-2.31078">
        <ele>13.60000038147</ele>
        <time>2022-01-30T08:31:50.000Z</time>
      </trkpt>
      <trkpt lat="47.26995" lon="-2.31065">
        <ele>13.60000038147</ele>
        <time>2022-01-30T08:31:53.000Z</time>
      </trkpt>
      <trkpt lat="47.27002" lon="-2.31058">
        <ele>13.60000038147</ele>
        <time>2022-01-30T08:31:55.000Z</time>
      </trkpt>
      <trkpt lat="47.27013" lon="-2.31049">
        <ele>13.60000038147</ele>
        <time>2022-01-30T08:31:57.000Z</time>
      </trkpt>
      <trkpt lat="47.27018" lon="-2.31046">
        <ele>13.60000038147</ele>
        <time>2022-01-30T08:31:58.000Z</time>
      </trkpt>
      <trkpt lat="47.27027" lon="-2.31038">
        <ele>13.60000038147</ele>
        <time>2022-01-30T08:32:00.000Z</time>
      </trkpt>
      <trkpt lat="47.27032" lon="-2.31034">
        <ele>13.60000038147</ele>
        <time>2022-01-30T08:32:01.000Z</time>
      </trkpt>
      <trkpt lat="47.27058" lon="-2.31009">
        <ele>13.60000038147</ele>
        <time>2022-01-30T08:32:07.000Z</time>
      </trkpt>
      <trkpt lat="47.27061" lon="-2.31004">
        <ele>13.60000038147</ele>
        <time>2022-01-30T08:32:08.000Z</time>
      </trkpt>
      <trkpt lat="47.2706" lon="-2.30989">
        <ele>13.60000038147</ele>
        <time>2022-01-30T08:32:11.000Z</time>
      </trkpt>
      <trkpt lat="47.27056" lon="-2.30963">
        <ele>13.60000038147</ele>
        <time>2022-01-30T08:32:16.000Z</time>
      </trkpt>
      <trkpt lat="47.27052" lon="-2.30941">
        <ele>13.60000038147</ele>
        <time>2022-01-30T08:32:21.000Z</time>
      </trkpt>
      <trkpt lat="47.27045" lon="-2.30914">
        <ele>13.60000038147</ele>
        <time>2022-01-30T08:32:26.000Z</time>
      </trkpt>
      <trkpt lat="47.27036" lon="-2.30885">
        <ele>13.60000038147</ele>
        <time>2022-01-30T08:32:31.000Z</time>
      </trkpt>
      <trkpt lat="47.27017" lon="-2.3085">
        <ele>13.60000038147</ele>
        <time>2022-01-30T08:32:37.000Z</time>
      </trkpt>
      <trkpt lat="47.27014" lon="-2.30845">
        <ele>13.60000038147</ele>
        <time>2022-01-30T08:32:38.000Z</time>
      </trkpt>
      <trkpt lat="47.27002" lon="-2.30822">
        <ele>13.60000038147</ele>
        <time>2022-01-30T08:32:42.000Z</time>
      </trkpt>
      <trkpt lat="47.26999" lon="-2.30818">
        <ele>13.60000038147</ele>
        <time>2022-01-30T08:32:43.000Z</time>
      </trkpt>
      <trkpt lat="47.26985" lon="-2.30794">
        <ele>13.60000038147</ele>
        <time>2022-01-30T08:32:48.000Z</time>
      </trkpt>
      <trkpt lat="47.2697" lon="-2.30772">
        <ele>14</ele>
        <time>2022-01-30T08:32:53.000Z</time>
      </trkpt>
      <trkpt lat="47.26967" lon="-2.30767">
        <ele>14.39999961853</ele>
        <time>2022-01-30T08:32:54.000Z</time>
      </trkpt>
      <trkpt lat="47.26965" lon="-2.30762">
        <ele>14.800000190735</ele>
        <time>2022-01-30T08:32:55.000Z</time>
      </trkpt>
      <trkpt lat="47.26962" lon="-2.30758">
        <ele>15.199999809265</ele>
        <time>2022-01-30T08:32:56.000Z</time>
      </trkpt>
      <trkpt lat="47.26959" lon="-2.30754">
        <ele>15.60000038147</ele>
        <time>2022-01-30T08:32:57.000Z</time>
      </trkpt>
      <trkpt lat="47.2695" lon="-2.30743">
        <ele>15.60000038147</ele>
        <time>2022-01-30T08:33:00.000Z</time>
      </trkpt>
      <trkpt lat="47.26931" lon="-2.30711">
        <ele>15.60000038147</ele>
        <time>2022-01-30T08:33:07.000Z</time>
      </trkpt>
      <trkpt lat="47.2691" lon="-2.30682">
        <ele>15.60000038147</ele>
        <time>2022-01-30T08:33:14.000Z</time>
      </trkpt>
      <trkpt lat="47.26897" lon="-2.30666">
        <ele>15.60000038147</ele>
        <time>2022-01-30T08:33:19.000Z</time>
      </trkpt>
      <trkpt lat="47.26894" lon="-2.30666">
        <ele>15.60000038147</ele>
        <time>2022-01-30T08:33:20.000Z</time>
      </trkpt>
      <trkpt lat="47.26888" lon="-2.30671">
        <ele>15.60000038147</ele>
        <time>2022-01-30T08:33:22.000Z</time>
      </trkpt>
      <trkpt lat="47.26876" lon="-2.30687">
        <ele>15.60000038147</ele>
        <time>2022-01-30T08:33:26.000Z</time>
      </trkpt>
      <trkpt lat="47.26867" lon="-2.30702">
        <ele>15.60000038147</ele>
        <time>2022-01-30T08:33:29.000Z</time>
      </trkpt>
      <trkpt lat="47.26847" lon="-2.30746">
        <ele>15.60000038147</ele>
        <time>2022-01-30T08:33:37.000Z</time>
      </trkpt>
      <trkpt lat="47.26841" lon="-2.30763">
        <ele>16</ele>
        <time>2022-01-30T08:33:40.000Z</time>
      </trkpt>
      <trkpt lat="47.26839" lon="-2.30768">
        <ele>16.799999237061</ele>
        <time>2022-01-30T08:33:41.000Z</time>
      </trkpt>
      <trkpt lat="47.26837" lon="-2.30773">
        <ele>17.200000762939</ele>
        <time>2022-01-30T08:33:42.000Z</time>
      </trkpt>
      <trkpt lat="47.26834" lon="-2.30778">
        <ele>17.60000038147</ele>
        <time>2022-01-30T08:33:43.000Z</time>
      </trkpt>
      <trkpt lat="47.26832" lon="-2.30783">
        <ele>17.60000038147</ele>
        <time>2022-01-30T08:33:44.000Z</time>
      </trkpt>
      <trkpt lat="47.26816" lon="-2.30797">
        <ele>17.60000038147</ele>
        <time>2022-01-30T08:33:49.000Z</time>
      </trkpt>
      <trkpt lat="47.26801" lon="-2.30812">
        <ele>17.60000038147</ele>
        <time>2022-01-30T08:33:54.000Z</time>
      </trkpt>
      <trkpt lat="47.26772" lon="-2.30841">
        <ele>17.60000038147</ele>
        <time>2022-01-30T08:34:02.000Z</time>
      </trkpt>
      <trkpt lat="47.2675" lon="-2.30864">
        <ele>17.60000038147</ele>
        <time>2022-01-30T08:34:08.000Z</time>
      </trkpt>
      <trkpt lat="47.26746" lon="-2.30867">
        <ele>17.60000038147</ele>
        <time>2022-01-30T08:34:09.000Z</time>
      </trkpt>
      <trkpt lat="47.26737" lon="-2.30867">
        <ele>17.60000038147</ele>
        <time>2022-01-30T08:34:11.000Z</time>
      </trkpt>
      <trkpt lat="47.26722" lon="-2.30847">
        <ele>17.60000038147</ele>
        <time>2022-01-30T08:34:15.000Z</time>
      </trkpt>
      <trkpt lat="47.26702" lon="-2.30799">
        <ele>17.60000038147</ele>
        <time>2022-01-30T08:34:22.000Z</time>
      </trkpt>
      <trkpt lat="47.2668" lon="-2.30745">
        <ele>17.60000038147</ele>
        <time>2022-01-30T08:34:29.000Z</time>
      </trkpt>
      <trkpt lat="47.26665" lon="-2.30709">
        <ele>17.60000038147</ele>
        <time>2022-01-30T08:34:34.000Z</time>
      </trkpt>
      <trkpt lat="47.26658" lon="-2.30696">
        <ele>17.60000038147</ele>
        <time>2022-01-30T08:34:37.000Z</time>
      </trkpt>
      <trkpt lat="47.26651" lon="-2.30698">
        <ele>17.60000038147</ele>
        <time>2022-01-30T08:34:40.000Z</time>
      </trkpt>
      <trkpt lat="47.26649" lon="-2.30706">
        <ele>17.60000038147</ele>
        <time>2022-01-30T08:34:42.000Z</time>
      </trkpt>
      <trkpt lat="47.26646" lon="-2.30714">
        <ele>17.60000038147</ele>
        <time>2022-01-30T08:34:45.000Z</time>
      </trkpt>
      <trkpt lat="47.26639" lon="-2.30725">
        <ele>17.60000038147</ele>
        <time>2022-01-30T08:34:49.000Z</time>
      </trkpt>
      <trkpt lat="47.2663" lon="-2.30733">
        <ele>17.60000038147</ele>
        <time>2022-01-30T08:34:54.000Z</time>
      </trkpt>
      <trkpt lat="47.2662" lon="-2.30748">
        <ele>17.60000038147</ele>
        <time>2022-01-30T08:35:01.000Z</time>
      </trkpt>
      <trkpt lat="47.26611" lon="-2.30773">
        <ele>17.60000038147</ele>
        <time>2022-01-30T08:35:08.000Z</time>
      </trkpt>
      <trkpt lat="47.26597" lon="-2.30787">
        <ele>17.60000038147</ele>
        <time>2022-01-30T08:35:13.000Z</time>
      </trkpt>
      <trkpt lat="47.26582" lon="-2.30805">
        <ele>17.60000038147</ele>
        <time>2022-01-30T08:35:18.000Z</time>
      </trkpt>
      <trkpt lat="47.26569" lon="-2.30824">
        <ele>17.60000038147</ele>
        <time>2022-01-30T08:35:23.000Z</time>
      </trkpt>
      <trkpt lat="47.26556" lon="-2.30838">
        <ele>17.60000038147</ele>
        <time>2022-01-30T08:35:27.000Z</time>
      </trkpt>
      <trkpt lat="47.26548" lon="-2.30846">
        <ele>17.60000038147</ele>
        <time>2022-01-30T08:35:30.000Z</time>
      </trkpt>
      <trkpt lat="47.26542" lon="-2.30855">
        <ele>17.60000038147</ele>
        <time>2022-01-30T08:35:33.000Z</time>
      </trkpt>
      <trkpt lat="47.2654" lon="-2.30857">
        <ele>17.60000038147</ele>
        <time>2022-01-30T08:35:34.000Z</time>
      </trkpt>
      <trkpt lat="47.26526" lon="-2.30873">
        <ele>17.60000038147</ele>
        <time>2022-01-30T08:35:37.000Z</time>
      </trkpt>
      <trkpt lat="47.26523" lon="-2.30876">
        <ele>17.60000038147</ele>
        <time>2022-01-30T08:35:38.000Z</time>
      </trkpt>
      <trkpt lat="47.2651" lon="-2.30886">
        <ele>17.60000038147</ele>
        <time>2022-01-30T08:35:42.000Z</time>
      </trkpt>
      <trkpt lat="47.26505" lon="-2.30883">
        <ele>17.60000038147</ele>
        <time>2022-01-30T08:35:44.000Z</time>
      </trkpt>
      <trkpt lat="47.26503" lon="-2.30881">
        <ele>17.60000038147</ele>
        <time>2022-01-30T08:35:45.000Z</time>
      </trkpt>
      <trkpt lat="47.26492" lon="-2.30867">
        <ele>17.60000038147</ele>
        <time>2022-01-30T08:35:51.000Z</time>
      </trkpt>
      <trkpt lat="47.26483" lon="-2.30851">
        <ele>17.60000038147</ele>
        <time>2022-01-30T08:35:57.000Z</time>
      </trkpt>
      <trkpt lat="47.26478" lon="-2.30836">
        <ele>18</ele>
        <time>2022-01-30T08:36:01.000Z</time>
      </trkpt>
      <trkpt lat="47.26476" lon="-2.30832">
        <ele>18.60000038147</ele>
        <time>2022-01-30T08:36:02.000Z</time>
      </trkpt>
      <trkpt lat="47.26475" lon="-2.30828">
        <ele>19</ele>
        <time>2022-01-30T08:36:03.000Z</time>
      </trkpt>
      <trkpt lat="47.26473" lon="-2.30824">
        <ele>19.39999961853</ele>
        <time>2022-01-30T08:36:04.000Z</time>
      </trkpt>
      <trkpt lat="47.26472" lon="-2.30819">
        <ele>19.799999237061</ele>
        <time>2022-01-30T08:36:05.000Z</time>
      </trkpt>
      <trkpt lat="47.26469" lon="-2.30807">
        <ele>19.799999237061</ele>
        <time>2022-01-30T08:36:08.000Z</time>
      </trkpt>
      <trkpt lat="47.2646" lon="-2.30784">
        <ele>19.799999237061</ele>
        <time>2022-01-30T08:36:13.000Z</time>
      </trkpt>
      <trkpt lat="47.26448" lon="-2.30749">
        <ele>19.799999237061</ele>
        <time>2022-01-30T08:36:21.000Z</time>
      </trkpt>
      <trkpt lat="47.26434" lon="-2.30715">
        <ele>19.799999237061</ele>
        <time>2022-01-30T08:36:29.000Z</time>
      </trkpt>
      <trkpt lat="47.26423" lon="-2.30693">
        <ele>19.799999237061</ele>
        <time>2022-01-30T08:36:35.000Z</time>
      </trkpt>
      <trkpt lat="47.26418" lon="-2.30686">
        <ele>19.799999237061</ele>
        <time>2022-01-30T08:36:38.000Z</time>
      </trkpt>
      <trkpt lat="47.26407" lon="-2.30676">
        <ele>19.799999237061</ele>
        <time>2022-01-30T08:36:41.000Z</time>
      </trkpt>
      <trkpt lat="47.2638" lon="-2.30656">
        <ele>19.799999237061</ele>
        <time>2022-01-30T08:36:48.000Z</time>
      </trkpt>
      <trkpt lat="47.26369" lon="-2.30635">
        <ele>19.799999237061</ele>
        <time>2022-01-30T08:36:53.000Z</time>
      </trkpt>
      <trkpt lat="47.26357" lon="-2.30615">
        <ele>19.799999237061</ele>
        <time>2022-01-30T08:36:59.000Z</time>
      </trkpt>
      <trkpt lat="47.26346" lon="-2.30593">
        <ele>19.799999237061</ele>
        <time>2022-01-30T08:37:05.000Z</time>
      </trkpt>
      <trkpt lat="47.26344" lon="-2.30583">
        <ele>19.799999237061</ele>
        <time>2022-01-30T08:37:10.000Z</time>
      </trkpt>
      <trkpt lat="47.26341" lon="-2.30581">
        <ele>15.60000038147</ele>
        <time>2022-01-30T08:38:23.000Z</time>
      </trkpt>
      <trkpt lat="47.26333" lon="-2.30584">
        <ele>15.60000038147</ele>
        <time>2022-01-30T08:38:26.000Z</time>
      </trkpt>
      <trkpt lat="47.26317" lon="-2.30593">
        <ele>15.60000038147</ele>
        <time>2022-01-30T08:38:29.000Z</time>
      </trkpt>
      <trkpt lat="47.26299" lon="-2.30603">
        <ele>15.199999809265</ele>
        <time>2022-01-30T08:38:32.000Z</time>
      </trkpt>
      <trkpt lat="47.26293" lon="-2.30606">
        <ele>14.800000190735</ele>
        <time>2022-01-30T08:38:33.000Z</time>
      </trkpt>
      <trkpt lat="47.26286" lon="-2.3061">
        <ele>14.39999961853</ele>
        <time>2022-01-30T08:38:34.000Z</time>
      </trkpt>
      <trkpt lat="47.2628" lon="-2.30615">
        <ele>14</ele>
        <time>2022-01-30T08:38:35.000Z</time>
      </trkpt>
      <trkpt lat="47.26273" lon="-2.30619">
        <ele>13.60000038147</ele>
        <time>2022-01-30T08:38:36.000Z</time>
      </trkpt>
      <trkpt lat="47.26225" lon="-2.30652">
        <ele>13.60000038147</ele>
        <time>2022-01-30T08:38:43.000Z</time>
      </trkpt>
      <trkpt lat="47.26211" lon="-2.30667">
        <ele>13.60000038147</ele>
        <time>2022-01-30T08:38:46.000Z</time>
      </trkpt>
      <trkpt lat="47.2621" lon="-2.30675">
        <ele>13.60000038147</ele>
        <time>2022-01-30T08:38:47.000Z</time>
      </trkpt>
      <trkpt lat="47.26214" lon="-2.30695">
        <ele>13.60000038147</ele>
        <time>2022-01-30T08:38:50.000Z</time>
      </trkpt>
      <trkpt lat="47.26226" lon="-2.30711">
        <ele>13.60000038147</ele>
        <time>2022-01-30T08:38:53.000Z</time>
      </trkpt>
      <trkpt lat="47.2623" lon="-2.30717">
        <ele>13.60000038147</ele>
        <time>2022-01-30T08:38:54.000Z</time>
      </trkpt>
      <trkpt lat="47.26259" lon="-2.30751">
        <ele>13.60000038147</ele>
        <time>2022-01-30T08:39:00.000Z</time>
      </trkpt>
      <trkpt lat="47.26294" lon="-2.3079">
        <ele>13.60000038147</ele>
        <time>2022-01-30T08:39:06.000Z</time>
      </trkpt>
      <trkpt lat="47.2633" lon="-2.30846">
        <ele>13.60000038147</ele>
        <time>2022-01-30T08:39:12.000Z</time>
      </trkpt>
      <trkpt lat="47.26366" lon="-2.30913">
        <ele>13.60000038147</ele>
        <time>2022-01-30T08:39:19.000Z</time>
      </trkpt>
      <trkpt lat="47.26371" lon="-2.30922">
        <ele>14</ele>
        <time>2022-01-30T08:39:20.000Z</time>
      </trkpt>
      <trkpt lat="47.26375" lon="-2.30931">
        <ele>14.39999961853</ele>
        <time>2022-01-30T08:39:21.000Z</time>
      </trkpt>
      <trkpt lat="47.2638" lon="-2.3094">
        <ele>14.800000190735</ele>
        <time>2022-01-30T08:39:22.000Z</time>
      </trkpt>
      <trkpt lat="47.26384" lon="-2.30949">
        <ele>15.199999809265</ele>
        <time>2022-01-30T08:39:23.000Z</time>
      </trkpt>
      <trkpt lat="47.26389" lon="-2.30958">
        <ele>15.800000190735</ele>
        <time>2022-01-30T08:39:24.000Z</time>
      </trkpt>
      <trkpt lat="47.26399" lon="-2.30976">
        <ele>15.800000190735</ele>
        <time>2022-01-30T08:39:26.000Z</time>
      </trkpt>
      <trkpt lat="47.26417" lon="-2.31006">
        <ele>15.800000190735</ele>
        <time>2022-01-30T08:39:30.000Z</time>
      </trkpt>
      <trkpt lat="47.26434" lon="-2.31046">
        <ele>15.800000190735</ele>
        <time>2022-01-30T08:39:35.000Z</time>
      </trkpt>
      <trkpt lat="47.26452" lon="-2.31094">
        <ele>15.800000190735</ele>
        <time>2022-01-30T08:39:41.000Z</time>
      </trkpt>
      <trkpt lat="47.26474" lon="-2.31146">
        <ele>15.800000190735</ele>
        <time>2022-01-30T08:39:48.000Z</time>
      </trkpt>
      <trkpt lat="47.26493" lon="-2.31196">
        <ele>15.800000190735</ele>
        <time>2022-01-30T08:39:55.000Z</time>
      </trkpt>
      <trkpt lat="47.26508" lon="-2.31236">
        <ele>15.800000190735</ele>
        <time>2022-01-30T08:40:01.000Z</time>
      </trkpt>
      <trkpt lat="47.2651" lon="-2.31249">
        <ele>15.800000190735</ele>
        <time>2022-01-30T08:40:04.000Z</time>
      </trkpt>
      <trkpt lat="47.26508" lon="-2.31252">
        <ele>15.800000190735</ele>
        <time>2022-01-30T08:40:05.000Z</time>
      </trkpt>
      <trkpt lat="47.26494" lon="-2.31261">
        <ele>15.800000190735</ele>
        <time>2022-01-30T08:40:08.000Z</time>
      </trkpt>
      <trkpt lat="47.26457" lon="-2.3128">
        <ele>15.800000190735</ele>
        <time>2022-01-30T08:40:14.000Z</time>
      </trkpt>
      <trkpt lat="47.26408" lon="-2.31315">
        <ele>15.800000190735</ele>
        <time>2022-01-30T08:40:22.000Z</time>
      </trkpt>
      <trkpt lat="47.26363" lon="-2.31347">
        <ele>15.800000190735</ele>
        <time>2022-01-30T08:40:29.000Z</time>
      </trkpt>
      <trkpt lat="47.26355" lon="-2.31356">
        <ele>15.800000190735</ele>
        <time>2022-01-30T08:40:31.000Z</time>
      </trkpt>
      <trkpt lat="47.26354" lon="-2.31362">
        <ele>15.800000190735</ele>
        <time>2022-01-30T08:40:32.000Z</time>
      </trkpt>
      <trkpt lat="47.26356" lon="-2.31383">
        <ele>15.800000190735</ele>
        <time>2022-01-30T08:40:35.000Z</time>
      </trkpt>
      <trkpt lat="47.26366" lon="-2.31412">
        <ele>15.800000190735</ele>
        <time>2022-01-30T08:40:39.000Z</time>
      </trkpt>
      <trkpt lat="47.2637" lon="-2.31419">
        <ele>15.800000190735</ele>
        <time>2022-01-30T08:40:40.000Z</time>
      </trkpt>
      <trkpt lat="47.26393" lon="-2.31472">
        <ele>15.800000190735</ele>
        <time>2022-01-30T08:40:47.000Z</time>
      </trkpt>
      <trkpt lat="47.26406" lon="-2.31534">
        <ele>15.800000190735</ele>
        <time>2022-01-30T08:40:54.000Z</time>
      </trkpt>
      <trkpt lat="47.2641" lon="-2.31555">
        <ele>15.800000190735</ele>
        <time>2022-01-30T08:40:57.000Z</time>
      </trkpt>
      <trkpt lat="47.26412" lon="-2.31558">
        <ele>15.800000190735</ele>
        <time>2022-01-30T08:40:58.000Z</time>
      </trkpt>
      <trkpt lat="47.26418" lon="-2.31556">
        <ele>15.800000190735</ele>
        <time>2022-01-30T08:41:01.000Z</time>
      </trkpt>
      <trkpt lat="47.26418" lon="-2.31553">
        <ele>15.800000190735</ele>
        <time>2022-01-30T08:41:04.000Z</time>
      </trkpt>
      <trkpt lat="47.26417" lon="-2.31554">
        <ele>15.800000190735</ele>
        <time>2022-01-30T08:41:29.000Z</time>
      </trkpt>
      <trkpt lat="47.26406" lon="-2.31546">
        <ele>15.800000190735</ele>
        <time>2022-01-30T08:41:33.000Z</time>
      </trkpt>
      <trkpt lat="47.26404" lon="-2.31526">
        <ele>15.800000190735</ele>
        <time>2022-01-30T08:41:36.000Z</time>
      </trkpt>
      <trkpt lat="47.26401" lon="-2.31502">
        <ele>15.800000190735</ele>
        <time>2022-01-30T08:41:39.000Z</time>
      </trkpt>
      <trkpt lat="47.26398" lon="-2.31487">
        <ele>15.800000190735</ele>
        <time>2022-01-30T08:41:41.000Z</time>
      </trkpt>
      <trkpt lat="47.26384" lon="-2.31445">
        <ele>15.800000190735</ele>
        <time>2022-01-30T08:41:47.000Z</time>
      </trkpt>
      <trkpt lat="47.26356" lon="-2.31383">
        <ele>15.800000190735</ele>
        <time>2022-01-30T08:41:56.000Z</time>
      </trkpt>
      <trkpt lat="47.26347" lon="-2.31366">
        <ele>15.800000190735</ele>
        <time>2022-01-30T08:41:59.000Z</time>
      </trkpt>
      <trkpt lat="47.26345" lon="-2.3136">
        <ele>15.199999809265</ele>
        <time>2022-01-30T08:42:00.000Z</time>
      </trkpt>
      <trkpt lat="47.26344" lon="-2.31355">
        <ele>14.800000190735</ele>
        <time>2022-01-30T08:42:01.000Z</time>
      </trkpt>
      <trkpt lat="47.26346" lon="-2.3135">
        <ele>14.39999961853</ele>
        <time>2022-01-30T08:42:02.000Z</time>
      </trkpt>
      <trkpt lat="47.2635" lon="-2.31348">
        <ele>14</ele>
        <time>2022-01-30T08:42:03.000Z</time>
      </trkpt>
      <trkpt lat="47.26353" lon="-2.31349">
        <ele>13.60000038147</ele>
        <time>2022-01-30T08:42:04.000Z</time>
      </trkpt>
      <trkpt lat="47.26361" lon="-2.31347">
        <ele>13.60000038147</ele>
        <time>2022-01-30T08:42:06.000Z</time>
      </trkpt>
      <trkpt lat="47.26377" lon="-2.31334">
        <ele>13.60000038147</ele>
        <time>2022-01-30T08:42:10.000Z</time>
      </trkpt>
      <trkpt lat="47.26381" lon="-2.31331">
        <ele>13.60000038147</ele>
        <time>2022-01-30T08:42:11.000Z</time>
      </trkpt>
      <trkpt lat="47.26385" lon="-2.31328">
        <ele>13.60000038147</ele>
        <time>2022-01-30T08:42:12.000Z</time>
      </trkpt>
      <trkpt lat="47.26409" lon="-2.31311">
        <ele>13.60000038147</ele>
        <time>2022-01-30T08:42:17.000Z</time>
      </trkpt>
      <trkpt lat="47.26442" lon="-2.31286">
        <ele>13.60000038147</ele>
        <time>2022-01-30T08:42:24.000Z</time>
      </trkpt>
      <trkpt lat="47.26465" lon="-2.31269">
        <ele>13.60000038147</ele>
        <time>2022-01-30T08:42:29.000Z</time>
      </trkpt>
      <trkpt lat="47.26469" lon="-2.31267">
        <ele>13.60000038147</ele>
        <time>2022-01-30T08:42:30.000Z</time>
      </trkpt>
      <trkpt lat="47.26491" lon="-2.31254">
        <ele>13.60000038147</ele>
        <time>2022-01-30T08:42:35.000Z</time>
      </trkpt>
      <trkpt lat="47.26499" lon="-2.31251">
        <ele>13.60000038147</ele>
        <time>2022-01-30T08:42:37.000Z</time>
      </trkpt>
      <trkpt lat="47.26506" lon="-2.31245">
        <ele>13.60000038147</ele>
        <time>2022-01-30T08:42:39.000Z</time>
      </trkpt>
      <trkpt lat="47.26506" lon="-2.31233">
        <ele>13.60000038147</ele>
        <time>2022-01-30T08:42:41.000Z</time>
      </trkpt>
      <trkpt lat="47.265" lon="-2.31213">
        <ele>13.60000038147</ele>
        <time>2022-01-30T08:42:44.000Z</time>
      </trkpt>
      <trkpt lat="47.26498" lon="-2.31207">
        <ele>13.60000038147</ele>
        <time>2022-01-30T08:42:45.000Z</time>
      </trkpt>
      <trkpt lat="47.2648" lon="-2.31161">
        <ele>13.60000038147</ele>
        <time>2022-01-30T08:42:51.000Z</time>
      </trkpt>
      <trkpt lat="47.26456" lon="-2.31106">
        <ele>13.60000038147</ele>
        <time>2022-01-30T08:42:58.000Z</time>
      </trkpt>
      <trkpt lat="47.26431" lon="-2.31045">
        <ele>13.60000038147</ele>
        <time>2022-01-30T08:43:05.000Z</time>
      </trkpt>
      <trkpt lat="47.26415" lon="-2.31012">
        <ele>13.60000038147</ele>
        <time>2022-01-30T08:43:09.000Z</time>
      </trkpt>
      <trkpt lat="47.26411" lon="-2.31004">
        <ele>13.60000038147</ele>
        <time>2022-01-30T08:43:10.000Z</time>
      </trkpt>
      <trkpt lat="47.26385" lon="-2.30954">
        <ele>13.60000038147</ele>
        <time>2022-01-30T08:43:17.000Z</time>
      </trkpt>
      <trkpt lat="47.26368" lon="-2.30922">
        <ele>13.60000038147</ele>
        <time>2022-01-30T08:43:22.000Z</time>
      </trkpt>
      <trkpt lat="47.26344" lon="-2.30877">
        <ele>13.60000038147</ele>
        <time>2022-01-30T08:43:29.000Z</time>
      </trkpt>
      <trkpt lat="47.26328" lon="-2.30844">
        <ele>14</ele>
        <time>2022-01-30T08:43:34.000Z</time>
      </trkpt>
      <trkpt lat="47.26324" lon="-2.30838">
        <ele>14.39999961853</ele>
        <time>2022-01-30T08:43:35.000Z</time>
      </trkpt>
      <trkpt lat="47.2632" lon="-2.30832">
        <ele>14.800000190735</ele>
        <time>2022-01-30T08:43:36.000Z</time>
      </trkpt>
      <trkpt lat="47.26317" lon="-2.30826">
        <ele>15.199999809265</ele>
        <time>2022-01-30T08:43:37.000Z</time>
      </trkpt>
      <trkpt lat="47.26313" lon="-2.30821">
        <ele>15.60000038147</ele>
        <time>2022-01-30T08:43:38.000Z</time>
      </trkpt>
      <trkpt lat="47.263" lon="-2.308">
        <ele>15.60000038147</ele>
        <time>2022-01-30T08:43:42.000Z</time>
      </trkpt>
      <trkpt lat="47.26275" lon="-2.3077">
        <ele>15.60000038147</ele>
        <time>2022-01-30T08:43:49.000Z</time>
      </trkpt>
      <trkpt lat="47.26271" lon="-2.30767">
        <ele>15.60000038147</ele>
        <time>2022-01-30T08:43:50.000Z</time>
      </trkpt>
      <trkpt lat="47.26249" lon="-2.30745">
        <ele>15.60000038147</ele>
        <time>2022-01-30T08:43:56.000Z</time>
      </trkpt>
      <trkpt lat="47.26229" lon="-2.3072">
        <ele>15.60000038147</ele>
        <time>2022-01-30T08:44:02.000Z</time>
      </trkpt>
      <trkpt lat="47.26226" lon="-2.30714">
        <ele>15.60000038147</ele>
        <time>2022-01-30T08:44:03.000Z</time>
      </trkpt>
      <trkpt lat="47.2621" lon="-2.30686">
        <ele>15.60000038147</ele>
        <time>2022-01-30T08:44:08.000Z</time>
      </trkpt>
      <trkpt lat="47.26208" lon="-2.30673">
        <ele>15.60000038147</ele>
        <time>2022-01-30T08:44:11.000Z</time>
      </trkpt>
      <trkpt lat="47.26209" lon="-2.30667">
        <ele>15.60000038147</ele>
        <time>2022-01-30T08:44:12.000Z</time>
      </trkpt>
      <trkpt lat="47.26217" lon="-2.30654">
        <ele>15.60000038147</ele>
        <time>2022-01-30T08:44:15.000Z</time>
      </trkpt>
      <trkpt lat="47.26219" lon="-2.30651">
        <ele>15.60000038147</ele>
        <time>2022-01-30T08:44:16.000Z</time>
      </trkpt>
      <trkpt lat="47.26241" lon="-2.30633">
        <ele>15.60000038147</ele>
        <time>2022-01-30T08:44:22.000Z</time>
      </trkpt>
      <trkpt lat="47.26266" lon="-2.30623">
        <ele>15.60000038147</ele>
        <time>2022-01-30T08:44:28.000Z</time>
      </trkpt>
      <trkpt lat="47.26287" lon="-2.30609">
        <ele>15.60000038147</ele>
        <time>2022-01-30T08:44:34.000Z</time>
      </trkpt>
      <trkpt lat="47.26311" lon="-2.30595">
        <ele>15.60000038147</ele>
        <time>2022-01-30T08:44:41.000Z</time>
      </trkpt>
      <trkpt lat="47.26332" lon="-2.30585">
        <ele>15.60000038147</ele>
        <time>2022-01-30T08:44:48.000Z</time>
      </trkpt>
      <trkpt lat="47.26339" lon="-2.30586">
        <ele>15.60000038147</ele>
        <time>2022-01-30T08:44:52.000Z</time>
      </trkpt>
      <trkpt lat="47.2634" lon="-2.30587">
        <ele>15.60000038147</ele>
        <time>2022-01-30T08:44:53.000Z</time>
      </trkpt>
      <trkpt lat="47.26345" lon="-2.30583">
        <ele>15.60000038147</ele>
        <time>2022-01-30T08:44:57.000Z</time>
      </trkpt>
      <trkpt lat="47.26344" lon="-2.30582">
        <ele>15.60000038147</ele>
        <time>2022-01-30T08:45:00.000Z</time>
      </trkpt>
      <trkpt lat="47.26344" lon="-2.30575">
        <ele>13.60000038147</ele>
        <time>2022-01-30T08:46:30.000Z</time>
      </trkpt>
      <trkpt lat="47.26346" lon="-2.30561">
        <ele>13.60000038147</ele>
        <time>2022-01-30T08:46:34.000Z</time>
      </trkpt>
      <trkpt lat="47.26346" lon="-2.30558">
        <ele>13.60000038147</ele>
        <time>2022-01-30T08:46:35.000Z</time>
      </trkpt>
      <trkpt lat="47.2634" lon="-2.30537">
        <ele>13.60000038147</ele>
        <time>2022-01-30T08:46:40.000Z</time>
      </trkpt>
      <trkpt lat="47.26333" lon="-2.3051">
        <ele>13.60000038147</ele>
        <time>2022-01-30T08:46:45.000Z</time>
      </trkpt>
      <trkpt lat="47.26328" lon="-2.30481">
        <ele>13.60000038147</ele>
        <time>2022-01-30T08:46:50.000Z</time>
      </trkpt>
      <trkpt lat="47.26327" lon="-2.30475">
        <ele>13.60000038147</ele>
        <time>2022-01-30T08:46:51.000Z</time>
      </trkpt>
      <trkpt lat="47.26322" lon="-2.3045">
        <ele>13.60000038147</ele>
        <time>2022-01-30T08:46:55.000Z</time>
      </trkpt>
      <trkpt lat="47.26319" lon="-2.30437">
        <ele>13.60000038147</ele>
        <time>2022-01-30T08:46:57.000Z</time>
      </trkpt>
      <trkpt lat="47.26318" lon="-2.3043">
        <ele>13.60000038147</ele>
        <time>2022-01-30T08:46:58.000Z</time>
      </trkpt>
      <trkpt lat="47.2631" lon="-2.30393">
        <ele>13.60000038147</ele>
        <time>2022-01-30T08:47:03.000Z</time>
      </trkpt>
      <trkpt lat="47.26307" lon="-2.30378">
        <ele>13.60000038147</ele>
        <time>2022-01-30T08:47:05.000Z</time>
      </trkpt>
      <trkpt lat="47.26302" lon="-2.3034">
        <ele>13.60000038147</ele>
        <time>2022-01-30T08:47:10.000Z</time>
      </trkpt>
      <trkpt lat="47.26301" lon="-2.30332">
        <ele>13.60000038147</ele>
        <time>2022-01-30T08:47:11.000Z</time>
      </trkpt>
      <trkpt lat="47.26294" lon="-2.30314">
        <ele>13.60000038147</ele>
        <time>2022-01-30T08:47:14.000Z</time>
      </trkpt>
      <trkpt lat="47.26291" lon="-2.30306">
        <ele>13.60000038147</ele>
        <time>2022-01-30T08:47:15.000Z</time>
      </trkpt>
      <trkpt lat="47.26283" lon="-2.30279">
        <ele>13.60000038147</ele>
        <time>2022-01-30T08:47:19.000Z</time>
      </trkpt>
      <trkpt lat="47.2628" lon="-2.30264">
        <ele>13.60000038147</ele>
        <time>2022-01-30T08:47:21.000Z</time>
      </trkpt>
      <trkpt lat="47.2627" lon="-2.30208">
        <ele>13.60000038147</ele>
        <time>2022-01-30T08:47:29.000Z</time>
      </trkpt>
      <trkpt lat="47.26259" lon="-2.30165">
        <ele>13.60000038147</ele>
        <time>2022-01-30T08:47:36.000Z</time>
      </trkpt>
      <trkpt lat="47.26254" lon="-2.30153">
        <ele>13.60000038147</ele>
        <time>2022-01-30T08:47:38.000Z</time>
      </trkpt>
      <trkpt lat="47.2625" lon="-2.30136">
        <ele>13.60000038147</ele>
        <time>2022-01-30T08:47:41.000Z</time>
      </trkpt>
      <trkpt lat="47.26247" lon="-2.30132">
        <ele>13.60000038147</ele>
        <time>2022-01-30T08:47:42.000Z</time>
      </trkpt>
      <trkpt lat="47.26238" lon="-2.30132">
        <ele>13.60000038147</ele>
        <time>2022-01-30T08:47:44.000Z</time>
      </trkpt>
      <trkpt lat="47.26225" lon="-2.30139">
        <ele>14</ele>
        <time>2022-01-30T08:47:47.000Z</time>
      </trkpt>
      <trkpt lat="47.26221" lon="-2.30141">
        <ele>14.39999961853</ele>
        <time>2022-01-30T08:47:48.000Z</time>
      </trkpt>
      <trkpt lat="47.26215" lon="-2.30142">
        <ele>14.800000190735</ele>
        <time>2022-01-30T08:47:49.000Z</time>
      </trkpt>
      <trkpt lat="47.2621" lon="-2.30144">
        <ele>15.199999809265</ele>
        <time>2022-01-30T08:47:50.000Z</time>
      </trkpt>
      <trkpt lat="47.26204" lon="-2.30147">
        <ele>15.60000038147</ele>
        <time>2022-01-30T08:47:51.000Z</time>
      </trkpt>
      <trkpt lat="47.26179" lon="-2.30157">
        <ele>15.60000038147</ele>
        <time>2022-01-30T08:47:56.000Z</time>
      </trkpt>
      <trkpt lat="47.26175" lon="-2.30156">
        <ele>15.60000038147</ele>
        <time>2022-01-30T08:47:58.000Z</time>
      </trkpt>
      <trkpt lat="47.26173" lon="-2.30153">
        <ele>15.60000038147</ele>
        <time>2022-01-30T08:47:59.000Z</time>
      </trkpt>
      <trkpt lat="47.26167" lon="-2.30148">
        <ele>15.60000038147</ele>
        <time>2022-01-30T08:48:03.000Z</time>
      </trkpt>
      <trkpt lat="47.26157" lon="-2.30153">
        <ele>15.60000038147</ele>
        <time>2022-01-30T08:48:06.000Z</time>
      </trkpt>
      <trkpt lat="47.26153" lon="-2.30155">
        <ele>15.60000038147</ele>
        <time>2022-01-30T08:48:07.000Z</time>
      </trkpt>
      <trkpt lat="47.26124" lon="-2.30164">
        <ele>15.60000038147</ele>
        <time>2022-01-30T08:48:13.000Z</time>
      </trkpt>
      <trkpt lat="47.26104" lon="-2.30168">
        <ele>15.60000038147</ele>
        <time>2022-01-30T08:48:18.000Z</time>
      </trkpt>
      <trkpt lat="47.26103" lon="-2.30164">
        <ele>15.60000038147</ele>
        <time>2022-01-30T08:48:19.000Z</time>
      </trkpt>
      <trkpt lat="47.261" lon="-2.30157">
        <ele>15.60000038147</ele>
        <time>2022-01-30T08:48:21.000Z</time>
      </trkpt>
      <trkpt lat="47.26095" lon="-2.30155">
        <ele>15.60000038147</ele>
        <time>2022-01-30T08:48:23.000Z</time>
      </trkpt>
      <trkpt lat="47.26088" lon="-2.30157">
        <ele>15.60000038147</ele>
        <time>2022-01-30T08:48:25.000Z</time>
      </trkpt>
      <trkpt lat="47.2607" lon="-2.30152">
        <ele>15.60000038147</ele>
        <time>2022-01-30T08:48:30.000Z</time>
      </trkpt>
      <trkpt lat="47.26056" lon="-2.30143">
        <ele>15.60000038147</ele>
        <time>2022-01-30T08:48:34.000Z</time>
      </trkpt>
      <trkpt lat="47.26042" lon="-2.30146">
        <ele>15.60000038147</ele>
        <time>2022-01-30T08:48:37.000Z</time>
      </trkpt>
      <trkpt lat="47.26037" lon="-2.30146">
        <ele>15.60000038147</ele>
        <time>2022-01-30T08:48:38.000Z</time>
      </trkpt>
      <trkpt lat="47.26018" lon="-2.30139">
        <ele>15.60000038147</ele>
        <time>2022-01-30T08:48:42.000Z</time>
      </trkpt>
      <trkpt lat="47.26014" lon="-2.30139">
        <ele>15.60000038147</ele>
        <time>2022-01-30T08:48:43.000Z</time>
      </trkpt>
      <trkpt lat="47.26001" lon="-2.30138">
        <ele>15.60000038147</ele>
        <time>2022-01-30T08:48:46.000Z</time>
      </trkpt>
      <trkpt lat="47.25982" lon="-2.30139">
        <ele>15.60000038147</ele>
        <time>2022-01-30T08:48:50.000Z</time>
      </trkpt>
      <trkpt lat="47.25976" lon="-2.30141">
        <ele>15.60000038147</ele>
        <time>2022-01-30T08:48:51.000Z</time>
      </trkpt>
      <trkpt lat="47.25958" lon="-2.30161">
        <ele>15.60000038147</ele>
        <time>2022-01-30T08:48:55.000Z</time>
      </trkpt>
      <trkpt lat="47.25943" lon="-2.30171">
        <ele>15.60000038147</ele>
        <time>2022-01-30T08:48:58.000Z</time>
      </trkpt>
      <trkpt lat="47.25939" lon="-2.30173">
        <ele>15.60000038147</ele>
        <time>2022-01-30T08:48:59.000Z</time>
      </trkpt>
      <trkpt lat="47.25933" lon="-2.30173">
        <ele>15.60000038147</ele>
        <time>2022-01-30T08:49:00.000Z</time>
      </trkpt>
      <trkpt lat="47.25916" lon="-2.30179">
        <ele>15.60000038147</ele>
        <time>2022-01-30T08:49:04.000Z</time>
      </trkpt>
      <trkpt lat="47.25912" lon="-2.3018">
        <ele>15.60000038147</ele>
        <time>2022-01-30T08:49:05.000Z</time>
      </trkpt>
      <trkpt lat="47.25889" lon="-2.30194">
        <ele>15.60000038147</ele>
        <time>2022-01-30T08:49:12.000Z</time>
      </trkpt>
      <trkpt lat="47.25889" lon="-2.30199">
        <ele>15.60000038147</ele>
        <time>2022-01-30T08:49:13.000Z</time>
      </trkpt>
      <trkpt lat="47.25889" lon="-2.30207">
        <ele>15.60000038147</ele>
        <time>2022-01-30T08:49:15.000Z</time>
      </trkpt>
      <trkpt lat="47.25887" lon="-2.30215">
        <ele>15.60000038147</ele>
        <time>2022-01-30T08:49:17.000Z</time>
      </trkpt>
      <trkpt lat="47.25887" lon="-2.30219">
        <ele>15.60000038147</ele>
        <time>2022-01-30T08:49:18.000Z</time>
      </trkpt>
      <trkpt lat="47.25889" lon="-2.30229">
        <ele>15.60000038147</ele>
        <time>2022-01-30T08:49:20.000Z</time>
      </trkpt>
      <trkpt lat="47.25886" lon="-2.30251">
        <ele>15.60000038147</ele>
        <time>2022-01-30T08:49:24.000Z</time>
      </trkpt>
      <trkpt lat="47.25874" lon="-2.30263">
        <ele>15.60000038147</ele>
        <time>2022-01-30T08:49:28.000Z</time>
      </trkpt>
      <trkpt lat="47.25856" lon="-2.30271">
        <ele>15.60000038147</ele>
        <time>2022-01-30T08:49:33.000Z</time>
      </trkpt>
      <trkpt lat="47.25843" lon="-2.30277">
        <ele>15.60000038147</ele>
        <time>2022-01-30T08:49:36.000Z</time>
      </trkpt>
      <trkpt lat="47.25833" lon="-2.30272">
        <ele>15.60000038147</ele>
        <time>2022-01-30T08:49:38.000Z</time>
      </trkpt>
      <trkpt lat="47.25805" lon="-2.30255">
        <ele>15.60000038147</ele>
        <time>2022-01-30T08:49:43.000Z</time>
      </trkpt>
      <trkpt lat="47.25763" lon="-2.30235">
        <ele>15.60000038147</ele>
        <time>2022-01-30T08:49:50.000Z</time>
      </trkpt>
      <trkpt lat="47.25723" lon="-2.30218">
        <ele>15.60000038147</ele>
        <time>2022-01-30T08:49:58.000Z</time>
      </trkpt>
      <trkpt lat="47.25718" lon="-2.30217">
        <ele>15.60000038147</ele>
        <time>2022-01-30T08:49:59.000Z</time>
      </trkpt>
      <trkpt lat="47.25709" lon="-2.30221">
        <ele>15.60000038147</ele>
        <time>2022-01-30T08:50:01.000Z</time>
      </trkpt>
      <trkpt lat="47.25701" lon="-2.30228">
        <ele>15.60000038147</ele>
        <time>2022-01-30T08:50:03.000Z</time>
      </trkpt>
      <trkpt lat="47.25694" lon="-2.30245">
        <ele>15.60000038147</ele>
        <time>2022-01-30T08:50:06.000Z</time>
      </trkpt>
      <trkpt lat="47.25695" lon="-2.30264">
        <ele>15.60000038147</ele>
        <time>2022-01-30T08:50:09.000Z</time>
      </trkpt>
      <trkpt lat="47.25696" lon="-2.30269">
        <ele>15.60000038147</ele>
        <time>2022-01-30T08:50:10.000Z</time>
      </trkpt>
      <trkpt lat="47.25695" lon="-2.30279">
        <ele>15.60000038147</ele>
        <time>2022-01-30T08:50:12.000Z</time>
      </trkpt>
      <trkpt lat="47.25693" lon="-2.30285">
        <ele>15.60000038147</ele>
        <time>2022-01-30T08:50:13.000Z</time>
      </trkpt>
      <trkpt lat="47.25688" lon="-2.30301">
        <ele>15.60000038147</ele>
        <time>2022-01-30T08:50:16.000Z</time>
      </trkpt>
      <trkpt lat="47.25685" lon="-2.30306">
        <ele>15.60000038147</ele>
        <time>2022-01-30T08:50:17.000Z</time>
      </trkpt>
      <trkpt lat="47.25679" lon="-2.30315">
        <ele>15.60000038147</ele>
        <time>2022-01-30T08:50:19.000Z</time>
      </trkpt>
      <trkpt lat="47.25659" lon="-2.30331">
        <ele>15.60000038147</ele>
        <time>2022-01-30T08:50:24.000Z</time>
      </trkpt>
      <trkpt lat="47.25655" lon="-2.30336">
        <ele>15.60000038147</ele>
        <time>2022-01-30T08:50:25.000Z</time>
      </trkpt>
      <trkpt lat="47.25635" lon="-2.30359">
        <ele>15.60000038147</ele>
        <time>2022-01-30T08:50:30.000Z</time>
      </trkpt>
      <trkpt lat="47.2563" lon="-2.30363">
        <ele>15.60000038147</ele>
        <time>2022-01-30T08:50:31.000Z</time>
      </trkpt>
      <trkpt lat="47.25616" lon="-2.30371">
        <ele>15.60000038147</ele>
        <time>2022-01-30T08:50:34.000Z</time>
      </trkpt>
      <trkpt lat="47.25606" lon="-2.30374">
        <ele>15.60000038147</ele>
        <time>2022-01-30T08:50:36.000Z</time>
      </trkpt>
      <trkpt lat="47.25563" lon="-2.30384">
        <ele>15.60000038147</ele>
        <time>2022-01-30T08:50:44.000Z</time>
      </trkpt>
      <trkpt lat="47.25533" lon="-2.3039">
        <ele>15.60000038147</ele>
        <time>2022-01-30T08:50:50.000Z</time>
      </trkpt>
      <trkpt lat="47.25523" lon="-2.30394">
        <ele>15.60000038147</ele>
        <time>2022-01-30T08:50:53.000Z</time>
      </trkpt>
      <trkpt lat="47.25522" lon="-2.30397">
        <ele>15.60000038147</ele>
        <time>2022-01-30T08:50:54.000Z</time>
      </trkpt>
      <trkpt lat="47.25522" lon="-2.30416">
        <ele>16</ele>
        <time>2022-01-30T08:50:58.000Z</time>
      </trkpt>
      <trkpt lat="47.25523" lon="-2.30421">
        <ele>16.799999237061</ele>
        <time>2022-01-30T08:50:59.000Z</time>
      </trkpt>
      <trkpt lat="47.25523" lon="-2.30426">
        <ele>17.200000762939</ele>
        <time>2022-01-30T08:51:00.000Z</time>
      </trkpt>
      <trkpt lat="47.25523" lon="-2.30433">
        <ele>17.60000038147</ele>
        <time>2022-01-30T08:51:01.000Z</time>
      </trkpt>
      <trkpt lat="47.25524" lon="-2.30439">
        <ele>17.60000038147</ele>
        <time>2022-01-30T08:51:02.000Z</time>
      </trkpt>
      <trkpt lat="47.25525" lon="-2.30458">
        <ele>17.60000038147</ele>
        <time>2022-01-30T08:51:05.000Z</time>
      </trkpt>
      <trkpt lat="47.25528" lon="-2.30498">
        <ele>17.60000038147</ele>
        <time>2022-01-30T08:51:11.000Z</time>
      </trkpt>
      <trkpt lat="47.25529" lon="-2.30505">
        <ele>17.60000038147</ele>
        <time>2022-01-30T08:51:12.000Z</time>
      </trkpt>
      <trkpt lat="47.25529" lon="-2.30511">
        <ele>17.60000038147</ele>
        <time>2022-01-30T08:51:13.000Z</time>
      </trkpt>
      <trkpt lat="47.25529" lon="-2.30539">
        <ele>17.60000038147</ele>
        <time>2022-01-30T08:51:17.000Z</time>
      </trkpt>
      <trkpt lat="47.25535" lon="-2.3056">
        <ele>17.60000038147</ele>
        <time>2022-01-30T08:51:21.000Z</time>
      </trkpt>
      <trkpt lat="47.25546" lon="-2.30565">
        <ele>17.60000038147</ele>
        <time>2022-01-30T08:51:24.000Z</time>
      </trkpt>
      <trkpt lat="47.25551" lon="-2.30565">
        <ele>17.60000038147</ele>
        <time>2022-01-30T08:51:25.000Z</time>
      </trkpt>
      <trkpt lat="47.25584" lon="-2.30569">
        <ele>17.60000038147</ele>
        <time>2022-01-30T08:51:31.000Z</time>
      </trkpt>
      <trkpt lat="47.25599" lon="-2.30575">
        <ele>17.60000038147</ele>
        <time>2022-01-30T08:51:34.000Z</time>
      </trkpt>
      <trkpt lat="47.25604" lon="-2.30582">
        <ele>17.60000038147</ele>
        <time>2022-01-30T08:51:36.000Z</time>
      </trkpt>
      <trkpt lat="47.25603" lon="-2.30592">
        <ele>17.60000038147</ele>
        <time>2022-01-30T08:51:38.000Z</time>
      </trkpt>
      <trkpt lat="47.25601" lon="-2.30602">
        <ele>17.60000038147</ele>
        <time>2022-01-30T08:51:40.000Z</time>
      </trkpt>
      <trkpt lat="47.25595" lon="-2.30625">
        <ele>17.60000038147</ele>
        <time>2022-01-30T08:51:45.000Z</time>
      </trkpt>
      <trkpt lat="47.25594" lon="-2.30649">
        <ele>17.60000038147</ele>
        <time>2022-01-30T08:51:50.000Z</time>
      </trkpt>
      <trkpt lat="47.25603" lon="-2.30661">
        <ele>17.60000038147</ele>
        <time>2022-01-30T08:51:53.000Z</time>
      </trkpt>
      <trkpt lat="47.2561" lon="-2.30666">
        <ele>17.60000038147</ele>
        <time>2022-01-30T08:51:55.000Z</time>
      </trkpt>
      <trkpt lat="47.25621" lon="-2.3067">
        <ele>17.60000038147</ele>
        <time>2022-01-30T08:51:58.000Z</time>
      </trkpt>
      <trkpt lat="47.25628" lon="-2.30675">
        <ele>17.60000038147</ele>
        <time>2022-01-30T08:52:00.000Z</time>
      </trkpt>
      <trkpt lat="47.25627" lon="-2.30692">
        <ele>17.60000038147</ele>
        <time>2022-01-30T08:52:03.000Z</time>
      </trkpt>
      <trkpt lat="47.25622" lon="-2.30707">
        <ele>17.60000038147</ele>
        <time>2022-01-30T08:52:05.000Z</time>
      </trkpt>
      <trkpt lat="47.25615" lon="-2.30729">
        <ele>17.60000038147</ele>
        <time>2022-01-30T08:52:08.000Z</time>
      </trkpt>
      <trkpt lat="47.25608" lon="-2.3078">
        <ele>17.60000038147</ele>
        <time>2022-01-30T08:52:14.000Z</time>
      </trkpt>
      <trkpt lat="47.25603" lon="-2.30846">
        <ele>17.60000038147</ele>
        <time>2022-01-30T08:52:22.000Z</time>
      </trkpt>
      <trkpt lat="47.25599" lon="-2.30879">
        <ele>17.60000038147</ele>
        <time>2022-01-30T08:52:26.000Z</time>
      </trkpt>
      <trkpt lat="47.25594" lon="-2.30893">
        <ele>17.60000038147</ele>
        <time>2022-01-30T08:52:28.000Z</time>
      </trkpt>
      <trkpt lat="47.25579" lon="-2.30912">
        <ele>17.60000038147</ele>
        <time>2022-01-30T08:52:32.000Z</time>
      </trkpt>
      <trkpt lat="47.25562" lon="-2.30915">
        <ele>17.60000038147</ele>
        <time>2022-01-30T08:52:35.000Z</time>
      </trkpt>
      <trkpt lat="47.25557" lon="-2.30915">
        <ele>17.60000038147</ele>
        <time>2022-01-30T08:52:36.000Z</time>
      </trkpt>
      <trkpt lat="47.25545" lon="-2.30916">
        <ele>17.60000038147</ele>
        <time>2022-01-30T08:52:38.000Z</time>
      </trkpt>
      <trkpt lat="47.25535" lon="-2.30922">
        <ele>17.60000038147</ele>
        <time>2022-01-30T08:52:40.000Z</time>
      </trkpt>
      <trkpt lat="47.25525" lon="-2.30941">
        <ele>17.60000038147</ele>
        <time>2022-01-30T08:52:43.000Z</time>
      </trkpt>
      <trkpt lat="47.25523" lon="-2.30958">
        <ele>17.60000038147</ele>
        <time>2022-01-30T08:52:45.000Z</time>
      </trkpt>
      <trkpt lat="47.25517" lon="-2.30989">
        <ele>17.60000038147</ele>
        <time>2022-01-30T08:52:49.000Z</time>
      </trkpt>
      <trkpt lat="47.25515" lon="-2.30995">
        <ele>17.60000038147</ele>
        <time>2022-01-30T08:52:50.000Z</time>
      </trkpt>
      <trkpt lat="47.25515" lon="-2.31011">
        <ele>17.60000038147</ele>
        <time>2022-01-30T08:52:53.000Z</time>
      </trkpt>
      <trkpt lat="47.25517" lon="-2.31018">
        <ele>17.60000038147</ele>
        <time>2022-01-30T08:52:55.000Z</time>
      </trkpt>
      <trkpt lat="47.25521" lon="-2.31025">
        <ele>17.60000038147</ele>
        <time>2022-01-30T08:52:58.000Z</time>
      </trkpt>
      <trkpt lat="47.25518" lon="-2.31027">
        <ele>17.60000038147</ele>
        <time>2022-01-30T08:53:01.000Z</time>
      </trkpt>
      <trkpt lat="47.25504" lon="-2.31024">
        <ele>17.60000038147</ele>
        <time>2022-01-30T08:53:06.000Z</time>
      </trkpt>
      <trkpt lat="47.25487" lon="-2.31027">
        <ele>17.60000038147</ele>
        <time>2022-01-30T08:53:11.000Z</time>
      </trkpt>
      <trkpt lat="47.25469" lon="-2.31038">
        <ele>17.60000038147</ele>
        <time>2022-01-30T08:53:16.000Z</time>
      </trkpt>
      <trkpt lat="47.25437" lon="-2.31051">
        <ele>17.60000038147</ele>
        <time>2022-01-30T08:53:23.000Z</time>
      </trkpt>
      <trkpt lat="47.25397" lon="-2.31062">
        <ele>17.60000038147</ele>
        <time>2022-01-30T08:53:31.000Z</time>
      </trkpt>
      <trkpt lat="47.25354" lon="-2.31067">
        <ele>17.60000038147</ele>
        <time>2022-01-30T08:53:40.000Z</time>
      </trkpt>
      <trkpt lat="47.25331" lon="-2.31073">
        <ele>17.60000038147</ele>
        <time>2022-01-30T08:53:46.000Z</time>
      </trkpt>
      <trkpt lat="47.25327" lon="-2.31071">
        <ele>17.60000038147</ele>
        <time>2022-01-30T08:53:47.000Z</time>
      </trkpt>
      <trkpt lat="47.25321" lon="-2.31064">
        <ele>17.60000038147</ele>
        <time>2022-01-30T08:53:49.000Z</time>
      </trkpt>
      <trkpt lat="47.25313" lon="-2.31041">
        <ele>17.60000038147</ele>
        <time>2022-01-30T08:53:53.000Z</time>
      </trkpt>
      <trkpt lat="47.25311" lon="-2.31034">
        <ele>17.60000038147</ele>
        <time>2022-01-30T08:53:54.000Z</time>
      </trkpt>
      <trkpt lat="47.25302" lon="-2.30995">
        <ele>17.60000038147</ele>
        <time>2022-01-30T08:54:00.000Z</time>
      </trkpt>
      <trkpt lat="47.2529" lon="-2.30947">
        <ele>17.60000038147</ele>
        <time>2022-01-30T08:54:08.000Z</time>
      </trkpt>
      <trkpt lat="47.25277" lon="-2.30905">
        <ele>17.60000038147</ele>
        <time>2022-01-30T08:54:15.000Z</time>
      </trkpt>
      <trkpt lat="47.25265" lon="-2.30867">
        <ele>17.60000038147</ele>
        <time>2022-01-30T08:54:22.000Z</time>
      </trkpt>
      <trkpt lat="47.25255" lon="-2.30827">
        <ele>17.60000038147</ele>
        <time>2022-01-30T08:54:29.000Z</time>
      </trkpt>
      <trkpt lat="47.25252" lon="-2.30815">
        <ele>17.60000038147</ele>
        <time>2022-01-30T08:54:31.000Z</time>
      </trkpt>
      <trkpt lat="47.2525" lon="-2.30796">
        <ele>17.60000038147</ele>
        <time>2022-01-30T08:54:34.000Z</time>
      </trkpt>
      <trkpt lat="47.25249" lon="-2.30779">
        <ele>17.60000038147</ele>
        <time>2022-01-30T08:54:37.000Z</time>
      </trkpt>
      <trkpt lat="47.25248" lon="-2.30774">
        <ele>17.60000038147</ele>
        <time>2022-01-30T08:54:38.000Z</time>
      </trkpt>
      <trkpt lat="47.25243" lon="-2.30733">
        <ele>17.60000038147</ele>
        <time>2022-01-30T08:54:45.000Z</time>
      </trkpt>
      <trkpt lat="47.25241" lon="-2.30714">
        <ele>17.60000038147</ele>
        <time>2022-01-30T08:54:48.000Z</time>
      </trkpt>
      <trkpt lat="47.25236" lon="-2.30698">
        <ele>17.60000038147</ele>
        <time>2022-01-30T08:54:51.000Z</time>
      </trkpt>
      <trkpt lat="47.25225" lon="-2.30684">
        <ele>17.60000038147</ele>
        <time>2022-01-30T08:54:55.000Z</time>
      </trkpt>
      <trkpt lat="47.25218" lon="-2.30673">
        <ele>17.60000038147</ele>
        <time>2022-01-30T08:54:58.000Z</time>
      </trkpt>
      <trkpt lat="47.25214" lon="-2.30664">
        <ele>17.60000038147</ele>
        <time>2022-01-30T08:55:00.000Z</time>
      </trkpt>
      <trkpt lat="47.25203" lon="-2.30643">
        <ele>17.60000038147</ele>
        <time>2022-01-30T08:55:05.000Z</time>
      </trkpt>
      <trkpt lat="47.25188" lon="-2.30607">
        <ele>17.60000038147</ele>
        <time>2022-01-30T08:55:12.000Z</time>
      </trkpt>
      <trkpt lat="47.25174" lon="-2.30558">
        <ele>17.60000038147</ele>
        <time>2022-01-30T08:55:21.000Z</time>
      </trkpt>
      <trkpt lat="47.25163" lon="-2.30517">
        <ele>17.60000038147</ele>
        <time>2022-01-30T08:55:28.000Z</time>
      </trkpt>
      <trkpt lat="47.25144" lon="-2.30474">
        <ele>17.60000038147</ele>
        <time>2022-01-30T08:55:36.000Z</time>
      </trkpt>
      <trkpt lat="47.25127" lon="-2.30431">
        <ele>17.60000038147</ele>
        <time>2022-01-30T08:55:44.000Z</time>
      </trkpt>
      <trkpt lat="47.25111" lon="-2.3039">
        <ele>17.60000038147</ele>
        <time>2022-01-30T08:55:52.000Z</time>
      </trkpt>
      <trkpt lat="47.25108" lon="-2.30378">
        <ele>17.60000038147</ele>
        <time>2022-01-30T08:55:56.000Z</time>
      </trkpt>
      <trkpt lat="47.25108" lon="-2.30379">
        <ele>17.60000038147</ele>
        <time>2022-01-30T08:56:59.000Z</time>
      </trkpt>
      <trkpt lat="47.25109" lon="-2.30385">
        <ele>17.60000038147</ele>
        <time>2022-01-30T08:57:02.000Z</time>
      </trkpt>
      <trkpt lat="47.25111" lon="-2.30392">
        <ele>17.200000762939</ele>
        <time>2022-01-30T08:57:04.000Z</time>
      </trkpt>
      <trkpt lat="47.25113" lon="-2.30396">
        <ele>16.799999237061</ele>
        <time>2022-01-30T08:57:05.000Z</time>
      </trkpt>
      <trkpt lat="47.25114" lon="-2.30401">
        <ele>16.39999961853</ele>
        <time>2022-01-30T08:57:06.000Z</time>
      </trkpt>
      <trkpt lat="47.25116" lon="-2.30405">
        <ele>16</ele>
        <time>2022-01-30T08:57:07.000Z</time>
      </trkpt>
      <trkpt lat="47.25117" lon="-2.30408">
        <ele>15.60000038147</ele>
        <time>2022-01-30T08:57:08.000Z</time>
      </trkpt>
      <trkpt lat="47.25126" lon="-2.30428">
        <ele>15.60000038147</ele>
        <time>2022-01-30T08:57:14.000Z</time>
      </trkpt>
      <trkpt lat="47.25136" lon="-2.30447">
        <ele>15.60000038147</ele>
        <time>2022-01-30T08:57:20.000Z</time>
      </trkpt>
      <trkpt lat="47.25148" lon="-2.30477">
        <ele>15.60000038147</ele>
        <time>2022-01-30T08:57:27.000Z</time>
      </trkpt>
      <trkpt lat="47.25163" lon="-2.30512">
        <ele>15.60000038147</ele>
        <time>2022-01-30T08:57:35.000Z</time>
      </trkpt>
      <trkpt lat="47.25174" lon="-2.30557">
        <ele>15.60000038147</ele>
        <time>2022-01-30T08:57:43.000Z</time>
      </trkpt>
      <trkpt lat="47.2518" lon="-2.30581">
        <ele>15.60000038147</ele>
        <time>2022-01-30T08:57:47.000Z</time>
      </trkpt>
      <trkpt lat="47.25184" lon="-2.30594">
        <ele>15.60000038147</ele>
        <time>2022-01-30T08:57:49.000Z</time>
      </trkpt>
      <trkpt lat="47.25191" lon="-2.30612">
        <ele>15.60000038147</ele>
        <time>2022-01-30T08:57:52.000Z</time>
      </trkpt>
      <trkpt lat="47.25201" lon="-2.30636">
        <ele>15.60000038147</ele>
        <time>2022-01-30T08:57:56.000Z</time>
      </trkpt>
      <trkpt lat="47.25219" lon="-2.30675">
        <ele>15.60000038147</ele>
        <time>2022-01-30T08:58:03.000Z</time>
      </trkpt>
      <trkpt lat="47.25225" lon="-2.30681">
        <ele>15.60000038147</ele>
        <time>2022-01-30T08:58:06.000Z</time>
      </trkpt>
      <trkpt lat="47.25238" lon="-2.30691">
        <ele>15.60000038147</ele>
        <time>2022-01-30T08:58:11.000Z</time>
      </trkpt>
      <trkpt lat="47.25247" lon="-2.30718">
        <ele>15.60000038147</ele>
        <time>2022-01-30T08:58:16.000Z</time>
      </trkpt>
      <trkpt lat="47.25251" lon="-2.30729">
        <ele>15.60000038147</ele>
        <time>2022-01-30T08:58:18.000Z</time>
      </trkpt>
      <trkpt lat="47.25252" lon="-2.30747">
        <ele>15.60000038147</ele>
        <time>2022-01-30T08:58:21.000Z</time>
      </trkpt>
      <trkpt lat="47.25257" lon="-2.30796">
        <ele>15.60000038147</ele>
        <time>2022-01-30T08:58:29.000Z</time>
      </trkpt>
      <trkpt lat="47.25258" lon="-2.30802">
        <ele>15.60000038147</ele>
        <time>2022-01-30T08:58:30.000Z</time>
      </trkpt>
      <trkpt lat="47.25264" lon="-2.30838">
        <ele>15.60000038147</ele>
        <time>2022-01-30T08:58:35.000Z</time>
      </trkpt>
      <trkpt lat="47.25266" lon="-2.30845">
        <ele>16</ele>
        <time>2022-01-30T08:58:36.000Z</time>
      </trkpt>
      <trkpt lat="47.25268" lon="-2.30853">
        <ele>16.39999961853</ele>
        <time>2022-01-30T08:58:37.000Z</time>
      </trkpt>
      <trkpt lat="47.2527" lon="-2.30861">
        <ele>16.799999237061</ele>
        <time>2022-01-30T08:58:38.000Z</time>
      </trkpt>
      <trkpt lat="47.25272" lon="-2.30869">
        <ele>17.200000762939</ele>
        <time>2022-01-30T08:58:39.000Z</time>
      </trkpt>
      <trkpt lat="47.25274" lon="-2.30877">
        <ele>17.60000038147</ele>
        <time>2022-01-30T08:58:40.000Z</time>
      </trkpt>
      <trkpt lat="47.25277" lon="-2.30885">
        <ele>17.60000038147</ele>
        <time>2022-01-30T08:58:41.000Z</time>
      </trkpt>
      <trkpt lat="47.253" lon="-2.30958">
        <ele>17.60000038147</ele>
        <time>2022-01-30T08:58:50.000Z</time>
      </trkpt>
      <trkpt lat="47.25314" lon="-2.31011">
        <ele>17.60000038147</ele>
        <time>2022-01-30T08:58:57.000Z</time>
      </trkpt>
      <trkpt lat="47.25319" lon="-2.31033">
        <ele>17.60000038147</ele>
        <time>2022-01-30T08:59:00.000Z</time>
      </trkpt>
      <trkpt lat="47.25322" lon="-2.31046">
        <ele>17.60000038147</ele>
        <time>2022-01-30T08:59:02.000Z</time>
      </trkpt>
      <trkpt lat="47.25328" lon="-2.31075">
        <ele>17.60000038147</ele>
        <time>2022-01-30T08:59:07.000Z</time>
      </trkpt>
      <trkpt lat="47.25329" lon="-2.31077">
        <ele>17.60000038147</ele>
        <time>2022-01-30T08:59:08.000Z</time>
      </trkpt>
      <trkpt lat="47.25334" lon="-2.31077">
        <ele>17.60000038147</ele>
        <time>2022-01-30T08:59:12.000Z</time>
      </trkpt>
      <trkpt lat="47.25341" lon="-2.31073">
        <ele>17.60000038147</ele>
        <time>2022-01-30T08:59:15.000Z</time>
      </trkpt>
      <trkpt lat="47.25348" lon="-2.3107">
        <ele>17.60000038147</ele>
        <time>2022-01-30T08:59:17.000Z</time>
      </trkpt>
      <trkpt lat="47.25378" lon="-2.31065">
        <ele>17.60000038147</ele>
        <time>2022-01-30T08:59:24.000Z</time>
      </trkpt>
      <trkpt lat="47.25416" lon="-2.31058">
        <ele>17.60000038147</ele>
        <time>2022-01-30T08:59:32.000Z</time>
      </trkpt>
      <trkpt lat="47.25446" lon="-2.3105">
        <ele>17.60000038147</ele>
        <time>2022-01-30T08:59:39.000Z</time>
      </trkpt>
      <trkpt lat="47.25469" lon="-2.3104">
        <ele>17.60000038147</ele>
        <time>2022-01-30T08:59:45.000Z</time>
      </trkpt>
      <trkpt lat="47.25482" lon="-2.3103">
        <ele>17.60000038147</ele>
        <time>2022-01-30T08:59:50.000Z</time>
      </trkpt>
      <trkpt lat="47.25486" lon="-2.31028">
        <ele>17.60000038147</ele>
        <time>2022-01-30T08:59:53.000Z</time>
      </trkpt>
      <trkpt lat="47.25488" lon="-2.31029">
        <ele>17.60000038147</ele>
        <time>2022-01-30T08:59:55.000Z</time>
      </trkpt>
      <trkpt lat="47.25474" lon="-2.31039">
        <ele>16</ele>
        <time>2022-01-30T09:28:15.000Z</time>
      </trkpt>
      <trkpt lat="47.2547" lon="-2.3104">
        <ele>16</ele>
        <time>2022-01-30T09:28:18.000Z</time>
      </trkpt>
      <trkpt lat="47.25469" lon="-2.31041">
        <ele>16</ele>
        <time>2022-01-30T09:28:19.000Z</time>
      </trkpt>
      <trkpt lat="47.2546" lon="-2.31046">
        <ele>16</ele>
        <time>2022-01-30T09:28:24.000Z</time>
      </trkpt>
      <trkpt lat="47.25445" lon="-2.31051">
        <ele>16</ele>
        <time>2022-01-30T09:28:31.000Z</time>
      </trkpt>
      <trkpt lat="47.25424" lon="-2.31057">
        <ele>16</ele>
        <time>2022-01-30T09:28:38.000Z</time>
      </trkpt>
      <trkpt lat="47.25395" lon="-2.31064">
        <ele>16</ele>
        <time>2022-01-30T09:28:46.000Z</time>
      </trkpt>
      <trkpt lat="47.25369" lon="-2.31066">
        <ele>16</ele>
        <time>2022-01-30T09:28:53.000Z</time>
      </trkpt>
      <trkpt lat="47.25346" lon="-2.31071">
        <ele>16</ele>
        <time>2022-01-30T09:28:59.000Z</time>
      </trkpt>
      <trkpt lat="47.25327" lon="-2.31071">
        <ele>16</ele>
        <time>2022-01-30T09:29:05.000Z</time>
      </trkpt>
      <trkpt lat="47.25318" lon="-2.31059">
        <ele>16</ele>
        <time>2022-01-30T09:29:09.000Z</time>
      </trkpt>
      <trkpt lat="47.2531" lon="-2.31034">
        <ele>16</ele>
        <time>2022-01-30T09:29:14.000Z</time>
      </trkpt>
      <trkpt lat="47.25308" lon="-2.31023">
        <ele>16</ele>
        <time>2022-01-30T09:29:16.000Z</time>
      </trkpt>
      <trkpt lat="47.25304" lon="-2.31">
        <ele>16</ele>
        <time>2022-01-30T09:29:20.000Z</time>
      </trkpt>
      <trkpt lat="47.25302" lon="-2.30994">
        <ele>16</ele>
        <time>2022-01-30T09:29:21.000Z</time>
      </trkpt>
      <trkpt lat="47.25293" lon="-2.30959">
        <ele>16</ele>
        <time>2022-01-30T09:29:27.000Z</time>
      </trkpt>
      <trkpt lat="47.25285" lon="-2.30931">
        <ele>16.60000038147</ele>
        <time>2022-01-30T09:29:32.000Z</time>
      </trkpt>
      <trkpt lat="47.25284" lon="-2.30927">
        <ele>17</ele>
        <time>2022-01-30T09:29:33.000Z</time>
      </trkpt>
      <trkpt lat="47.25282" lon="-2.30921">
        <ele>17.39999961853</ele>
        <time>2022-01-30T09:29:34.000Z</time>
      </trkpt>
      <trkpt lat="47.25281" lon="-2.30916">
        <ele>18.200000762939</ele>
        <time>2022-01-30T09:29:35.000Z</time>
      </trkpt>
      <trkpt lat="47.25267" lon="-2.30876">
        <ele>18.200000762939</ele>
        <time>2022-01-30T09:29:43.000Z</time>
      </trkpt>
      <trkpt lat="47.25261" lon="-2.3085">
        <ele>18.60000038147</ele>
        <time>2022-01-30T09:29:48.000Z</time>
      </trkpt>
      <trkpt lat="47.2526" lon="-2.30845">
        <ele>19</ele>
        <time>2022-01-30T09:29:49.000Z</time>
      </trkpt>
      <trkpt lat="47.25258" lon="-2.3084">
        <ele>19.39999961853</ele>
        <time>2022-01-30T09:29:50.000Z</time>
      </trkpt>
      <trkpt lat="47.25257" lon="-2.30834">
        <ele>19.799999237061</ele>
        <time>2022-01-30T09:29:51.000Z</time>
      </trkpt>
      <trkpt lat="47.25256" lon="-2.30829">
        <ele>20.200000762939</ele>
        <time>2022-01-30T09:29:52.000Z</time>
      </trkpt>
      <trkpt lat="47.25251" lon="-2.30796">
        <ele>20.200000762939</ele>
        <time>2022-01-30T09:29:58.000Z</time>
      </trkpt>
      <trkpt lat="47.25249" lon="-2.30779">
        <ele>20.60000038147</ele>
        <time>2022-01-30T09:30:01.000Z</time>
      </trkpt>
      <trkpt lat="47.25249" lon="-2.30773">
        <ele>21</ele>
        <time>2022-01-30T09:30:02.000Z</time>
      </trkpt>
      <trkpt lat="47.25248" lon="-2.30768">
        <ele>21.39999961853</ele>
        <time>2022-01-30T09:30:03.000Z</time>
      </trkpt>
      <trkpt lat="47.25248" lon="-2.30762">
        <ele>21.799999237061</ele>
        <time>2022-01-30T09:30:04.000Z</time>
      </trkpt>
      <trkpt lat="47.25247" lon="-2.30757">
        <ele>22.200000762939</ele>
        <time>2022-01-30T09:30:05.000Z</time>
      </trkpt>
      <trkpt lat="47.25246" lon="-2.30745">
        <ele>22.200000762939</ele>
        <time>2022-01-30T09:30:07.000Z</time>
      </trkpt>
      <trkpt lat="47.25243" lon="-2.30716">
        <ele>22.200000762939</ele>
        <time>2022-01-30T09:30:12.000Z</time>
      </trkpt>
      <trkpt lat="47.2524" lon="-2.30706">
        <ele>22.200000762939</ele>
        <time>2022-01-30T09:30:14.000Z</time>
      </trkpt>
      <trkpt lat="47.25227" lon="-2.30686">
        <ele>22.799999237061</ele>
        <time>2022-01-30T09:30:19.000Z</time>
      </trkpt>
      <trkpt lat="47.25224" lon="-2.30683">
        <ele>23.200000762939</ele>
        <time>2022-01-30T09:30:20.000Z</time>
      </trkpt>
      <trkpt lat="47.25221" lon="-2.30679">
        <ele>23.60000038147</ele>
        <time>2022-01-30T09:30:21.000Z</time>
      </trkpt>
      <trkpt lat="47.25218" lon="-2.30674">
        <ele>24</ele>
        <time>2022-01-30T09:30:22.000Z</time>
      </trkpt>
      <trkpt lat="47.25216" lon="-2.3067">
        <ele>24.39999961853</ele>
        <time>2022-01-30T09:30:23.000Z</time>
      </trkpt>
      <trkpt lat="47.25213" lon="-2.30666">
        <ele>24.39999961853</ele>
        <time>2022-01-30T09:30:24.000Z</time>
      </trkpt>
      <trkpt lat="47.25204" lon="-2.30644">
        <ele>24.39999961853</ele>
        <time>2022-01-30T09:30:29.000Z</time>
      </trkpt>
      <trkpt lat="47.25193" lon="-2.30618">
        <ele>24.799999237061</ele>
        <time>2022-01-30T09:30:34.000Z</time>
      </trkpt>
      <trkpt lat="47.25191" lon="-2.30612">
        <ele>25.200000762939</ele>
        <time>2022-01-30T09:30:35.000Z</time>
      </trkpt>
      <trkpt lat="47.25189" lon="-2.30607">
        <ele>25.60000038147</ele>
        <time>2022-01-30T09:30:36.000Z</time>
      </trkpt>
      <trkpt lat="47.25187" lon="-2.30601">
        <ele>26</ele>
        <time>2022-01-30T09:30:37.000Z</time>
      </trkpt>
      <trkpt lat="47.25185" lon="-2.30595">
        <ele>26.60000038147</ele>
        <time>2022-01-30T09:30:38.000Z</time>
      </trkpt>
      <trkpt lat="47.25175" lon="-2.30568">
        <ele>26.60000038147</ele>
        <time>2022-01-30T09:30:43.000Z</time>
      </trkpt>
      <trkpt lat="47.25167" lon="-2.30534">
        <ele>27</ele>
        <time>2022-01-30T09:30:49.000Z</time>
      </trkpt>
      <trkpt lat="47.25166" lon="-2.30528">
        <ele>27.39999961853</ele>
        <time>2022-01-30T09:30:50.000Z</time>
      </trkpt>
      <trkpt lat="47.25164" lon="-2.30523">
        <ele>27.799999237061</ele>
        <time>2022-01-30T09:30:51.000Z</time>
      </trkpt>
      <trkpt lat="47.25162" lon="-2.30517">
        <ele>28.200000762939</ele>
        <time>2022-01-30T09:30:52.000Z</time>
      </trkpt>
      <trkpt lat="47.2516" lon="-2.30512">
        <ele>28.60000038147</ele>
        <time>2022-01-30T09:30:53.000Z</time>
      </trkpt>
      <trkpt lat="47.25147" lon="-2.3048">
        <ele>28.60000038147</ele>
        <time>2022-01-30T09:30:59.000Z</time>
      </trkpt>
      <trkpt lat="47.2513" lon="-2.30439">
        <ele>28.60000038147</ele>
        <time>2022-01-30T09:31:07.000Z</time>
      </trkpt>
      <trkpt lat="47.25126" lon="-2.30428">
        <ele>29</ele>
        <time>2022-01-30T09:31:09.000Z</time>
      </trkpt>
      <trkpt lat="47.25124" lon="-2.30423">
        <ele>29.39999961853</ele>
        <time>2022-01-30T09:31:10.000Z</time>
      </trkpt>
      <trkpt lat="47.25121" lon="-2.30418">
        <ele>29.799999237061</ele>
        <time>2022-01-30T09:31:11.000Z</time>
      </trkpt>
      <trkpt lat="47.25119" lon="-2.30412">
        <ele>30.200000762939</ele>
        <time>2022-01-30T09:31:12.000Z</time>
      </trkpt>
      <trkpt lat="47.25117" lon="-2.30407">
        <ele>30.60000038147</ele>
        <time>2022-01-30T09:31:13.000Z</time>
      </trkpt>
      <trkpt lat="47.25115" lon="-2.30401">
        <ele>30.60000038147</ele>
        <time>2022-01-30T09:31:14.000Z</time>
      </trkpt>
      <trkpt lat="47.25109" lon="-2.30382">
        <ele>30.60000038147</ele>
        <time>2022-01-30T09:31:17.000Z</time>
      </trkpt>
      <trkpt lat="47.25103" lon="-2.30354">
        <ele>30.60000038147</ele>
        <time>2022-01-30T09:31:21.000Z</time>
      </trkpt>
      <trkpt lat="47.25092" lon="-2.30313">
        <ele>30.60000038147</ele>
        <time>2022-01-30T09:31:27.000Z</time>
      </trkpt>
      <trkpt lat="47.25074" lon="-2.30278">
        <ele>30.60000038147</ele>
        <time>2022-01-30T09:31:33.000Z</time>
      </trkpt>
      <trkpt lat="47.25062" lon="-2.30251">
        <ele>30.60000038147</ele>
        <time>2022-01-30T09:31:37.000Z</time>
      </trkpt>
      <trkpt lat="47.2506" lon="-2.30243">
        <ele>31</ele>
        <time>2022-01-30T09:31:38.000Z</time>
      </trkpt>
      <trkpt lat="47.25059" lon="-2.30236">
        <ele>31.799999237061</ele>
        <time>2022-01-30T09:31:39.000Z</time>
      </trkpt>
      <trkpt lat="47.25058" lon="-2.30228">
        <ele>32.200000762939</ele>
        <time>2022-01-30T09:31:40.000Z</time>
      </trkpt>
      <trkpt lat="47.25057" lon="-2.30221">
        <ele>32.599998474121</ele>
        <time>2022-01-30T09:31:41.000Z</time>
      </trkpt>
      <trkpt lat="47.25057" lon="-2.30205">
        <ele>32.599998474121</ele>
        <time>2022-01-30T09:31:43.000Z</time>
      </trkpt>
      <trkpt lat="47.25057" lon="-2.30197">
        <ele>32.599998474121</ele>
        <time>2022-01-30T09:31:44.000Z</time>
      </trkpt>
      <trkpt lat="47.25062" lon="-2.30149">
        <ele>32.599998474121</ele>
        <time>2022-01-30T09:31:50.000Z</time>
      </trkpt>
      <trkpt lat="47.25064" lon="-2.30142">
        <ele>32.599998474121</ele>
        <time>2022-01-30T09:31:51.000Z</time>
      </trkpt>
      <trkpt lat="47.25071" lon="-2.30134">
        <ele>32.599998474121</ele>
        <time>2022-01-30T09:31:54.000Z</time>
      </trkpt>
      <trkpt lat="47.25085" lon="-2.30135">
        <ele>32.599998474121</ele>
        <time>2022-01-30T09:31:57.000Z</time>
      </trkpt>
      <trkpt lat="47.25089" lon="-2.30135">
        <ele>32.599998474121</ele>
        <time>2022-01-30T09:31:58.000Z</time>
      </trkpt>
      <trkpt lat="47.2511" lon="-2.30131">
        <ele>32.599998474121</ele>
        <time>2022-01-30T09:32:02.000Z</time>
      </trkpt>
      <trkpt lat="47.2512" lon="-2.30128">
        <ele>32.599998474121</ele>
        <time>2022-01-30T09:32:04.000Z</time>
      </trkpt>
      <trkpt lat="47.25137" lon="-2.30126">
        <ele>32.599998474121</ele>
        <time>2022-01-30T09:32:07.000Z</time>
      </trkpt>
      <trkpt lat="47.25172" lon="-2.30117">
        <ele>32.599998474121</ele>
        <time>2022-01-30T09:32:13.000Z</time>
      </trkpt>
      <trkpt lat="47.25186" lon="-2.30123">
        <ele>32.599998474121</ele>
        <time>2022-01-30T09:32:16.000Z</time>
      </trkpt>
      <trkpt lat="47.25193" lon="-2.30136">
        <ele>32.200000762939</ele>
        <time>2022-01-30T09:32:18.000Z</time>
      </trkpt>
      <trkpt lat="47.25196" lon="-2.30143">
        <ele>31.799999237061</ele>
        <time>2022-01-30T09:32:19.000Z</time>
      </trkpt>
      <trkpt lat="47.25201" lon="-2.30149">
        <ele>31.39999961853</ele>
        <time>2022-01-30T09:32:20.000Z</time>
      </trkpt>
      <trkpt lat="47.25206" lon="-2.30154">
        <ele>31</ele>
        <time>2022-01-30T09:32:21.000Z</time>
      </trkpt>
      <trkpt lat="47.25211" lon="-2.3016">
        <ele>30.60000038147</ele>
        <time>2022-01-30T09:32:22.000Z</time>
      </trkpt>
      <trkpt lat="47.25215" lon="-2.30165">
        <ele>30.60000038147</ele>
        <time>2022-01-30T09:32:23.000Z</time>
      </trkpt>
      <trkpt lat="47.2522" lon="-2.3017">
        <ele>30.60000038147</ele>
        <time>2022-01-30T09:32:24.000Z</time>
      </trkpt>
      <trkpt lat="47.25235" lon="-2.30178">
        <ele>30.60000038147</ele>
        <time>2022-01-30T09:32:27.000Z</time>
      </trkpt>
      <trkpt lat="47.2524" lon="-2.3018">
        <ele>30</ele>
        <time>2022-01-30T09:32:28.000Z</time>
      </trkpt>
      <trkpt lat="47.25244" lon="-2.30182">
        <ele>29.200000762939</ele>
        <time>2022-01-30T09:32:29.000Z</time>
      </trkpt>
      <trkpt lat="47.25249" lon="-2.30184">
        <ele>28.60000038147</ele>
        <time>2022-01-30T09:32:30.000Z</time>
      </trkpt>
      <trkpt lat="47.25253" lon="-2.30186">
        <ele>28.200000762939</ele>
        <time>2022-01-30T09:32:31.000Z</time>
      </trkpt>
      <trkpt lat="47.25263" lon="-2.30191">
        <ele>28.200000762939</ele>
        <time>2022-01-30T09:32:33.000Z</time>
      </trkpt>
      <trkpt lat="47.25297" lon="-2.30207">
        <ele>28.200000762939</ele>
        <time>2022-01-30T09:32:40.000Z</time>
      </trkpt>
      <trkpt lat="47.253" lon="-2.30208">
        <ele>27.799999237061</ele>
        <time>2022-01-30T09:32:41.000Z</time>
      </trkpt>
      <trkpt lat="47.25303" lon="-2.30207">
        <ele>27.39999961853</ele>
        <time>2022-01-30T09:32:42.000Z</time>
      </trkpt>
      <trkpt lat="47.25304" lon="-2.30205">
        <ele>27</ele>
        <time>2022-01-30T09:32:43.000Z</time>
      </trkpt>
      <trkpt lat="47.25306" lon="-2.30202">
        <ele>26.60000038147</ele>
        <time>2022-01-30T09:32:44.000Z</time>
      </trkpt>
      <trkpt lat="47.25308" lon="-2.30201">
        <ele>26.200000762939</ele>
        <time>2022-01-30T09:32:45.000Z</time>
      </trkpt>
      <trkpt lat="47.25314" lon="-2.30202">
        <ele>26.200000762939</ele>
        <time>2022-01-30T09:32:47.000Z</time>
      </trkpt>
      <trkpt lat="47.25338" lon="-2.30206">
        <ele>26.200000762939</ele>
        <time>2022-01-30T09:32:52.000Z</time>
      </trkpt>
      <trkpt lat="47.25373" lon="-2.3021">
        <ele>26.200000762939</ele>
        <time>2022-01-30T09:32:59.000Z</time>
      </trkpt>
      <trkpt lat="47.2539" lon="-2.30216">
        <ele>25.799999237061</ele>
        <time>2022-01-30T09:33:03.000Z</time>
      </trkpt>
      <trkpt lat="47.25394" lon="-2.30218">
        <ele>25.200000762939</ele>
        <time>2022-01-30T09:33:04.000Z</time>
      </trkpt>
      <trkpt lat="47.25399" lon="-2.3022">
        <ele>24.799999237061</ele>
        <time>2022-01-30T09:33:05.000Z</time>
      </trkpt>
      <trkpt lat="47.25403" lon="-2.30223">
        <ele>24.39999961853</ele>
        <time>2022-01-30T09:33:06.000Z</time>
      </trkpt>
      <trkpt lat="47.25407" lon="-2.30224">
        <ele>24</ele>
        <time>2022-01-30T09:33:07.000Z</time>
      </trkpt>
      <trkpt lat="47.2542" lon="-2.30227">
        <ele>24</ele>
        <time>2022-01-30T09:33:10.000Z</time>
      </trkpt>
      <trkpt lat="47.25429" lon="-2.30232">
        <ele>24</ele>
        <time>2022-01-30T09:33:13.000Z</time>
      </trkpt>
      <trkpt lat="47.25452" lon="-2.30243">
        <ele>24</ele>
        <time>2022-01-30T09:33:19.000Z</time>
      </trkpt>
      <trkpt lat="47.25465" lon="-2.30247">
        <ele>23.60000038147</ele>
        <time>2022-01-30T09:33:22.000Z</time>
      </trkpt>
      <trkpt lat="47.25468" lon="-2.30245">
        <ele>23.200000762939</ele>
        <time>2022-01-30T09:33:23.000Z</time>
      </trkpt>
      <trkpt lat="47.2547" lon="-2.30242">
        <ele>22.799999237061</ele>
        <time>2022-01-30T09:33:24.000Z</time>
      </trkpt>
      <trkpt lat="47.25472" lon="-2.30237">
        <ele>22.39999961853</ele>
        <time>2022-01-30T09:33:25.000Z</time>
      </trkpt>
      <trkpt lat="47.25474" lon="-2.30232">
        <ele>22</ele>
        <time>2022-01-30T09:33:26.000Z</time>
      </trkpt>
      <trkpt lat="47.25484" lon="-2.30206">
        <ele>22</ele>
        <time>2022-01-30T09:33:31.000Z</time>
      </trkpt>
      <trkpt lat="47.25491" lon="-2.30199">
        <ele>22</ele>
        <time>2022-01-30T09:33:33.000Z</time>
      </trkpt>
      <trkpt lat="47.25498" lon="-2.30196">
        <ele>22</ele>
        <time>2022-01-30T09:33:35.000Z</time>
      </trkpt>
      <trkpt lat="47.25508" lon="-2.30195">
        <ele>22</ele>
        <time>2022-01-30T09:33:38.000Z</time>
      </trkpt>
      <trkpt lat="47.25513" lon="-2.30196">
        <ele>22</ele>
        <time>2022-01-30T09:33:39.000Z</time>
      </trkpt>
      <trkpt lat="47.25526" lon="-2.30193">
        <ele>22</ele>
        <time>2022-01-30T09:33:41.000Z</time>
      </trkpt>
      <trkpt lat="47.25538" lon="-2.30188">
        <ele>22</ele>
        <time>2022-01-30T09:33:43.000Z</time>
      </trkpt>
      <trkpt lat="47.25552" lon="-2.3018">
        <ele>22</ele>
        <time>2022-01-30T09:33:46.000Z</time>
      </trkpt>
      <trkpt lat="47.25557" lon="-2.30172">
        <ele>22</ele>
        <time>2022-01-30T09:33:48.000Z</time>
      </trkpt>
      <trkpt lat="47.2556" lon="-2.30165">
        <ele>22</ele>
        <time>2022-01-30T09:33:50.000Z</time>
      </trkpt>
      <trkpt lat="47.25561" lon="-2.30158">
        <ele>22</ele>
        <time>2022-01-30T09:33:52.000Z</time>
      </trkpt>
      <trkpt lat="47.25563" lon="-2.30137">
        <ele>22</ele>
        <time>2022-01-30T09:33:57.000Z</time>
      </trkpt>
      <trkpt lat="47.25564" lon="-2.30133">
        <ele>22</ele>
        <time>2022-01-30T09:33:58.000Z</time>
      </trkpt>
      <trkpt lat="47.25571" lon="-2.30102">
        <ele>22</ele>
        <time>2022-01-30T09:34:04.000Z</time>
      </trkpt>
      <trkpt lat="47.25585" lon="-2.30079">
        <ele>22</ele>
        <time>2022-01-30T09:34:09.000Z</time>
      </trkpt>
      <trkpt lat="47.25597" lon="-2.30064">
        <ele>22</ele>
        <time>2022-01-30T09:34:12.000Z</time>
      </trkpt>
      <trkpt lat="47.25608" lon="-2.3005">
        <ele>22</ele>
        <time>2022-01-30T09:34:15.000Z</time>
      </trkpt>
      <trkpt lat="47.25611" lon="-2.30044">
        <ele>22</ele>
        <time>2022-01-30T09:34:16.000Z</time>
      </trkpt>
      <trkpt lat="47.25613" lon="-2.30022">
        <ele>22</ele>
        <time>2022-01-30T09:34:19.000Z</time>
      </trkpt>
      <trkpt lat="47.25601" lon="-2.29997">
        <ele>22.39999961853</ele>
        <time>2022-01-30T09:34:23.000Z</time>
      </trkpt>
      <trkpt lat="47.25598" lon="-2.29991">
        <ele>22.799999237061</ele>
        <time>2022-01-30T09:34:24.000Z</time>
      </trkpt>
      <trkpt lat="47.25594" lon="-2.29986">
        <ele>23.200000762939</ele>
        <time>2022-01-30T09:34:25.000Z</time>
      </trkpt>
      <trkpt lat="47.25591" lon="-2.29981">
        <ele>23.60000038147</ele>
        <time>2022-01-30T09:34:26.000Z</time>
      </trkpt>
      <trkpt lat="47.25588" lon="-2.29976">
        <ele>24</ele>
        <time>2022-01-30T09:34:27.000Z</time>
      </trkpt>
      <trkpt lat="47.25575" lon="-2.29957">
        <ele>24</ele>
        <time>2022-01-30T09:34:31.000Z</time>
      </trkpt>
      <trkpt lat="47.25566" lon="-2.29941">
        <ele>24.39999961853</ele>
        <time>2022-01-30T09:34:34.000Z</time>
      </trkpt>
      <trkpt lat="47.25563" lon="-2.29937">
        <ele>24.799999237061</ele>
        <time>2022-01-30T09:34:35.000Z</time>
      </trkpt>
      <trkpt lat="47.2556" lon="-2.29932">
        <ele>25.200000762939</ele>
        <time>2022-01-30T09:34:36.000Z</time>
      </trkpt>
      <trkpt lat="47.25557" lon="-2.29927">
        <ele>25.60000038147</ele>
        <time>2022-01-30T09:34:37.000Z</time>
      </trkpt>
      <trkpt lat="47.25554" lon="-2.29922">
        <ele>26</ele>
        <time>2022-01-30T09:34:38.000Z</time>
      </trkpt>
      <trkpt lat="47.25537" lon="-2.2989">
        <ele>26</ele>
        <time>2022-01-30T09:34:45.000Z</time>
      </trkpt>
      <trkpt lat="47.25535" lon="-2.29881">
        <ele>26</ele>
        <time>2022-01-30T09:34:47.000Z</time>
      </trkpt>
      <trkpt lat="47.25537" lon="-2.29875">
        <ele>26.60000038147</ele>
        <time>2022-01-30T09:34:48.000Z</time>
      </trkpt>
      <trkpt lat="47.2554" lon="-2.29869">
        <ele>27</ele>
        <time>2022-01-30T09:34:49.000Z</time>
      </trkpt>
      <trkpt lat="47.25544" lon="-2.29864">
        <ele>27.39999961853</ele>
        <time>2022-01-30T09:34:50.000Z</time>
      </trkpt>
      <trkpt lat="47.25547" lon="-2.29858">
        <ele>27.799999237061</ele>
        <time>2022-01-30T09:34:51.000Z</time>
      </trkpt>
      <trkpt lat="47.25551" lon="-2.29852">
        <ele>28.200000762939</ele>
        <time>2022-01-30T09:34:52.000Z</time>
      </trkpt>
      <trkpt lat="47.25554" lon="-2.29846">
        <ele>28.200000762939</ele>
        <time>2022-01-30T09:34:53.000Z</time>
      </trkpt>
      <trkpt lat="47.25575" lon="-2.29817">
        <ele>28.200000762939</ele>
        <time>2022-01-30T09:34:59.000Z</time>
      </trkpt>
      <trkpt lat="47.25577" lon="-2.29812">
        <ele>27.799999237061</ele>
        <time>2022-01-30T09:35:00.000Z</time>
      </trkpt>
      <trkpt lat="47.25578" lon="-2.29808">
        <ele>27.200000762939</ele>
        <time>2022-01-30T09:35:01.000Z</time>
      </trkpt>
      <trkpt lat="47.25579" lon="-2.29804">
        <ele>26.799999237061</ele>
        <time>2022-01-30T09:35:02.000Z</time>
      </trkpt>
      <trkpt lat="47.25577" lon="-2.298">
        <ele>26.200000762939</ele>
        <time>2022-01-30T09:35:03.000Z</time>
      </trkpt>
      <trkpt lat="47.25575" lon="-2.29796">
        <ele>25.799999237061</ele>
        <time>2022-01-30T09:35:04.000Z</time>
      </trkpt>
      <trkpt lat="47.25573" lon="-2.29792">
        <ele>25.799999237061</ele>
        <time>2022-01-30T09:35:05.000Z</time>
      </trkpt>
      <trkpt lat="47.25555" lon="-2.29767">
        <ele>25.799999237061</ele>
        <time>2022-01-30T09:35:11.000Z</time>
      </trkpt>
      <trkpt lat="47.2553" lon="-2.29742">
        <ele>25.799999237061</ele>
        <time>2022-01-30T09:35:18.000Z</time>
      </trkpt>
      <trkpt lat="47.25521" lon="-2.29739">
        <ele>26.200000762939</ele>
        <time>2022-01-30T09:35:20.000Z</time>
      </trkpt>
      <trkpt lat="47.25517" lon="-2.29738">
        <ele>26.799999237061</ele>
        <time>2022-01-30T09:35:21.000Z</time>
      </trkpt>
      <trkpt lat="47.25512" lon="-2.29738">
        <ele>27.60000038147</ele>
        <time>2022-01-30T09:35:22.000Z</time>
      </trkpt>
      <trkpt lat="47.25507" lon="-2.29738">
        <ele>28.200000762939</ele>
        <time>2022-01-30T09:35:23.000Z</time>
      </trkpt>
      <trkpt lat="47.25503" lon="-2.29739">
        <ele>28.200000762939</ele>
        <time>2022-01-30T09:35:24.000Z</time>
      </trkpt>
      <trkpt lat="47.25488" lon="-2.29741">
        <ele>28.200000762939</ele>
        <time>2022-01-30T09:35:27.000Z</time>
      </trkpt>
      <trkpt lat="47.25485" lon="-2.29737">
        <ele>28.200000762939</ele>
        <time>2022-01-30T09:35:28.000Z</time>
      </trkpt>
      <trkpt lat="47.25482" lon="-2.29732">
        <ele>28.60000038147</ele>
        <time>2022-01-30T09:35:29.000Z</time>
      </trkpt>
      <trkpt lat="47.25481" lon="-2.29726">
        <ele>29</ele>
        <time>2022-01-30T09:35:30.000Z</time>
      </trkpt>
      <trkpt lat="47.25479" lon="-2.29719">
        <ele>29.39999961853</ele>
        <time>2022-01-30T09:35:31.000Z</time>
      </trkpt>
      <trkpt lat="47.25478" lon="-2.29712">
        <ele>29.799999237061</ele>
        <time>2022-01-30T09:35:32.000Z</time>
      </trkpt>
      <trkpt lat="47.25477" lon="-2.29705">
        <ele>30.200000762939</ele>
        <time>2022-01-30T09:35:33.000Z</time>
      </trkpt>
      <trkpt lat="47.25475" lon="-2.29692">
        <ele>30.200000762939</ele>
        <time>2022-01-30T09:35:35.000Z</time>
      </trkpt>
      <trkpt lat="47.25472" lon="-2.29677">
        <ele>30.200000762939</ele>
        <time>2022-01-30T09:35:37.000Z</time>
      </trkpt>
      <trkpt lat="47.25461" lon="-2.29624">
        <ele>30.60000038147</ele>
        <time>2022-01-30T09:35:44.000Z</time>
      </trkpt>
      <trkpt lat="47.25458" lon="-2.29617">
        <ele>31</ele>
        <time>2022-01-30T09:35:45.000Z</time>
      </trkpt>
      <trkpt lat="47.25457" lon="-2.2961">
        <ele>31.799999237061</ele>
        <time>2022-01-30T09:35:46.000Z</time>
      </trkpt>
      <trkpt lat="47.25454" lon="-2.29604">
        <ele>32.200000762939</ele>
        <time>2022-01-30T09:35:47.000Z</time>
      </trkpt>
      <trkpt lat="47.25447" lon="-2.29583">
        <ele>32.200000762939</ele>
        <time>2022-01-30T09:35:50.000Z</time>
      </trkpt>
      <trkpt lat="47.2543" lon="-2.29525">
        <ele>32.200000762939</ele>
        <time>2022-01-30T09:35:58.000Z</time>
      </trkpt>
      <trkpt lat="47.25429" lon="-2.29517">
        <ele>32.200000762939</ele>
        <time>2022-01-30T09:35:59.000Z</time>
      </trkpt>
      <trkpt lat="47.25428" lon="-2.29493">
        <ele>32.200000762939</ele>
        <time>2022-01-30T09:36:02.000Z</time>
      </trkpt>
      <trkpt lat="47.25426" lon="-2.29419">
        <ele>32.599998474121</ele>
        <time>2022-01-30T09:36:11.000Z</time>
      </trkpt>
      <trkpt lat="47.25426" lon="-2.29411">
        <ele>33</ele>
        <time>2022-01-30T09:36:12.000Z</time>
      </trkpt>
      <trkpt lat="47.25426" lon="-2.29403">
        <ele>33.400001525879</ele>
        <time>2022-01-30T09:36:13.000Z</time>
      </trkpt>
      <trkpt lat="47.25426" lon="-2.29395">
        <ele>33.799999237061</ele>
        <time>2022-01-30T09:36:14.000Z</time>
      </trkpt>
      <trkpt lat="47.25426" lon="-2.29388">
        <ele>34.200000762939</ele>
        <time>2022-01-30T09:36:15.000Z</time>
      </trkpt>
      <trkpt lat="47.25425" lon="-2.29347">
        <ele>34.200000762939</ele>
        <time>2022-01-30T09:36:20.000Z</time>
      </trkpt>
      <trkpt lat="47.25424" lon="-2.29288">
        <ele>34.200000762939</ele>
        <time>2022-01-30T09:36:27.000Z</time>
      </trkpt>
      <trkpt lat="47.25423" lon="-2.2923">
        <ele>34.200000762939</ele>
        <time>2022-01-30T09:36:34.000Z</time>
      </trkpt>
      <trkpt lat="47.25424" lon="-2.29207">
        <ele>34.200000762939</ele>
        <time>2022-01-30T09:36:37.000Z</time>
      </trkpt>
      <trkpt lat="47.25426" lon="-2.29194">
        <ele>34.200000762939</ele>
        <time>2022-01-30T09:36:39.000Z</time>
      </trkpt>
      <trkpt lat="47.25422" lon="-2.29184">
        <ele>34.200000762939</ele>
        <time>2022-01-30T09:36:42.000Z</time>
      </trkpt>
      <trkpt lat="47.25414" lon="-2.2919">
        <ele>34.200000762939</ele>
        <time>2022-01-30T09:36:45.000Z</time>
      </trkpt>
      <trkpt lat="47.25407" lon="-2.29195">
        <ele>34.200000762939</ele>
        <time>2022-01-30T09:36:47.000Z</time>
      </trkpt>
      <trkpt lat="47.25399" lon="-2.29202">
        <ele>34.200000762939</ele>
        <time>2022-01-30T09:36:49.000Z</time>
      </trkpt>
      <trkpt lat="47.25396" lon="-2.29206">
        <ele>34.200000762939</ele>
        <time>2022-01-30T09:36:50.000Z</time>
      </trkpt>
      <trkpt lat="47.25378" lon="-2.29233">
        <ele>34.200000762939</ele>
        <time>2022-01-30T09:36:56.000Z</time>
      </trkpt>
      <trkpt lat="47.25372" lon="-2.29242">
        <ele>34.200000762939</ele>
        <time>2022-01-30T09:36:58.000Z</time>
      </trkpt>
      <trkpt lat="47.25367" lon="-2.2926">
        <ele>34.200000762939</ele>
        <time>2022-01-30T09:37:01.000Z</time>
      </trkpt>
      <trkpt lat="47.25359" lon="-2.29301">
        <ele>34.200000762939</ele>
        <time>2022-01-30T09:37:07.000Z</time>
      </trkpt>
      <trkpt lat="47.25354" lon="-2.29344">
        <ele>34.200000762939</ele>
        <time>2022-01-30T09:37:13.000Z</time>
      </trkpt>
      <trkpt lat="47.25351" lon="-2.29357">
        <ele>34.200000762939</ele>
        <time>2022-01-30T09:37:15.000Z</time>
      </trkpt>
      <trkpt lat="47.25345" lon="-2.29385">
        <ele>34.200000762939</ele>
        <time>2022-01-30T09:37:19.000Z</time>
      </trkpt>
      <trkpt lat="47.25343" lon="-2.2942">
        <ele>34.200000762939</ele>
        <time>2022-01-30T09:37:24.000Z</time>
      </trkpt>
      <trkpt lat="47.25344" lon="-2.29437">
        <ele>34.200000762939</ele>
        <time>2022-01-30T09:37:28.000Z</time>
      </trkpt>
      <trkpt lat="47.25343" lon="-2.29468">
        <ele>34.200000762939</ele>
        <time>2022-01-30T09:37:35.000Z</time>
      </trkpt>
      <trkpt lat="47.25337" lon="-2.2949">
        <ele>34.200000762939</ele>
        <time>2022-01-30T09:37:39.000Z</time>
      </trkpt>
      <trkpt lat="47.25335" lon="-2.29497">
        <ele>34.200000762939</ele>
        <time>2022-01-30T09:37:40.000Z</time>
      </trkpt>
      <trkpt lat="47.25332" lon="-2.29502">
        <ele>34.200000762939</ele>
        <time>2022-01-30T09:37:41.000Z</time>
      </trkpt>
      <trkpt lat="47.25317" lon="-2.29521">
        <ele>34.200000762939</ele>
        <time>2022-01-30T09:37:45.000Z</time>
      </trkpt>
      <trkpt lat="47.25303" lon="-2.29528">
        <ele>34.200000762939</ele>
        <time>2022-01-30T09:37:48.000Z</time>
      </trkpt>
      <trkpt lat="47.25293" lon="-2.29532">
        <ele>34.200000762939</ele>
        <time>2022-01-30T09:37:50.000Z</time>
      </trkpt>
      <trkpt lat="47.25269" lon="-2.29543">
        <ele>34.200000762939</ele>
        <time>2022-01-30T09:37:55.000Z</time>
      </trkpt>
      <trkpt lat="47.25265" lon="-2.29547">
        <ele>34.200000762939</ele>
        <time>2022-01-30T09:37:56.000Z</time>
      </trkpt>
      <trkpt lat="47.25239" lon="-2.29567">
        <ele>34.200000762939</ele>
        <time>2022-01-30T09:38:02.000Z</time>
      </trkpt>
      <trkpt lat="47.25226" lon="-2.29575">
        <ele>34.200000762939</ele>
        <time>2022-01-30T09:38:05.000Z</time>
      </trkpt>
      <trkpt lat="47.25218" lon="-2.2958">
        <ele>34.200000762939</ele>
        <time>2022-01-30T09:38:07.000Z</time>
      </trkpt>
      <trkpt lat="47.25209" lon="-2.29586">
        <ele>34.200000762939</ele>
        <time>2022-01-30T09:38:09.000Z</time>
      </trkpt>
      <trkpt lat="47.25202" lon="-2.29605">
        <ele>34.200000762939</ele>
        <time>2022-01-30T09:38:12.000Z</time>
      </trkpt>
      <trkpt lat="47.252" lon="-2.29611">
        <ele>34.200000762939</ele>
        <time>2022-01-30T09:38:13.000Z</time>
      </trkpt>
      <trkpt lat="47.25198" lon="-2.29618">
        <ele>34.200000762939</ele>
        <time>2022-01-30T09:38:14.000Z</time>
      </trkpt>
      <trkpt lat="47.25189" lon="-2.29635">
        <ele>34.200000762939</ele>
        <time>2022-01-30T09:38:17.000Z</time>
      </trkpt>
      <trkpt lat="47.25185" lon="-2.29656">
        <ele>34.200000762939</ele>
        <time>2022-01-30T09:38:21.000Z</time>
      </trkpt>
      <trkpt lat="47.25185" lon="-2.2966">
        <ele>34.200000762939</ele>
        <time>2022-01-30T09:38:22.000Z</time>
      </trkpt>
      <trkpt lat="47.25189" lon="-2.29685">
        <ele>34.200000762939</ele>
        <time>2022-01-30T09:38:26.000Z</time>
      </trkpt>
      <trkpt lat="47.25189" lon="-2.29692">
        <ele>34.200000762939</ele>
        <time>2022-01-30T09:38:27.000Z</time>
      </trkpt>
      <trkpt lat="47.2519" lon="-2.29722">
        <ele>34.200000762939</ele>
        <time>2022-01-30T09:38:31.000Z</time>
      </trkpt>
      <trkpt lat="47.2519" lon="-2.29742">
        <ele>34.200000762939</ele>
        <time>2022-01-30T09:38:34.000Z</time>
      </trkpt>
      <trkpt lat="47.25186" lon="-2.29749">
        <ele>34.200000762939</ele>
        <time>2022-01-30T09:38:36.000Z</time>
      </trkpt>
      <trkpt lat="47.25175" lon="-2.29746">
        <ele>34.200000762939</ele>
        <time>2022-01-30T09:38:39.000Z</time>
      </trkpt>
      <trkpt lat="47.2517" lon="-2.29743">
        <ele>34.200000762939</ele>
        <time>2022-01-30T09:38:40.000Z</time>
      </trkpt>
      <trkpt lat="47.25155" lon="-2.29736">
        <ele>34.200000762939</ele>
        <time>2022-01-30T09:38:43.000Z</time>
      </trkpt>
      <trkpt lat="47.2515" lon="-2.29734">
        <ele>34.200000762939</ele>
        <time>2022-01-30T09:38:44.000Z</time>
      </trkpt>
      <trkpt lat="47.25112" lon="-2.29718">
        <ele>34.200000762939</ele>
        <time>2022-01-30T09:38:51.000Z</time>
      </trkpt>
      <trkpt lat="47.25068" lon="-2.29712">
        <ele>34.200000762939</ele>
        <time>2022-01-30T09:38:59.000Z</time>
      </trkpt>
      <trkpt lat="47.25032" lon="-2.29717">
        <ele>34.200000762939</ele>
        <time>2022-01-30T09:39:06.000Z</time>
      </trkpt>
      <trkpt lat="47.24984" lon="-2.29729">
        <ele>34.200000762939</ele>
        <time>2022-01-30T09:39:15.000Z</time>
      </trkpt>
      <trkpt lat="47.24949" lon="-2.29741">
        <ele>34.599998474121</ele>
        <time>2022-01-30T09:39:22.000Z</time>
      </trkpt>
      <trkpt lat="47.24944" lon="-2.29742">
        <ele>35</ele>
        <time>2022-01-30T09:39:23.000Z</time>
      </trkpt>
      <trkpt lat="47.24939" lon="-2.29744">
        <ele>35.400001525879</ele>
        <time>2022-01-30T09:39:24.000Z</time>
      </trkpt>
      <trkpt lat="47.24934" lon="-2.29746">
        <ele>35.799999237061</ele>
        <time>2022-01-30T09:39:25.000Z</time>
      </trkpt>
      <trkpt lat="47.24929" lon="-2.29748">
        <ele>36.200000762939</ele>
        <time>2022-01-30T09:39:26.000Z</time>
      </trkpt>
      <trkpt lat="47.2491" lon="-2.29756">
        <ele>36.200000762939</ele>
        <time>2022-01-30T09:39:30.000Z</time>
      </trkpt>
      <trkpt lat="47.24879" lon="-2.29774">
        <ele>36.200000762939</ele>
        <time>2022-01-30T09:39:37.000Z</time>
      </trkpt>
      <trkpt lat="47.24876" lon="-2.29778">
        <ele>36.200000762939</ele>
        <time>2022-01-30T09:39:38.000Z</time>
      </trkpt>
      <trkpt lat="47.24869" lon="-2.29795">
        <ele>36.200000762939</ele>
        <time>2022-01-30T09:39:41.000Z</time>
      </trkpt>
      <trkpt lat="47.24859" lon="-2.29827">
        <ele>36.200000762939</ele>
        <time>2022-01-30T09:39:46.000Z</time>
      </trkpt>
      <trkpt lat="47.24842" lon="-2.29841">
        <ele>36.200000762939</ele>
        <time>2022-01-30T09:39:50.000Z</time>
      </trkpt>
      <trkpt lat="47.24834" lon="-2.29845">
        <ele>36.200000762939</ele>
        <time>2022-01-30T09:39:52.000Z</time>
      </trkpt>
      <trkpt lat="47.24824" lon="-2.29848">
        <ele>36.200000762939</ele>
        <time>2022-01-30T09:39:54.000Z</time>
      </trkpt>
      <trkpt lat="47.24788" lon="-2.29864">
        <ele>36.200000762939</ele>
        <time>2022-01-30T09:40:00.000Z</time>
      </trkpt>
      <trkpt lat="47.24752" lon="-2.2989">
        <ele>36.200000762939</ele>
        <time>2022-01-30T09:40:07.000Z</time>
      </trkpt>
      <trkpt lat="47.24749" lon="-2.29895">
        <ele>36.200000762939</ele>
        <time>2022-01-30T09:40:08.000Z</time>
      </trkpt>
      <trkpt lat="47.24746" lon="-2.29908">
        <ele>36.200000762939</ele>
        <time>2022-01-30T09:40:10.000Z</time>
      </trkpt>
      <trkpt lat="47.24746" lon="-2.29924">
        <ele>36.200000762939</ele>
        <time>2022-01-30T09:40:12.000Z</time>
      </trkpt>
      <trkpt lat="47.24745" lon="-2.29942">
        <ele>36.200000762939</ele>
        <time>2022-01-30T09:40:14.000Z</time>
      </trkpt>
      <trkpt lat="47.24742" lon="-2.29978">
        <ele>36.200000762939</ele>
        <time>2022-01-30T09:40:18.000Z</time>
      </trkpt>
      <trkpt lat="47.24737" lon="-2.29994">
        <ele>36.200000762939</ele>
        <time>2022-01-30T09:40:20.000Z</time>
      </trkpt>
      <trkpt lat="47.24725" lon="-2.30015">
        <ele>35.799999237061</ele>
        <time>2022-01-30T09:40:23.000Z</time>
      </trkpt>
      <trkpt lat="47.2472" lon="-2.3002">
        <ele>35.400001525879</ele>
        <time>2022-01-30T09:40:24.000Z</time>
      </trkpt>
      <trkpt lat="47.24715" lon="-2.30026">
        <ele>35</ele>
        <time>2022-01-30T09:40:25.000Z</time>
      </trkpt>
      <trkpt lat="47.2471" lon="-2.30032">
        <ele>34.599998474121</ele>
        <time>2022-01-30T09:40:26.000Z</time>
      </trkpt>
      <trkpt lat="47.24705" lon="-2.30037">
        <ele>34</ele>
        <time>2022-01-30T09:40:27.000Z</time>
      </trkpt>
      <trkpt lat="47.24689" lon="-2.30049">
        <ele>34</ele>
        <time>2022-01-30T09:40:30.000Z</time>
      </trkpt>
      <trkpt lat="47.2465" lon="-2.30081">
        <ele>34</ele>
        <time>2022-01-30T09:40:38.000Z</time>
      </trkpt>
      <trkpt lat="47.24648" lon="-2.30083">
        <ele>33.599998474121</ele>
        <time>2022-01-30T09:40:39.000Z</time>
      </trkpt>
      <trkpt lat="47.24646" lon="-2.30086">
        <ele>33.200000762939</ele>
        <time>2022-01-30T09:40:40.000Z</time>
      </trkpt>
      <trkpt lat="47.24642" lon="-2.30089">
        <ele>32.799999237061</ele>
        <time>2022-01-30T09:40:41.000Z</time>
      </trkpt>
      <trkpt lat="47.24639" lon="-2.30094">
        <ele>32.400001525879</ele>
        <time>2022-01-30T09:40:42.000Z</time>
      </trkpt>
      <trkpt lat="47.24634" lon="-2.30098">
        <ele>32</ele>
        <time>2022-01-30T09:40:43.000Z</time>
      </trkpt>
      <trkpt lat="47.2463" lon="-2.30102">
        <ele>32</ele>
        <time>2022-01-30T09:40:44.000Z</time>
      </trkpt>
      <trkpt lat="47.24625" lon="-2.30106">
        <ele>32</ele>
        <time>2022-01-30T09:40:45.000Z</time>
      </trkpt>
      <trkpt lat="47.24596" lon="-2.30135">
        <ele>32</ele>
        <time>2022-01-30T09:40:51.000Z</time>
      </trkpt>
      <trkpt lat="47.2457" lon="-2.30176">
        <ele>32</ele>
        <time>2022-01-30T09:40:57.000Z</time>
      </trkpt>
      <trkpt lat="47.24544" lon="-2.30211">
        <ele>32</ele>
        <time>2022-01-30T09:41:03.000Z</time>
      </trkpt>
      <trkpt lat="47.24518" lon="-2.30237">
        <ele>31.39999961853</ele>
        <time>2022-01-30T09:41:08.000Z</time>
      </trkpt>
      <trkpt lat="47.24512" lon="-2.30241">
        <ele>31</ele>
        <time>2022-01-30T09:41:09.000Z</time>
      </trkpt>
      <trkpt lat="47.24506" lon="-2.30245">
        <ele>30.60000038147</ele>
        <time>2022-01-30T09:41:10.000Z</time>
      </trkpt>
      <trkpt lat="47.245" lon="-2.30249">
        <ele>30.200000762939</ele>
        <time>2022-01-30T09:41:11.000Z</time>
      </trkpt>
      <trkpt lat="47.24494" lon="-2.30253">
        <ele>29.799999237061</ele>
        <time>2022-01-30T09:41:12.000Z</time>
      </trkpt>
      <trkpt lat="47.24489" lon="-2.30258">
        <ele>29.799999237061</ele>
        <time>2022-01-30T09:41:13.000Z</time>
      </trkpt>
      <trkpt lat="47.24479" lon="-2.30273">
        <ele>29.799999237061</ele>
        <time>2022-01-30T09:41:15.000Z</time>
      </trkpt>
      <trkpt lat="47.24469" lon="-2.30299">
        <ele>29.39999961853</ele>
        <time>2022-01-30T09:41:18.000Z</time>
      </trkpt>
      <trkpt lat="47.24467" lon="-2.30309">
        <ele>29</ele>
        <time>2022-01-30T09:41:19.000Z</time>
      </trkpt>
      <trkpt lat="47.24465" lon="-2.30319">
        <ele>28.39999961853</ele>
        <time>2022-01-30T09:41:20.000Z</time>
      </trkpt>
      <trkpt lat="47.24464" lon="-2.30329">
        <ele>28</ele>
        <time>2022-01-30T09:41:21.000Z</time>
      </trkpt>
      <trkpt lat="47.24463" lon="-2.3034">
        <ele>27.60000038147</ele>
        <time>2022-01-30T09:41:22.000Z</time>
      </trkpt>
      <trkpt lat="47.24462" lon="-2.30361">
        <ele>27.60000038147</ele>
        <time>2022-01-30T09:41:24.000Z</time>
      </trkpt>
      <trkpt lat="47.24462" lon="-2.30383">
        <ele>27.200000762939</ele>
        <time>2022-01-30T09:41:26.000Z</time>
      </trkpt>
      <trkpt lat="47.24461" lon="-2.30395">
        <ele>26.799999237061</ele>
        <time>2022-01-30T09:41:27.000Z</time>
      </trkpt>
      <trkpt lat="47.24461" lon="-2.30406">
        <ele>26.200000762939</ele>
        <time>2022-01-30T09:41:28.000Z</time>
      </trkpt>
      <trkpt lat="47.2446" lon="-2.30418">
        <ele>25.799999237061</ele>
        <time>2022-01-30T09:41:29.000Z</time>
      </trkpt>
      <trkpt lat="47.2446" lon="-2.3043">
        <ele>25.39999961853</ele>
        <time>2022-01-30T09:41:30.000Z</time>
      </trkpt>
      <trkpt lat="47.2446" lon="-2.30441">
        <ele>25.39999961853</ele>
        <time>2022-01-30T09:41:31.000Z</time>
      </trkpt>
      <trkpt lat="47.24462" lon="-2.30453">
        <ele>25</ele>
        <time>2022-01-30T09:41:32.000Z</time>
      </trkpt>
      <trkpt lat="47.24465" lon="-2.30464">
        <ele>24.200000762939</ele>
        <time>2022-01-30T09:41:33.000Z</time>
      </trkpt>
      <trkpt lat="47.24468" lon="-2.30475">
        <ele>23.799999237061</ele>
        <time>2022-01-30T09:41:34.000Z</time>
      </trkpt>
      <trkpt lat="47.24471" lon="-2.30484">
        <ele>23.39999961853</ele>
        <time>2022-01-30T09:41:35.000Z</time>
      </trkpt>
      <trkpt lat="47.24475" lon="-2.30493">
        <ele>23.39999961853</ele>
        <time>2022-01-30T09:41:36.000Z</time>
      </trkpt>
      <trkpt lat="47.24477" lon="-2.30502">
        <ele>23.39999961853</ele>
        <time>2022-01-30T09:41:37.000Z</time>
      </trkpt>
      <trkpt lat="47.24478" lon="-2.30521">
        <ele>23.39999961853</ele>
        <time>2022-01-30T09:41:39.000Z</time>
      </trkpt>
      <trkpt lat="47.24474" lon="-2.30546">
        <ele>23.39999961853</ele>
        <time>2022-01-30T09:41:42.000Z</time>
      </trkpt>
      <trkpt lat="47.24473" lon="-2.30554">
        <ele>23.39999961853</ele>
        <time>2022-01-30T09:41:43.000Z</time>
      </trkpt>
      <trkpt lat="47.24467" lon="-2.30592">
        <ele>23.39999961853</ele>
        <time>2022-01-30T09:41:48.000Z</time>
      </trkpt>
      <trkpt lat="47.24466" lon="-2.306">
        <ele>23.39999961853</ele>
        <time>2022-01-30T09:41:49.000Z</time>
      </trkpt>
      <trkpt lat="47.24463" lon="-2.30623">
        <ele>23.39999961853</ele>
        <time>2022-01-30T09:41:54.000Z</time>
      </trkpt>
      <trkpt lat="47.24462" lon="-2.30635">
        <ele>23.39999961853</ele>
        <time>2022-01-30T09:42:00.000Z</time>
      </trkpt>
      <trkpt lat="47.24461" lon="-2.30639">
        <ele>23.39999961853</ele>
        <time>2022-01-30T09:42:03.000Z</time>
      </trkpt>
      <trkpt lat="47.2446" lon="-2.30645">
        <ele>23.39999961853</ele>
        <time>2022-01-30T09:42:06.000Z</time>
      </trkpt>
      <trkpt lat="47.24459" lon="-2.3065">
        <ele>23.39999961853</ele>
        <time>2022-01-30T09:42:09.000Z</time>
      </trkpt>
      <trkpt lat="47.24456" lon="-2.30655">
        <ele>23.39999961853</ele>
        <time>2022-01-30T09:42:13.000Z</time>
      </trkpt>
      <trkpt lat="47.24456" lon="-2.30655">
        <ele>23.39999961853</ele>
        <time>2022-01-30T09:42:14.000Z</time>
      </trkpt>
      <trkpt lat="47.24458" lon="-2.30645">
        <ele>23.39999961853</ele>
        <time>2022-01-30T09:46:54.000Z</time>
      </trkpt>
      <trkpt lat="47.24454" lon="-2.3065">
        <ele>23.39999961853</ele>
        <time>2022-01-30T09:46:56.000Z</time>
      </trkpt>
      <trkpt lat="47.24447" lon="-2.30679">
        <ele>23.39999961853</ele>
        <time>2022-01-30T09:47:03.000Z</time>
      </trkpt>
      <trkpt lat="47.24444" lon="-2.30713">
        <ele>23.39999961853</ele>
        <time>2022-01-30T09:47:09.000Z</time>
      </trkpt>
      <trkpt lat="47.24442" lon="-2.30761">
        <ele>23.39999961853</ele>
        <time>2022-01-30T09:47:16.000Z</time>
      </trkpt>
      <trkpt lat="47.24441" lon="-2.30769">
        <ele>23.39999961853</ele>
        <time>2022-01-30T09:47:17.000Z</time>
      </trkpt>
      <trkpt lat="47.24441" lon="-2.30784">
        <ele>23.39999961853</ele>
        <time>2022-01-30T09:47:19.000Z</time>
      </trkpt>
      <trkpt lat="47.24441" lon="-2.30797">
        <ele>23.39999961853</ele>
        <time>2022-01-30T09:47:21.000Z</time>
      </trkpt>
      <trkpt lat="47.24439" lon="-2.30865">
        <ele>23.39999961853</ele>
        <time>2022-01-30T09:47:30.000Z</time>
      </trkpt>
      <trkpt lat="47.24439" lon="-2.30873">
        <ele>23</ele>
        <time>2022-01-30T09:47:31.000Z</time>
      </trkpt>
      <trkpt lat="47.24439" lon="-2.30881">
        <ele>22.60000038147</ele>
        <time>2022-01-30T09:47:32.000Z</time>
      </trkpt>
      <trkpt lat="47.24439" lon="-2.30889">
        <ele>22.200000762939</ele>
        <time>2022-01-30T09:47:33.000Z</time>
      </trkpt>
      <trkpt lat="47.24439" lon="-2.30897">
        <ele>21.799999237061</ele>
        <time>2022-01-30T09:47:34.000Z</time>
      </trkpt>
      <trkpt lat="47.24438" lon="-2.30904">
        <ele>21.39999961853</ele>
        <time>2022-01-30T09:47:35.000Z</time>
      </trkpt>
      <trkpt lat="47.24437" lon="-2.30912">
        <ele>21.39999961853</ele>
        <time>2022-01-30T09:47:36.000Z</time>
      </trkpt>
      <trkpt lat="47.24423" lon="-2.30941">
        <ele>21.39999961853</ele>
        <time>2022-01-30T09:47:40.000Z</time>
      </trkpt>
      <trkpt lat="47.24412" lon="-2.30953">
        <ele>21.39999961853</ele>
        <time>2022-01-30T09:47:42.000Z</time>
      </trkpt>
      <trkpt lat="47.24408" lon="-2.30961">
        <ele>20.60000038147</ele>
        <time>2022-01-30T09:47:43.000Z</time>
      </trkpt>
      <trkpt lat="47.24406" lon="-2.3097">
        <ele>20.200000762939</ele>
        <time>2022-01-30T09:47:44.000Z</time>
      </trkpt>
      <trkpt lat="47.24404" lon="-2.30981">
        <ele>19.60000038147</ele>
        <time>2022-01-30T09:47:45.000Z</time>
      </trkpt>
      <trkpt lat="47.24403" lon="-2.3099">
        <ele>19.200000762939</ele>
        <time>2022-01-30T09:47:46.000Z</time>
      </trkpt>
      <trkpt lat="47.24404" lon="-2.31006">
        <ele>19.200000762939</ele>
        <time>2022-01-30T09:47:48.000Z</time>
      </trkpt>
      <trkpt lat="47.24405" lon="-2.31019">
        <ele>19.200000762939</ele>
        <time>2022-01-30T09:47:50.000Z</time>
      </trkpt>
      <trkpt lat="47.24407" lon="-2.31048">
        <ele>19.200000762939</ele>
        <time>2022-01-30T09:47:54.000Z</time>
      </trkpt>
      <trkpt lat="47.24409" lon="-2.31112">
        <ele>19.200000762939</ele>
        <time>2022-01-30T09:48:02.000Z</time>
      </trkpt>
      <trkpt lat="47.2441" lon="-2.31136">
        <ele>18.799999237061</ele>
        <time>2022-01-30T09:48:05.000Z</time>
      </trkpt>
      <trkpt lat="47.2441" lon="-2.31145">
        <ele>18.39999961853</ele>
        <time>2022-01-30T09:48:06.000Z</time>
      </trkpt>
      <trkpt lat="47.2441" lon="-2.31155">
        <ele>18</ele>
        <time>2022-01-30T09:48:07.000Z</time>
      </trkpt>
      <trkpt lat="47.2441" lon="-2.31164">
        <ele>17</ele>
        <time>2022-01-30T09:48:08.000Z</time>
      </trkpt>
      <trkpt lat="47.2441" lon="-2.31171">
        <ele>16.60000038147</ele>
        <time>2022-01-30T09:48:09.000Z</time>
      </trkpt>
      <trkpt lat="47.2441" lon="-2.31178">
        <ele>16</ele>
        <time>2022-01-30T09:48:10.000Z</time>
      </trkpt>
      <trkpt lat="47.2441" lon="-2.31184">
        <ele>15.39999961853</ele>
        <time>2022-01-30T09:48:11.000Z</time>
      </trkpt>
      <trkpt lat="47.24411" lon="-2.31188">
        <ele>14.800000190735</ele>
        <time>2022-01-30T09:48:12.000Z</time>
      </trkpt>
      <trkpt lat="47.24411" lon="-2.31191">
        <ele>14.199999809265</ele>
        <time>2022-01-30T09:48:13.000Z</time>
      </trkpt>
      <trkpt lat="47.24412" lon="-2.31194">
        <ele>13.60000038147</ele>
        <time>2022-01-30T09:48:14.000Z</time>
      </trkpt>
      <trkpt lat="47.24412" lon="-2.31197">
        <ele>12.800000190735</ele>
        <time>2022-01-30T09:48:15.000Z</time>
      </trkpt>
      <trkpt lat="47.24413" lon="-2.312">
        <ele>12.39999961853</ele>
        <time>2022-01-30T09:48:16.000Z</time>
      </trkpt>
      <trkpt lat="47.24414" lon="-2.31203">
        <ele>12</ele>
        <time>2022-01-30T09:48:17.000Z</time>
      </trkpt>
      <trkpt lat="47.24415" lon="-2.31206">
        <ele>11.60000038147</ele>
        <time>2022-01-30T09:48:18.000Z</time>
      </trkpt>
      <trkpt lat="47.24418" lon="-2.31211">
        <ele>11</ele>
        <time>2022-01-30T09:48:19.000Z</time>
      </trkpt>
      <trkpt lat="47.2442" lon="-2.31216">
        <ele>10.60000038147</ele>
        <time>2022-01-30T09:48:20.000Z</time>
      </trkpt>
      <trkpt lat="47.24422" lon="-2.31221">
        <ele>10.199999809265</ele>
        <time>2022-01-30T09:48:21.000Z</time>
      </trkpt>
      <trkpt lat="47.24426" lon="-2.31223">
        <ele>9.8000001907349</ele>
        <time>2022-01-30T09:48:22.000Z</time>
      </trkpt>
      <trkpt lat="47.2443" lon="-2.31224">
        <ele>9.3999996185303</ele>
        <time>2022-01-30T09:48:23.000Z</time>
      </trkpt>
      <trkpt lat="47.24434" lon="-2.31223">
        <ele>9</ele>
        <time>2022-01-30T09:48:24.000Z</time>
      </trkpt>
      <trkpt lat="47.24437" lon="-2.31222">
        <ele>8.3999996185303</ele>
        <time>2022-01-30T09:48:25.000Z</time>
      </trkpt>
      <trkpt lat="47.24443" lon="-2.31221">
        <ele>8.3999996185303</ele>
        <time>2022-01-30T09:48:27.000Z</time>
      </trkpt>
      <trkpt lat="47.24448" lon="-2.31225">
        <ele>9</ele>
        <time>2022-01-30T09:48:29.000Z</time>
      </trkpt>
      <trkpt lat="47.2445" lon="-2.31229">
        <ele>9.3999996185303</ele>
        <time>2022-01-30T09:48:30.000Z</time>
      </trkpt>
      <trkpt lat="47.24451" lon="-2.31236">
        <ele>9.8000001907349</ele>
        <time>2022-01-30T09:48:31.000Z</time>
      </trkpt>
      <trkpt lat="47.24453" lon="-2.31242">
        <ele>10.39999961853</ele>
        <time>2022-01-30T09:48:32.000Z</time>
      </trkpt>
      <trkpt lat="47.24455" lon="-2.31247">
        <ele>10.800000190735</ele>
        <time>2022-01-30T09:48:33.000Z</time>
      </trkpt>
      <trkpt lat="47.24453" lon="-2.31262">
        <ele>10.800000190735</ele>
        <time>2022-01-30T09:48:36.000Z</time>
      </trkpt>
      <trkpt lat="47.2444" lon="-2.31277">
        <ele>10.800000190735</ele>
        <time>2022-01-30T09:48:39.000Z</time>
      </trkpt>
      <trkpt lat="47.24435" lon="-2.31282">
        <ele>10.800000190735</ele>
        <time>2022-01-30T09:48:40.000Z</time>
      </trkpt>
      <trkpt lat="47.24406" lon="-2.31304">
        <ele>10.800000190735</ele>
        <time>2022-01-30T09:48:45.000Z</time>
      </trkpt>
      <trkpt lat="47.24394" lon="-2.31316">
        <ele>10.39999961853</ele>
        <time>2022-01-30T09:48:47.000Z</time>
      </trkpt>
      <trkpt lat="47.24388" lon="-2.31322">
        <ele>9.8000001907349</ele>
        <time>2022-01-30T09:48:48.000Z</time>
      </trkpt>
      <trkpt lat="47.24382" lon="-2.31326">
        <ele>9.3999996185303</ele>
        <time>2022-01-30T09:48:49.000Z</time>
      </trkpt>
      <trkpt lat="47.24377" lon="-2.3133">
        <ele>8.8000001907349</ele>
        <time>2022-01-30T09:48:50.000Z</time>
      </trkpt>
      <trkpt lat="47.24373" lon="-2.31333">
        <ele>8.3999996185303</ele>
        <time>2022-01-30T09:48:51.000Z</time>
      </trkpt>
      <trkpt lat="47.24369" lon="-2.31336">
        <ele>8</ele>
        <time>2022-01-30T09:48:52.000Z</time>
      </trkpt>
      <trkpt lat="47.24366" lon="-2.31338">
        <ele>7.5999999046326</ele>
        <time>2022-01-30T09:48:53.000Z</time>
      </trkpt>
      <trkpt lat="47.24364" lon="-2.31341">
        <ele>7.1999998092651</ele>
        <time>2022-01-30T09:48:54.000Z</time>
      </trkpt>
      <trkpt lat="47.24363" lon="-2.31341">
        <ele>6.8000001907349</ele>
        <time>2022-01-30T09:48:55.000Z</time>
      </trkpt>
      <trkpt lat="47.24364" lon="-2.31341">
        <ele>6.1999998092651</ele>
        <time>2022-01-30T09:48:56.000Z</time>
      </trkpt>
      <trkpt lat="47.24364" lon="-2.31341">
        <ele>6.1999998092651</ele>
        <time>2022-01-30T09:49:46.000Z</time>
      </trkpt>
      <trkpt lat="47.24357" lon="-2.31334">
        <ele>6.1999998092651</ele>
        <time>2022-01-30T09:49:51.000Z</time>
      </trkpt>
      <trkpt lat="47.24352" lon="-2.31319">
        <ele>6.1999998092651</ele>
        <time>2022-01-30T09:49:54.000Z</time>
      </trkpt>
      <trkpt lat="47.24348" lon="-2.31307">
        <ele>6.1999998092651</ele>
        <time>2022-01-30T09:49:56.000Z</time>
      </trkpt>
      <trkpt lat="47.24339" lon="-2.31287">
        <ele>6.1999998092651</ele>
        <time>2022-01-30T09:49:59.000Z</time>
      </trkpt>
      <trkpt lat="47.2433" lon="-2.31265">
        <ele>6.1999998092651</ele>
        <time>2022-01-30T09:50:02.000Z</time>
      </trkpt>
      <trkpt lat="47.24317" lon="-2.31237">
        <ele>6.1999998092651</ele>
        <time>2022-01-30T09:50:07.000Z</time>
      </trkpt>
      <trkpt lat="47.24304" lon="-2.31235">
        <ele>6.1999998092651</ele>
        <time>2022-01-30T09:50:10.000Z</time>
      </trkpt>
      <trkpt lat="47.243" lon="-2.31237">
        <ele>6.1999998092651</ele>
        <time>2022-01-30T09:50:11.000Z</time>
      </trkpt>
      <trkpt lat="47.24281" lon="-2.31247">
        <ele>6.1999998092651</ele>
        <time>2022-01-30T09:50:15.000Z</time>
      </trkpt>
      <trkpt lat="47.24252" lon="-2.31262">
        <ele>6.1999998092651</ele>
        <time>2022-01-30T09:50:21.000Z</time>
      </trkpt>
      <trkpt lat="47.2424" lon="-2.31254">
        <ele>6.1999998092651</ele>
        <time>2022-01-30T09:50:24.000Z</time>
      </trkpt>
      <trkpt lat="47.24237" lon="-2.31248">
        <ele>5.8000001907349</ele>
        <time>2022-01-30T09:50:25.000Z</time>
      </trkpt>
      <trkpt lat="47.24234" lon="-2.31242">
        <ele>5.4000000953674</ele>
        <time>2022-01-30T09:50:26.000Z</time>
      </trkpt>
      <trkpt lat="47.24231" lon="-2.31236">
        <ele>5</ele>
        <time>2022-01-30T09:50:27.000Z</time>
      </trkpt>
      <trkpt lat="47.24228" lon="-2.3123">
        <ele>4.5999999046326</ele>
        <time>2022-01-30T09:50:28.000Z</time>
      </trkpt>
      <trkpt lat="47.24225" lon="-2.31223">
        <ele>4.1999998092651</ele>
        <time>2022-01-30T09:50:29.000Z</time>
      </trkpt>
      <trkpt lat="47.24222" lon="-2.31217">
        <ele>4.1999998092651</ele>
        <time>2022-01-30T09:50:30.000Z</time>
      </trkpt>
      <trkpt lat="47.24194" lon="-2.31164">
        <ele>4.1999998092651</ele>
        <time>2022-01-30T09:50:38.000Z</time>
      </trkpt>
      <trkpt lat="47.24185" lon="-2.31144">
        <ele>4.1999998092651</ele>
        <time>2022-01-30T09:50:41.000Z</time>
      </trkpt>
      <trkpt lat="47.24178" lon="-2.31132">
        <ele>4.1999998092651</ele>
        <time>2022-01-30T09:50:43.000Z</time>
      </trkpt>
      <trkpt lat="47.2415" lon="-2.31083">
        <ele>4.1999998092651</ele>
        <time>2022-01-30T09:50:51.000Z</time>
      </trkpt>
      <trkpt lat="47.24126" lon="-2.31041">
        <ele>4.1999998092651</ele>
        <time>2022-01-30T09:50:58.000Z</time>
      </trkpt>
      <trkpt lat="47.2412" lon="-2.31029">
        <ele>4.1999998092651</ele>
        <time>2022-01-30T09:51:00.000Z</time>
      </trkpt>
      <trkpt lat="47.24119" lon="-2.31016">
        <ele>4.1999998092651</ele>
        <time>2022-01-30T09:51:02.000Z</time>
      </trkpt>
      <trkpt lat="47.24126" lon="-2.30995">
        <ele>4.1999998092651</ele>
        <time>2022-01-30T09:51:06.000Z</time>
      </trkpt>
      <trkpt lat="47.24144" lon="-2.30958">
        <ele>4.1999998092651</ele>
        <time>2022-01-30T09:51:12.000Z</time>
      </trkpt>
      <trkpt lat="47.24167" lon="-2.30914">
        <ele>4.1999998092651</ele>
        <time>2022-01-30T09:51:20.000Z</time>
      </trkpt>
      <trkpt lat="47.24172" lon="-2.30907">
        <ele>4.1999998092651</ele>
        <time>2022-01-30T09:51:23.000Z</time>
      </trkpt>
      <trkpt lat="47.24175" lon="-2.30903">
        <ele>4.1999998092651</ele>
        <time>2022-01-30T09:51:27.000Z</time>
      </trkpt>
      <trkpt lat="47.24176" lon="-2.30899">
        <ele>4.1999998092651</ele>
        <time>2022-01-30T09:51:32.000Z</time>
      </trkpt>
      <trkpt lat="47.24178" lon="-2.30894">
        <ele>4.1999998092651</ele>
        <time>2022-01-30T09:51:34.000Z</time>
      </trkpt>
      <trkpt lat="47.24182" lon="-2.30889">
        <ele>4.5999999046326</ele>
        <time>2022-01-30T09:51:36.000Z</time>
      </trkpt>
      <trkpt lat="47.24183" lon="-2.30884">
        <ele>5</ele>
        <time>2022-01-30T09:51:37.000Z</time>
      </trkpt>
      <trkpt lat="47.24185" lon="-2.3088">
        <ele>5.5999999046326</ele>
        <time>2022-01-30T09:51:38.000Z</time>
      </trkpt>
      <trkpt lat="47.24187" lon="-2.30876">
        <ele>6</ele>
        <time>2022-01-30T09:51:39.000Z</time>
      </trkpt>
      <trkpt lat="47.24188" lon="-2.30872">
        <ele>6.4000000953674</ele>
        <time>2022-01-30T09:51:40.000Z</time>
      </trkpt>
      <trkpt lat="47.24195" lon="-2.30859">
        <ele>6.8000001907349</ele>
        <time>2022-01-30T09:51:43.000Z</time>
      </trkpt>
      <trkpt lat="47.24198" lon="-2.30854">
        <ele>7.1999998092651</ele>
        <time>2022-01-30T09:51:44.000Z</time>
      </trkpt>
      <trkpt lat="47.242" lon="-2.30849">
        <ele>7.5999999046326</ele>
        <time>2022-01-30T09:51:45.000Z</time>
      </trkpt>
      <trkpt lat="47.24203" lon="-2.30844">
        <ele>8</ele>
        <time>2022-01-30T09:51:46.000Z</time>
      </trkpt>
      <trkpt lat="47.24205" lon="-2.30839">
        <ele>8.3999996185303</ele>
        <time>2022-01-30T09:51:47.000Z</time>
      </trkpt>
      <trkpt lat="47.24211" lon="-2.30829">
        <ele>9.1999998092651</ele>
        <time>2022-01-30T09:51:49.000Z</time>
      </trkpt>
      <trkpt lat="47.24214" lon="-2.30824">
        <ele>9.6000003814697</ele>
        <time>2022-01-30T09:51:50.000Z</time>
      </trkpt>
      <trkpt lat="47.24216" lon="-2.30819">
        <ele>10</ele>
        <time>2022-01-30T09:51:51.000Z</time>
      </trkpt>
      <trkpt lat="47.24219" lon="-2.30814">
        <ele>10.39999961853</ele>
        <time>2022-01-30T09:51:52.000Z</time>
      </trkpt>
      <trkpt lat="47.24224" lon="-2.30805">
        <ele>11</ele>
        <time>2022-01-30T09:51:54.000Z</time>
      </trkpt>
      <trkpt lat="47.24226" lon="-2.30801">
        <ele>11.39999961853</ele>
        <time>2022-01-30T09:51:55.000Z</time>
      </trkpt>
      <trkpt lat="47.24229" lon="-2.30797">
        <ele>11.800000190735</ele>
        <time>2022-01-30T09:51:56.000Z</time>
      </trkpt>
      <trkpt lat="47.24231" lon="-2.30794">
        <ele>12.199999809265</ele>
        <time>2022-01-30T09:51:57.000Z</time>
      </trkpt>
      <trkpt lat="47.24234" lon="-2.30794">
        <ele>12.60000038147</ele>
        <time>2022-01-30T09:51:58.000Z</time>
      </trkpt>
      <trkpt lat="47.24239" lon="-2.30797">
        <ele>12.60000038147</ele>
        <time>2022-01-30T09:52:00.000Z</time>
      </trkpt>
      <trkpt lat="47.24245" lon="-2.30811">
        <ele>12.60000038147</ele>
        <time>2022-01-30T09:52:03.000Z</time>
      </trkpt>
      <trkpt lat="47.24247" lon="-2.30816">
        <ele>12.60000038147</ele>
        <time>2022-01-30T09:52:04.000Z</time>
      </trkpt>
      <trkpt lat="47.24253" lon="-2.30832">
        <ele>12.60000038147</ele>
        <time>2022-01-30T09:52:07.000Z</time>
      </trkpt>
      <trkpt lat="47.24256" lon="-2.30838">
        <ele>13.199999809265</ele>
        <time>2022-01-30T09:52:08.000Z</time>
      </trkpt>
      <trkpt lat="47.24259" lon="-2.30843">
        <ele>13.60000038147</ele>
        <time>2022-01-30T09:52:09.000Z</time>
      </trkpt>
      <trkpt lat="47.24263" lon="-2.30847">
        <ele>14</ele>
        <time>2022-01-30T09:52:10.000Z</time>
      </trkpt>
      <trkpt lat="47.24266" lon="-2.30851">
        <ele>14.39999961853</ele>
        <time>2022-01-30T09:52:11.000Z</time>
      </trkpt>
      <trkpt lat="47.2427" lon="-2.30855">
        <ele>14.800000190735</ele>
        <time>2022-01-30T09:52:12.000Z</time>
      </trkpt>
      <trkpt lat="47.24278" lon="-2.30865">
        <ele>14.800000190735</ele>
        <time>2022-01-30T09:52:15.000Z</time>
      </trkpt>
      <trkpt lat="47.24288" lon="-2.30863">
        <ele>15.199999809265</ele>
        <time>2022-01-30T09:52:19.000Z</time>
      </trkpt>
      <trkpt lat="47.24289" lon="-2.30861">
        <ele>15.60000038147</ele>
        <time>2022-01-30T09:52:20.000Z</time>
      </trkpt>
      <trkpt lat="47.24289" lon="-2.30854">
        <ele>16</ele>
        <time>2022-01-30T09:52:21.000Z</time>
      </trkpt>
      <trkpt lat="47.24289" lon="-2.30847">
        <ele>16.39999961853</ele>
        <time>2022-01-30T09:52:22.000Z</time>
      </trkpt>
      <trkpt lat="47.24289" lon="-2.30841">
        <ele>16.799999237061</ele>
        <time>2022-01-30T09:52:23.000Z</time>
      </trkpt>
      <trkpt lat="47.24289" lon="-2.30835">
        <ele>16.799999237061</ele>
        <time>2022-01-30T09:52:24.000Z</time>
      </trkpt>
      <trkpt lat="47.24296" lon="-2.30816">
        <ele>16.799999237061</ele>
        <time>2022-01-30T09:52:28.000Z</time>
      </trkpt>
      <trkpt lat="47.24312" lon="-2.30804">
        <ele>17.200000762939</ele>
        <time>2022-01-30T09:52:32.000Z</time>
      </trkpt>
      <trkpt lat="47.24316" lon="-2.30802">
        <ele>17.60000038147</ele>
        <time>2022-01-30T09:52:33.000Z</time>
      </trkpt>
      <trkpt lat="47.24321" lon="-2.308">
        <ele>18</ele>
        <time>2022-01-30T09:52:34.000Z</time>
      </trkpt>
      <trkpt lat="47.24326" lon="-2.30799">
        <ele>18.60000038147</ele>
        <time>2022-01-30T09:52:35.000Z</time>
      </trkpt>
      <trkpt lat="47.24331" lon="-2.30797">
        <ele>19</ele>
        <time>2022-01-30T09:52:36.000Z</time>
      </trkpt>
      <trkpt lat="47.24345" lon="-2.30791">
        <ele>19</ele>
        <time>2022-01-30T09:52:39.000Z</time>
      </trkpt>
      <trkpt lat="47.24368" lon="-2.30779">
        <ele>19.39999961853</ele>
        <time>2022-01-30T09:52:45.000Z</time>
      </trkpt>
      <trkpt lat="47.24371" lon="-2.30776">
        <ele>19.799999237061</ele>
        <time>2022-01-30T09:52:46.000Z</time>
      </trkpt>
      <trkpt lat="47.24374" lon="-2.30772">
        <ele>20.200000762939</ele>
        <time>2022-01-30T09:52:47.000Z</time>
      </trkpt>
      <trkpt lat="47.24377" lon="-2.30768">
        <ele>20.60000038147</ele>
        <time>2022-01-30T09:52:48.000Z</time>
      </trkpt>
      <trkpt lat="47.24379" lon="-2.30764">
        <ele>21</ele>
        <time>2022-01-30T09:52:49.000Z</time>
      </trkpt>
      <trkpt lat="47.24382" lon="-2.3076">
        <ele>21</ele>
        <time>2022-01-30T09:52:50.000Z</time>
      </trkpt>
      <trkpt lat="47.24386" lon="-2.30753">
        <ele>21.39999961853</ele>
        <time>2022-01-30T09:52:52.000Z</time>
      </trkpt>
      <trkpt lat="47.24388" lon="-2.3075">
        <ele>21.799999237061</ele>
        <time>2022-01-30T09:52:53.000Z</time>
      </trkpt>
      <trkpt lat="47.2439" lon="-2.30748">
        <ele>22.200000762939</ele>
        <time>2022-01-30T09:52:54.000Z</time>
      </trkpt>
      <trkpt lat="47.24392" lon="-2.30745">
        <ele>22.60000038147</ele>
        <time>2022-01-30T09:52:55.000Z</time>
      </trkpt>
      <trkpt lat="47.24394" lon="-2.30742">
        <ele>23</ele>
        <time>2022-01-30T09:52:56.000Z</time>
      </trkpt>
      <trkpt lat="47.24397" lon="-2.3072">
        <ele>23</ele>
        <time>2022-01-30T09:53:00.000Z</time>
      </trkpt>
      <trkpt lat="47.24402" lon="-2.30686">
        <ele>23</ele>
        <time>2022-01-30T09:53:05.000Z</time>
      </trkpt>
      <trkpt lat="47.24406" lon="-2.30671">
        <ele>23</ele>
        <time>2022-01-30T09:53:07.000Z</time>
      </trkpt>
      <trkpt lat="47.2442" lon="-2.30632">
        <ele>23</ele>
        <time>2022-01-30T09:53:13.000Z</time>
      </trkpt>
      <trkpt lat="47.24433" lon="-2.30611">
        <ele>23</ele>
        <time>2022-01-30T09:53:18.000Z</time>
      </trkpt>
      <trkpt lat="47.24454" lon="-2.30594">
        <ele>23</ele>
        <time>2022-01-30T09:53:23.000Z</time>
      </trkpt>
      <trkpt lat="47.24458" lon="-2.3059">
        <ele>23</ele>
        <time>2022-01-30T09:53:24.000Z</time>
      </trkpt>
      <trkpt lat="47.24471" lon="-2.30562">
        <ele>23</ele>
        <time>2022-01-30T09:53:28.000Z</time>
      </trkpt>
      <trkpt lat="47.24473" lon="-2.30555">
        <ele>22.60000038147</ele>
        <time>2022-01-30T09:53:29.000Z</time>
      </trkpt>
      <trkpt lat="47.24473" lon="-2.30551">
        <ele>22.200000762939</ele>
        <time>2022-01-30T09:53:30.000Z</time>
      </trkpt>
      <trkpt lat="47.24472" lon="-2.30548">
        <ele>21.60000038147</ele>
        <time>2022-01-30T09:53:31.000Z</time>
      </trkpt>
      <trkpt lat="47.24471" lon="-2.30548">
        <ele>21.200000762939</ele>
        <time>2022-01-30T09:53:32.000Z</time>
      </trkpt>
      <trkpt lat="47.24469" lon="-2.30549">
        <ele>20.799999237061</ele>
        <time>2022-01-30T09:53:33.000Z</time>
      </trkpt>
      <trkpt lat="47.24466" lon="-2.30552">
        <ele>20.799999237061</ele>
        <time>2022-01-30T09:53:34.000Z</time>
      </trkpt>
      <trkpt lat="47.24463" lon="-2.30556">
        <ele>20.799999237061</ele>
        <time>2022-01-30T09:53:35.000Z</time>
      </trkpt>
      <trkpt lat="47.24456" lon="-2.30564">
        <ele>20.39999961853</ele>
        <time>2022-01-30T09:53:37.000Z</time>
      </trkpt>
      <trkpt lat="47.24452" lon="-2.30567">
        <ele>20</ele>
        <time>2022-01-30T09:53:38.000Z</time>
      </trkpt>
      <trkpt lat="47.24448" lon="-2.30571">
        <ele>19.60000038147</ele>
        <time>2022-01-30T09:53:39.000Z</time>
      </trkpt>
      <trkpt lat="47.24444" lon="-2.30574">
        <ele>19.200000762939</ele>
        <time>2022-01-30T09:53:40.000Z</time>
      </trkpt>
      <trkpt lat="47.2444" lon="-2.30577">
        <ele>18.799999237061</ele>
        <time>2022-01-30T09:53:41.000Z</time>
      </trkpt>
      <trkpt lat="47.24424" lon="-2.30585">
        <ele>18.39999961853</ele>
        <time>2022-01-30T09:53:45.000Z</time>
      </trkpt>
      <trkpt lat="47.2442" lon="-2.30585">
        <ele>18</ele>
        <time>2022-01-30T09:53:46.000Z</time>
      </trkpt>
      <trkpt lat="47.24416" lon="-2.30585">
        <ele>17.60000038147</ele>
        <time>2022-01-30T09:53:47.000Z</time>
      </trkpt>
      <trkpt lat="47.24412" lon="-2.30584">
        <ele>17</ele>
        <time>2022-01-30T09:53:48.000Z</time>
      </trkpt>
      <trkpt lat="47.24408" lon="-2.30582">
        <ele>16.60000038147</ele>
        <time>2022-01-30T09:53:49.000Z</time>
      </trkpt>
      <trkpt lat="47.24404" lon="-2.30581">
        <ele>16.60000038147</ele>
        <time>2022-01-30T09:53:50.000Z</time>
      </trkpt>
      <trkpt lat="47.24383" lon="-2.30568">
        <ele>16.60000038147</ele>
        <time>2022-01-30T09:53:56.000Z</time>
      </trkpt>
      <trkpt lat="47.2438" lon="-2.30563">
        <ele>16.60000038147</ele>
        <time>2022-01-30T09:53:57.000Z</time>
      </trkpt>
      <trkpt lat="47.24372" lon="-2.30544">
        <ele>16.60000038147</ele>
        <time>2022-01-30T09:54:00.000Z</time>
      </trkpt>
      <trkpt lat="47.24368" lon="-2.30511">
        <ele>16.60000038147</ele>
        <time>2022-01-30T09:54:06.000Z</time>
      </trkpt>
      <trkpt lat="47.2437" lon="-2.305">
        <ele>17.200000762939</ele>
        <time>2022-01-30T09:54:08.000Z</time>
      </trkpt>
      <trkpt lat="47.24371" lon="-2.30494">
        <ele>17.60000038147</ele>
        <time>2022-01-30T09:54:09.000Z</time>
      </trkpt>
      <trkpt lat="47.24372" lon="-2.30488">
        <ele>18</ele>
        <time>2022-01-30T09:54:10.000Z</time>
      </trkpt>
      <trkpt lat="47.24372" lon="-2.30482">
        <ele>18.39999961853</ele>
        <time>2022-01-30T09:54:11.000Z</time>
      </trkpt>
      <trkpt lat="47.24373" lon="-2.30477">
        <ele>19</ele>
        <time>2022-01-30T09:54:12.000Z</time>
      </trkpt>
      <trkpt lat="47.24376" lon="-2.30461">
        <ele>19.39999961853</ele>
        <time>2022-01-30T09:54:15.000Z</time>
      </trkpt>
      <trkpt lat="47.24376" lon="-2.30456">
        <ele>19.799999237061</ele>
        <time>2022-01-30T09:54:16.000Z</time>
      </trkpt>
      <trkpt lat="47.24375" lon="-2.30452">
        <ele>20.60000038147</ele>
        <time>2022-01-30T09:54:17.000Z</time>
      </trkpt>
      <trkpt lat="47.24374" lon="-2.3045">
        <ele>21</ele>
        <time>2022-01-30T09:54:18.000Z</time>
      </trkpt>
      <trkpt lat="47.24369" lon="-2.3045">
        <ele>21</ele>
        <time>2022-01-30T09:54:20.000Z</time>
      </trkpt>
      <trkpt lat="47.24352" lon="-2.3045">
        <ele>21</ele>
        <time>2022-01-30T09:54:25.000Z</time>
      </trkpt>
      <trkpt lat="47.24344" lon="-2.30447">
        <ele>21.39999961853</ele>
        <time>2022-01-30T09:54:27.000Z</time>
      </trkpt>
      <trkpt lat="47.2434" lon="-2.30445">
        <ele>21.799999237061</ele>
        <time>2022-01-30T09:54:28.000Z</time>
      </trkpt>
      <trkpt lat="47.24335" lon="-2.30443">
        <ele>22.200000762939</ele>
        <time>2022-01-30T09:54:29.000Z</time>
      </trkpt>
      <trkpt lat="47.2433" lon="-2.30441">
        <ele>22.60000038147</ele>
        <time>2022-01-30T09:54:30.000Z</time>
      </trkpt>
      <trkpt lat="47.24325" lon="-2.30439">
        <ele>23</ele>
        <time>2022-01-30T09:54:31.000Z</time>
      </trkpt>
      <trkpt lat="47.2432" lon="-2.30436">
        <ele>23</ele>
        <time>2022-01-30T09:54:32.000Z</time>
      </trkpt>
      <trkpt lat="47.243" lon="-2.30423">
        <ele>23</ele>
        <time>2022-01-30T09:54:38.000Z</time>
      </trkpt>
      <trkpt lat="47.2428" lon="-2.30407">
        <ele>23</ele>
        <time>2022-01-30T09:54:44.000Z</time>
      </trkpt>
      <trkpt lat="47.24264" lon="-2.30382">
        <ele>23</ele>
        <time>2022-01-30T09:54:50.000Z</time>
      </trkpt>
      <trkpt lat="47.24246" lon="-2.30345">
        <ele>23</ele>
        <time>2022-01-30T09:54:58.000Z</time>
      </trkpt>
      <trkpt lat="47.24232" lon="-2.30325">
        <ele>23</ele>
        <time>2022-01-30T09:55:03.000Z</time>
      </trkpt>
      <trkpt lat="47.24219" lon="-2.30331">
        <ele>23</ele>
        <time>2022-01-30T09:55:07.000Z</time>
      </trkpt>
      <trkpt lat="47.24207" lon="-2.30334">
        <ele>22.60000038147</ele>
        <time>2022-01-30T09:55:10.000Z</time>
      </trkpt>
      <trkpt lat="47.24204" lon="-2.30331">
        <ele>22.200000762939</ele>
        <time>2022-01-30T09:55:11.000Z</time>
      </trkpt>
      <trkpt lat="47.24201" lon="-2.30324">
        <ele>21.799999237061</ele>
        <time>2022-01-30T09:55:12.000Z</time>
      </trkpt>
      <trkpt lat="47.24199" lon="-2.30316">
        <ele>21.200000762939</ele>
        <time>2022-01-30T09:55:13.000Z</time>
      </trkpt>
      <trkpt lat="47.24197" lon="-2.30307">
        <ele>20.799999237061</ele>
        <time>2022-01-30T09:55:14.000Z</time>
      </trkpt>
      <trkpt lat="47.24196" lon="-2.30299">
        <ele>20.799999237061</ele>
        <time>2022-01-30T09:55:15.000Z</time>
      </trkpt>
      <trkpt lat="47.24194" lon="-2.30282">
        <ele>20.39999961853</ele>
        <time>2022-01-30T09:55:17.000Z</time>
      </trkpt>
      <trkpt lat="47.24193" lon="-2.30273">
        <ele>20</ele>
        <time>2022-01-30T09:55:18.000Z</time>
      </trkpt>
      <trkpt lat="47.24192" lon="-2.30265">
        <ele>19.60000038147</ele>
        <time>2022-01-30T09:55:19.000Z</time>
      </trkpt>
      <trkpt lat="47.24191" lon="-2.30258">
        <ele>19.200000762939</ele>
        <time>2022-01-30T09:55:20.000Z</time>
      </trkpt>
      <trkpt lat="47.2419" lon="-2.30251">
        <ele>18.799999237061</ele>
        <time>2022-01-30T09:55:21.000Z</time>
      </trkpt>
      <trkpt lat="47.24187" lon="-2.30245">
        <ele>18.799999237061</ele>
        <time>2022-01-30T09:55:23.000Z</time>
      </trkpt>
      <trkpt lat="47.2418" lon="-2.30247">
        <ele>18.799999237061</ele>
        <time>2022-01-30T09:55:26.000Z</time>
      </trkpt>
      <trkpt lat="47.24166" lon="-2.30245">
        <ele>18.799999237061</ele>
        <time>2022-01-30T09:55:30.000Z</time>
      </trkpt>
      <trkpt lat="47.24158" lon="-2.30233">
        <ele>18.799999237061</ele>
        <time>2022-01-30T09:55:33.000Z</time>
      </trkpt>
      <trkpt lat="47.24156" lon="-2.30229">
        <ele>18.799999237061</ele>
        <time>2022-01-30T09:55:34.000Z</time>
      </trkpt>
      <trkpt lat="47.24149" lon="-2.30209">
        <ele>18.799999237061</ele>
        <time>2022-01-30T09:55:39.000Z</time>
      </trkpt>
      <trkpt lat="47.24144" lon="-2.30196">
        <ele>19.200000762939</ele>
        <time>2022-01-30T09:55:43.000Z</time>
      </trkpt>
      <trkpt lat="47.24143" lon="-2.30193">
        <ele>19.60000038147</ele>
        <time>2022-01-30T09:55:44.000Z</time>
      </trkpt>
      <trkpt lat="47.24142" lon="-2.3019">
        <ele>20</ele>
        <time>2022-01-30T09:55:45.000Z</time>
      </trkpt>
      <trkpt lat="47.24141" lon="-2.30187">
        <ele>20.39999961853</ele>
        <time>2022-01-30T09:55:46.000Z</time>
      </trkpt>
      <trkpt lat="47.2414" lon="-2.30184">
        <ele>20.799999237061</ele>
        <time>2022-01-30T09:55:47.000Z</time>
      </trkpt>
      <trkpt lat="47.24133" lon="-2.30168">
        <ele>21.200000762939</ele>
        <time>2022-01-30T09:55:52.000Z</time>
      </trkpt>
      <trkpt lat="47.24132" lon="-2.30166">
        <ele>21.799999237061</ele>
        <time>2022-01-30T09:55:53.000Z</time>
      </trkpt>
      <trkpt lat="47.24131" lon="-2.30165">
        <ele>22.200000762939</ele>
        <time>2022-01-30T09:55:54.000Z</time>
      </trkpt>
      <trkpt lat="47.2413" lon="-2.30163">
        <ele>23</ele>
        <time>2022-01-30T09:55:55.000Z</time>
      </trkpt>
      <trkpt lat="47.24127" lon="-2.30156">
        <ele>23.39999961853</ele>
        <time>2022-01-30T09:55:58.000Z</time>
      </trkpt>
      <trkpt lat="47.24127" lon="-2.30154">
        <ele>24</ele>
        <time>2022-01-30T09:55:59.000Z</time>
      </trkpt>
      <trkpt lat="47.24127" lon="-2.30153">
        <ele>24.39999961853</ele>
        <time>2022-01-30T09:56:00.000Z</time>
      </trkpt>
      <trkpt lat="47.24126" lon="-2.30151">
        <ele>24.799999237061</ele>
        <time>2022-01-30T09:56:01.000Z</time>
      </trkpt>
      <trkpt lat="47.24125" lon="-2.3014">
        <ele>25.200000762939</ele>
        <time>2022-01-30T09:56:10.000Z</time>
      </trkpt>
      <trkpt lat="47.24125" lon="-2.30136">
        <ele>25.200000762939</ele>
        <time>2022-01-30T09:56:11.000Z</time>
      </trkpt>
      <trkpt lat="47.24125" lon="-2.30132">
        <ele>25.200000762939</ele>
        <time>2022-01-30T09:56:12.000Z</time>
      </trkpt>
      <trkpt lat="47.24126" lon="-2.30122">
        <ele>25.200000762939</ele>
        <time>2022-01-30T09:56:15.000Z</time>
      </trkpt>
      <trkpt lat="47.24127" lon="-2.30114">
        <ele>25.200000762939</ele>
        <time>2022-01-30T09:56:18.000Z</time>
      </trkpt>
      <trkpt lat="47.24126" lon="-2.30092">
        <ele>25.200000762939</ele>
        <time>2022-01-30T09:56:24.000Z</time>
      </trkpt>
      <trkpt lat="47.24126" lon="-2.3009">
        <ele>25.200000762939</ele>
        <time>2022-01-30T09:56:25.000Z</time>
      </trkpt>
      <trkpt lat="47.24127" lon="-2.30088">
        <ele>25.60000038147</ele>
        <time>2022-01-30T09:56:27.000Z</time>
      </trkpt>
      <trkpt lat="47.24128" lon="-2.30088">
        <ele>26</ele>
        <time>2022-01-30T09:56:28.000Z</time>
      </trkpt>
      <trkpt lat="47.24129" lon="-2.30089">
        <ele>26.39999961853</ele>
        <time>2022-01-30T09:56:29.000Z</time>
      </trkpt>
      <trkpt lat="47.2413" lon="-2.30089">
        <ele>26.799999237061</ele>
        <time>2022-01-30T09:56:30.000Z</time>
      </trkpt>
      <trkpt lat="47.24131" lon="-2.30089">
        <ele>27.200000762939</ele>
        <time>2022-01-30T09:56:31.000Z</time>
      </trkpt>
      <trkpt lat="47.24135" lon="-2.30088">
        <ele>27.200000762939</ele>
        <time>2022-01-30T09:56:34.000Z</time>
      </trkpt>
      <trkpt lat="47.24142" lon="-2.30084">
        <ele>27.200000762939</ele>
        <time>2022-01-30T09:56:40.000Z</time>
      </trkpt>
      <trkpt lat="47.24143" lon="-2.30084">
        <ele>27.200000762939</ele>
        <time>2022-01-30T09:56:41.000Z</time>
      </trkpt>
      <trkpt lat="47.24144" lon="-2.30082">
        <ele>25.200000762939</ele>
        <time>2022-01-30T09:56:55.000Z</time>
      </trkpt>
      <trkpt lat="47.24145" lon="-2.30076">
        <ele>25.200000762939</ele>
        <time>2022-01-30T09:56:57.000Z</time>
      </trkpt>
      <trkpt lat="47.2415" lon="-2.30058">
        <ele>25.200000762939</ele>
        <time>2022-01-30T09:57:02.000Z</time>
      </trkpt>
      <trkpt lat="47.24158" lon="-2.3005">
        <ele>25.60000038147</ele>
        <time>2022-01-30T09:57:06.000Z</time>
      </trkpt>
      <trkpt lat="47.2416" lon="-2.30049">
        <ele>26.200000762939</ele>
        <time>2022-01-30T09:57:07.000Z</time>
      </trkpt>
      <trkpt lat="47.24162" lon="-2.30048">
        <ele>26.60000038147</ele>
        <time>2022-01-30T09:57:08.000Z</time>
      </trkpt>
      <trkpt lat="47.24163" lon="-2.30046">
        <ele>27.39999961853</ele>
        <time>2022-01-30T09:57:09.000Z</time>
      </trkpt>
      <trkpt lat="47.24172" lon="-2.30037">
        <ele>27.39999961853</ele>
        <time>2022-01-30T09:57:14.000Z</time>
      </trkpt>
      <trkpt lat="47.24178" lon="-2.30024">
        <ele>27.39999961853</ele>
        <time>2022-01-30T09:57:18.000Z</time>
      </trkpt>
      <trkpt lat="47.24172" lon="-2.30008">
        <ele>27.39999961853</ele>
        <time>2022-01-30T09:57:24.000Z</time>
      </trkpt>
      <trkpt lat="47.24162" lon="-2.29991">
        <ele>27.39999961853</ele>
        <time>2022-01-30T09:57:30.000Z</time>
      </trkpt>
      <trkpt lat="47.2416" lon="-2.29989">
        <ele>27.799999237061</ele>
        <time>2022-01-30T09:57:31.000Z</time>
      </trkpt>
      <trkpt lat="47.24159" lon="-2.29987">
        <ele>28.39999961853</ele>
        <time>2022-01-30T09:57:32.000Z</time>
      </trkpt>
      <trkpt lat="47.24158" lon="-2.29986">
        <ele>28.799999237061</ele>
        <time>2022-01-30T09:57:33.000Z</time>
      </trkpt>
      <trkpt lat="47.24158" lon="-2.29984">
        <ele>29.799999237061</ele>
        <time>2022-01-30T09:57:34.000Z</time>
      </trkpt>
      <trkpt lat="47.24157" lon="-2.29983">
        <ele>29.799999237061</ele>
        <time>2022-01-30T09:57:35.000Z</time>
      </trkpt>
      <trkpt lat="47.24154" lon="-2.29983">
        <ele>29.799999237061</ele>
        <time>2022-01-30T09:58:13.000Z</time>
      </trkpt>
      <trkpt lat="47.24141" lon="-2.29986">
        <ele>29.799999237061</ele>
        <time>2022-01-30T09:58:19.000Z</time>
      </trkpt>
      <trkpt lat="47.24118" lon="-2.29986">
        <ele>29.799999237061</ele>
        <time>2022-01-30T09:58:26.000Z</time>
      </trkpt>
      <trkpt lat="47.24093" lon="-2.2998">
        <ele>29.799999237061</ele>
        <time>2022-01-30T09:58:32.000Z</time>
      </trkpt>
      <trkpt lat="47.24074" lon="-2.29971">
        <ele>29.799999237061</ele>
        <time>2022-01-30T09:58:38.000Z</time>
      </trkpt>
      <trkpt lat="47.24062" lon="-2.29957">
        <ele>29.799999237061</ele>
        <time>2022-01-30T09:58:44.000Z</time>
      </trkpt>
      <trkpt lat="47.24045" lon="-2.29936">
        <ele>29.799999237061</ele>
        <time>2022-01-30T09:58:51.000Z</time>
      </trkpt>
      <trkpt lat="47.24041" lon="-2.29923">
        <ele>29.799999237061</ele>
        <time>2022-01-30T09:58:56.000Z</time>
      </trkpt>
      <trkpt lat="47.24043" lon="-2.29905">
        <ele>29.799999237061</ele>
        <time>2022-01-30T09:59:01.000Z</time>
      </trkpt>
      <trkpt lat="47.24048" lon="-2.29872">
        <ele>29.799999237061</ele>
        <time>2022-01-30T09:59:08.000Z</time>
      </trkpt>
      <trkpt lat="47.24056" lon="-2.29844">
        <ele>29.799999237061</ele>
        <time>2022-01-30T09:59:14.000Z</time>
      </trkpt>
      <trkpt lat="47.24066" lon="-2.29842">
        <ele>29.799999237061</ele>
        <time>2022-01-30T09:59:20.000Z</time>
      </trkpt>
      <trkpt lat="47.24073" lon="-2.29846">
        <ele>29.799999237061</ele>
        <time>2022-01-30T09:59:26.000Z</time>
      </trkpt>
      <trkpt lat="47.24075" lon="-2.2985">
        <ele>29.799999237061</ele>
        <time>2022-01-30T09:59:28.000Z</time>
      </trkpt>
      <trkpt lat="47.24078" lon="-2.29863">
        <ele>29.799999237061</ele>
        <time>2022-01-30T09:59:32.000Z</time>
      </trkpt>
      <trkpt lat="47.24076" lon="-2.29893">
        <ele>29.799999237061</ele>
        <time>2022-01-30T09:59:38.000Z</time>
      </trkpt>
      <trkpt lat="47.24071" lon="-2.29924">
        <ele>29.799999237061</ele>
        <time>2022-01-30T09:59:44.000Z</time>
      </trkpt>
      <trkpt lat="47.24071" lon="-2.29928">
        <ele>29.799999237061</ele>
        <time>2022-01-30T09:59:45.000Z</time>
      </trkpt>
      <trkpt lat="47.24076" lon="-2.29935">
        <ele>29.799999237061</ele>
        <time>2022-01-30T09:59:48.000Z</time>
      </trkpt>
      <trkpt lat="47.24084" lon="-2.29954">
        <ele>29.799999237061</ele>
        <time>2022-01-30T09:59:54.000Z</time>
      </trkpt>
      <trkpt lat="47.24089" lon="-2.2997">
        <ele>29.799999237061</ele>
        <time>2022-01-30T09:59:59.000Z</time>
      </trkpt>
      <trkpt lat="47.24092" lon="-2.29972">
        <ele>29.799999237061</ele>
        <time>2022-01-30T10:00:01.000Z</time>
      </trkpt>
      <trkpt lat="47.241" lon="-2.29976">
        <ele>29.799999237061</ele>
        <time>2022-01-30T10:00:04.000Z</time>
      </trkpt>
      <trkpt lat="47.24121" lon="-2.29978">
        <ele>29.799999237061</ele>
        <time>2022-01-30T10:00:11.000Z</time>
      </trkpt>
      <trkpt lat="47.24142" lon="-2.29976">
        <ele>29.799999237061</ele>
        <time>2022-01-30T10:00:17.000Z</time>
      </trkpt>
      <trkpt lat="47.24148" lon="-2.29965">
        <ele>29.799999237061</ele>
        <time>2022-01-30T10:00:21.000Z</time>
      </trkpt>
      <trkpt lat="47.24146" lon="-2.2993">
        <ele>29.799999237061</ele>
        <time>2022-01-30T10:00:28.000Z</time>
      </trkpt>
      <trkpt lat="47.24147" lon="-2.29909">
        <ele>29.799999237061</ele>
        <time>2022-01-30T10:00:33.000Z</time>
      </trkpt>
      <trkpt lat="47.24151" lon="-2.29891">
        <ele>29.799999237061</ele>
        <time>2022-01-30T10:00:39.000Z</time>
      </trkpt>
      <trkpt lat="47.24154" lon="-2.29871">
        <ele>29.799999237061</ele>
        <time>2022-01-30T10:00:43.000Z</time>
      </trkpt>
      <trkpt lat="47.24165" lon="-2.29841">
        <ele>29.799999237061</ele>
        <time>2022-01-30T10:00:48.000Z</time>
      </trkpt>
      <trkpt lat="47.24162" lon="-2.29834">
        <ele>29.799999237061</ele>
        <time>2022-01-30T10:00:51.000Z</time>
      </trkpt>
      <trkpt lat="47.24159" lon="-2.29836">
        <ele>29.799999237061</ele>
        <time>2022-01-30T10:00:52.000Z</time>
      </trkpt>
      <trkpt lat="47.2414" lon="-2.29842">
        <ele>29.799999237061</ele>
        <time>2022-01-30T10:00:58.000Z</time>
      </trkpt>
      <trkpt lat="47.24118" lon="-2.29847">
        <ele>29.799999237061</ele>
        <time>2022-01-30T10:01:04.000Z</time>
      </trkpt>
      <trkpt lat="47.241" lon="-2.29847">
        <ele>29.799999237061</ele>
        <time>2022-01-30T10:01:09.000Z</time>
      </trkpt>
      <trkpt lat="47.24087" lon="-2.29836">
        <ele>29.799999237061</ele>
        <time>2022-01-30T10:01:14.000Z</time>
      </trkpt>
      <trkpt lat="47.24081" lon="-2.29804">
        <ele>29.799999237061</ele>
        <time>2022-01-30T10:01:20.000Z</time>
      </trkpt>
      <trkpt lat="47.24077" lon="-2.29768">
        <ele>29.799999237061</ele>
        <time>2022-01-30T10:01:25.000Z</time>
      </trkpt>
      <trkpt lat="47.24072" lon="-2.29745">
        <ele>29.799999237061</ele>
        <time>2022-01-30T10:01:28.000Z</time>
      </trkpt>
      <trkpt lat="47.24066" lon="-2.29724">
        <ele>29.799999237061</ele>
        <time>2022-01-30T10:01:31.000Z</time>
      </trkpt>
      <trkpt lat="47.24051" lon="-2.29672">
        <ele>29.799999237061</ele>
        <time>2022-01-30T10:01:38.000Z</time>
      </trkpt>
      <trkpt lat="47.24047" lon="-2.29649">
        <ele>30.60000038147</ele>
        <time>2022-01-30T10:01:41.000Z</time>
      </trkpt>
      <trkpt lat="47.24047" lon="-2.29642">
        <ele>31</ele>
        <time>2022-01-30T10:01:42.000Z</time>
      </trkpt>
      <trkpt lat="47.24049" lon="-2.29635">
        <ele>31.39999961853</ele>
        <time>2022-01-30T10:01:43.000Z</time>
      </trkpt>
      <trkpt lat="47.24053" lon="-2.29629">
        <ele>31.799999237061</ele>
        <time>2022-01-30T10:01:44.000Z</time>
      </trkpt>
      <trkpt lat="47.24061" lon="-2.2962">
        <ele>31.799999237061</ele>
        <time>2022-01-30T10:01:46.000Z</time>
      </trkpt>
      <trkpt lat="47.24066" lon="-2.29616">
        <ele>31.799999237061</ele>
        <time>2022-01-30T10:01:47.000Z</time>
      </trkpt>
      <trkpt lat="47.24079" lon="-2.29604">
        <ele>31.799999237061</ele>
        <time>2022-01-30T10:01:50.000Z</time>
      </trkpt>
      <trkpt lat="47.24097" lon="-2.29588">
        <ele>31.799999237061</ele>
        <time>2022-01-30T10:01:54.000Z</time>
      </trkpt>
      <trkpt lat="47.24105" lon="-2.29575">
        <ele>31.799999237061</ele>
        <time>2022-01-30T10:01:56.000Z</time>
      </trkpt>
      <trkpt lat="47.24109" lon="-2.2955">
        <ele>31.799999237061</ele>
        <time>2022-01-30T10:01:59.000Z</time>
      </trkpt>
      <trkpt lat="47.24103" lon="-2.29526">
        <ele>31.39999961853</ele>
        <time>2022-01-30T10:02:02.000Z</time>
      </trkpt>
      <trkpt lat="47.24101" lon="-2.29518">
        <ele>31</ele>
        <time>2022-01-30T10:02:03.000Z</time>
      </trkpt>
      <trkpt lat="47.24099" lon="-2.2951">
        <ele>30.60000038147</ele>
        <time>2022-01-30T10:02:04.000Z</time>
      </trkpt>
      <trkpt lat="47.24097" lon="-2.29502">
        <ele>29.60000038147</ele>
        <time>2022-01-30T10:02:05.000Z</time>
      </trkpt>
      <trkpt lat="47.24095" lon="-2.29494">
        <ele>29.60000038147</ele>
        <time>2022-01-30T10:02:06.000Z</time>
      </trkpt>
      <trkpt lat="47.24097" lon="-2.29479">
        <ele>29.60000038147</ele>
        <time>2022-01-30T10:02:08.000Z</time>
      </trkpt>
      <trkpt lat="47.24109" lon="-2.29463">
        <ele>29.60000038147</ele>
        <time>2022-01-30T10:02:11.000Z</time>
      </trkpt>
      <trkpt lat="47.24126" lon="-2.29454">
        <ele>29.60000038147</ele>
        <time>2022-01-30T10:02:14.000Z</time>
      </trkpt>
      <trkpt lat="47.24139" lon="-2.29448">
        <ele>29.60000038147</ele>
        <time>2022-01-30T10:02:16.000Z</time>
      </trkpt>
      <trkpt lat="47.24172" lon="-2.29438">
        <ele>29.60000038147</ele>
        <time>2022-01-30T10:02:21.000Z</time>
      </trkpt>
      <trkpt lat="47.24186" lon="-2.29439">
        <ele>29.200000762939</ele>
        <time>2022-01-30T10:02:23.000Z</time>
      </trkpt>
      <trkpt lat="47.24194" lon="-2.29441">
        <ele>28.799999237061</ele>
        <time>2022-01-30T10:02:24.000Z</time>
      </trkpt>
      <trkpt lat="47.24201" lon="-2.29443">
        <ele>28.39999961853</ele>
        <time>2022-01-30T10:02:25.000Z</time>
      </trkpt>
      <trkpt lat="47.24208" lon="-2.29446">
        <ele>28</ele>
        <time>2022-01-30T10:02:26.000Z</time>
      </trkpt>
      <trkpt lat="47.24215" lon="-2.29449">
        <ele>27.60000038147</ele>
        <time>2022-01-30T10:02:27.000Z</time>
      </trkpt>
      <trkpt lat="47.24235" lon="-2.29457">
        <ele>27.60000038147</ele>
        <time>2022-01-30T10:02:30.000Z</time>
      </trkpt>
      <trkpt lat="47.24255" lon="-2.29452">
        <ele>27.60000038147</ele>
        <time>2022-01-30T10:02:33.000Z</time>
      </trkpt>
      <trkpt lat="47.2429" lon="-2.2943">
        <ele>27.60000038147</ele>
        <time>2022-01-30T10:02:39.000Z</time>
      </trkpt>
      <trkpt lat="47.24295" lon="-2.29428">
        <ele>27.60000038147</ele>
        <time>2022-01-30T10:02:40.000Z</time>
      </trkpt>
      <trkpt lat="47.24313" lon="-2.29429">
        <ele>27.60000038147</ele>
        <time>2022-01-30T10:02:43.000Z</time>
      </trkpt>
      <trkpt lat="47.24335" lon="-2.29447">
        <ele>27.60000038147</ele>
        <time>2022-01-30T10:02:47.000Z</time>
      </trkpt>
      <trkpt lat="47.2435" lon="-2.29461">
        <ele>27.60000038147</ele>
        <time>2022-01-30T10:02:50.000Z</time>
      </trkpt>
      <trkpt lat="47.2436" lon="-2.29461">
        <ele>27.60000038147</ele>
        <time>2022-01-30T10:02:52.000Z</time>
      </trkpt>
      <trkpt lat="47.24375" lon="-2.29449">
        <ele>27.60000038147</ele>
        <time>2022-01-30T10:02:55.000Z</time>
      </trkpt>
      <trkpt lat="47.2438" lon="-2.29444">
        <ele>27.60000038147</ele>
        <time>2022-01-30T10:02:56.000Z</time>
      </trkpt>
      <trkpt lat="47.24402" lon="-2.29431">
        <ele>27.60000038147</ele>
        <time>2022-01-30T10:03:00.000Z</time>
      </trkpt>
      <trkpt lat="47.24407" lon="-2.29431">
        <ele>27.60000038147</ele>
        <time>2022-01-30T10:03:01.000Z</time>
      </trkpt>
      <trkpt lat="47.24447" lon="-2.29427">
        <ele>27.60000038147</ele>
        <time>2022-01-30T10:03:08.000Z</time>
      </trkpt>
      <trkpt lat="47.24464" lon="-2.29424">
        <ele>28</ele>
        <time>2022-01-30T10:03:11.000Z</time>
      </trkpt>
      <trkpt lat="47.24469" lon="-2.29424">
        <ele>28.39999961853</ele>
        <time>2022-01-30T10:03:12.000Z</time>
      </trkpt>
      <trkpt lat="47.24474" lon="-2.29424">
        <ele>28.799999237061</ele>
        <time>2022-01-30T10:03:13.000Z</time>
      </trkpt>
      <trkpt lat="47.24479" lon="-2.29423">
        <ele>29.39999961853</ele>
        <time>2022-01-30T10:03:14.000Z</time>
      </trkpt>
      <trkpt lat="47.24485" lon="-2.29422">
        <ele>29.799999237061</ele>
        <time>2022-01-30T10:03:15.000Z</time>
      </trkpt>
      <trkpt lat="47.24509" lon="-2.29417">
        <ele>29.799999237061</ele>
        <time>2022-01-30T10:03:20.000Z</time>
      </trkpt>
      <trkpt lat="47.24516" lon="-2.29412">
        <ele>30.200000762939</ele>
        <time>2022-01-30T10:03:22.000Z</time>
      </trkpt>
      <trkpt lat="47.24518" lon="-2.29408">
        <ele>30.60000038147</ele>
        <time>2022-01-30T10:03:23.000Z</time>
      </trkpt>
      <trkpt lat="47.24519" lon="-2.29403">
        <ele>31</ele>
        <time>2022-01-30T10:03:24.000Z</time>
      </trkpt>
      <trkpt lat="47.2452" lon="-2.29398">
        <ele>31.39999961853</ele>
        <time>2022-01-30T10:03:25.000Z</time>
      </trkpt>
      <trkpt lat="47.2452" lon="-2.29392">
        <ele>31.799999237061</ele>
        <time>2022-01-30T10:03:26.000Z</time>
      </trkpt>
      <trkpt lat="47.24519" lon="-2.29379">
        <ele>31.799999237061</ele>
        <time>2022-01-30T10:03:28.000Z</time>
      </trkpt>
      <trkpt lat="47.24517" lon="-2.29366">
        <ele>31.799999237061</ele>
        <time>2022-01-30T10:03:30.000Z</time>
      </trkpt>
      <trkpt lat="47.24514" lon="-2.29343">
        <ele>31.799999237061</ele>
        <time>2022-01-30T10:03:33.000Z</time>
      </trkpt>
      <trkpt lat="47.24514" lon="-2.29335">
        <ele>31.799999237061</ele>
        <time>2022-01-30T10:03:34.000Z</time>
      </trkpt>
      <trkpt lat="47.24514" lon="-2.29309">
        <ele>31.799999237061</ele>
        <time>2022-01-30T10:03:37.000Z</time>
      </trkpt>
      <trkpt lat="47.24513" lon="-2.29281">
        <ele>31.799999237061</ele>
        <time>2022-01-30T10:03:40.000Z</time>
      </trkpt>
      <trkpt lat="47.24515" lon="-2.29215">
        <ele>31.799999237061</ele>
        <time>2022-01-30T10:03:47.000Z</time>
      </trkpt>
      <trkpt lat="47.24523" lon="-2.29167">
        <ele>31.799999237061</ele>
        <time>2022-01-30T10:03:52.000Z</time>
      </trkpt>
      <trkpt lat="47.24526" lon="-2.29158">
        <ele>31.799999237061</ele>
        <time>2022-01-30T10:03:53.000Z</time>
      </trkpt>
      <trkpt lat="47.24542" lon="-2.29101">
        <ele>31.799999237061</ele>
        <time>2022-01-30T10:03:59.000Z</time>
      </trkpt>
      <trkpt lat="47.2455" lon="-2.29051">
        <ele>31.799999237061</ele>
        <time>2022-01-30T10:04:04.000Z</time>
      </trkpt>
      <trkpt lat="47.24554" lon="-2.2902">
        <ele>31.39999961853</ele>
        <time>2022-01-30T10:04:07.000Z</time>
      </trkpt>
      <trkpt lat="47.24554" lon="-2.2901">
        <ele>31</ele>
        <time>2022-01-30T10:04:08.000Z</time>
      </trkpt>
      <trkpt lat="47.24553" lon="-2.28999">
        <ele>30</ele>
        <time>2022-01-30T10:04:09.000Z</time>
      </trkpt>
      <trkpt lat="47.24552" lon="-2.2899">
        <ele>29.60000038147</ele>
        <time>2022-01-30T10:04:10.000Z</time>
      </trkpt>
      <trkpt lat="47.24545" lon="-2.28961">
        <ele>29.60000038147</ele>
        <time>2022-01-30T10:04:13.000Z</time>
      </trkpt>
      <trkpt lat="47.24539" lon="-2.28942">
        <ele>29.60000038147</ele>
        <time>2022-01-30T10:04:15.000Z</time>
      </trkpt>
      <trkpt lat="47.24522" lon="-2.28884">
        <ele>29.200000762939</ele>
        <time>2022-01-30T10:04:21.000Z</time>
      </trkpt>
      <trkpt lat="47.24523" lon="-2.28874">
        <ele>28.799999237061</ele>
        <time>2022-01-30T10:04:22.000Z</time>
      </trkpt>
      <trkpt lat="47.24524" lon="-2.28865">
        <ele>28.39999961853</ele>
        <time>2022-01-30T10:04:23.000Z</time>
      </trkpt>
      <trkpt lat="47.24527" lon="-2.28856">
        <ele>28</ele>
        <time>2022-01-30T10:04:24.000Z</time>
      </trkpt>
      <trkpt lat="47.24532" lon="-2.2885">
        <ele>27.60000038147</ele>
        <time>2022-01-30T10:04:25.000Z</time>
      </trkpt>
      <trkpt lat="47.24542" lon="-2.28841">
        <ele>27.60000038147</ele>
        <time>2022-01-30T10:04:27.000Z</time>
      </trkpt>
      <trkpt lat="47.24558" lon="-2.28827">
        <ele>27.60000038147</ele>
        <time>2022-01-30T10:04:30.000Z</time>
      </trkpt>
      <trkpt lat="47.24568" lon="-2.28815">
        <ele>27.60000038147</ele>
        <time>2022-01-30T10:04:32.000Z</time>
      </trkpt>
      <trkpt lat="47.24589" lon="-2.28797">
        <ele>27.60000038147</ele>
        <time>2022-01-30T10:04:36.000Z</time>
      </trkpt>
      <trkpt lat="47.24606" lon="-2.28783">
        <ele>27.60000038147</ele>
        <time>2022-01-30T10:04:39.000Z</time>
      </trkpt>
      <trkpt lat="47.24617" lon="-2.28771">
        <ele>27.60000038147</ele>
        <time>2022-01-30T10:04:41.000Z</time>
      </trkpt>
      <trkpt lat="47.24628" lon="-2.28758">
        <ele>27.60000038147</ele>
        <time>2022-01-30T10:04:43.000Z</time>
      </trkpt>
      <trkpt lat="47.2464" lon="-2.28736">
        <ele>27.60000038147</ele>
        <time>2022-01-30T10:04:46.000Z</time>
      </trkpt>
      <trkpt lat="47.24674" lon="-2.28694">
        <ele>27.60000038147</ele>
        <time>2022-01-30T10:04:53.000Z</time>
      </trkpt>
      <trkpt lat="47.24683" lon="-2.28681">
        <ele>27.60000038147</ele>
        <time>2022-01-30T10:04:55.000Z</time>
      </trkpt>
      <trkpt lat="47.24696" lon="-2.28662">
        <ele>27.60000038147</ele>
        <time>2022-01-30T10:04:58.000Z</time>
      </trkpt>
      <trkpt lat="47.24721" lon="-2.28637">
        <ele>27.60000038147</ele>
        <time>2022-01-30T10:05:03.000Z</time>
      </trkpt>
      <trkpt lat="47.24726" lon="-2.28631">
        <ele>27.60000038147</ele>
        <time>2022-01-30T10:05:04.000Z</time>
      </trkpt>
      <trkpt lat="47.24742" lon="-2.28603">
        <ele>27.60000038147</ele>
        <time>2022-01-30T10:05:08.000Z</time>
      </trkpt>
      <trkpt lat="47.24745" lon="-2.28578">
        <ele>28</ele>
        <time>2022-01-30T10:05:11.000Z</time>
      </trkpt>
      <trkpt lat="47.24747" lon="-2.28569">
        <ele>28.39999961853</ele>
        <time>2022-01-30T10:05:12.000Z</time>
      </trkpt>
      <trkpt lat="47.2475" lon="-2.28563">
        <ele>28.799999237061</ele>
        <time>2022-01-30T10:05:13.000Z</time>
      </trkpt>
      <trkpt lat="47.24754" lon="-2.28557">
        <ele>29.200000762939</ele>
        <time>2022-01-30T10:05:14.000Z</time>
      </trkpt>
      <trkpt lat="47.24759" lon="-2.28551">
        <ele>29.60000038147</ele>
        <time>2022-01-30T10:05:15.000Z</time>
      </trkpt>
      <trkpt lat="47.24764" lon="-2.28547">
        <ele>29.60000038147</ele>
        <time>2022-01-30T10:05:16.000Z</time>
      </trkpt>
      <trkpt lat="47.24794" lon="-2.28518">
        <ele>29.60000038147</ele>
        <time>2022-01-30T10:05:22.000Z</time>
      </trkpt>
      <trkpt lat="47.24834" lon="-2.28485">
        <ele>29.60000038147</ele>
        <time>2022-01-30T10:05:29.000Z</time>
      </trkpt>
      <trkpt lat="47.24862" lon="-2.28459">
        <ele>29.60000038147</ele>
        <time>2022-01-30T10:05:34.000Z</time>
      </trkpt>
      <trkpt lat="47.24893" lon="-2.28427">
        <ele>29.200000762939</ele>
        <time>2022-01-30T10:05:39.000Z</time>
      </trkpt>
      <trkpt lat="47.24899" lon="-2.28424">
        <ele>28.799999237061</ele>
        <time>2022-01-30T10:05:40.000Z</time>
      </trkpt>
      <trkpt lat="47.24907" lon="-2.2842">
        <ele>28.39999961853</ele>
        <time>2022-01-30T10:05:41.000Z</time>
      </trkpt>
      <trkpt lat="47.24914" lon="-2.28418">
        <ele>28</ele>
        <time>2022-01-30T10:05:42.000Z</time>
      </trkpt>
      <trkpt lat="47.24922" lon="-2.28415">
        <ele>27.39999961853</ele>
        <time>2022-01-30T10:05:43.000Z</time>
      </trkpt>
      <trkpt lat="47.24944" lon="-2.28407">
        <ele>27</ele>
        <time>2022-01-30T10:05:46.000Z</time>
      </trkpt>
      <trkpt lat="47.24952" lon="-2.28405">
        <ele>26.60000038147</ele>
        <time>2022-01-30T10:05:47.000Z</time>
      </trkpt>
      <trkpt lat="47.24959" lon="-2.28402">
        <ele>25.60000038147</ele>
        <time>2022-01-30T10:05:48.000Z</time>
      </trkpt>
      <trkpt lat="47.24967" lon="-2.28397">
        <ele>25.200000762939</ele>
        <time>2022-01-30T10:05:50.000Z</time>
      </trkpt>
      <trkpt lat="47.24974" lon="-2.28391">
        <ele>24.799999237061</ele>
        <time>2022-01-30T10:05:51.000Z</time>
      </trkpt>
      <trkpt lat="47.2498" lon="-2.28384">
        <ele>24.39999961853</ele>
        <time>2022-01-30T10:05:52.000Z</time>
      </trkpt>
      <trkpt lat="47.24986" lon="-2.28376">
        <ele>23.799999237061</ele>
        <time>2022-01-30T10:05:53.000Z</time>
      </trkpt>
      <trkpt lat="47.24991" lon="-2.28366">
        <ele>23.39999961853</ele>
        <time>2022-01-30T10:05:54.000Z</time>
      </trkpt>
      <trkpt lat="47.24995" lon="-2.28357">
        <ele>22.799999237061</ele>
        <time>2022-01-30T10:05:55.000Z</time>
      </trkpt>
      <trkpt lat="47.24999" lon="-2.28347">
        <ele>22.799999237061</ele>
        <time>2022-01-30T10:05:56.000Z</time>
      </trkpt>
      <trkpt lat="47.25003" lon="-2.28339">
        <ele>22.799999237061</ele>
        <time>2022-01-30T10:05:57.000Z</time>
      </trkpt>
      <trkpt lat="47.25013" lon="-2.28326">
        <ele>22.799999237061</ele>
        <time>2022-01-30T10:05:59.000Z</time>
      </trkpt>
      <trkpt lat="47.25024" lon="-2.28311">
        <ele>22.799999237061</ele>
        <time>2022-01-30T10:06:02.000Z</time>
      </trkpt>
      <trkpt lat="47.25025" lon="-2.28292">
        <ele>22.799999237061</ele>
        <time>2022-01-30T10:06:05.000Z</time>
      </trkpt>
      <trkpt lat="47.25026" lon="-2.28285">
        <ele>22.799999237061</ele>
        <time>2022-01-30T10:06:06.000Z</time>
      </trkpt>
      <trkpt lat="47.25029" lon="-2.28255">
        <ele>23.39999961853</ele>
        <time>2022-01-30T10:06:10.000Z</time>
      </trkpt>
      <trkpt lat="47.25031" lon="-2.28248">
        <ele>23.799999237061</ele>
        <time>2022-01-30T10:06:11.000Z</time>
      </trkpt>
      <trkpt lat="47.25033" lon="-2.2824">
        <ele>24.200000762939</ele>
        <time>2022-01-30T10:06:12.000Z</time>
      </trkpt>
      <trkpt lat="47.25035" lon="-2.28233">
        <ele>25</ele>
        <time>2022-01-30T10:06:13.000Z</time>
      </trkpt>
      <trkpt lat="47.25045" lon="-2.28194">
        <ele>25</ele>
        <time>2022-01-30T10:06:18.000Z</time>
      </trkpt>
      <trkpt lat="47.25061" lon="-2.2814">
        <ele>25</ele>
        <time>2022-01-30T10:06:25.000Z</time>
      </trkpt>
      <trkpt lat="47.25071" lon="-2.28106">
        <ele>25</ele>
        <time>2022-01-30T10:06:29.000Z</time>
      </trkpt>
      <trkpt lat="47.25074" lon="-2.28089">
        <ele>25</ele>
        <time>2022-01-30T10:06:31.000Z</time>
      </trkpt>
      <trkpt lat="47.25076" lon="-2.2808">
        <ele>25</ele>
        <time>2022-01-30T10:06:32.000Z</time>
      </trkpt>
      <trkpt lat="47.25086" lon="-2.28056">
        <ele>25</ele>
        <time>2022-01-30T10:06:35.000Z</time>
      </trkpt>
      <trkpt lat="47.25104" lon="-2.28012">
        <ele>25.39999961853</ele>
        <time>2022-01-30T10:06:41.000Z</time>
      </trkpt>
      <trkpt lat="47.25107" lon="-2.28006">
        <ele>25.799999237061</ele>
        <time>2022-01-30T10:06:42.000Z</time>
      </trkpt>
      <trkpt lat="47.2511" lon="-2.27999">
        <ele>26.200000762939</ele>
        <time>2022-01-30T10:06:43.000Z</time>
      </trkpt>
      <trkpt lat="47.25113" lon="-2.27991">
        <ele>26.60000038147</ele>
        <time>2022-01-30T10:06:44.000Z</time>
      </trkpt>
      <trkpt lat="47.25116" lon="-2.27985">
        <ele>27.200000762939</ele>
        <time>2022-01-30T10:06:45.000Z</time>
      </trkpt>
      <trkpt lat="47.25131" lon="-2.27961">
        <ele>27.200000762939</ele>
        <time>2022-01-30T10:06:49.000Z</time>
      </trkpt>
      <trkpt lat="47.25149" lon="-2.27943">
        <ele>27.200000762939</ele>
        <time>2022-01-30T10:06:53.000Z</time>
      </trkpt>
      <trkpt lat="47.2516" lon="-2.27936">
        <ele>27.60000038147</ele>
        <time>2022-01-30T10:06:55.000Z</time>
      </trkpt>
      <trkpt lat="47.25165" lon="-2.27932">
        <ele>28</ele>
        <time>2022-01-30T10:06:56.000Z</time>
      </trkpt>
      <trkpt lat="47.2517" lon="-2.27928">
        <ele>28.39999961853</ele>
        <time>2022-01-30T10:06:57.000Z</time>
      </trkpt>
      <trkpt lat="47.25175" lon="-2.27924">
        <ele>28.799999237061</ele>
        <time>2022-01-30T10:06:58.000Z</time>
      </trkpt>
      <trkpt lat="47.25181" lon="-2.2792">
        <ele>29.200000762939</ele>
        <time>2022-01-30T10:06:59.000Z</time>
      </trkpt>
      <trkpt lat="47.25196" lon="-2.27908">
        <ele>29.200000762939</ele>
        <time>2022-01-30T10:07:02.000Z</time>
      </trkpt>
      <trkpt lat="47.25201" lon="-2.27906">
        <ele>29.200000762939</ele>
        <time>2022-01-30T10:07:03.000Z</time>
      </trkpt>
      <trkpt lat="47.25227" lon="-2.27893">
        <ele>29.200000762939</ele>
        <time>2022-01-30T10:07:08.000Z</time>
      </trkpt>
      <trkpt lat="47.2526" lon="-2.27877">
        <ele>29.60000038147</ele>
        <time>2022-01-30T10:07:14.000Z</time>
      </trkpt>
      <trkpt lat="47.25266" lon="-2.27875">
        <ele>30</ele>
        <time>2022-01-30T10:07:15.000Z</time>
      </trkpt>
      <trkpt lat="47.25272" lon="-2.27874">
        <ele>30.39999961853</ele>
        <time>2022-01-30T10:07:16.000Z</time>
      </trkpt>
      <trkpt lat="47.25278" lon="-2.27872">
        <ele>30.799999237061</ele>
        <time>2022-01-30T10:07:17.000Z</time>
      </trkpt>
      <trkpt lat="47.25284" lon="-2.27871">
        <ele>31.200000762939</ele>
        <time>2022-01-30T10:07:18.000Z</time>
      </trkpt>
      <trkpt lat="47.25301" lon="-2.27868">
        <ele>31.200000762939</ele>
        <time>2022-01-30T10:07:21.000Z</time>
      </trkpt>
      <trkpt lat="47.25341" lon="-2.27861">
        <ele>31.200000762939</ele>
        <time>2022-01-30T10:07:28.000Z</time>
      </trkpt>
      <trkpt lat="47.25352" lon="-2.27858">
        <ele>31.60000038147</ele>
        <time>2022-01-30T10:07:30.000Z</time>
      </trkpt>
      <trkpt lat="47.25358" lon="-2.27857">
        <ele>32</ele>
        <time>2022-01-30T10:07:31.000Z</time>
      </trkpt>
      <trkpt lat="47.25363" lon="-2.27855">
        <ele>32.400001525879</ele>
        <time>2022-01-30T10:07:32.000Z</time>
      </trkpt>
      <trkpt lat="47.25369" lon="-2.27853">
        <ele>32.799999237061</ele>
        <time>2022-01-30T10:07:33.000Z</time>
      </trkpt>
      <trkpt lat="47.25375" lon="-2.27851">
        <ele>33.200000762939</ele>
        <time>2022-01-30T10:07:34.000Z</time>
      </trkpt>
      <trkpt lat="47.25407" lon="-2.27837">
        <ele>33.200000762939</ele>
        <time>2022-01-30T10:07:40.000Z</time>
      </trkpt>
      <trkpt lat="47.25442" lon="-2.27812">
        <ele>33.200000762939</ele>
        <time>2022-01-30T10:07:47.000Z</time>
      </trkpt>
      <trkpt lat="47.25466" lon="-2.27784">
        <ele>33.200000762939</ele>
        <time>2022-01-30T10:07:53.000Z</time>
      </trkpt>
      <trkpt lat="47.2547" lon="-2.27779">
        <ele>33.799999237061</ele>
        <time>2022-01-30T10:07:54.000Z</time>
      </trkpt>
      <trkpt lat="47.25473" lon="-2.27775">
        <ele>34.200000762939</ele>
        <time>2022-01-30T10:07:55.000Z</time>
      </trkpt>
      <trkpt lat="47.25477" lon="-2.2777">
        <ele>34.599998474121</ele>
        <time>2022-01-30T10:07:56.000Z</time>
      </trkpt>
      <trkpt lat="47.2548" lon="-2.27766">
        <ele>35</ele>
        <time>2022-01-30T10:07:57.000Z</time>
      </trkpt>
      <trkpt lat="47.25484" lon="-2.27762">
        <ele>35.400001525879</ele>
        <time>2022-01-30T10:07:58.000Z</time>
      </trkpt>
      <trkpt lat="47.25487" lon="-2.27758">
        <ele>35.400001525879</ele>
        <time>2022-01-30T10:07:59.000Z</time>
      </trkpt>
      <trkpt lat="47.25497" lon="-2.27744">
        <ele>35.400001525879</ele>
        <time>2022-01-30T10:08:02.000Z</time>
      </trkpt>
      <trkpt lat="47.25497" lon="-2.27738">
        <ele>35.400001525879</ele>
        <time>2022-01-30T10:08:03.000Z</time>
      </trkpt>
      <trkpt lat="47.25495" lon="-2.27709">
        <ele>35.400001525879</ele>
        <time>2022-01-30T10:08:07.000Z</time>
      </trkpt>
      <trkpt lat="47.25493" lon="-2.27701">
        <ele>35.400001525879</ele>
        <time>2022-01-30T10:08:08.000Z</time>
      </trkpt>
      <trkpt lat="47.25486" lon="-2.27668">
        <ele>35.400001525879</ele>
        <time>2022-01-30T10:08:13.000Z</time>
      </trkpt>
      <trkpt lat="47.2548" lon="-2.27629">
        <ele>35.400001525879</ele>
        <time>2022-01-30T10:08:20.000Z</time>
      </trkpt>
      <trkpt lat="47.25474" lon="-2.27617">
        <ele>35.400001525879</ele>
        <time>2022-01-30T10:08:24.000Z</time>
      </trkpt>
      <trkpt lat="47.25464" lon="-2.27603">
        <ele>35.400001525879</ele>
        <time>2022-01-30T10:08:30.000Z</time>
      </trkpt>
      <trkpt lat="47.25457" lon="-2.27583">
        <ele>35.400001525879</ele>
        <time>2022-01-30T10:08:34.000Z</time>
      </trkpt>
      <trkpt lat="47.25454" lon="-2.27565">
        <ele>35.400001525879</ele>
        <time>2022-01-30T10:08:37.000Z</time>
      </trkpt>
      <trkpt lat="47.2545" lon="-2.27553">
        <ele>35.400001525879</ele>
        <time>2022-01-30T10:08:39.000Z</time>
      </trkpt>
      <trkpt lat="47.25441" lon="-2.27519">
        <ele>35.400001525879</ele>
        <time>2022-01-30T10:08:45.000Z</time>
      </trkpt>
      <trkpt lat="47.25433" lon="-2.275">
        <ele>35.400001525879</ele>
        <time>2022-01-30T10:08:49.000Z</time>
      </trkpt>
      <trkpt lat="47.25425" lon="-2.27488">
        <ele>35.400001525879</ele>
        <time>2022-01-30T10:08:51.000Z</time>
      </trkpt>
      <trkpt lat="47.25419" lon="-2.27472">
        <ele>35.400001525879</ele>
        <time>2022-01-30T10:08:53.000Z</time>
      </trkpt>
      <trkpt lat="47.25404" lon="-2.2743">
        <ele>35.400001525879</ele>
        <time>2022-01-30T10:08:59.000Z</time>
      </trkpt>
      <trkpt lat="47.25396" lon="-2.274">
        <ele>35.400001525879</ele>
        <time>2022-01-30T10:09:03.000Z</time>
      </trkpt>
      <trkpt lat="47.25393" lon="-2.27386">
        <ele>35.400001525879</ele>
        <time>2022-01-30T10:09:05.000Z</time>
      </trkpt>
      <trkpt lat="47.25384" lon="-2.27374">
        <ele>35.400001525879</ele>
        <time>2022-01-30T10:09:08.000Z</time>
      </trkpt>
      <trkpt lat="47.25382" lon="-2.27371">
        <ele>35.400001525879</ele>
        <time>2022-01-30T10:09:09.000Z</time>
      </trkpt>
      <trkpt lat="47.25369" lon="-2.27353">
        <ele>35.400001525879</ele>
        <time>2022-01-30T10:09:13.000Z</time>
      </trkpt>
      <trkpt lat="47.25362" lon="-2.27343">
        <ele>35.400001525879</ele>
        <time>2022-01-30T10:09:15.000Z</time>
      </trkpt>
      <trkpt lat="47.25352" lon="-2.27329">
        <ele>35.400001525879</ele>
        <time>2022-01-30T10:09:18.000Z</time>
      </trkpt>
      <trkpt lat="47.25344" lon="-2.27318">
        <ele>35.400001525879</ele>
        <time>2022-01-30T10:09:22.000Z</time>
      </trkpt>
      <trkpt lat="47.25344" lon="-2.27314">
        <ele>35.400001525879</ele>
        <time>2022-01-30T10:09:23.000Z</time>
      </trkpt>
      <trkpt lat="47.25341" lon="-2.27299">
        <ele>35.400001525879</ele>
        <time>2022-01-30T10:09:27.000Z</time>
      </trkpt>
      <trkpt lat="47.25333" lon="-2.27283">
        <ele>35.400001525879</ele>
        <time>2022-01-30T10:09:31.000Z</time>
      </trkpt>
      <trkpt lat="47.2533" lon="-2.27277">
        <ele>35.400001525879</ele>
        <time>2022-01-30T10:09:32.000Z</time>
      </trkpt>
      <trkpt lat="47.25325" lon="-2.27272">
        <ele>35.400001525879</ele>
        <time>2022-01-30T10:09:33.000Z</time>
      </trkpt>
      <trkpt lat="47.25313" lon="-2.27255">
        <ele>35.400001525879</ele>
        <time>2022-01-30T10:09:36.000Z</time>
      </trkpt>
      <trkpt lat="47.2531" lon="-2.27248">
        <ele>35.400001525879</ele>
        <time>2022-01-30T10:09:37.000Z</time>
      </trkpt>
      <trkpt lat="47.25293" lon="-2.27207">
        <ele>35.799999237061</ele>
        <time>2022-01-30T10:09:43.000Z</time>
      </trkpt>
      <trkpt lat="47.2529" lon="-2.272">
        <ele>36.200000762939</ele>
        <time>2022-01-30T10:09:44.000Z</time>
      </trkpt>
      <trkpt lat="47.25286" lon="-2.27193">
        <ele>36.599998474121</ele>
        <time>2022-01-30T10:09:45.000Z</time>
      </trkpt>
      <trkpt lat="47.25282" lon="-2.27187">
        <ele>37</ele>
        <time>2022-01-30T10:09:46.000Z</time>
      </trkpt>
      <trkpt lat="47.25278" lon="-2.27181">
        <ele>37.599998474121</ele>
        <time>2022-01-30T10:09:47.000Z</time>
      </trkpt>
      <trkpt lat="47.25274" lon="-2.27175">
        <ele>37.599998474121</ele>
        <time>2022-01-30T10:09:48.000Z</time>
      </trkpt>
      <trkpt lat="47.25251" lon="-2.27141">
        <ele>37.599998474121</ele>
        <time>2022-01-30T10:09:54.000Z</time>
      </trkpt>
      <trkpt lat="47.25247" lon="-2.27136">
        <ele>37.599998474121</ele>
        <time>2022-01-30T10:09:55.000Z</time>
      </trkpt>
      <trkpt lat="47.25229" lon="-2.27102">
        <ele>37.599998474121</ele>
        <time>2022-01-30T10:10:00.000Z</time>
      </trkpt>
      <trkpt lat="47.25209" lon="-2.27065">
        <ele>37.599998474121</ele>
        <time>2022-01-30T10:10:06.000Z</time>
      </trkpt>
      <trkpt lat="47.252" lon="-2.27043">
        <ele>37.599998474121</ele>
        <time>2022-01-30T10:10:09.000Z</time>
      </trkpt>
      <trkpt lat="47.25194" lon="-2.2703">
        <ele>37.599998474121</ele>
        <time>2022-01-30T10:10:11.000Z</time>
      </trkpt>
      <trkpt lat="47.25183" lon="-2.27007">
        <ele>37.599998474121</ele>
        <time>2022-01-30T10:10:15.000Z</time>
      </trkpt>
      <trkpt lat="47.25179" lon="-2.26992">
        <ele>37.599998474121</ele>
        <time>2022-01-30T10:10:17.000Z</time>
      </trkpt>
      <trkpt lat="47.25177" lon="-2.26962">
        <ele>37.599998474121</ele>
        <time>2022-01-30T10:10:21.000Z</time>
      </trkpt>
      <trkpt lat="47.25177" lon="-2.26954">
        <ele>37.599998474121</ele>
        <time>2022-01-30T10:10:22.000Z</time>
      </trkpt>
      <trkpt lat="47.25177" lon="-2.26919">
        <ele>37.599998474121</ele>
        <time>2022-01-30T10:10:27.000Z</time>
      </trkpt>
      <trkpt lat="47.25177" lon="-2.26913">
        <ele>37.599998474121</ele>
        <time>2022-01-30T10:10:28.000Z</time>
      </trkpt>
      <trkpt lat="47.25172" lon="-2.26894">
        <ele>37.599998474121</ele>
        <time>2022-01-30T10:10:32.000Z</time>
      </trkpt>
      <trkpt lat="47.25166" lon="-2.26888">
        <ele>37.599998474121</ele>
        <time>2022-01-30T10:10:34.000Z</time>
      </trkpt>
      <trkpt lat="47.25162" lon="-2.26883">
        <ele>37.599998474121</ele>
        <time>2022-01-30T10:10:36.000Z</time>
      </trkpt>
      <trkpt lat="47.25161" lon="-2.26879">
        <ele>37.599998474121</ele>
        <time>2022-01-30T10:10:37.000Z</time>
      </trkpt>
      <trkpt lat="47.25157" lon="-2.26854">
        <ele>37.599998474121</ele>
        <time>2022-01-30T10:10:42.000Z</time>
      </trkpt>
      <trkpt lat="47.25161" lon="-2.26829">
        <ele>37.599998474121</ele>
        <time>2022-01-30T10:10:46.000Z</time>
      </trkpt>
      <trkpt lat="47.25162" lon="-2.26823">
        <ele>37.599998474121</ele>
        <time>2022-01-30T10:10:47.000Z</time>
      </trkpt>
      <trkpt lat="47.25171" lon="-2.268">
        <ele>37.599998474121</ele>
        <time>2022-01-30T10:10:51.000Z</time>
      </trkpt>
      <trkpt lat="47.25174" lon="-2.26794">
        <ele>37.599998474121</ele>
        <time>2022-01-30T10:10:52.000Z</time>
      </trkpt>
      <trkpt lat="47.25183" lon="-2.26782">
        <ele>37.599998474121</ele>
        <time>2022-01-30T10:10:54.000Z</time>
      </trkpt>
      <trkpt lat="47.25194" lon="-2.26776">
        <ele>37.599998474121</ele>
        <time>2022-01-30T10:10:56.000Z</time>
      </trkpt>
      <trkpt lat="47.25205" lon="-2.26768">
        <ele>37.599998474121</ele>
        <time>2022-01-30T10:10:58.000Z</time>
      </trkpt>
      <trkpt lat="47.25226" lon="-2.26751">
        <ele>37.599998474121</ele>
        <time>2022-01-30T10:11:02.000Z</time>
      </trkpt>
      <trkpt lat="47.25257" lon="-2.26729">
        <ele>37.599998474121</ele>
        <time>2022-01-30T10:11:08.000Z</time>
      </trkpt>
      <trkpt lat="47.25267" lon="-2.26725">
        <ele>37.599998474121</ele>
        <time>2022-01-30T10:11:10.000Z</time>
      </trkpt>
      <trkpt lat="47.25289" lon="-2.26721">
        <ele>37.599998474121</ele>
        <time>2022-01-30T10:11:14.000Z</time>
      </trkpt>
      <trkpt lat="47.25295" lon="-2.2672">
        <ele>37.599998474121</ele>
        <time>2022-01-30T10:11:15.000Z</time>
      </trkpt>
      <trkpt lat="47.25316" lon="-2.26721">
        <ele>37.599998474121</ele>
        <time>2022-01-30T10:11:19.000Z</time>
      </trkpt>
      <trkpt lat="47.25326" lon="-2.26726">
        <ele>37.599998474121</ele>
        <time>2022-01-30T10:11:21.000Z</time>
      </trkpt>
      <trkpt lat="47.25361" lon="-2.26735">
        <ele>37.599998474121</ele>
        <time>2022-01-30T10:11:28.000Z</time>
      </trkpt>
      <trkpt lat="47.2539" lon="-2.26739">
        <ele>37.200000762939</ele>
        <time>2022-01-30T10:11:33.000Z</time>
      </trkpt>
      <trkpt lat="47.25396" lon="-2.2674">
        <ele>36.799999237061</ele>
        <time>2022-01-30T10:11:34.000Z</time>
      </trkpt>
      <trkpt lat="47.25403" lon="-2.26741">
        <ele>35.799999237061</ele>
        <time>2022-01-30T10:11:35.000Z</time>
      </trkpt>
      <trkpt lat="47.25409" lon="-2.26741">
        <ele>35.400001525879</ele>
        <time>2022-01-30T10:11:36.000Z</time>
      </trkpt>
      <trkpt lat="47.25426" lon="-2.26744">
        <ele>35.400001525879</ele>
        <time>2022-01-30T10:11:39.000Z</time>
      </trkpt>
      <trkpt lat="47.25442" lon="-2.26743">
        <ele>35.400001525879</ele>
        <time>2022-01-30T10:11:43.000Z</time>
      </trkpt>
      <trkpt lat="47.25447" lon="-2.26732">
        <ele>35.400001525879</ele>
        <time>2022-01-30T10:11:46.000Z</time>
      </trkpt>
      <trkpt lat="47.25453" lon="-2.26726">
        <ele>35</ele>
        <time>2022-01-30T10:11:48.000Z</time>
      </trkpt>
      <trkpt lat="47.25457" lon="-2.26724">
        <ele>34.599998474121</ele>
        <time>2022-01-30T10:11:49.000Z</time>
      </trkpt>
      <trkpt lat="47.25461" lon="-2.26721">
        <ele>34.200000762939</ele>
        <time>2022-01-30T10:11:50.000Z</time>
      </trkpt>
      <trkpt lat="47.25464" lon="-2.2672">
        <ele>33.799999237061</ele>
        <time>2022-01-30T10:11:51.000Z</time>
      </trkpt>
      <trkpt lat="47.25466" lon="-2.2672">
        <ele>33.200000762939</ele>
        <time>2022-01-30T10:11:52.000Z</time>
      </trkpt>
      <trkpt lat="47.25468" lon="-2.2672">
        <ele>33.200000762939</ele>
        <time>2022-01-30T10:11:54.000Z</time>
      </trkpt>
      <trkpt lat="47.25468" lon="-2.26719">
        <ele>33.200000762939</ele>
        <time>2022-01-30T10:11:56.000Z</time>
      </trkpt>
      <trkpt lat="47.25468" lon="-2.26709">
        <ele>33.200000762939</ele>
        <time>2022-01-30T10:11:58.000Z</time>
      </trkpt>
      <trkpt lat="47.25466" lon="-2.26696">
        <ele>32.400001525879</ele>
        <time>2022-01-30T10:12:00.000Z</time>
      </trkpt>
      <trkpt lat="47.25465" lon="-2.26691">
        <ele>32</ele>
        <time>2022-01-30T10:12:01.000Z</time>
      </trkpt>
      <trkpt lat="47.25462" lon="-2.26686">
        <ele>31.60000038147</ele>
        <time>2022-01-30T10:12:02.000Z</time>
      </trkpt>
      <trkpt lat="47.25459" lon="-2.26682">
        <ele>31.200000762939</ele>
        <time>2022-01-30T10:12:03.000Z</time>
      </trkpt>
      <trkpt lat="47.25447" lon="-2.26663">
        <ele>31.200000762939</ele>
        <time>2022-01-30T10:12:07.000Z</time>
      </trkpt>
      <trkpt lat="47.25444" lon="-2.26655">
        <ele>31.200000762939</ele>
        <time>2022-01-30T10:12:08.000Z</time>
      </trkpt>
      <trkpt lat="47.25441" lon="-2.26624">
        <ele>31.200000762939</ele>
        <time>2022-01-30T10:12:12.000Z</time>
      </trkpt>
      <trkpt lat="47.25441" lon="-2.26615">
        <ele>31.200000762939</ele>
        <time>2022-01-30T10:12:13.000Z</time>
      </trkpt>
      <trkpt lat="47.2544" lon="-2.26596">
        <ele>31.200000762939</ele>
        <time>2022-01-30T10:12:15.000Z</time>
      </trkpt>
      <trkpt lat="47.25435" lon="-2.26578">
        <ele>31.200000762939</ele>
        <time>2022-01-30T10:12:17.000Z</time>
      </trkpt>
      <trkpt lat="47.25429" lon="-2.2656">
        <ele>31.200000762939</ele>
        <time>2022-01-30T10:12:19.000Z</time>
      </trkpt>
      <trkpt lat="47.25426" lon="-2.26552">
        <ele>31.200000762939</ele>
        <time>2022-01-30T10:12:20.000Z</time>
      </trkpt>
      <trkpt lat="47.25426" lon="-2.26544">
        <ele>31.200000762939</ele>
        <time>2022-01-30T10:12:21.000Z</time>
      </trkpt>
      <trkpt lat="47.25428" lon="-2.26512">
        <ele>31.200000762939</ele>
        <time>2022-01-30T10:12:25.000Z</time>
      </trkpt>
      <trkpt lat="47.25428" lon="-2.26503">
        <ele>30.799999237061</ele>
        <time>2022-01-30T10:12:26.000Z</time>
      </trkpt>
      <trkpt lat="47.25428" lon="-2.26494">
        <ele>30.39999961853</ele>
        <time>2022-01-30T10:12:27.000Z</time>
      </trkpt>
      <trkpt lat="47.25429" lon="-2.26484">
        <ele>29.799999237061</ele>
        <time>2022-01-30T10:12:28.000Z</time>
      </trkpt>
      <trkpt lat="47.25431" lon="-2.26473">
        <ele>29.39999961853</ele>
        <time>2022-01-30T10:12:29.000Z</time>
      </trkpt>
      <trkpt lat="47.25431" lon="-2.26459">
        <ele>28.799999237061</ele>
        <time>2022-01-30T10:12:30.000Z</time>
      </trkpt>
      <trkpt lat="47.25431" lon="-2.26446">
        <ele>28.200000762939</ele>
        <time>2022-01-30T10:12:31.000Z</time>
      </trkpt>
      <trkpt lat="47.25432" lon="-2.26433">
        <ele>27.799999237061</ele>
        <time>2022-01-30T10:12:32.000Z</time>
      </trkpt>
      <trkpt lat="47.25433" lon="-2.2642">
        <ele>27.200000762939</ele>
        <time>2022-01-30T10:12:33.000Z</time>
      </trkpt>
      <trkpt lat="47.25433" lon="-2.26409">
        <ele>26.60000038147</ele>
        <time>2022-01-30T10:12:34.000Z</time>
      </trkpt>
      <trkpt lat="47.25434" lon="-2.26398">
        <ele>26</ele>
        <time>2022-01-30T10:12:35.000Z</time>
      </trkpt>
      <trkpt lat="47.25433" lon="-2.26389">
        <ele>25.39999961853</ele>
        <time>2022-01-30T10:12:36.000Z</time>
      </trkpt>
      <trkpt lat="47.25432" lon="-2.26383">
        <ele>24.799999237061</ele>
        <time>2022-01-30T10:12:37.000Z</time>
      </trkpt>
      <trkpt lat="47.2543" lon="-2.26378">
        <ele>24.39999961853</ele>
        <time>2022-01-30T10:12:38.000Z</time>
      </trkpt>
      <trkpt lat="47.25419" lon="-2.26361">
        <ele>24.39999961853</ele>
        <time>2022-01-30T10:12:42.000Z</time>
      </trkpt>
      <trkpt lat="47.25413" lon="-2.26349">
        <ele>24.39999961853</ele>
        <time>2022-01-30T10:12:46.000Z</time>
      </trkpt>
      <trkpt lat="47.25411" lon="-2.26337">
        <ele>24.39999961853</ele>
        <time>2022-01-30T10:12:48.000Z</time>
      </trkpt>
      <trkpt lat="47.25408" lon="-2.26326">
        <ele>24.39999961853</ele>
        <time>2022-01-30T10:12:50.000Z</time>
      </trkpt>
      <trkpt lat="47.25403" lon="-2.26316">
        <ele>24.799999237061</ele>
        <time>2022-01-30T10:12:53.000Z</time>
      </trkpt>
      <trkpt lat="47.25402" lon="-2.26312">
        <ele>25.200000762939</ele>
        <time>2022-01-30T10:12:54.000Z</time>
      </trkpt>
      <trkpt lat="47.25401" lon="-2.26307">
        <ele>25.60000038147</ele>
        <time>2022-01-30T10:12:55.000Z</time>
      </trkpt>
      <trkpt lat="47.25399" lon="-2.26302">
        <ele>26</ele>
        <time>2022-01-30T10:12:56.000Z</time>
      </trkpt>
      <trkpt lat="47.25397" lon="-2.26297">
        <ele>26.39999961853</ele>
        <time>2022-01-30T10:12:57.000Z</time>
      </trkpt>
      <trkpt lat="47.25393" lon="-2.26288">
        <ele>26.39999961853</ele>
        <time>2022-01-30T10:12:59.000Z</time>
      </trkpt>
      <trkpt lat="47.2539" lon="-2.2626">
        <ele>26.39999961853</ele>
        <time>2022-01-30T10:13:05.000Z</time>
      </trkpt>
      <trkpt lat="47.2539" lon="-2.26252">
        <ele>26.39999961853</ele>
        <time>2022-01-30T10:13:06.000Z</time>
      </trkpt>
      <trkpt lat="47.25388" lon="-2.26243">
        <ele>25.799999237061</ele>
        <time>2022-01-30T10:13:07.000Z</time>
      </trkpt>
      <trkpt lat="47.25386" lon="-2.26235">
        <ele>25.39999961853</ele>
        <time>2022-01-30T10:13:08.000Z</time>
      </trkpt>
      <trkpt lat="47.25384" lon="-2.26228">
        <ele>25</ele>
        <time>2022-01-30T10:13:09.000Z</time>
      </trkpt>
      <trkpt lat="47.25382" lon="-2.26223">
        <ele>24.39999961853</ele>
        <time>2022-01-30T10:13:10.000Z</time>
      </trkpt>
      <trkpt lat="47.2538" lon="-2.26219">
        <ele>24</ele>
        <time>2022-01-30T10:13:11.000Z</time>
      </trkpt>
      <trkpt lat="47.25377" lon="-2.26215">
        <ele>24</ele>
        <time>2022-01-30T10:13:12.000Z</time>
      </trkpt>
      <trkpt lat="47.25369" lon="-2.26189">
        <ele>24</ele>
        <time>2022-01-30T10:13:17.000Z</time>
      </trkpt>
      <trkpt lat="47.2537" lon="-2.26166">
        <ele>24</ele>
        <time>2022-01-30T10:13:20.000Z</time>
      </trkpt>
      <trkpt lat="47.25372" lon="-2.26159">
        <ele>23.60000038147</ele>
        <time>2022-01-30T10:13:21.000Z</time>
      </trkpt>
      <trkpt lat="47.25372" lon="-2.26152">
        <ele>23.200000762939</ele>
        <time>2022-01-30T10:13:22.000Z</time>
      </trkpt>
      <trkpt lat="47.25373" lon="-2.26146">
        <ele>22.60000038147</ele>
        <time>2022-01-30T10:13:23.000Z</time>
      </trkpt>
      <trkpt lat="47.25374" lon="-2.26141">
        <ele>22.200000762939</ele>
        <time>2022-01-30T10:13:24.000Z</time>
      </trkpt>
      <trkpt lat="47.25374" lon="-2.26137">
        <ele>21.799999237061</ele>
        <time>2022-01-30T10:13:25.000Z</time>
      </trkpt>
      <trkpt lat="47.25373" lon="-2.26121">
        <ele>21.799999237061</ele>
        <time>2022-01-30T10:13:30.000Z</time>
      </trkpt>
      <trkpt lat="47.25375" lon="-2.26106">
        <ele>21.799999237061</ele>
        <time>2022-01-30T10:13:36.000Z</time>
      </trkpt>
      <trkpt lat="47.25375" lon="-2.26088">
        <ele>21.799999237061</ele>
        <time>2022-01-30T10:13:42.000Z</time>
      </trkpt>
      <trkpt lat="47.25375" lon="-2.26088">
        <ele>21.39999961853</ele>
        <time>2022-01-30T10:13:45.000Z</time>
      </trkpt>
      <trkpt lat="47.25378" lon="-2.2608">
        <ele>19.60000038147</ele>
        <time>2022-01-30T10:14:09.000Z</time>
      </trkpt>
      <trkpt lat="47.25381" lon="-2.26076">
        <ele>19.60000038147</ele>
        <time>2022-01-30T10:14:10.000Z</time>
      </trkpt>
      <trkpt lat="47.25387" lon="-2.26067">
        <ele>19.60000038147</ele>
        <time>2022-01-30T10:14:13.000Z</time>
      </trkpt>
      <trkpt lat="47.25389" lon="-2.26064">
        <ele>19.60000038147</ele>
        <time>2022-01-30T10:14:14.000Z</time>
      </trkpt>
      <trkpt lat="47.25389" lon="-2.2606">
        <ele>19.200000762939</ele>
        <time>2022-01-30T10:14:15.000Z</time>
      </trkpt>
      <trkpt lat="47.25389" lon="-2.26057">
        <ele>18.799999237061</ele>
        <time>2022-01-30T10:14:16.000Z</time>
      </trkpt>
      <trkpt lat="47.2539" lon="-2.26055">
        <ele>18.39999961853</ele>
        <time>2022-01-30T10:14:17.000Z</time>
      </trkpt>
      <trkpt lat="47.25389" lon="-2.26053">
        <ele>18</ele>
        <time>2022-01-30T10:14:18.000Z</time>
      </trkpt>
      <trkpt lat="47.25389" lon="-2.26053">
        <ele>17.60000038147</ele>
        <time>2022-01-30T10:14:19.000Z</time>
      </trkpt>
      <trkpt lat="47.25389" lon="-2.26053">
        <ele>17.60000038147</ele>
        <time>2022-01-30T10:14:20.000Z</time>
      </trkpt>
      <trkpt lat="47.25387" lon="-2.2605">
        <ele>17.60000038147</ele>
        <time>2022-01-30T10:14:46.000Z</time>
      </trkpt>
      <trkpt lat="47.25386" lon="-2.26046">
        <ele>17.60000038147</ele>
        <time>2022-01-30T10:14:47.000Z</time>
      </trkpt>
      <trkpt lat="47.25383" lon="-2.26028">
        <ele>17</ele>
        <time>2022-01-30T10:14:51.000Z</time>
      </trkpt>
      <trkpt lat="47.25382" lon="-2.26024">
        <ele>16.60000038147</ele>
        <time>2022-01-30T10:14:52.000Z</time>
      </trkpt>
      <trkpt lat="47.25383" lon="-2.2602">
        <ele>15.60000038147</ele>
        <time>2022-01-30T10:14:53.000Z</time>
      </trkpt>
      <trkpt lat="47.25384" lon="-2.26015">
        <ele>15</ele>
        <time>2022-01-30T10:14:54.000Z</time>
      </trkpt>
      <trkpt lat="47.25384" lon="-2.26013">
        <ele>14.39999961853</ele>
        <time>2022-01-30T10:14:55.000Z</time>
      </trkpt>
      <trkpt lat="47.25385" lon="-2.26011">
        <ele>13.800000190735</ele>
        <time>2022-01-30T10:14:56.000Z</time>
      </trkpt>
      <trkpt lat="47.25387" lon="-2.26008">
        <ele>13.39999961853</ele>
        <time>2022-01-30T10:14:57.000Z</time>
      </trkpt>
      <trkpt lat="47.25389" lon="-2.26006">
        <ele>12.800000190735</ele>
        <time>2022-01-30T10:14:58.000Z</time>
      </trkpt>
      <trkpt lat="47.2539" lon="-2.26004">
        <ele>12.39999961853</ele>
        <time>2022-01-30T10:14:59.000Z</time>
      </trkpt>
      <trkpt lat="47.25391" lon="-2.26002">
        <ele>12</ele>
        <time>2022-01-30T10:15:00.000Z</time>
      </trkpt>
      <trkpt lat="47.25391" lon="-2.26">
        <ele>11.60000038147</ele>
        <time>2022-01-30T10:15:01.000Z</time>
      </trkpt>
      <trkpt lat="47.25392" lon="-2.25997">
        <ele>11.199999809265</ele>
        <time>2022-01-30T10:15:02.000Z</time>
      </trkpt>
      <trkpt lat="47.25393" lon="-2.25993">
        <ele>10.800000190735</ele>
        <time>2022-01-30T10:15:03.000Z</time>
      </trkpt>
      <trkpt lat="47.25398" lon="-2.25973">
        <ele>10.800000190735</ele>
        <time>2022-01-30T10:15:07.000Z</time>
      </trkpt>
      <trkpt lat="47.2541" lon="-2.25959">
        <ele>10.800000190735</ele>
        <time>2022-01-30T10:15:11.000Z</time>
      </trkpt>
      <trkpt lat="47.25417" lon="-2.25947">
        <ele>10.800000190735</ele>
        <time>2022-01-30T10:15:14.000Z</time>
      </trkpt>
      <trkpt lat="47.25418" lon="-2.25935">
        <ele>10.800000190735</ele>
        <time>2022-01-30T10:15:16.000Z</time>
      </trkpt>
      <trkpt lat="47.25419" lon="-2.25917">
        <ele>10.800000190735</ele>
        <time>2022-01-30T10:15:19.000Z</time>
      </trkpt>
      <trkpt lat="47.25416" lon="-2.25905">
        <ele>10.800000190735</ele>
        <time>2022-01-30T10:15:21.000Z</time>
      </trkpt>
      <trkpt lat="47.25411" lon="-2.25882">
        <ele>10.800000190735</ele>
        <time>2022-01-30T10:15:24.000Z</time>
      </trkpt>
      <trkpt lat="47.25409" lon="-2.25874">
        <ele>10.800000190735</ele>
        <time>2022-01-30T10:15:25.000Z</time>
      </trkpt>
      <trkpt lat="47.25415" lon="-2.25852">
        <ele>10.800000190735</ele>
        <time>2022-01-30T10:15:29.000Z</time>
      </trkpt>
      <trkpt lat="47.25416" lon="-2.25833">
        <ele>10.800000190735</ele>
        <time>2022-01-30T10:15:34.000Z</time>
      </trkpt>
      <trkpt lat="47.2542" lon="-2.25807">
        <ele>10.800000190735</ele>
        <time>2022-01-30T10:15:39.000Z</time>
      </trkpt>
      <trkpt lat="47.25424" lon="-2.25782">
        <ele>10.800000190735</ele>
        <time>2022-01-30T10:15:45.000Z</time>
      </trkpt>
      <trkpt lat="47.2543" lon="-2.25755">
        <ele>10.800000190735</ele>
        <time>2022-01-30T10:15:52.000Z</time>
      </trkpt>
      <trkpt lat="47.25432" lon="-2.25746">
        <ele>10.199999809265</ele>
        <time>2022-01-30T10:15:55.000Z</time>
      </trkpt>
      <trkpt lat="47.25432" lon="-2.25746">
        <ele>9.8000001907349</ele>
        <time>2022-01-30T10:15:56.000Z</time>
      </trkpt>
      <trkpt lat="47.25433" lon="-2.25746">
        <ele>9.3999996185303</ele>
        <time>2022-01-30T10:15:57.000Z</time>
      </trkpt>
      <trkpt lat="47.25433" lon="-2.25745">
        <ele>9</ele>
        <time>2022-01-30T10:15:58.000Z</time>
      </trkpt>
      <trkpt lat="47.25433" lon="-2.25744">
        <ele>8.3999996185303</ele>
        <time>2022-01-30T10:15:59.000Z</time>
      </trkpt>
      <trkpt lat="47.25433" lon="-2.25744">
        <ele>8.3999996185303</ele>
        <time>2022-01-30T10:16:00.000Z</time>
      </trkpt>
      <trkpt lat="47.25431" lon="-2.25748">
        <ele>8.3999996185303</ele>
        <time>2022-01-30T10:16:08.000Z</time>
      </trkpt>
      <trkpt lat="47.25426" lon="-2.25754">
        <ele>8.3999996185303</ele>
        <time>2022-01-30T10:16:11.000Z</time>
      </trkpt>
      <trkpt lat="47.25416" lon="-2.25757">
        <ele>8</ele>
        <time>2022-01-30T10:16:15.000Z</time>
      </trkpt>
      <trkpt lat="47.25414" lon="-2.25757">
        <ele>7.5999999046326</ele>
        <time>2022-01-30T10:16:16.000Z</time>
      </trkpt>
      <trkpt lat="47.25412" lon="-2.25757">
        <ele>7.1999998092651</ele>
        <time>2022-01-30T10:16:17.000Z</time>
      </trkpt>
      <trkpt lat="47.2541" lon="-2.25758">
        <ele>6.5999999046326</ele>
        <time>2022-01-30T10:16:18.000Z</time>
      </trkpt>
      <trkpt lat="47.25407" lon="-2.2576">
        <ele>6.1999998092651</ele>
        <time>2022-01-30T10:16:19.000Z</time>
      </trkpt>
      <trkpt lat="47.25403" lon="-2.25764">
        <ele>6.1999998092651</ele>
        <time>2022-01-30T10:16:21.000Z</time>
      </trkpt>
      <trkpt lat="47.25403" lon="-2.25767">
        <ele>6.1999998092651</ele>
        <time>2022-01-30T10:16:22.000Z</time>
      </trkpt>
      <trkpt lat="47.254" lon="-2.25774">
        <ele>6.1999998092651</ele>
        <time>2022-01-30T10:16:25.000Z</time>
      </trkpt>
      <trkpt lat="47.25398" lon="-2.25774">
        <ele>6.1999998092651</ele>
        <time>2022-01-30T10:16:26.000Z</time>
      </trkpt>
      <trkpt lat="47.25393" lon="-2.25778">
        <ele>6.1999998092651</ele>
        <time>2022-01-30T10:16:29.000Z</time>
      </trkpt>
      <trkpt lat="47.25388" lon="-2.25784">
        <ele>6.1999998092651</ele>
        <time>2022-01-30T10:16:31.000Z</time>
      </trkpt>
      <trkpt lat="47.25378" lon="-2.25796">
        <ele>6.1999998092651</ele>
        <time>2022-01-30T10:16:36.000Z</time>
      </trkpt>
      <trkpt lat="47.25368" lon="-2.25803">
        <ele>6.5999999046326</ele>
        <time>2022-01-30T10:16:41.000Z</time>
      </trkpt>
      <trkpt lat="47.25366" lon="-2.25803">
        <ele>7.1999998092651</ele>
        <time>2022-01-30T10:16:42.000Z</time>
      </trkpt>
      <trkpt lat="47.25364" lon="-2.25804">
        <ele>7.5999999046326</ele>
        <time>2022-01-30T10:16:43.000Z</time>
      </trkpt>
      <trkpt lat="47.25362" lon="-2.25806">
        <ele>8</ele>
        <time>2022-01-30T10:16:44.000Z</time>
      </trkpt>
      <trkpt lat="47.25361" lon="-2.25808">
        <ele>8.3999996185303</ele>
        <time>2022-01-30T10:16:45.000Z</time>
      </trkpt>
      <trkpt lat="47.25358" lon="-2.25812">
        <ele>8.3999996185303</ele>
        <time>2022-01-30T10:16:47.000Z</time>
      </trkpt>
      <trkpt lat="47.25358" lon="-2.25815">
        <ele>9</ele>
        <time>2022-01-30T10:16:48.000Z</time>
      </trkpt>
      <trkpt lat="47.25357" lon="-2.25817">
        <ele>9.3999996185303</ele>
        <time>2022-01-30T10:16:49.000Z</time>
      </trkpt>
      <trkpt lat="47.25356" lon="-2.2582">
        <ele>9.8000001907349</ele>
        <time>2022-01-30T10:16:50.000Z</time>
      </trkpt>
      <trkpt lat="47.25355" lon="-2.25822">
        <ele>10.199999809265</ele>
        <time>2022-01-30T10:16:51.000Z</time>
      </trkpt>
      <trkpt lat="47.25355" lon="-2.25825">
        <ele>10.60000038147</ele>
        <time>2022-01-30T10:16:52.000Z</time>
      </trkpt>
      <trkpt lat="47.25354" lon="-2.25827">
        <ele>11.199999809265</ele>
        <time>2022-01-30T10:16:53.000Z</time>
      </trkpt>
      <trkpt lat="47.25354" lon="-2.25829">
        <ele>11.60000038147</ele>
        <time>2022-01-30T10:16:54.000Z</time>
      </trkpt>
      <trkpt lat="47.25353" lon="-2.25831">
        <ele>12</ele>
        <time>2022-01-30T10:16:55.000Z</time>
      </trkpt>
      <trkpt lat="47.25353" lon="-2.25833">
        <ele>12.60000038147</ele>
        <time>2022-01-30T10:16:56.000Z</time>
      </trkpt>
      <trkpt lat="47.25352" lon="-2.25835">
        <ele>13.60000038147</ele>
        <time>2022-01-30T10:16:57.000Z</time>
      </trkpt>
      <trkpt lat="47.2535" lon="-2.25836">
        <ele>14</ele>
        <time>2022-01-30T10:16:58.000Z</time>
      </trkpt>
      <trkpt lat="47.25349" lon="-2.25838">
        <ele>14.39999961853</ele>
        <time>2022-01-30T10:16:59.000Z</time>
      </trkpt>
      <trkpt lat="47.25348" lon="-2.25841">
        <ele>15</ele>
        <time>2022-01-30T10:17:00.000Z</time>
      </trkpt>
      <trkpt lat="47.25346" lon="-2.25844">
        <ele>15</ele>
        <time>2022-01-30T10:17:01.000Z</time>
      </trkpt>
      <trkpt lat="47.25345" lon="-2.25846">
        <ele>15.39999961853</ele>
        <time>2022-01-30T10:17:02.000Z</time>
      </trkpt>
      <trkpt lat="47.25344" lon="-2.25848">
        <ele>15.800000190735</ele>
        <time>2022-01-30T10:17:03.000Z</time>
      </trkpt>
      <trkpt lat="47.25344" lon="-2.2585">
        <ele>16.200000762939</ele>
        <time>2022-01-30T10:17:04.000Z</time>
      </trkpt>
      <trkpt lat="47.25343" lon="-2.25852">
        <ele>16.60000038147</ele>
        <time>2022-01-30T10:17:05.000Z</time>
      </trkpt>
      <trkpt lat="47.25343" lon="-2.25854">
        <ele>17</ele>
        <time>2022-01-30T10:17:06.000Z</time>
      </trkpt>
      <trkpt lat="47.25343" lon="-2.25857">
        <ele>17</ele>
        <time>2022-01-30T10:17:07.000Z</time>
      </trkpt>
      <trkpt lat="47.25342" lon="-2.25865">
        <ele>17</ele>
        <time>2022-01-30T10:17:10.000Z</time>
      </trkpt>
      <trkpt lat="47.25342" lon="-2.25868">
        <ele>17.39999961853</ele>
        <time>2022-01-30T10:17:11.000Z</time>
      </trkpt>
      <trkpt lat="47.25342" lon="-2.25871">
        <ele>17.799999237061</ele>
        <time>2022-01-30T10:17:12.000Z</time>
      </trkpt>
      <trkpt lat="47.25341" lon="-2.25874">
        <ele>18.200000762939</ele>
        <time>2022-01-30T10:17:13.000Z</time>
      </trkpt>
      <trkpt lat="47.25341" lon="-2.25877">
        <ele>18.60000038147</ele>
        <time>2022-01-30T10:17:14.000Z</time>
      </trkpt>
      <trkpt lat="47.25341" lon="-2.2588">
        <ele>19</ele>
        <time>2022-01-30T10:17:15.000Z</time>
      </trkpt>
      <trkpt lat="47.25341" lon="-2.25891">
        <ele>19</ele>
        <time>2022-01-30T10:17:19.000Z</time>
      </trkpt>
      <trkpt lat="47.25341" lon="-2.25897">
        <ele>19</ele>
        <time>2022-01-30T10:17:21.000Z</time>
      </trkpt>
      <trkpt lat="47.25342" lon="-2.25904">
        <ele>19</ele>
        <time>2022-01-30T10:17:25.000Z</time>
      </trkpt>
      <trkpt lat="47.25342" lon="-2.2591">
        <ele>19</ele>
        <time>2022-01-30T10:17:29.000Z</time>
      </trkpt>
      <trkpt lat="47.25343" lon="-2.25917">
        <ele>19</ele>
        <time>2022-01-30T10:17:34.000Z</time>
      </trkpt>
      <trkpt lat="47.25343" lon="-2.25922">
        <ele>19</ele>
        <time>2022-01-30T10:17:46.000Z</time>
      </trkpt>
      <trkpt lat="47.25343" lon="-2.25925">
        <ele>19</ele>
        <time>2022-01-30T10:17:47.000Z</time>
      </trkpt>
      <trkpt lat="47.25347" lon="-2.25943">
        <ele>19</ele>
        <time>2022-01-30T10:17:52.000Z</time>
      </trkpt>
      <trkpt lat="47.25353" lon="-2.25961">
        <ele>19</ele>
        <time>2022-01-30T10:17:57.000Z</time>
      </trkpt>
      <trkpt lat="47.25358" lon="-2.25986">
        <ele>19</ele>
        <time>2022-01-30T10:18:03.000Z</time>
      </trkpt>
      <trkpt lat="47.25363" lon="-2.26002">
        <ele>19</ele>
        <time>2022-01-30T10:18:09.000Z</time>
      </trkpt>
      <trkpt lat="47.25376" lon="-2.26011">
        <ele>19</ele>
        <time>2022-01-30T10:18:14.000Z</time>
      </trkpt>
      <trkpt lat="47.25383" lon="-2.26018">
        <ele>18.60000038147</ele>
        <time>2022-01-30T10:18:17.000Z</time>
      </trkpt>
      <trkpt lat="47.25385" lon="-2.26019">
        <ele>18.200000762939</ele>
        <time>2022-01-30T10:18:18.000Z</time>
      </trkpt>
      <trkpt lat="47.25387" lon="-2.2602">
        <ele>17.799999237061</ele>
        <time>2022-01-30T10:18:19.000Z</time>
      </trkpt>
      <trkpt lat="47.25387" lon="-2.26021">
        <ele>17.39999961853</ele>
        <time>2022-01-30T10:18:20.000Z</time>
      </trkpt>
      <trkpt lat="47.25388" lon="-2.26022">
        <ele>17</ele>
        <time>2022-01-30T10:18:21.000Z</time>
      </trkpt>
      <trkpt lat="47.25388" lon="-2.26022">
        <ele>17</ele>
        <time>2022-01-30T10:18:22.000Z</time>
      </trkpt>
      <trkpt lat="47.25389" lon="-2.26026">
        <ele>17</ele>
        <time>2022-01-30T10:18:37.000Z</time>
      </trkpt>
      <trkpt lat="47.25389" lon="-2.2603">
        <ele>17</ele>
        <time>2022-01-30T10:18:38.000Z</time>
      </trkpt>
      <trkpt lat="47.25389" lon="-2.2605">
        <ele>17</ele>
        <time>2022-01-30T10:18:42.000Z</time>
      </trkpt>
      <trkpt lat="47.2539" lon="-2.26075">
        <ele>17</ele>
        <time>2022-01-30T10:18:47.000Z</time>
      </trkpt>
      <trkpt lat="47.25392" lon="-2.26083">
        <ele>17</ele>
        <time>2022-01-30T10:18:49.000Z</time>
      </trkpt>
      <trkpt lat="47.25396" lon="-2.2609">
        <ele>17</ele>
        <time>2022-01-30T10:18:51.000Z</time>
      </trkpt>
      <trkpt lat="47.25402" lon="-2.26099">
        <ele>16.60000038147</ele>
        <time>2022-01-30T10:18:53.000Z</time>
      </trkpt>
      <trkpt lat="47.25406" lon="-2.26104">
        <ele>16.200000762939</ele>
        <time>2022-01-30T10:18:54.000Z</time>
      </trkpt>
      <trkpt lat="47.25408" lon="-2.26111">
        <ele>15.800000190735</ele>
        <time>2022-01-30T10:18:55.000Z</time>
      </trkpt>
      <trkpt lat="47.25412" lon="-2.26117">
        <ele>15.39999961853</ele>
        <time>2022-01-30T10:18:56.000Z</time>
      </trkpt>
      <trkpt lat="47.25414" lon="-2.26124">
        <ele>14.800000190735</ele>
        <time>2022-01-30T10:18:57.000Z</time>
      </trkpt>
      <trkpt lat="47.2542" lon="-2.26136">
        <ele>14.39999961853</ele>
        <time>2022-01-30T10:18:59.000Z</time>
      </trkpt>
      <trkpt lat="47.25422" lon="-2.26141">
        <ele>14</ele>
        <time>2022-01-30T10:19:00.000Z</time>
      </trkpt>
      <trkpt lat="47.25424" lon="-2.26145">
        <ele>13.60000038147</ele>
        <time>2022-01-30T10:19:01.000Z</time>
      </trkpt>
      <trkpt lat="47.25426" lon="-2.26149">
        <ele>13</ele>
        <time>2022-01-30T10:19:02.000Z</time>
      </trkpt>
      <trkpt lat="47.25428" lon="-2.26154">
        <ele>12.60000038147</ele>
        <time>2022-01-30T10:19:03.000Z</time>
      </trkpt>
      <trkpt lat="47.25431" lon="-2.26173">
        <ele>12.60000038147</ele>
        <time>2022-01-30T10:19:07.000Z</time>
      </trkpt>
      <trkpt lat="47.25431" lon="-2.26181">
        <ele>12.60000038147</ele>
        <time>2022-01-30T10:19:09.000Z</time>
      </trkpt>
      <trkpt lat="47.25428" lon="-2.26195">
        <ele>12.60000038147</ele>
        <time>2022-01-30T10:19:11.000Z</time>
      </trkpt>
      <trkpt lat="47.25427" lon="-2.26199">
        <ele>13</ele>
        <time>2022-01-30T10:19:12.000Z</time>
      </trkpt>
      <trkpt lat="47.25426" lon="-2.26205">
        <ele>14</ele>
        <time>2022-01-30T10:19:13.000Z</time>
      </trkpt>
      <trkpt lat="47.25425" lon="-2.2621">
        <ele>14.60000038147</ele>
        <time>2022-01-30T10:19:14.000Z</time>
      </trkpt>
      <trkpt lat="47.25425" lon="-2.26215">
        <ele>15</ele>
        <time>2022-01-30T10:19:15.000Z</time>
      </trkpt>
      <trkpt lat="47.25426" lon="-2.26223">
        <ele>15</ele>
        <time>2022-01-30T10:19:17.000Z</time>
      </trkpt>
      <trkpt lat="47.25425" lon="-2.26249">
        <ele>15</ele>
        <time>2022-01-30T10:19:22.000Z</time>
      </trkpt>
      <trkpt lat="47.25422" lon="-2.26266">
        <ele>15.39999961853</ele>
        <time>2022-01-30T10:19:25.000Z</time>
      </trkpt>
      <trkpt lat="47.25421" lon="-2.26271">
        <ele>16</ele>
        <time>2022-01-30T10:19:26.000Z</time>
      </trkpt>
      <trkpt lat="47.25421" lon="-2.26276">
        <ele>16.39999961853</ele>
        <time>2022-01-30T10:19:27.000Z</time>
      </trkpt>
      <trkpt lat="47.25422" lon="-2.26281">
        <ele>16.799999237061</ele>
        <time>2022-01-30T10:19:28.000Z</time>
      </trkpt>
      <trkpt lat="47.25423" lon="-2.26286">
        <ele>17.200000762939</ele>
        <time>2022-01-30T10:19:29.000Z</time>
      </trkpt>
      <trkpt lat="47.25428" lon="-2.26298">
        <ele>17.200000762939</ele>
        <time>2022-01-30T10:19:33.000Z</time>
      </trkpt>
      <trkpt lat="47.2543" lon="-2.26299">
        <ele>17.60000038147</ele>
        <time>2022-01-30T10:19:34.000Z</time>
      </trkpt>
      <trkpt lat="47.25432" lon="-2.26299">
        <ele>18</ele>
        <time>2022-01-30T10:19:35.000Z</time>
      </trkpt>
      <trkpt lat="47.25435" lon="-2.263">
        <ele>18.39999961853</ele>
        <time>2022-01-30T10:19:36.000Z</time>
      </trkpt>
      <trkpt lat="47.25438" lon="-2.26301">
        <ele>19.200000762939</ele>
        <time>2022-01-30T10:19:37.000Z</time>
      </trkpt>
      <trkpt lat="47.25441" lon="-2.26301">
        <ele>19.200000762939</ele>
        <time>2022-01-30T10:19:38.000Z</time>
      </trkpt>
      <trkpt lat="47.25453" lon="-2.26308">
        <ele>19.200000762939</ele>
        <time>2022-01-30T10:19:42.000Z</time>
      </trkpt>
      <trkpt lat="47.25455" lon="-2.26313">
        <ele>19.200000762939</ele>
        <time>2022-01-30T10:19:43.000Z</time>
      </trkpt>
      <trkpt lat="47.25456" lon="-2.2633">
        <ele>19.200000762939</ele>
        <time>2022-01-30T10:19:46.000Z</time>
      </trkpt>
      <trkpt lat="47.25457" lon="-2.26335">
        <ele>19.200000762939</ele>
        <time>2022-01-30T10:19:47.000Z</time>
      </trkpt>
      <trkpt lat="47.25457" lon="-2.2637">
        <ele>19.200000762939</ele>
        <time>2022-01-30T10:19:53.000Z</time>
      </trkpt>
      <trkpt lat="47.25453" lon="-2.26415">
        <ele>19.200000762939</ele>
        <time>2022-01-30T10:19:59.000Z</time>
      </trkpt>
      <trkpt lat="47.25454" lon="-2.26428">
        <ele>19.200000762939</ele>
        <time>2022-01-30T10:20:01.000Z</time>
      </trkpt>
      <trkpt lat="47.25457" lon="-2.26445">
        <ele>19.200000762939</ele>
        <time>2022-01-30T10:20:04.000Z</time>
      </trkpt>
      <trkpt lat="47.25458" lon="-2.2645">
        <ele>19.60000038147</ele>
        <time>2022-01-30T10:20:05.000Z</time>
      </trkpt>
      <trkpt lat="47.25459" lon="-2.26456">
        <ele>20</ele>
        <time>2022-01-30T10:20:06.000Z</time>
      </trkpt>
      <trkpt lat="47.2546" lon="-2.26462">
        <ele>20.39999961853</ele>
        <time>2022-01-30T10:20:07.000Z</time>
      </trkpt>
      <trkpt lat="47.25461" lon="-2.26468">
        <ele>20.799999237061</ele>
        <time>2022-01-30T10:20:08.000Z</time>
      </trkpt>
      <trkpt lat="47.25462" lon="-2.26473">
        <ele>21.200000762939</ele>
        <time>2022-01-30T10:20:09.000Z</time>
      </trkpt>
      <trkpt lat="47.25463" lon="-2.26477">
        <ele>21.200000762939</ele>
        <time>2022-01-30T10:20:10.000Z</time>
      </trkpt>
      <trkpt lat="47.25469" lon="-2.26488">
        <ele>21.60000038147</ele>
        <time>2022-01-30T10:20:14.000Z</time>
      </trkpt>
      <trkpt lat="47.25471" lon="-2.26491">
        <ele>22</ele>
        <time>2022-01-30T10:20:15.000Z</time>
      </trkpt>
      <trkpt lat="47.25472" lon="-2.26494">
        <ele>22.39999961853</ele>
        <time>2022-01-30T10:20:16.000Z</time>
      </trkpt>
      <trkpt lat="47.25473" lon="-2.26497">
        <ele>22.799999237061</ele>
        <time>2022-01-30T10:20:17.000Z</time>
      </trkpt>
      <trkpt lat="47.25474" lon="-2.265">
        <ele>23.200000762939</ele>
        <time>2022-01-30T10:20:18.000Z</time>
      </trkpt>
      <trkpt lat="47.25475" lon="-2.26505">
        <ele>23.60000038147</ele>
        <time>2022-01-30T10:20:20.000Z</time>
      </trkpt>
      <trkpt lat="47.25475" lon="-2.26507">
        <ele>24</ele>
        <time>2022-01-30T10:20:21.000Z</time>
      </trkpt>
      <trkpt lat="47.25475" lon="-2.26509">
        <ele>24.60000038147</ele>
        <time>2022-01-30T10:20:22.000Z</time>
      </trkpt>
      <trkpt lat="47.25476" lon="-2.26512">
        <ele>25</ele>
        <time>2022-01-30T10:20:23.000Z</time>
      </trkpt>
      <trkpt lat="47.25476" lon="-2.26515">
        <ele>25.39999961853</ele>
        <time>2022-01-30T10:20:24.000Z</time>
      </trkpt>
      <trkpt lat="47.25477" lon="-2.26523">
        <ele>25.39999961853</ele>
        <time>2022-01-30T10:20:27.000Z</time>
      </trkpt>
      <trkpt lat="47.2548" lon="-2.26543">
        <ele>25.39999961853</ele>
        <time>2022-01-30T10:20:36.000Z</time>
      </trkpt>
      <trkpt lat="47.2548" lon="-2.26545">
        <ele>25.39999961853</ele>
        <time>2022-01-30T10:20:38.000Z</time>
      </trkpt>
      <trkpt lat="47.2548" lon="-2.26548">
        <ele>25.39999961853</ele>
        <time>2022-01-30T10:23:13.000Z</time>
      </trkpt>
      <trkpt lat="47.25481" lon="-2.2655">
        <ele>25.39999961853</ele>
        <time>2022-01-30T10:23:14.000Z</time>
      </trkpt>
      <trkpt lat="47.25487" lon="-2.26563">
        <ele>25.799999237061</ele>
        <time>2022-01-30T10:23:18.000Z</time>
      </trkpt>
      <trkpt lat="47.25488" lon="-2.26566">
        <ele>26.200000762939</ele>
        <time>2022-01-30T10:23:19.000Z</time>
      </trkpt>
      <trkpt lat="47.25489" lon="-2.2657">
        <ele>26.60000038147</ele>
        <time>2022-01-30T10:23:20.000Z</time>
      </trkpt>
      <trkpt lat="47.25489" lon="-2.26575">
        <ele>27.60000038147</ele>
        <time>2022-01-30T10:23:21.000Z</time>
      </trkpt>
      <trkpt lat="47.25487" lon="-2.26596">
        <ele>27.60000038147</ele>
        <time>2022-01-30T10:23:25.000Z</time>
      </trkpt>
      <trkpt lat="47.25488" lon="-2.26632">
        <ele>27.60000038147</ele>
        <time>2022-01-30T10:23:31.000Z</time>
      </trkpt>
      <trkpt lat="47.25488" lon="-2.26674">
        <ele>27.60000038147</ele>
        <time>2022-01-30T10:23:38.000Z</time>
      </trkpt>
      <trkpt lat="47.25483" lon="-2.26691">
        <ele>27.60000038147</ele>
        <time>2022-01-30T10:23:41.000Z</time>
      </trkpt>
      <trkpt lat="47.2548" lon="-2.26695">
        <ele>27.60000038147</ele>
        <time>2022-01-30T10:23:42.000Z</time>
      </trkpt>
      <trkpt lat="47.25478" lon="-2.267">
        <ele>28</ele>
        <time>2022-01-30T10:23:43.000Z</time>
      </trkpt>
      <trkpt lat="47.25477" lon="-2.26706">
        <ele>28.39999961853</ele>
        <time>2022-01-30T10:23:44.000Z</time>
      </trkpt>
      <trkpt lat="47.25476" lon="-2.26712">
        <ele>28.799999237061</ele>
        <time>2022-01-30T10:23:45.000Z</time>
      </trkpt>
      <trkpt lat="47.25476" lon="-2.26717">
        <ele>29.60000038147</ele>
        <time>2022-01-30T10:23:46.000Z</time>
      </trkpt>
      <trkpt lat="47.25477" lon="-2.26732">
        <ele>29.60000038147</ele>
        <time>2022-01-30T10:23:49.000Z</time>
      </trkpt>
      <trkpt lat="47.2548" lon="-2.26742">
        <ele>29.60000038147</ele>
        <time>2022-01-30T10:23:51.000Z</time>
      </trkpt>
      <trkpt lat="47.25492" lon="-2.26758">
        <ele>30</ele>
        <time>2022-01-30T10:23:55.000Z</time>
      </trkpt>
      <trkpt lat="47.25495" lon="-2.26762">
        <ele>30.39999961853</ele>
        <time>2022-01-30T10:23:56.000Z</time>
      </trkpt>
      <trkpt lat="47.25497" lon="-2.26766">
        <ele>30.799999237061</ele>
        <time>2022-01-30T10:23:57.000Z</time>
      </trkpt>
      <trkpt lat="47.25499" lon="-2.2677">
        <ele>31.200000762939</ele>
        <time>2022-01-30T10:23:58.000Z</time>
      </trkpt>
      <trkpt lat="47.25501" lon="-2.26775">
        <ele>31.60000038147</ele>
        <time>2022-01-30T10:23:59.000Z</time>
      </trkpt>
      <trkpt lat="47.25505" lon="-2.26783">
        <ele>31.60000038147</ele>
        <time>2022-01-30T10:24:01.000Z</time>
      </trkpt>
      <trkpt lat="47.25524" lon="-2.26807">
        <ele>31.60000038147</ele>
        <time>2022-01-30T10:24:08.000Z</time>
      </trkpt>
      <trkpt lat="47.25532" lon="-2.26819">
        <ele>32</ele>
        <time>2022-01-30T10:24:11.000Z</time>
      </trkpt>
      <trkpt lat="47.25535" lon="-2.26822">
        <ele>32.599998474121</ele>
        <time>2022-01-30T10:24:12.000Z</time>
      </trkpt>
      <trkpt lat="47.25538" lon="-2.26825">
        <ele>33</ele>
        <time>2022-01-30T10:24:13.000Z</time>
      </trkpt>
      <trkpt lat="47.25541" lon="-2.26828">
        <ele>33.400001525879</ele>
        <time>2022-01-30T10:24:14.000Z</time>
      </trkpt>
      <trkpt lat="47.25544" lon="-2.2683">
        <ele>33.799999237061</ele>
        <time>2022-01-30T10:24:15.000Z</time>
      </trkpt>
      <trkpt lat="47.25562" lon="-2.26847">
        <ele>33.799999237061</ele>
        <time>2022-01-30T10:24:21.000Z</time>
      </trkpt>
      <trkpt lat="47.25571" lon="-2.26853">
        <ele>34.200000762939</ele>
        <time>2022-01-30T10:24:24.000Z</time>
      </trkpt>
      <trkpt lat="47.25575" lon="-2.26854">
        <ele>34.599998474121</ele>
        <time>2022-01-30T10:24:25.000Z</time>
      </trkpt>
      <trkpt lat="47.25578" lon="-2.26856">
        <ele>35</ele>
        <time>2022-01-30T10:24:26.000Z</time>
      </trkpt>
      <trkpt lat="47.25581" lon="-2.26857">
        <ele>35.400001525879</ele>
        <time>2022-01-30T10:24:27.000Z</time>
      </trkpt>
      <trkpt lat="47.25584" lon="-2.26859">
        <ele>35.799999237061</ele>
        <time>2022-01-30T10:24:28.000Z</time>
      </trkpt>
      <trkpt lat="47.25603" lon="-2.2687">
        <ele>35.799999237061</ele>
        <time>2022-01-30T10:24:34.000Z</time>
      </trkpt>
      <trkpt lat="47.25606" lon="-2.26871">
        <ele>36.599998474121</ele>
        <time>2022-01-30T10:24:35.000Z</time>
      </trkpt>
      <trkpt lat="47.25609" lon="-2.26872">
        <ele>37.200000762939</ele>
        <time>2022-01-30T10:24:36.000Z</time>
      </trkpt>
      <trkpt lat="47.25612" lon="-2.26874">
        <ele>37.599998474121</ele>
        <time>2022-01-30T10:24:37.000Z</time>
      </trkpt>
      <trkpt lat="47.25614" lon="-2.26875">
        <ele>38</ele>
        <time>2022-01-30T10:24:38.000Z</time>
      </trkpt>
      <trkpt lat="47.25623" lon="-2.26877">
        <ele>38</ele>
        <time>2022-01-30T10:24:41.000Z</time>
      </trkpt>
      <trkpt lat="47.25627" lon="-2.26874">
        <ele>38</ele>
        <time>2022-01-30T10:24:43.000Z</time>
      </trkpt>
      <trkpt lat="47.25631" lon="-2.26866">
        <ele>38</ele>
        <time>2022-01-30T10:24:45.000Z</time>
      </trkpt>
      <trkpt lat="47.25649" lon="-2.26839">
        <ele>38</ele>
        <time>2022-01-30T10:24:51.000Z</time>
      </trkpt>
      <trkpt lat="47.25664" lon="-2.26825">
        <ele>38</ele>
        <time>2022-01-30T10:24:55.000Z</time>
      </trkpt>
      <trkpt lat="47.25671" lon="-2.26822">
        <ele>38</ele>
        <time>2022-01-30T10:24:57.000Z</time>
      </trkpt>
      <trkpt lat="47.25694" lon="-2.26821">
        <ele>38</ele>
        <time>2022-01-30T10:25:02.000Z</time>
      </trkpt>
      <trkpt lat="47.25715" lon="-2.26828">
        <ele>38</ele>
        <time>2022-01-30T10:25:07.000Z</time>
      </trkpt>
      <trkpt lat="47.25718" lon="-2.26831">
        <ele>38</ele>
        <time>2022-01-30T10:25:08.000Z</time>
      </trkpt>
      <trkpt lat="47.25728" lon="-2.26843">
        <ele>38</ele>
        <time>2022-01-30T10:25:11.000Z</time>
      </trkpt>
      <trkpt lat="47.25731" lon="-2.26848">
        <ele>38</ele>
        <time>2022-01-30T10:25:12.000Z</time>
      </trkpt>
      <trkpt lat="47.25734" lon="-2.26853">
        <ele>38</ele>
        <time>2022-01-30T10:25:13.000Z</time>
      </trkpt>
      <trkpt lat="47.25738" lon="-2.26863">
        <ele>38.400001525879</ele>
        <time>2022-01-30T10:25:15.000Z</time>
      </trkpt>
      <trkpt lat="47.2574" lon="-2.26869">
        <ele>38.799999237061</ele>
        <time>2022-01-30T10:25:16.000Z</time>
      </trkpt>
      <trkpt lat="47.25742" lon="-2.26875">
        <ele>39.200000762939</ele>
        <time>2022-01-30T10:25:17.000Z</time>
      </trkpt>
      <trkpt lat="47.25744" lon="-2.2688">
        <ele>39.599998474121</ele>
        <time>2022-01-30T10:25:18.000Z</time>
      </trkpt>
      <trkpt lat="47.25745" lon="-2.26885">
        <ele>40.200000762939</ele>
        <time>2022-01-30T10:25:19.000Z</time>
      </trkpt>
      <trkpt lat="47.2575" lon="-2.26898">
        <ele>40.200000762939</ele>
        <time>2022-01-30T10:25:22.000Z</time>
      </trkpt>
      <trkpt lat="47.25753" lon="-2.26899">
        <ele>40.200000762939</ele>
        <time>2022-01-30T10:25:23.000Z</time>
      </trkpt>
      <trkpt lat="47.25767" lon="-2.26896">
        <ele>40.200000762939</ele>
        <time>2022-01-30T10:25:27.000Z</time>
      </trkpt>
      <trkpt lat="47.25776" lon="-2.26894">
        <ele>40.200000762939</ele>
        <time>2022-01-30T10:25:29.000Z</time>
      </trkpt>
      <trkpt lat="47.25781" lon="-2.26892">
        <ele>40.200000762939</ele>
        <time>2022-01-30T10:25:30.000Z</time>
      </trkpt>
      <trkpt lat="47.25786" lon="-2.2689">
        <ele>40.200000762939</ele>
        <time>2022-01-30T10:25:31.000Z</time>
      </trkpt>
      <trkpt lat="47.25811" lon="-2.26879">
        <ele>40.200000762939</ele>
        <time>2022-01-30T10:25:36.000Z</time>
      </trkpt>
      <trkpt lat="47.25845" lon="-2.26861">
        <ele>40.200000762939</ele>
        <time>2022-01-30T10:25:43.000Z</time>
      </trkpt>
      <trkpt lat="47.2585" lon="-2.26858">
        <ele>39.799999237061</ele>
        <time>2022-01-30T10:25:44.000Z</time>
      </trkpt>
      <trkpt lat="47.25855" lon="-2.26855">
        <ele>39.400001525879</ele>
        <time>2022-01-30T10:25:45.000Z</time>
      </trkpt>
      <trkpt lat="47.25861" lon="-2.26853">
        <ele>39</ele>
        <time>2022-01-30T10:25:46.000Z</time>
      </trkpt>
      <trkpt lat="47.25867" lon="-2.26851">
        <ele>38.400001525879</ele>
        <time>2022-01-30T10:25:47.000Z</time>
      </trkpt>
      <trkpt lat="47.25872" lon="-2.26848">
        <ele>38</ele>
        <time>2022-01-30T10:25:48.000Z</time>
      </trkpt>
      <trkpt lat="47.25911" lon="-2.26828">
        <ele>37.599998474121</ele>
        <time>2022-01-30T10:25:55.000Z</time>
      </trkpt>
      <trkpt lat="47.25916" lon="-2.26824">
        <ele>37.200000762939</ele>
        <time>2022-01-30T10:25:56.000Z</time>
      </trkpt>
      <trkpt lat="47.25922" lon="-2.26821">
        <ele>36.799999237061</ele>
        <time>2022-01-30T10:25:57.000Z</time>
      </trkpt>
      <trkpt lat="47.25928" lon="-2.26818">
        <ele>36.400001525879</ele>
        <time>2022-01-30T10:25:58.000Z</time>
      </trkpt>
      <trkpt lat="47.25934" lon="-2.26817">
        <ele>36</ele>
        <time>2022-01-30T10:25:59.000Z</time>
      </trkpt>
      <trkpt lat="47.25946" lon="-2.26816">
        <ele>36</ele>
        <time>2022-01-30T10:26:01.000Z</time>
      </trkpt>
      <trkpt lat="47.25952" lon="-2.26814">
        <ele>36</ele>
        <time>2022-01-30T10:26:02.000Z</time>
      </trkpt>
      <trkpt lat="47.25977" lon="-2.26809">
        <ele>36</ele>
        <time>2022-01-30T10:26:06.000Z</time>
      </trkpt>
      <trkpt lat="47.25988" lon="-2.26823">
        <ele>35.599998474121</ele>
        <time>2022-01-30T10:26:09.000Z</time>
      </trkpt>
      <trkpt lat="47.25989" lon="-2.2683">
        <ele>35</ele>
        <time>2022-01-30T10:26:10.000Z</time>
      </trkpt>
      <trkpt lat="47.2599" lon="-2.26837">
        <ele>34.599998474121</ele>
        <time>2022-01-30T10:26:11.000Z</time>
      </trkpt>
      <trkpt lat="47.2599" lon="-2.26844">
        <ele>34.200000762939</ele>
        <time>2022-01-30T10:26:12.000Z</time>
      </trkpt>
      <trkpt lat="47.2599" lon="-2.26851">
        <ele>33.799999237061</ele>
        <time>2022-01-30T10:26:13.000Z</time>
      </trkpt>
      <trkpt lat="47.25992" lon="-2.26866">
        <ele>33.799999237061</ele>
        <time>2022-01-30T10:26:15.000Z</time>
      </trkpt>
      <trkpt lat="47.25993" lon="-2.26881">
        <ele>33.799999237061</ele>
        <time>2022-01-30T10:26:17.000Z</time>
      </trkpt>
      <trkpt lat="47.25995" lon="-2.26889">
        <ele>33.799999237061</ele>
        <time>2022-01-30T10:26:18.000Z</time>
      </trkpt>
      <trkpt lat="47.26002" lon="-2.26911">
        <ele>33.799999237061</ele>
        <time>2022-01-30T10:26:21.000Z</time>
      </trkpt>
      <trkpt lat="47.26012" lon="-2.26928">
        <ele>33.799999237061</ele>
        <time>2022-01-30T10:26:24.000Z</time>
      </trkpt>
      <trkpt lat="47.26016" lon="-2.26933">
        <ele>33.799999237061</ele>
        <time>2022-01-30T10:26:25.000Z</time>
      </trkpt>
      <trkpt lat="47.26027" lon="-2.26946">
        <ele>33.799999237061</ele>
        <time>2022-01-30T10:26:28.000Z</time>
      </trkpt>
      <trkpt lat="47.26034" lon="-2.26956">
        <ele>33.799999237061</ele>
        <time>2022-01-30T10:26:30.000Z</time>
      </trkpt>
      <trkpt lat="47.26053" lon="-2.26984">
        <ele>33.799999237061</ele>
        <time>2022-01-30T10:26:35.000Z</time>
      </trkpt>
      <trkpt lat="47.26063" lon="-2.27005">
        <ele>33.799999237061</ele>
        <time>2022-01-30T10:26:38.000Z</time>
      </trkpt>
      <trkpt lat="47.26069" lon="-2.27019">
        <ele>33.799999237061</ele>
        <time>2022-01-30T10:26:40.000Z</time>
      </trkpt>
      <trkpt lat="47.26084" lon="-2.2706">
        <ele>33.799999237061</ele>
        <time>2022-01-30T10:26:46.000Z</time>
      </trkpt>
      <trkpt lat="47.2609" lon="-2.27089">
        <ele>33.799999237061</ele>
        <time>2022-01-30T10:26:51.000Z</time>
      </trkpt>
      <trkpt lat="47.26097" lon="-2.27136">
        <ele>33.799999237061</ele>
        <time>2022-01-30T10:26:58.000Z</time>
      </trkpt>
      <trkpt lat="47.2611" lon="-2.2718">
        <ele>33.799999237061</ele>
        <time>2022-01-30T10:27:04.000Z</time>
      </trkpt>
      <trkpt lat="47.26127" lon="-2.27221">
        <ele>33.799999237061</ele>
        <time>2022-01-30T10:27:10.000Z</time>
      </trkpt>
      <trkpt lat="47.26141" lon="-2.27264">
        <ele>33.799999237061</ele>
        <time>2022-01-30T10:27:16.000Z</time>
      </trkpt>
      <trkpt lat="47.26149" lon="-2.27309">
        <ele>33.799999237061</ele>
        <time>2022-01-30T10:27:22.000Z</time>
      </trkpt>
      <trkpt lat="47.2616" lon="-2.27315">
        <ele>33.799999237061</ele>
        <time>2022-01-30T10:27:25.000Z</time>
      </trkpt>
      <trkpt lat="47.26171" lon="-2.27314">
        <ele>33.799999237061</ele>
        <time>2022-01-30T10:27:27.000Z</time>
      </trkpt>
      <trkpt lat="47.26182" lon="-2.27312">
        <ele>33.799999237061</ele>
        <time>2022-01-30T10:27:29.000Z</time>
      </trkpt>
      <trkpt lat="47.26193" lon="-2.2731">
        <ele>33.799999237061</ele>
        <time>2022-01-30T10:27:31.000Z</time>
      </trkpt>
      <trkpt lat="47.2621" lon="-2.27311">
        <ele>33.799999237061</ele>
        <time>2022-01-30T10:27:34.000Z</time>
      </trkpt>
      <trkpt lat="47.26227" lon="-2.27315">
        <ele>33.799999237061</ele>
        <time>2022-01-30T10:27:37.000Z</time>
      </trkpt>
      <trkpt lat="47.26233" lon="-2.27315">
        <ele>33.799999237061</ele>
        <time>2022-01-30T10:27:38.000Z</time>
      </trkpt>
      <trkpt lat="47.26256" lon="-2.2732">
        <ele>33.799999237061</ele>
        <time>2022-01-30T10:27:42.000Z</time>
      </trkpt>
      <trkpt lat="47.26262" lon="-2.27319">
        <ele>33.799999237061</ele>
        <time>2022-01-30T10:27:43.000Z</time>
      </trkpt>
      <trkpt lat="47.26304" lon="-2.27323">
        <ele>33.799999237061</ele>
        <time>2022-01-30T10:27:50.000Z</time>
      </trkpt>
      <trkpt lat="47.2634" lon="-2.27327">
        <ele>33.799999237061</ele>
        <time>2022-01-30T10:27:56.000Z</time>
      </trkpt>
      <trkpt lat="47.26381" lon="-2.27329">
        <ele>33.799999237061</ele>
        <time>2022-01-30T10:28:03.000Z</time>
      </trkpt>
      <trkpt lat="47.26405" lon="-2.27331">
        <ele>33.799999237061</ele>
        <time>2022-01-30T10:28:07.000Z</time>
      </trkpt>
      <trkpt lat="47.26416" lon="-2.27334">
        <ele>33.799999237061</ele>
        <time>2022-01-30T10:28:09.000Z</time>
      </trkpt>
      <trkpt lat="47.26421" lon="-2.27336">
        <ele>33.400001525879</ele>
        <time>2022-01-30T10:28:10.000Z</time>
      </trkpt>
      <trkpt lat="47.26426" lon="-2.2734">
        <ele>33</ele>
        <time>2022-01-30T10:28:11.000Z</time>
      </trkpt>
      <trkpt lat="47.2643" lon="-2.27346">
        <ele>32.599998474121</ele>
        <time>2022-01-30T10:28:12.000Z</time>
      </trkpt>
      <trkpt lat="47.26433" lon="-2.27351">
        <ele>32.200000762939</ele>
        <time>2022-01-30T10:28:13.000Z</time>
      </trkpt>
      <trkpt lat="47.26436" lon="-2.27358">
        <ele>31.799999237061</ele>
        <time>2022-01-30T10:28:14.000Z</time>
      </trkpt>
      <trkpt lat="47.26442" lon="-2.27371">
        <ele>31.799999237061</ele>
        <time>2022-01-30T10:28:16.000Z</time>
      </trkpt>
      <trkpt lat="47.26452" lon="-2.27399">
        <ele>31.799999237061</ele>
        <time>2022-01-30T10:28:20.000Z</time>
      </trkpt>
      <trkpt lat="47.26454" lon="-2.27407">
        <ele>31.799999237061</ele>
        <time>2022-01-30T10:28:21.000Z</time>
      </trkpt>
      <trkpt lat="47.2646" lon="-2.27422">
        <ele>31.799999237061</ele>
        <time>2022-01-30T10:28:23.000Z</time>
      </trkpt>
      <trkpt lat="47.26463" lon="-2.2743">
        <ele>31.39999961853</ele>
        <time>2022-01-30T10:28:24.000Z</time>
      </trkpt>
      <trkpt lat="47.26466" lon="-2.27438">
        <ele>31</ele>
        <time>2022-01-30T10:28:25.000Z</time>
      </trkpt>
      <trkpt lat="47.26469" lon="-2.27446">
        <ele>30.39999961853</ele>
        <time>2022-01-30T10:28:26.000Z</time>
      </trkpt>
      <trkpt lat="47.26471" lon="-2.27455">
        <ele>30</ele>
        <time>2022-01-30T10:28:27.000Z</time>
      </trkpt>
      <trkpt lat="47.26473" lon="-2.27462">
        <ele>29.60000038147</ele>
        <time>2022-01-30T10:28:28.000Z</time>
      </trkpt>
      <trkpt lat="47.26485" lon="-2.27503">
        <ele>29.60000038147</ele>
        <time>2022-01-30T10:28:33.000Z</time>
      </trkpt>
      <trkpt lat="47.26491" lon="-2.27538">
        <ele>29.200000762939</ele>
        <time>2022-01-30T10:28:37.000Z</time>
      </trkpt>
      <trkpt lat="47.26493" lon="-2.27547">
        <ele>28.799999237061</ele>
        <time>2022-01-30T10:28:38.000Z</time>
      </trkpt>
      <trkpt lat="47.26494" lon="-2.27556">
        <ele>28.39999961853</ele>
        <time>2022-01-30T10:28:39.000Z</time>
      </trkpt>
      <trkpt lat="47.26495" lon="-2.27564">
        <ele>28</ele>
        <time>2022-01-30T10:28:40.000Z</time>
      </trkpt>
      <trkpt lat="47.26497" lon="-2.2757">
        <ele>27.60000038147</ele>
        <time>2022-01-30T10:28:41.000Z</time>
      </trkpt>
      <trkpt lat="47.26504" lon="-2.27577">
        <ele>27.60000038147</ele>
        <time>2022-01-30T10:28:43.000Z</time>
      </trkpt>
      <trkpt lat="47.26517" lon="-2.27576">
        <ele>27.60000038147</ele>
        <time>2022-01-30T10:28:46.000Z</time>
      </trkpt>
      <trkpt lat="47.26522" lon="-2.27576">
        <ele>27.60000038147</ele>
        <time>2022-01-30T10:28:47.000Z</time>
      </trkpt>
      <trkpt lat="47.26527" lon="-2.27585">
        <ele>27.60000038147</ele>
        <time>2022-01-30T10:28:49.000Z</time>
      </trkpt>
      <trkpt lat="47.26527" lon="-2.27604">
        <ele>27.60000038147</ele>
        <time>2022-01-30T10:28:53.000Z</time>
      </trkpt>
      <trkpt lat="47.26524" lon="-2.27639">
        <ele>27.60000038147</ele>
        <time>2022-01-30T10:28:59.000Z</time>
      </trkpt>
      <trkpt lat="47.2652" lon="-2.27676">
        <ele>27.60000038147</ele>
        <time>2022-01-30T10:29:05.000Z</time>
      </trkpt>
      <trkpt lat="47.26519" lon="-2.27683">
        <ele>27.60000038147</ele>
        <time>2022-01-30T10:29:06.000Z</time>
      </trkpt>
      <trkpt lat="47.26516" lon="-2.27696">
        <ele>27.60000038147</ele>
        <time>2022-01-30T10:29:08.000Z</time>
      </trkpt>
      <trkpt lat="47.26508" lon="-2.27724">
        <ele>27.60000038147</ele>
        <time>2022-01-30T10:29:12.000Z</time>
      </trkpt>
      <trkpt lat="47.26498" lon="-2.27766">
        <ele>27.60000038147</ele>
        <time>2022-01-30T10:29:18.000Z</time>
      </trkpt>
      <trkpt lat="47.265" lon="-2.27791">
        <ele>28</ele>
        <time>2022-01-30T10:29:22.000Z</time>
      </trkpt>
      <trkpt lat="47.265" lon="-2.27798">
        <ele>28.39999961853</ele>
        <time>2022-01-30T10:29:23.000Z</time>
      </trkpt>
      <trkpt lat="47.265" lon="-2.27804">
        <ele>28.799999237061</ele>
        <time>2022-01-30T10:29:24.000Z</time>
      </trkpt>
      <trkpt lat="47.26501" lon="-2.27811">
        <ele>29.200000762939</ele>
        <time>2022-01-30T10:29:25.000Z</time>
      </trkpt>
      <trkpt lat="47.26501" lon="-2.27817">
        <ele>29.60000038147</ele>
        <time>2022-01-30T10:29:26.000Z</time>
      </trkpt>
      <trkpt lat="47.26502" lon="-2.27835">
        <ele>29.60000038147</ele>
        <time>2022-01-30T10:29:29.000Z</time>
      </trkpt>
      <trkpt lat="47.26504" lon="-2.27876">
        <ele>29.60000038147</ele>
        <time>2022-01-30T10:29:36.000Z</time>
      </trkpt>
      <trkpt lat="47.26505" lon="-2.27877">
        <ele>29.60000038147</ele>
        <time>2022-01-30T10:29:37.000Z</time>
      </trkpt>
      <trkpt lat="47.26511" lon="-2.27876">
        <ele>29.60000038147</ele>
        <time>2022-01-30T10:29:39.000Z</time>
      </trkpt>
      <trkpt lat="47.26527" lon="-2.27876">
        <ele>30</ele>
        <time>2022-01-30T10:29:43.000Z</time>
      </trkpt>
      <trkpt lat="47.26531" lon="-2.27876">
        <ele>30.39999961853</ele>
        <time>2022-01-30T10:29:44.000Z</time>
      </trkpt>
      <trkpt lat="47.26535" lon="-2.27876">
        <ele>30.799999237061</ele>
        <time>2022-01-30T10:29:45.000Z</time>
      </trkpt>
      <trkpt lat="47.26539" lon="-2.27876">
        <ele>31.200000762939</ele>
        <time>2022-01-30T10:29:46.000Z</time>
      </trkpt>
      <trkpt lat="47.26543" lon="-2.27876">
        <ele>31.60000038147</ele>
        <time>2022-01-30T10:29:47.000Z</time>
      </trkpt>
      <trkpt lat="47.26565" lon="-2.27878">
        <ele>31.60000038147</ele>
        <time>2022-01-30T10:29:51.000Z</time>
      </trkpt>
      <trkpt lat="47.266" lon="-2.27874">
        <ele>31.60000038147</ele>
        <time>2022-01-30T10:29:57.000Z</time>
      </trkpt>
      <trkpt lat="47.26637" lon="-2.27857">
        <ele>31.60000038147</ele>
        <time>2022-01-30T10:30:03.000Z</time>
      </trkpt>
      <trkpt lat="47.2668" lon="-2.27832">
        <ele>31.60000038147</ele>
        <time>2022-01-30T10:30:10.000Z</time>
      </trkpt>
      <trkpt lat="47.26686" lon="-2.27829">
        <ele>31.200000762939</ele>
        <time>2022-01-30T10:30:11.000Z</time>
      </trkpt>
      <trkpt lat="47.26692" lon="-2.27825">
        <ele>30.799999237061</ele>
        <time>2022-01-30T10:30:12.000Z</time>
      </trkpt>
      <trkpt lat="47.26699" lon="-2.27822">
        <ele>30.39999961853</ele>
        <time>2022-01-30T10:30:13.000Z</time>
      </trkpt>
      <trkpt lat="47.26705" lon="-2.27819">
        <ele>29.799999237061</ele>
        <time>2022-01-30T10:30:14.000Z</time>
      </trkpt>
      <trkpt lat="47.26712" lon="-2.27816">
        <ele>29.39999961853</ele>
        <time>2022-01-30T10:30:15.000Z</time>
      </trkpt>
      <trkpt lat="47.26719" lon="-2.27813">
        <ele>29.39999961853</ele>
        <time>2022-01-30T10:30:16.000Z</time>
      </trkpt>
      <trkpt lat="47.26751" lon="-2.27809">
        <ele>29.39999961853</ele>
        <time>2022-01-30T10:30:21.000Z</time>
      </trkpt>
      <trkpt lat="47.26769" lon="-2.2781">
        <ele>29.39999961853</ele>
        <time>2022-01-30T10:30:24.000Z</time>
      </trkpt>
      <trkpt lat="47.26779" lon="-2.2781">
        <ele>29.39999961853</ele>
        <time>2022-01-30T10:30:26.000Z</time>
      </trkpt>
      <trkpt lat="47.26786" lon="-2.27808">
        <ele>29</ele>
        <time>2022-01-30T10:30:28.000Z</time>
      </trkpt>
      <trkpt lat="47.26789" lon="-2.27808">
        <ele>28.60000038147</ele>
        <time>2022-01-30T10:30:29.000Z</time>
      </trkpt>
      <trkpt lat="47.26792" lon="-2.2781">
        <ele>28.200000762939</ele>
        <time>2022-01-30T10:30:30.000Z</time>
      </trkpt>
      <trkpt lat="47.26794" lon="-2.27813">
        <ele>27.799999237061</ele>
        <time>2022-01-30T10:30:31.000Z</time>
      </trkpt>
      <trkpt lat="47.26796" lon="-2.27817">
        <ele>27.200000762939</ele>
        <time>2022-01-30T10:30:32.000Z</time>
      </trkpt>
      <trkpt lat="47.26798" lon="-2.27822">
        <ele>27.200000762939</ele>
        <time>2022-01-30T10:30:33.000Z</time>
      </trkpt>
      <trkpt lat="47.268" lon="-2.27835">
        <ele>27.200000762939</ele>
        <time>2022-01-30T10:30:35.000Z</time>
      </trkpt>
      <trkpt lat="47.26802" lon="-2.27854">
        <ele>27.200000762939</ele>
        <time>2022-01-30T10:30:38.000Z</time>
      </trkpt>
      <trkpt lat="47.26802" lon="-2.27867">
        <ele>27.200000762939</ele>
        <time>2022-01-30T10:30:40.000Z</time>
      </trkpt>
      <trkpt lat="47.26804" lon="-2.2789">
        <ele>27.200000762939</ele>
        <time>2022-01-30T10:30:44.000Z</time>
      </trkpt>
      <trkpt lat="47.26808" lon="-2.27915">
        <ele>27.60000038147</ele>
        <time>2022-01-30T10:30:49.000Z</time>
      </trkpt>
      <trkpt lat="47.26808" lon="-2.2792">
        <ele>28.200000762939</ele>
        <time>2022-01-30T10:30:50.000Z</time>
      </trkpt>
      <trkpt lat="47.26808" lon="-2.27924">
        <ele>28.60000038147</ele>
        <time>2022-01-30T10:30:51.000Z</time>
      </trkpt>
      <trkpt lat="47.26808" lon="-2.27929">
        <ele>29</ele>
        <time>2022-01-30T10:30:52.000Z</time>
      </trkpt>
      <trkpt lat="47.26808" lon="-2.27933">
        <ele>29.39999961853</ele>
        <time>2022-01-30T10:30:53.000Z</time>
      </trkpt>
      <trkpt lat="47.26808" lon="-2.27936">
        <ele>29.39999961853</ele>
        <time>2022-01-30T10:30:54.000Z</time>
      </trkpt>
      <trkpt lat="47.26803" lon="-2.27951">
        <ele>29.39999961853</ele>
        <time>2022-01-30T10:31:00.000Z</time>
      </trkpt>
      <trkpt lat="47.26804" lon="-2.27955">
        <ele>29.39999961853</ele>
        <time>2022-01-30T10:31:02.000Z</time>
      </trkpt>
      <trkpt lat="47.26808" lon="-2.27961">
        <ele>29.39999961853</ele>
        <time>2022-01-30T10:31:05.000Z</time>
      </trkpt>
      <trkpt lat="47.26809" lon="-2.27962">
        <ele>29.39999961853</ele>
        <time>2022-01-30T10:31:06.000Z</time>
      </trkpt>
      <trkpt lat="47.26811" lon="-2.27974">
        <ele>29.39999961853</ele>
        <time>2022-01-30T10:31:10.000Z</time>
      </trkpt>
      <trkpt lat="47.26813" lon="-2.27997">
        <ele>29.799999237061</ele>
        <time>2022-01-30T10:31:17.000Z</time>
      </trkpt>
      <trkpt lat="47.26813" lon="-2.28">
        <ele>30.200000762939</ele>
        <time>2022-01-30T10:31:18.000Z</time>
      </trkpt>
      <trkpt lat="47.26814" lon="-2.28002">
        <ele>30.60000038147</ele>
        <time>2022-01-30T10:31:19.000Z</time>
      </trkpt>
      <trkpt lat="47.26815" lon="-2.28005">
        <ele>31</ele>
        <time>2022-01-30T10:31:20.000Z</time>
      </trkpt>
      <trkpt lat="47.26815" lon="-2.28008">
        <ele>31.39999961853</ele>
        <time>2022-01-30T10:31:21.000Z</time>
      </trkpt>
      <trkpt lat="47.26817" lon="-2.28017">
        <ele>31.39999961853</ele>
        <time>2022-01-30T10:31:25.000Z</time>
      </trkpt>
      <trkpt lat="47.26819" lon="-2.28025">
        <ele>31.39999961853</ele>
        <time>2022-01-30T10:31:31.000Z</time>
      </trkpt>
      <trkpt lat="47.26822" lon="-2.28027">
        <ele>31.39999961853</ele>
        <time>2022-01-30T10:32:44.000Z</time>
      </trkpt>
      <trkpt lat="47.26827" lon="-2.28042">
        <ele>31.39999961853</ele>
        <time>2022-01-30T10:32:49.000Z</time>
      </trkpt>
      <trkpt lat="47.26834" lon="-2.28067">
        <ele>31.39999961853</ele>
        <time>2022-01-30T10:32:53.000Z</time>
      </trkpt>
      <trkpt lat="47.26835" lon="-2.28073">
        <ele>31.39999961853</ele>
        <time>2022-01-30T10:32:54.000Z</time>
      </trkpt>
      <trkpt lat="47.26842" lon="-2.28118">
        <ele>31.799999237061</ele>
        <time>2022-01-30T10:33:01.000Z</time>
      </trkpt>
      <trkpt lat="47.26843" lon="-2.28124">
        <ele>32.200000762939</ele>
        <time>2022-01-30T10:33:02.000Z</time>
      </trkpt>
      <trkpt lat="47.26844" lon="-2.28131">
        <ele>32.599998474121</ele>
        <time>2022-01-30T10:33:03.000Z</time>
      </trkpt>
      <trkpt lat="47.26845" lon="-2.28137">
        <ele>33.200000762939</ele>
        <time>2022-01-30T10:33:04.000Z</time>
      </trkpt>
      <trkpt lat="47.26845" lon="-2.28145">
        <ele>33.599998474121</ele>
        <time>2022-01-30T10:33:05.000Z</time>
      </trkpt>
      <trkpt lat="47.26851" lon="-2.28192">
        <ele>33.599998474121</ele>
        <time>2022-01-30T10:33:12.000Z</time>
      </trkpt>
      <trkpt lat="47.2686" lon="-2.28245">
        <ele>33.599998474121</ele>
        <time>2022-01-30T10:33:19.000Z</time>
      </trkpt>
      <trkpt lat="47.26874" lon="-2.28298">
        <ele>33.599998474121</ele>
        <time>2022-01-30T10:33:26.000Z</time>
      </trkpt>
      <trkpt lat="47.26891" lon="-2.28344">
        <ele>33.599998474121</ele>
        <time>2022-01-30T10:33:33.000Z</time>
      </trkpt>
      <trkpt lat="47.26907" lon="-2.28371">
        <ele>33.599998474121</ele>
        <time>2022-01-30T10:33:39.000Z</time>
      </trkpt>
      <trkpt lat="47.26921" lon="-2.28371">
        <ele>33.599998474121</ele>
        <time>2022-01-30T10:33:43.000Z</time>
      </trkpt>
      <trkpt lat="47.26925" lon="-2.28371">
        <ele>33.599998474121</ele>
        <time>2022-01-30T10:33:44.000Z</time>
      </trkpt>
      <trkpt lat="47.26956" lon="-2.2837">
        <ele>33.599998474121</ele>
        <time>2022-01-30T10:33:51.000Z</time>
      </trkpt>
      <trkpt lat="47.26987" lon="-2.2837">
        <ele>33.599998474121</ele>
        <time>2022-01-30T10:33:57.000Z</time>
      </trkpt>
      <trkpt lat="47.27022" lon="-2.28372">
        <ele>33.200000762939</ele>
        <time>2022-01-30T10:34:03.000Z</time>
      </trkpt>
      <trkpt lat="47.27028" lon="-2.28372">
        <ele>32.799999237061</ele>
        <time>2022-01-30T10:34:04.000Z</time>
      </trkpt>
      <trkpt lat="47.27034" lon="-2.28373">
        <ele>32.400001525879</ele>
        <time>2022-01-30T10:34:05.000Z</time>
      </trkpt>
      <trkpt lat="47.2704" lon="-2.28373">
        <ele>32</ele>
        <time>2022-01-30T10:34:06.000Z</time>
      </trkpt>
      <trkpt lat="47.27046" lon="-2.28374">
        <ele>31.60000038147</ele>
        <time>2022-01-30T10:34:07.000Z</time>
      </trkpt>
      <trkpt lat="47.27065" lon="-2.28376">
        <ele>31.60000038147</ele>
        <time>2022-01-30T10:34:10.000Z</time>
      </trkpt>
      <trkpt lat="47.27103" lon="-2.28371">
        <ele>31.60000038147</ele>
        <time>2022-01-30T10:34:16.000Z</time>
      </trkpt>
      <trkpt lat="47.27142" lon="-2.28365">
        <ele>31.200000762939</ele>
        <time>2022-01-30T10:34:23.000Z</time>
      </trkpt>
      <trkpt lat="47.27147" lon="-2.28369">
        <ele>30.799999237061</ele>
        <time>2022-01-30T10:34:24.000Z</time>
      </trkpt>
      <trkpt lat="47.27151" lon="-2.28374">
        <ele>30.200000762939</ele>
        <time>2022-01-30T10:34:25.000Z</time>
      </trkpt>
      <trkpt lat="47.27153" lon="-2.28381">
        <ele>29.799999237061</ele>
        <time>2022-01-30T10:34:26.000Z</time>
      </trkpt>
      <trkpt lat="47.27154" lon="-2.28389">
        <ele>29.39999961853</ele>
        <time>2022-01-30T10:34:27.000Z</time>
      </trkpt>
      <trkpt lat="47.27155" lon="-2.28405">
        <ele>29.39999961853</ele>
        <time>2022-01-30T10:34:29.000Z</time>
      </trkpt>
      <trkpt lat="47.27155" lon="-2.28413">
        <ele>29.39999961853</ele>
        <time>2022-01-30T10:34:30.000Z</time>
      </trkpt>
      <trkpt lat="47.27156" lon="-2.28429">
        <ele>29.39999961853</ele>
        <time>2022-01-30T10:34:32.000Z</time>
      </trkpt>
      <trkpt lat="47.27159" lon="-2.28452">
        <ele>29.39999961853</ele>
        <time>2022-01-30T10:34:35.000Z</time>
      </trkpt>
      <trkpt lat="47.27166" lon="-2.28506">
        <ele>29.39999961853</ele>
        <time>2022-01-30T10:34:41.000Z</time>
      </trkpt>
      <trkpt lat="47.27173" lon="-2.2855">
        <ele>29</ele>
        <time>2022-01-30T10:34:46.000Z</time>
      </trkpt>
      <trkpt lat="47.27175" lon="-2.28559">
        <ele>28.60000038147</ele>
        <time>2022-01-30T10:34:47.000Z</time>
      </trkpt>
      <trkpt lat="47.27177" lon="-2.28567">
        <ele>28.200000762939</ele>
        <time>2022-01-30T10:34:48.000Z</time>
      </trkpt>
      <trkpt lat="47.2718" lon="-2.28575">
        <ele>27.60000038147</ele>
        <time>2022-01-30T10:34:49.000Z</time>
      </trkpt>
      <trkpt lat="47.27183" lon="-2.28582">
        <ele>27.200000762939</ele>
        <time>2022-01-30T10:34:50.000Z</time>
      </trkpt>
      <trkpt lat="47.27192" lon="-2.28587">
        <ele>27.200000762939</ele>
        <time>2022-01-30T10:34:52.000Z</time>
      </trkpt>
      <trkpt lat="47.27208" lon="-2.28584">
        <ele>27.200000762939</ele>
        <time>2022-01-30T10:34:55.000Z</time>
      </trkpt>
      <trkpt lat="47.27214" lon="-2.28584">
        <ele>27.200000762939</ele>
        <time>2022-01-30T10:34:56.000Z</time>
      </trkpt>
      <trkpt lat="47.27251" lon="-2.2858">
        <ele>27.200000762939</ele>
        <time>2022-01-30T10:35:02.000Z</time>
      </trkpt>
      <trkpt lat="47.27258" lon="-2.2858">
        <ele>26.799999237061</ele>
        <time>2022-01-30T10:35:03.000Z</time>
      </trkpt>
      <trkpt lat="47.27265" lon="-2.2858">
        <ele>26.39999961853</ele>
        <time>2022-01-30T10:35:04.000Z</time>
      </trkpt>
      <trkpt lat="47.2727" lon="-2.28581">
        <ele>26</ele>
        <time>2022-01-30T10:35:05.000Z</time>
      </trkpt>
      <trkpt lat="47.27276" lon="-2.28583">
        <ele>25.60000038147</ele>
        <time>2022-01-30T10:35:06.000Z</time>
      </trkpt>
      <trkpt lat="47.27281" lon="-2.28583">
        <ele>25.200000762939</ele>
        <time>2022-01-30T10:35:07.000Z</time>
      </trkpt>
      <trkpt lat="47.27287" lon="-2.28584">
        <ele>25.200000762939</ele>
        <time>2022-01-30T10:35:08.000Z</time>
      </trkpt>
      <trkpt lat="47.27315" lon="-2.28591">
        <ele>25.200000762939</ele>
        <time>2022-01-30T10:35:13.000Z</time>
      </trkpt>
      <trkpt lat="47.27339" lon="-2.286">
        <ele>25.200000762939</ele>
        <time>2022-01-30T10:35:17.000Z</time>
      </trkpt>
      <trkpt lat="47.27344" lon="-2.28602">
        <ele>24.799999237061</ele>
        <time>2022-01-30T10:35:18.000Z</time>
      </trkpt>
      <trkpt lat="47.27348" lon="-2.28606">
        <ele>24.39999961853</ele>
        <time>2022-01-30T10:35:19.000Z</time>
      </trkpt>
      <trkpt lat="47.2735" lon="-2.28613">
        <ele>24</ele>
        <time>2022-01-30T10:35:20.000Z</time>
      </trkpt>
      <trkpt lat="47.2735" lon="-2.2862">
        <ele>23.60000038147</ele>
        <time>2022-01-30T10:35:21.000Z</time>
      </trkpt>
      <trkpt lat="47.27348" lon="-2.28627">
        <ele>23.200000762939</ele>
        <time>2022-01-30T10:35:22.000Z</time>
      </trkpt>
      <trkpt lat="47.27346" lon="-2.28639">
        <ele>23.200000762939</ele>
        <time>2022-01-30T10:35:24.000Z</time>
      </trkpt>
      <trkpt lat="47.27344" lon="-2.28645">
        <ele>23.200000762939</ele>
        <time>2022-01-30T10:35:25.000Z</time>
      </trkpt>
      <trkpt lat="47.27341" lon="-2.28657">
        <ele>23.200000762939</ele>
        <time>2022-01-30T10:35:27.000Z</time>
      </trkpt>
      <trkpt lat="47.27339" lon="-2.28671">
        <ele>23.200000762939</ele>
        <time>2022-01-30T10:35:29.000Z</time>
      </trkpt>
      <trkpt lat="47.27329" lon="-2.28715">
        <ele>23.200000762939</ele>
        <time>2022-01-30T10:35:35.000Z</time>
      </trkpt>
      <trkpt lat="47.27321" lon="-2.28747">
        <ele>23.200000762939</ele>
        <time>2022-01-30T10:35:39.000Z</time>
      </trkpt>
      <trkpt lat="47.27321" lon="-2.28755">
        <ele>23.200000762939</ele>
        <time>2022-01-30T10:35:40.000Z</time>
      </trkpt>
      <trkpt lat="47.27327" lon="-2.28774">
        <ele>23.200000762939</ele>
        <time>2022-01-30T10:35:43.000Z</time>
      </trkpt>
      <trkpt lat="47.27339" lon="-2.28782">
        <ele>23.200000762939</ele>
        <time>2022-01-30T10:35:46.000Z</time>
      </trkpt>
      <trkpt lat="47.27355" lon="-2.28795">
        <ele>23.200000762939</ele>
        <time>2022-01-30T10:35:49.000Z</time>
      </trkpt>
      <trkpt lat="47.27358" lon="-2.28801">
        <ele>23.200000762939</ele>
        <time>2022-01-30T10:35:50.000Z</time>
      </trkpt>
      <trkpt lat="47.27359" lon="-2.28827">
        <ele>23.200000762939</ele>
        <time>2022-01-30T10:35:53.000Z</time>
      </trkpt>
      <trkpt lat="47.27358" lon="-2.28836">
        <ele>23.200000762939</ele>
        <time>2022-01-30T10:35:54.000Z</time>
      </trkpt>
      <trkpt lat="47.27353" lon="-2.28869">
        <ele>23.200000762939</ele>
        <time>2022-01-30T10:35:58.000Z</time>
      </trkpt>
      <trkpt lat="47.27347" lon="-2.28903">
        <ele>23.200000762939</ele>
        <time>2022-01-30T10:36:02.000Z</time>
      </trkpt>
      <trkpt lat="47.27345" lon="-2.28927">
        <ele>23.200000762939</ele>
        <time>2022-01-30T10:36:05.000Z</time>
      </trkpt>
      <trkpt lat="47.27337" lon="-2.28945">
        <ele>23.200000762939</ele>
        <time>2022-01-30T10:36:09.000Z</time>
      </trkpt>
      <trkpt lat="47.27331" lon="-2.28937">
        <ele>23.200000762939</ele>
        <time>2022-01-30T10:36:12.000Z</time>
      </trkpt>
      <trkpt lat="47.27321" lon="-2.28936">
        <ele>23.200000762939</ele>
        <time>2022-01-30T10:36:15.000Z</time>
      </trkpt>
      <trkpt lat="47.27318" lon="-2.28939">
        <ele>23.200000762939</ele>
        <time>2022-01-30T10:36:16.000Z</time>
      </trkpt>
      <trkpt lat="47.27317" lon="-2.28942">
        <ele>22.799999237061</ele>
        <time>2022-01-30T10:36:17.000Z</time>
      </trkpt>
      <trkpt lat="47.27316" lon="-2.28947">
        <ele>22.39999961853</ele>
        <time>2022-01-30T10:36:18.000Z</time>
      </trkpt>
      <trkpt lat="47.27315" lon="-2.2895">
        <ele>21.799999237061</ele>
        <time>2022-01-30T10:36:19.000Z</time>
      </trkpt>
      <trkpt lat="47.27316" lon="-2.28953">
        <ele>21.39999961853</ele>
        <time>2022-01-30T10:36:20.000Z</time>
      </trkpt>
      <trkpt lat="47.27315" lon="-2.28956">
        <ele>21</ele>
        <time>2022-01-30T10:36:21.000Z</time>
      </trkpt>
      <trkpt lat="47.27313" lon="-2.28962">
        <ele>21</ele>
        <time>2022-01-30T10:36:23.000Z</time>
      </trkpt>
      <trkpt lat="47.27311" lon="-2.28963">
        <ele>21</ele>
        <time>2022-01-30T10:36:24.000Z</time>
      </trkpt>
      <trkpt lat="47.27304" lon="-2.28973">
        <ele>21</ele>
        <time>2022-01-30T10:36:27.000Z</time>
      </trkpt>
      <trkpt lat="47.2729" lon="-2.28999">
        <ele>21</ele>
        <time>2022-01-30T10:36:33.000Z</time>
      </trkpt>
      <trkpt lat="47.27277" lon="-2.29027">
        <ele>21</ele>
        <time>2022-01-30T10:36:39.000Z</time>
      </trkpt>
      <trkpt lat="47.27262" lon="-2.29053">
        <ele>21</ele>
        <time>2022-01-30T10:36:44.000Z</time>
      </trkpt>
      <trkpt lat="47.27242" lon="-2.29071">
        <ele>21</ele>
        <time>2022-01-30T10:36:49.000Z</time>
      </trkpt>
      <trkpt lat="47.27208" lon="-2.29101">
        <ele>21</ele>
        <time>2022-01-30T10:36:56.000Z</time>
      </trkpt>
      <trkpt lat="47.27188" lon="-2.29128">
        <ele>21</ele>
        <time>2022-01-30T10:37:01.000Z</time>
      </trkpt>
      <trkpt lat="47.27175" lon="-2.29142">
        <ele>21</ele>
        <time>2022-01-30T10:37:04.000Z</time>
      </trkpt>
      <trkpt lat="47.27162" lon="-2.29157">
        <ele>21</ele>
        <time>2022-01-30T10:37:07.000Z</time>
      </trkpt>
      <trkpt lat="47.27155" lon="-2.29168">
        <ele>21.39999961853</ele>
        <time>2022-01-30T10:37:09.000Z</time>
      </trkpt>
      <trkpt lat="47.27153" lon="-2.29176">
        <ele>21.799999237061</ele>
        <time>2022-01-30T10:37:10.000Z</time>
      </trkpt>
      <trkpt lat="47.27152" lon="-2.29183">
        <ele>22.200000762939</ele>
        <time>2022-01-30T10:37:11.000Z</time>
      </trkpt>
      <trkpt lat="47.27155" lon="-2.29191">
        <ele>22.60000038147</ele>
        <time>2022-01-30T10:37:12.000Z</time>
      </trkpt>
      <trkpt lat="47.27157" lon="-2.29198">
        <ele>23</ele>
        <time>2022-01-30T10:37:13.000Z</time>
      </trkpt>
      <trkpt lat="47.27159" lon="-2.29205">
        <ele>23</ele>
        <time>2022-01-30T10:37:14.000Z</time>
      </trkpt>
      <trkpt lat="47.27162" lon="-2.29211">
        <ele>23</ele>
        <time>2022-01-30T10:37:15.000Z</time>
      </trkpt>
      <trkpt lat="47.27171" lon="-2.29234">
        <ele>23</ele>
        <time>2022-01-30T10:37:19.000Z</time>
      </trkpt>
      <trkpt lat="47.27173" lon="-2.29251">
        <ele>23</ele>
        <time>2022-01-30T10:37:22.000Z</time>
      </trkpt>
      <trkpt lat="47.27172" lon="-2.29257">
        <ele>23</ele>
        <time>2022-01-30T10:37:23.000Z</time>
      </trkpt>
      <trkpt lat="47.27163" lon="-2.29281">
        <ele>23</ele>
        <time>2022-01-30T10:37:27.000Z</time>
      </trkpt>
      <trkpt lat="47.2715" lon="-2.29317">
        <ele>23</ele>
        <time>2022-01-30T10:37:33.000Z</time>
      </trkpt>
      <trkpt lat="47.27149" lon="-2.29323">
        <ele>23</ele>
        <time>2022-01-30T10:37:34.000Z</time>
      </trkpt>
      <trkpt lat="47.27158" lon="-2.29338">
        <ele>23</ele>
        <time>2022-01-30T10:37:37.000Z</time>
      </trkpt>
      <trkpt lat="47.27171" lon="-2.2935">
        <ele>23</ele>
        <time>2022-01-30T10:37:40.000Z</time>
      </trkpt>
      <trkpt lat="47.27176" lon="-2.29354">
        <ele>23</ele>
        <time>2022-01-30T10:37:41.000Z</time>
      </trkpt>
      <trkpt lat="47.2718" lon="-2.29361">
        <ele>23</ele>
        <time>2022-01-30T10:37:42.000Z</time>
      </trkpt>
      <trkpt lat="47.27188" lon="-2.29377">
        <ele>23</ele>
        <time>2022-01-30T10:37:44.000Z</time>
      </trkpt>
      <trkpt lat="47.27197" lon="-2.29399">
        <ele>23</ele>
        <time>2022-01-30T10:37:47.000Z</time>
      </trkpt>
      <trkpt lat="47.27217" lon="-2.29458">
        <ele>23</ele>
        <time>2022-01-30T10:37:55.000Z</time>
      </trkpt>
      <trkpt lat="47.27222" lon="-2.29473">
        <ele>23.60000038147</ele>
        <time>2022-01-30T10:37:57.000Z</time>
      </trkpt>
      <trkpt lat="47.27225" lon="-2.2948">
        <ele>24</ele>
        <time>2022-01-30T10:37:58.000Z</time>
      </trkpt>
      <trkpt lat="47.27228" lon="-2.29487">
        <ele>24.39999961853</ele>
        <time>2022-01-30T10:37:59.000Z</time>
      </trkpt>
      <trkpt lat="47.2723" lon="-2.29494">
        <ele>24.799999237061</ele>
        <time>2022-01-30T10:38:00.000Z</time>
      </trkpt>
      <trkpt lat="47.27232" lon="-2.29501">
        <ele>25.200000762939</ele>
        <time>2022-01-30T10:38:01.000Z</time>
      </trkpt>
      <trkpt lat="47.27234" lon="-2.29508">
        <ele>25.200000762939</ele>
        <time>2022-01-30T10:38:02.000Z</time>
      </trkpt>
      <trkpt lat="47.27248" lon="-2.29552">
        <ele>25.200000762939</ele>
        <time>2022-01-30T10:38:08.000Z</time>
      </trkpt>
      <trkpt lat="47.27258" lon="-2.29598">
        <ele>25.200000762939</ele>
        <time>2022-01-30T10:38:14.000Z</time>
      </trkpt>
      <trkpt lat="47.27268" lon="-2.29661">
        <ele>25.200000762939</ele>
        <time>2022-01-30T10:38:22.000Z</time>
      </trkpt>
      <trkpt lat="47.27271" lon="-2.29677">
        <ele>25.200000762939</ele>
        <time>2022-01-30T10:38:24.000Z</time>
      </trkpt>
      <trkpt lat="47.27274" lon="-2.29692">
        <ele>25.200000762939</ele>
        <time>2022-01-30T10:38:26.000Z</time>
      </trkpt>
      <trkpt lat="47.27276" lon="-2.297">
        <ele>25.200000762939</ele>
        <time>2022-01-30T10:38:27.000Z</time>
      </trkpt>
      <trkpt lat="47.27292" lon="-2.2975">
        <ele>25.200000762939</ele>
        <time>2022-01-30T10:38:33.000Z</time>
      </trkpt>
      <trkpt lat="47.2731" lon="-2.29798">
        <ele>25.200000762939</ele>
        <time>2022-01-30T10:38:39.000Z</time>
      </trkpt>
      <trkpt lat="47.27317" lon="-2.29813">
        <ele>25.200000762939</ele>
        <time>2022-01-30T10:38:41.000Z</time>
      </trkpt>
      <trkpt lat="47.27328" lon="-2.29829">
        <ele>25.200000762939</ele>
        <time>2022-01-30T10:38:44.000Z</time>
      </trkpt>
      <trkpt lat="47.27352" lon="-2.29871">
        <ele>25.200000762939</ele>
        <time>2022-01-30T10:38:50.000Z</time>
      </trkpt>
      <trkpt lat="47.27374" lon="-2.29922">
        <ele>25.200000762939</ele>
        <time>2022-01-30T10:38:57.000Z</time>
      </trkpt>
      <trkpt lat="47.27394" lon="-2.29967">
        <ele>25.200000762939</ele>
        <time>2022-01-30T10:39:03.000Z</time>
      </trkpt>
      <trkpt lat="47.27417" lon="-2.30017">
        <ele>25.200000762939</ele>
        <time>2022-01-30T10:39:09.000Z</time>
      </trkpt>
      <trkpt lat="47.27436" lon="-2.30069">
        <ele>25.200000762939</ele>
        <time>2022-01-30T10:39:15.000Z</time>
      </trkpt>
      <trkpt lat="47.2745" lon="-2.30111">
        <ele>24.799999237061</ele>
        <time>2022-01-30T10:39:20.000Z</time>
      </trkpt>
      <trkpt lat="47.27452" lon="-2.30118">
        <ele>24.39999961853</ele>
        <time>2022-01-30T10:39:21.000Z</time>
      </trkpt>
      <trkpt lat="47.27455" lon="-2.30126">
        <ele>23.39999961853</ele>
        <time>2022-01-30T10:39:22.000Z</time>
      </trkpt>
      <trkpt lat="47.27457" lon="-2.30136">
        <ele>23</ele>
        <time>2022-01-30T10:39:23.000Z</time>
      </trkpt>
      <trkpt lat="47.27464" lon="-2.3017">
        <ele>23</ele>
        <time>2022-01-30T10:39:27.000Z</time>
      </trkpt>
      <trkpt lat="47.27466" lon="-2.30185">
        <ele>22.60000038147</ele>
        <time>2022-01-30T10:39:29.000Z</time>
      </trkpt>
      <trkpt lat="47.27466" lon="-2.30191">
        <ele>22.200000762939</ele>
        <time>2022-01-30T10:39:30.000Z</time>
      </trkpt>
      <trkpt lat="47.27465" lon="-2.30196">
        <ele>21.60000038147</ele>
        <time>2022-01-30T10:39:31.000Z</time>
      </trkpt>
      <trkpt lat="47.27464" lon="-2.30199">
        <ele>21.200000762939</ele>
        <time>2022-01-30T10:39:32.000Z</time>
      </trkpt>
      <trkpt lat="47.27463" lon="-2.30201">
        <ele>20.799999237061</ele>
        <time>2022-01-30T10:39:33.000Z</time>
      </trkpt>
      <trkpt lat="47.27459" lon="-2.30205">
        <ele>20.799999237061</ele>
        <time>2022-01-30T10:39:34.000Z</time>
      </trkpt>
      <trkpt lat="47.27442" lon="-2.30216">
        <ele>20.799999237061</ele>
        <time>2022-01-30T10:39:38.000Z</time>
      </trkpt>
      <trkpt lat="47.27414" lon="-2.3023">
        <ele>20.799999237061</ele>
        <time>2022-01-30T10:39:43.000Z</time>
      </trkpt>
      <trkpt lat="47.27384" lon="-2.30244">
        <ele>20.799999237061</ele>
        <time>2022-01-30T10:39:48.000Z</time>
      </trkpt>
      <trkpt lat="47.27345" lon="-2.3025">
        <ele>20.799999237061</ele>
        <time>2022-01-30T10:39:54.000Z</time>
      </trkpt>
      <trkpt lat="47.27307" lon="-2.30255">
        <ele>20.799999237061</ele>
        <time>2022-01-30T10:40:00.000Z</time>
      </trkpt>
      <trkpt lat="47.27284" lon="-2.30256">
        <ele>20.39999961853</ele>
        <time>2022-01-30T10:40:04.000Z</time>
      </trkpt>
      <trkpt lat="47.27278" lon="-2.30256">
        <ele>20</ele>
        <time>2022-01-30T10:40:05.000Z</time>
      </trkpt>
      <trkpt lat="47.27272" lon="-2.30258">
        <ele>19.60000038147</ele>
        <time>2022-01-30T10:40:06.000Z</time>
      </trkpt>
      <trkpt lat="47.27265" lon="-2.30261">
        <ele>19.200000762939</ele>
        <time>2022-01-30T10:40:07.000Z</time>
      </trkpt>
      <trkpt lat="47.2726" lon="-2.30262">
        <ele>18.60000038147</ele>
        <time>2022-01-30T10:40:08.000Z</time>
      </trkpt>
      <trkpt lat="47.2725" lon="-2.30262">
        <ele>18.60000038147</ele>
        <time>2022-01-30T10:40:10.000Z</time>
      </trkpt>
      <trkpt lat="47.27239" lon="-2.30261">
        <ele>18.60000038147</ele>
        <time>2022-01-30T10:40:13.000Z</time>
      </trkpt>
      <trkpt lat="47.27221" lon="-2.30258">
        <ele>18.60000038147</ele>
        <time>2022-01-30T10:40:18.000Z</time>
      </trkpt>
      <trkpt lat="47.27207" lon="-2.30259">
        <ele>18.60000038147</ele>
        <time>2022-01-30T10:40:22.000Z</time>
      </trkpt>
      <trkpt lat="47.27191" lon="-2.30263">
        <ele>18.60000038147</ele>
        <time>2022-01-30T10:40:27.000Z</time>
      </trkpt>
      <trkpt lat="47.27181" lon="-2.30256">
        <ele>18.60000038147</ele>
        <time>2022-01-30T10:40:30.000Z</time>
      </trkpt>
      <trkpt lat="47.27177" lon="-2.30253">
        <ele>18.60000038147</ele>
        <time>2022-01-30T10:40:31.000Z</time>
      </trkpt>
      <trkpt lat="47.27167" lon="-2.30247">
        <ele>18.60000038147</ele>
        <time>2022-01-30T10:40:34.000Z</time>
      </trkpt>
      <trkpt lat="47.27161" lon="-2.30244">
        <ele>18.60000038147</ele>
        <time>2022-01-30T10:40:36.000Z</time>
      </trkpt>
      <trkpt lat="47.27156" lon="-2.30246">
        <ele>18.60000038147</ele>
        <time>2022-01-30T10:40:37.000Z</time>
      </trkpt>
      <trkpt lat="47.27148" lon="-2.30249">
        <ele>18.60000038147</ele>
        <time>2022-01-30T10:40:39.000Z</time>
      </trkpt>
      <trkpt lat="47.27125" lon="-2.30258">
        <ele>18.60000038147</ele>
        <time>2022-01-30T10:40:45.000Z</time>
      </trkpt>
      <trkpt lat="47.27112" lon="-2.30262">
        <ele>18.60000038147</ele>
        <time>2022-01-30T10:40:48.000Z</time>
      </trkpt>
      <trkpt lat="47.27104" lon="-2.30266">
        <ele>18.60000038147</ele>
        <time>2022-01-30T10:40:50.000Z</time>
      </trkpt>
      <trkpt lat="47.27082" lon="-2.30284">
        <ele>18.60000038147</ele>
        <time>2022-01-30T10:40:55.000Z</time>
      </trkpt>
      <trkpt lat="47.27081" lon="-2.3029">
        <ele>19.200000762939</ele>
        <time>2022-01-30T10:40:56.000Z</time>
      </trkpt>
      <trkpt lat="47.2708" lon="-2.30295">
        <ele>19.60000038147</ele>
        <time>2022-01-30T10:40:57.000Z</time>
      </trkpt>
      <trkpt lat="47.27079" lon="-2.303">
        <ele>20</ele>
        <time>2022-01-30T10:40:58.000Z</time>
      </trkpt>
      <trkpt lat="47.27075" lon="-2.30306">
        <ele>20.39999961853</ele>
        <time>2022-01-30T10:40:59.000Z</time>
      </trkpt>
      <trkpt lat="47.27074" lon="-2.30312">
        <ele>21</ele>
        <time>2022-01-30T10:41:00.000Z</time>
      </trkpt>
      <trkpt lat="47.27072" lon="-2.30319">
        <ele>21</ele>
        <time>2022-01-30T10:41:01.000Z</time>
      </trkpt>
      <trkpt lat="47.2706" lon="-2.30373">
        <ele>21</ele>
        <time>2022-01-30T10:41:08.000Z</time>
      </trkpt>
      <trkpt lat="47.27053" lon="-2.30433">
        <ele>21</ele>
        <time>2022-01-30T10:41:15.000Z</time>
      </trkpt>
      <trkpt lat="47.27045" lon="-2.30473">
        <ele>21</ele>
        <time>2022-01-30T10:41:20.000Z</time>
      </trkpt>
      <trkpt lat="47.27033" lon="-2.30519">
        <ele>21</ele>
        <time>2022-01-30T10:41:26.000Z</time>
      </trkpt>
      <trkpt lat="47.27019" lon="-2.30572">
        <ele>21</ele>
        <time>2022-01-30T10:41:33.000Z</time>
      </trkpt>
      <trkpt lat="47.27011" lon="-2.30593">
        <ele>21</ele>
        <time>2022-01-30T10:41:36.000Z</time>
      </trkpt>
      <trkpt lat="47.27002" lon="-2.30602">
        <ele>21</ele>
        <time>2022-01-30T10:41:38.000Z</time>
      </trkpt>
      <trkpt lat="47.26985" lon="-2.30613">
        <ele>21</ele>
        <time>2022-01-30T10:41:41.000Z</time>
      </trkpt>
      <trkpt lat="47.26979" lon="-2.30616">
        <ele>21</ele>
        <time>2022-01-30T10:41:42.000Z</time>
      </trkpt>
      <trkpt lat="47.26973" lon="-2.30618">
        <ele>21</ele>
        <time>2022-01-30T10:41:43.000Z</time>
      </trkpt>
      <trkpt lat="47.26957" lon="-2.30625">
        <ele>21</ele>
        <time>2022-01-30T10:41:46.000Z</time>
      </trkpt>
      <trkpt lat="47.26941" lon="-2.3063">
        <ele>21</ele>
        <time>2022-01-30T10:41:49.000Z</time>
      </trkpt>
      <trkpt lat="47.26919" lon="-2.30637">
        <ele>21.39999961853</ele>
        <time>2022-01-30T10:41:54.000Z</time>
      </trkpt>
      <trkpt lat="47.26916" lon="-2.30641">
        <ele>21.799999237061</ele>
        <time>2022-01-30T10:41:55.000Z</time>
      </trkpt>
      <trkpt lat="47.26913" lon="-2.30644">
        <ele>22.200000762939</ele>
        <time>2022-01-30T10:41:56.000Z</time>
      </trkpt>
      <trkpt lat="47.26911" lon="-2.30648">
        <ele>22.60000038147</ele>
        <time>2022-01-30T10:41:57.000Z</time>
      </trkpt>
      <trkpt lat="47.26908" lon="-2.3065">
        <ele>23</ele>
        <time>2022-01-30T10:41:58.000Z</time>
      </trkpt>
      <trkpt lat="47.26906" lon="-2.30653">
        <ele>23</ele>
        <time>2022-01-30T10:41:59.000Z</time>
      </trkpt>
      <trkpt lat="47.26901" lon="-2.30665">
        <ele>23</ele>
        <time>2022-01-30T10:42:03.000Z</time>
      </trkpt>
      <trkpt lat="47.26906" lon="-2.30674">
        <ele>23</ele>
        <time>2022-01-30T10:42:07.000Z</time>
      </trkpt>
      <trkpt lat="47.26907" lon="-2.30678">
        <ele>23</ele>
        <time>2022-01-30T10:42:08.000Z</time>
      </trkpt>
      <trkpt lat="47.26923" lon="-2.30701">
        <ele>23</ele>
        <time>2022-01-30T10:42:15.000Z</time>
      </trkpt>
      <trkpt lat="47.26941" lon="-2.30729">
        <ele>23</ele>
        <time>2022-01-30T10:42:21.000Z</time>
      </trkpt>
      <trkpt lat="47.26965" lon="-2.30763">
        <ele>22.60000038147</ele>
        <time>2022-01-30T10:42:27.000Z</time>
      </trkpt>
      <trkpt lat="47.26969" lon="-2.30769">
        <ele>22.200000762939</ele>
        <time>2022-01-30T10:42:28.000Z</time>
      </trkpt>
      <trkpt lat="47.26973" lon="-2.30774">
        <ele>21.60000038147</ele>
        <time>2022-01-30T10:42:29.000Z</time>
      </trkpt>
      <trkpt lat="47.26976" lon="-2.30779">
        <ele>21.200000762939</ele>
        <time>2022-01-30T10:42:30.000Z</time>
      </trkpt>
      <trkpt lat="47.2698" lon="-2.30784">
        <ele>20.799999237061</ele>
        <time>2022-01-30T10:42:31.000Z</time>
      </trkpt>
      <trkpt lat="47.26984" lon="-2.30789">
        <ele>20.799999237061</ele>
        <time>2022-01-30T10:42:32.000Z</time>
      </trkpt>
      <trkpt lat="47.26987" lon="-2.30794">
        <ele>20.799999237061</ele>
        <time>2022-01-30T10:42:33.000Z</time>
      </trkpt>
      <trkpt lat="47.27001" lon="-2.30816">
        <ele>20.39999961853</ele>
        <time>2022-01-30T10:42:37.000Z</time>
      </trkpt>
      <trkpt lat="47.27005" lon="-2.30821">
        <ele>20</ele>
        <time>2022-01-30T10:42:38.000Z</time>
      </trkpt>
      <trkpt lat="47.27008" lon="-2.30827">
        <ele>19.60000038147</ele>
        <time>2022-01-30T10:42:39.000Z</time>
      </trkpt>
      <trkpt lat="47.27011" lon="-2.30832">
        <ele>19</ele>
        <time>2022-01-30T10:42:40.000Z</time>
      </trkpt>
      <trkpt lat="47.27014" lon="-2.30837">
        <ele>18.60000038147</ele>
        <time>2022-01-30T10:42:41.000Z</time>
      </trkpt>
      <trkpt lat="47.27017" lon="-2.30842">
        <ele>18.60000038147</ele>
        <time>2022-01-30T10:42:42.000Z</time>
      </trkpt>
      <trkpt lat="47.27027" lon="-2.30857">
        <ele>18.60000038147</ele>
        <time>2022-01-30T10:42:45.000Z</time>
      </trkpt>
      <trkpt lat="47.27031" lon="-2.30863">
        <ele>18.60000038147</ele>
        <time>2022-01-30T10:42:46.000Z</time>
      </trkpt>
      <trkpt lat="47.27037" lon="-2.30873">
        <ele>18.200000762939</ele>
        <time>2022-01-30T10:42:48.000Z</time>
      </trkpt>
      <trkpt lat="47.2704" lon="-2.30877">
        <ele>17.799999237061</ele>
        <time>2022-01-30T10:42:49.000Z</time>
      </trkpt>
      <trkpt lat="47.27042" lon="-2.30882">
        <ele>17.39999961853</ele>
        <time>2022-01-30T10:42:50.000Z</time>
      </trkpt>
      <trkpt lat="47.27044" lon="-2.30886">
        <ele>16.799999237061</ele>
        <time>2022-01-30T10:42:51.000Z</time>
      </trkpt>
      <trkpt lat="47.27045" lon="-2.30888">
        <ele>16.39999961853</ele>
        <time>2022-01-30T10:42:52.000Z</time>
      </trkpt>
      <trkpt lat="47.27048" lon="-2.30901">
        <ele>16.39999961853</ele>
        <time>2022-01-30T10:42:56.000Z</time>
      </trkpt>
      <trkpt lat="47.27055" lon="-2.30915">
        <ele>16.39999961853</ele>
        <time>2022-01-30T10:43:00.000Z</time>
      </trkpt>
      <trkpt lat="47.27061" lon="-2.30929">
        <ele>16.39999961853</ele>
        <time>2022-01-30T10:43:04.000Z</time>
      </trkpt>
      <trkpt lat="47.27061" lon="-2.30934">
        <ele>16.39999961853</ele>
        <time>2022-01-30T10:43:05.000Z</time>
      </trkpt>
      <trkpt lat="47.27068" lon="-2.30966">
        <ele>16.39999961853</ele>
        <time>2022-01-30T10:43:11.000Z</time>
      </trkpt>
      <trkpt lat="47.2707" lon="-2.30984">
        <ele>16.39999961853</ele>
        <time>2022-01-30T10:43:14.000Z</time>
      </trkpt>
      <trkpt lat="47.27069" lon="-2.30988">
        <ele>16.39999961853</ele>
        <time>2022-01-30T10:43:15.000Z</time>
      </trkpt>
      <trkpt lat="47.2706" lon="-2.31003">
        <ele>16.39999961853</ele>
        <time>2022-01-30T10:43:19.000Z</time>
      </trkpt>
      <trkpt lat="47.27057" lon="-2.31007">
        <ele>16.39999961853</ele>
        <time>2022-01-30T10:43:20.000Z</time>
      </trkpt>
      <trkpt lat="47.27032" lon="-2.31029">
        <ele>16.39999961853</ele>
        <time>2022-01-30T10:43:26.000Z</time>
      </trkpt>
      <trkpt lat="47.27001" lon="-2.31063">
        <ele>16.799999237061</ele>
        <time>2022-01-30T10:43:33.000Z</time>
      </trkpt>
      <trkpt lat="47.26999" lon="-2.31069">
        <ele>17.39999961853</ele>
        <time>2022-01-30T10:43:34.000Z</time>
      </trkpt>
      <trkpt lat="47.26998" lon="-2.31075">
        <ele>17.799999237061</ele>
        <time>2022-01-30T10:43:35.000Z</time>
      </trkpt>
      <trkpt lat="47.26999" lon="-2.31081">
        <ele>18.200000762939</ele>
        <time>2022-01-30T10:43:36.000Z</time>
      </trkpt>
      <trkpt lat="47.26999" lon="-2.31088">
        <ele>18.60000038147</ele>
        <time>2022-01-30T10:43:37.000Z</time>
      </trkpt>
      <trkpt lat="47.26999" lon="-2.3112">
        <ele>18.60000038147</ele>
        <time>2022-01-30T10:43:42.000Z</time>
      </trkpt>
      <trkpt lat="47.26991" lon="-2.31161">
        <ele>19</ele>
        <time>2022-01-30T10:43:48.000Z</time>
      </trkpt>
      <trkpt lat="47.26989" lon="-2.31169">
        <ele>19.39999961853</ele>
        <time>2022-01-30T10:43:49.000Z</time>
      </trkpt>
      <trkpt lat="47.26988" lon="-2.31176">
        <ele>20</ele>
        <time>2022-01-30T10:43:50.000Z</time>
      </trkpt>
      <trkpt lat="47.26987" lon="-2.31183">
        <ele>20.39999961853</ele>
        <time>2022-01-30T10:43:51.000Z</time>
      </trkpt>
      <trkpt lat="47.26986" lon="-2.3119">
        <ele>20.799999237061</ele>
        <time>2022-01-30T10:43:52.000Z</time>
      </trkpt>
      <trkpt lat="47.26984" lon="-2.31197">
        <ele>20.799999237061</ele>
        <time>2022-01-30T10:43:53.000Z</time>
      </trkpt>
      <trkpt lat="47.26982" lon="-2.31203">
        <ele>20.799999237061</ele>
        <time>2022-01-30T10:43:54.000Z</time>
      </trkpt>
      <trkpt lat="47.26979" lon="-2.31216">
        <ele>21.200000762939</ele>
        <time>2022-01-30T10:43:56.000Z</time>
      </trkpt>
      <trkpt lat="47.26978" lon="-2.31223">
        <ele>21.60000038147</ele>
        <time>2022-01-30T10:43:57.000Z</time>
      </trkpt>
      <trkpt lat="47.26977" lon="-2.31229">
        <ele>22</ele>
        <time>2022-01-30T10:43:58.000Z</time>
      </trkpt>
      <trkpt lat="47.26977" lon="-2.31236">
        <ele>22.39999961853</ele>
        <time>2022-01-30T10:43:59.000Z</time>
      </trkpt>
      <trkpt lat="47.26977" lon="-2.31243">
        <ele>22.799999237061</ele>
        <time>2022-01-30T10:44:00.000Z</time>
      </trkpt>
      <trkpt lat="47.26976" lon="-2.31287">
        <ele>22.799999237061</ele>
        <time>2022-01-30T10:44:07.000Z</time>
      </trkpt>
      <trkpt lat="47.2698" lon="-2.31315">
        <ele>22.799999237061</ele>
        <time>2022-01-30T10:44:12.000Z</time>
      </trkpt>
      <trkpt lat="47.26985" lon="-2.31353">
        <ele>22.799999237061</ele>
        <time>2022-01-30T10:44:18.000Z</time>
      </trkpt>
      <trkpt lat="47.26989" lon="-2.31394">
        <ele>22.799999237061</ele>
        <time>2022-01-30T10:44:23.000Z</time>
      </trkpt>
      <trkpt lat="47.26991" lon="-2.31437">
        <ele>22.39999961853</ele>
        <time>2022-01-30T10:44:28.000Z</time>
      </trkpt>
      <trkpt lat="47.26992" lon="-2.31445">
        <ele>22</ele>
        <time>2022-01-30T10:44:29.000Z</time>
      </trkpt>
      <trkpt lat="47.26992" lon="-2.31453">
        <ele>21.60000038147</ele>
        <time>2022-01-30T10:44:30.000Z</time>
      </trkpt>
      <trkpt lat="47.26993" lon="-2.3146">
        <ele>21.200000762939</ele>
        <time>2022-01-30T10:44:31.000Z</time>
      </trkpt>
      <trkpt lat="47.26994" lon="-2.31468">
        <ele>20.799999237061</ele>
        <time>2022-01-30T10:44:32.000Z</time>
      </trkpt>
      <trkpt lat="47.26997" lon="-2.31482">
        <ele>20.799999237061</ele>
        <time>2022-01-30T10:44:34.000Z</time>
      </trkpt>
      <trkpt lat="47.26999" lon="-2.31489">
        <ele>20.799999237061</ele>
        <time>2022-01-30T10:44:35.000Z</time>
      </trkpt>
      <trkpt lat="47.27007" lon="-2.31513">
        <ele>20.39999961853</ele>
        <time>2022-01-30T10:44:38.000Z</time>
      </trkpt>
      <trkpt lat="47.27009" lon="-2.31522">
        <ele>19.799999237061</ele>
        <time>2022-01-30T10:44:39.000Z</time>
      </trkpt>
      <trkpt lat="47.27011" lon="-2.31531">
        <ele>19.39999961853</ele>
        <time>2022-01-30T10:44:40.000Z</time>
      </trkpt>
      <trkpt lat="47.27013" lon="-2.3154">
        <ele>19</ele>
        <time>2022-01-30T10:44:41.000Z</time>
      </trkpt>
      <trkpt lat="47.27015" lon="-2.31549">
        <ele>18.39999961853</ele>
        <time>2022-01-30T10:44:42.000Z</time>
      </trkpt>
      <trkpt lat="47.27018" lon="-2.31557">
        <ele>18.39999961853</ele>
        <time>2022-01-30T10:44:43.000Z</time>
      </trkpt>
      <trkpt lat="47.27021" lon="-2.31565">
        <ele>18</ele>
        <time>2022-01-30T10:44:44.000Z</time>
      </trkpt>
      <trkpt lat="47.27024" lon="-2.31571">
        <ele>17.200000762939</ele>
        <time>2022-01-30T10:44:45.000Z</time>
      </trkpt>
      <trkpt lat="47.27027" lon="-2.31577">
        <ele>16.60000038147</ele>
        <time>2022-01-30T10:44:46.000Z</time>
      </trkpt>
      <trkpt lat="47.27029" lon="-2.31583">
        <ele>16.200000762939</ele>
        <time>2022-01-30T10:44:47.000Z</time>
      </trkpt>
      <trkpt lat="47.2703" lon="-2.31589">
        <ele>15.800000190735</ele>
        <time>2022-01-30T10:44:48.000Z</time>
      </trkpt>
      <trkpt lat="47.27031" lon="-2.31595">
        <ele>15.39999961853</ele>
        <time>2022-01-30T10:44:49.000Z</time>
      </trkpt>
      <trkpt lat="47.27032" lon="-2.31601">
        <ele>15</ele>
        <time>2022-01-30T10:44:50.000Z</time>
      </trkpt>
      <trkpt lat="47.27033" lon="-2.31608">
        <ele>14.39999961853</ele>
        <time>2022-01-30T10:44:51.000Z</time>
      </trkpt>
      <trkpt lat="47.27035" lon="-2.31615">
        <ele>14</ele>
        <time>2022-01-30T10:44:52.000Z</time>
      </trkpt>
      <trkpt lat="47.27039" lon="-2.31642">
        <ele>13.60000038147</ele>
        <time>2022-01-30T10:44:55.000Z</time>
      </trkpt>
      <trkpt lat="47.27039" lon="-2.31651">
        <ele>13.199999809265</ele>
        <time>2022-01-30T10:44:56.000Z</time>
      </trkpt>
      <trkpt lat="47.27038" lon="-2.3166">
        <ele>12.60000038147</ele>
        <time>2022-01-30T10:44:57.000Z</time>
      </trkpt>
      <trkpt lat="47.27037" lon="-2.31669">
        <ele>12.199999809265</ele>
        <time>2022-01-30T10:44:58.000Z</time>
      </trkpt>
      <trkpt lat="47.27036" lon="-2.31677">
        <ele>11.800000190735</ele>
        <time>2022-01-30T10:44:59.000Z</time>
      </trkpt>
      <trkpt lat="47.27031" lon="-2.31696">
        <ele>11.39999961853</ele>
        <time>2022-01-30T10:45:02.000Z</time>
      </trkpt>
      <trkpt lat="47.27029" lon="-2.317">
        <ele>10.800000190735</ele>
        <time>2022-01-30T10:45:03.000Z</time>
      </trkpt>
      <trkpt lat="47.27031" lon="-2.31703">
        <ele>10.39999961853</ele>
        <time>2022-01-30T10:45:04.000Z</time>
      </trkpt>
      <trkpt lat="47.27034" lon="-2.31706">
        <ele>10</ele>
        <time>2022-01-30T10:45:05.000Z</time>
      </trkpt>
      <trkpt lat="47.27036" lon="-2.31709">
        <ele>9.6000003814697</ele>
        <time>2022-01-30T10:45:06.000Z</time>
      </trkpt>
      <trkpt lat="47.27054" lon="-2.31729">
        <ele>9.6000003814697</ele>
        <time>2022-01-30T10:45:12.000Z</time>
      </trkpt>
      <trkpt lat="47.27053" lon="-2.31742">
        <ele>9.6000003814697</ele>
        <time>2022-01-30T10:45:15.000Z</time>
      </trkpt>
      <trkpt lat="47.27057" lon="-2.31759">
        <ele>9.6000003814697</ele>
        <time>2022-01-30T10:45:19.000Z</time>
      </trkpt>
      <trkpt lat="47.27058" lon="-2.31764">
        <ele>9.6000003814697</ele>
        <time>2022-01-30T10:45:20.000Z</time>
      </trkpt>
      <trkpt lat="47.2706" lon="-2.31777">
        <ele>9.6000003814697</ele>
        <time>2022-01-30T10:45:22.000Z</time>
      </trkpt>
      <trkpt lat="47.2706" lon="-2.31785">
        <ele>9.1999998092651</ele>
        <time>2022-01-30T10:45:23.000Z</time>
      </trkpt>
      <trkpt lat="47.27061" lon="-2.31792">
        <ele>8.6000003814697</ele>
        <time>2022-01-30T10:45:24.000Z</time>
      </trkpt>
      <trkpt lat="47.27062" lon="-2.31798">
        <ele>8.1999998092651</ele>
        <time>2022-01-30T10:45:25.000Z</time>
      </trkpt>
      <trkpt lat="47.27063" lon="-2.31805">
        <ele>7.8000001907349</ele>
        <time>2022-01-30T10:45:26.000Z</time>
      </trkpt>
      <trkpt lat="47.27064" lon="-2.31811">
        <ele>7.4000000953674</ele>
        <time>2022-01-30T10:45:27.000Z</time>
      </trkpt>
      <trkpt lat="47.27065" lon="-2.31823">
        <ele>7.4000000953674</ele>
        <time>2022-01-30T10:45:29.000Z</time>
      </trkpt>
      <trkpt lat="47.27067" lon="-2.31839">
        <ele>7</ele>
        <time>2022-01-30T10:45:33.000Z</time>
      </trkpt>
      <trkpt lat="47.27068" lon="-2.31841">
        <ele>6.1999998092651</ele>
        <time>2022-01-30T10:45:34.000Z</time>
      </trkpt>
      <trkpt lat="47.27069" lon="-2.31843">
        <ele>5.8000001907349</ele>
        <time>2022-01-30T10:45:35.000Z</time>
      </trkpt>
      <trkpt lat="47.2707" lon="-2.31845">
        <ele>5.4000000953674</ele>
        <time>2022-01-30T10:45:36.000Z</time>
      </trkpt>
      <trkpt lat="47.27075" lon="-2.31848">
        <ele>5.4000000953674</ele>
        <time>2022-01-30T10:45:40.000Z</time>
      </trkpt>
      <trkpt lat="47.2708" lon="-2.31851">
        <ele>5.4000000953674</ele>
        <time>2022-01-30T10:45:45.000Z</time>
      </trkpt>
      <trkpt lat="47.2708" lon="-2.31853">
        <ele>5.4000000953674</ele>
        <time>2022-01-30T10:45:46.000Z</time>
      </trkpt>
      <trkpt lat="47.2708" lon="-2.31855">
        <ele>5.4000000953674</ele>
        <time>2022-01-30T10:45:47.000Z</time>
      </trkpt>
      <trkpt lat="47.2708" lon="-2.31856">
        <ele>5.4000000953674</ele>
        <time>2022-01-30T10:45:48.000Z</time>
      </trkpt>
      <trkpt lat="47.27079" lon="-2.31858">
        <ele>5.4000000953674</ele>
        <time>2022-01-30T10:45:57.000Z</time>
      </trkpt>
      <trkpt lat="47.27079" lon="-2.3186">
        <ele>5.4000000953674</ele>
        <time>2022-01-30T10:45:58.000Z</time>
      </trkpt>
      <trkpt lat="47.27078" lon="-2.31867">
        <ele>5.4000000953674</ele>
        <time>2022-01-30T10:46:03.000Z</time>
      </trkpt>
      <trkpt lat="47.27079" lon="-2.31887">
        <ele>5.4000000953674</ele>
        <time>2022-01-30T10:46:09.000Z</time>
      </trkpt>
      <trkpt lat="47.27083" lon="-2.3191">
        <ele>5.4000000953674</ele>
        <time>2022-01-30T10:46:14.000Z</time>
      </trkpt>
      <trkpt lat="47.27084" lon="-2.31931">
        <ele>4.8000001907349</ele>
        <time>2022-01-30T10:46:18.000Z</time>
      </trkpt>
      <trkpt lat="47.27083" lon="-2.31934">
        <ele>4.4000000953674</ele>
        <time>2022-01-30T10:46:19.000Z</time>
      </trkpt>
      <trkpt lat="47.27082" lon="-2.31937">
        <ele>4</ele>
        <time>2022-01-30T10:46:20.000Z</time>
      </trkpt>
      <trkpt lat="47.2708" lon="-2.3194">
        <ele>3.5999999046326</ele>
        <time>2022-01-30T10:46:21.000Z</time>
      </trkpt>
      <trkpt lat="47.27078" lon="-2.31941">
        <ele>3.2000000476837</ele>
        <time>2022-01-30T10:46:22.000Z</time>
      </trkpt>
      <trkpt lat="47.27076" lon="-2.31942">
        <ele>3.2000000476837</ele>
        <time>2022-01-30T10:46:23.000Z</time>
      </trkpt>
      <trkpt lat="47.27071" lon="-2.31942">
        <ele>3.2000000476837</ele>
        <time>2022-01-30T10:46:25.000Z</time>
      </trkpt>
      <trkpt lat="47.27059" lon="-2.31941">
        <ele>3.2000000476837</ele>
        <time>2022-01-30T10:46:29.000Z</time>
      </trkpt>
      <trkpt lat="47.27046" lon="-2.31952">
        <ele>3.2000000476837</ele>
        <time>2022-01-30T10:46:34.000Z</time>
      </trkpt>
      <trkpt lat="47.27025" lon="-2.31966">
        <ele>3.2000000476837</ele>
        <time>2022-01-30T10:46:40.000Z</time>
      </trkpt>
      <trkpt lat="47.27016" lon="-2.31978">
        <ele>3.2000000476837</ele>
        <time>2022-01-30T10:46:43.000Z</time>
      </trkpt>
      <trkpt lat="47.27016" lon="-2.31982">
        <ele>3.2000000476837</ele>
        <time>2022-01-30T10:46:44.000Z</time>
      </trkpt>
      <trkpt lat="47.27018" lon="-2.31992">
        <ele>3.2000000476837</ele>
        <time>2022-01-30T10:46:46.000Z</time>
      </trkpt>
      <trkpt lat="47.27024" lon="-2.32033">
        <ele>3.2000000476837</ele>
        <time>2022-01-30T10:46:52.000Z</time>
      </trkpt>
      <trkpt lat="47.27026" lon="-2.32055">
        <ele>3.2000000476837</ele>
        <time>2022-01-30T10:46:55.000Z</time>
      </trkpt>
      <trkpt lat="47.27025" lon="-2.32063">
        <ele>3.2000000476837</ele>
        <time>2022-01-30T10:46:56.000Z</time>
      </trkpt>
      <trkpt lat="47.27024" lon="-2.3208">
        <ele>2.7999999523163</ele>
        <time>2022-01-30T10:46:58.000Z</time>
      </trkpt>
      <trkpt lat="47.27022" lon="-2.32088">
        <ele>2.4000000953674</ele>
        <time>2022-01-30T10:46:59.000Z</time>
      </trkpt>
      <trkpt lat="47.2702" lon="-2.32095">
        <ele>2</ele>
        <time>2022-01-30T10:47:00.000Z</time>
      </trkpt>
      <trkpt lat="47.27018" lon="-2.32102">
        <ele>1.6000000238419</ele>
        <time>2022-01-30T10:47:01.000Z</time>
      </trkpt>
      <trkpt lat="47.27016" lon="-2.32108">
        <ele>1.2000000476837</ele>
        <time>2022-01-30T10:47:02.000Z</time>
      </trkpt>
      <trkpt lat="47.27006" lon="-2.32121">
        <ele>1.2000000476837</ele>
        <time>2022-01-30T10:47:05.000Z</time>
      </trkpt>
      <trkpt lat="47.27003" lon="-2.32125">
        <ele>1.2000000476837</ele>
        <time>2022-01-30T10:47:06.000Z</time>
      </trkpt>
      <trkpt lat="47.26999" lon="-2.32143">
        <ele>1.2000000476837</ele>
        <time>2022-01-30T10:47:09.000Z</time>
      </trkpt>
      <trkpt lat="47.27008" lon="-2.32167">
        <ele>1.2000000476837</ele>
        <time>2022-01-30T10:47:13.000Z</time>
      </trkpt>
      <trkpt lat="47.27014" lon="-2.32179">
        <ele>0.80000001192093</ele>
        <time>2022-01-30T10:47:15.000Z</time>
      </trkpt>
      <trkpt lat="47.27017" lon="-2.32184">
        <ele>0.40000000596046</ele>
        <time>2022-01-30T10:47:16.000Z</time>
      </trkpt>
      <trkpt lat="47.2702" lon="-2.32192">
        <ele>4.3</ele>
        <time>2022-01-30T10:47:17.000Z</time>
      </trkpt>
      <trkpt lat="47.27022" lon="-2.32199">
        <ele>-0.40000000596046</ele>
        <time>2022-01-30T10:47:18.000Z</time>
      </trkpt>
      <trkpt lat="47.27024" lon="-2.32206">
        <ele>-0.80000001192093</ele>
        <time>2022-01-30T10:47:19.000Z</time>
      </trkpt>
      <trkpt lat="47.27027" lon="-2.32221">
        <ele>-0.80000001192093</ele>
        <time>2022-01-30T10:47:21.000Z</time>
      </trkpt>
      <trkpt lat="47.27029" lon="-2.32235">
        <ele>-0.80000001192093</ele>
        <time>2022-01-30T10:47:23.000Z</time>
      </trkpt>
      <trkpt lat="47.2703" lon="-2.32251">
        <ele>-0.80000001192093</ele>
        <time>2022-01-30T10:47:25.000Z</time>
      </trkpt>
      <trkpt lat="47.2703" lon="-2.32274">
        <ele>-0.80000001192093</ele>
        <time>2022-01-30T10:47:28.000Z</time>
      </trkpt>
      <trkpt lat="47.27032" lon="-2.32322">
        <ele>-0.80000001192093</ele>
        <time>2022-01-30T10:47:34.000Z</time>
      </trkpt>
      <trkpt lat="47.27032" lon="-2.32329">
        <ele>-0.80000001192093</ele>
        <time>2022-01-30T10:47:35.000Z</time>
      </trkpt>
      <trkpt lat="47.27037" lon="-2.32366">
        <ele>-0.80000001192093</ele>
        <time>2022-01-30T10:47:40.000Z</time>
      </trkpt>
      <trkpt lat="47.27039" lon="-2.32416">
        <ele>-0.80000001192093</ele>
        <time>2022-01-30T10:47:46.000Z</time>
      </trkpt>
      <trkpt lat="47.2704" lon="-2.32451">
        <ele>-0.80000001192093</ele>
        <time>2022-01-30T10:47:50.000Z</time>
      </trkpt>
      <trkpt lat="47.2704" lon="-2.32467">
        <ele>-0.80000001192093</ele>
        <time>2022-01-30T10:47:52.000Z</time>
      </trkpt>
      <trkpt lat="47.27033" lon="-2.32491">
        <ele>-0.80000001192093</ele>
        <time>2022-01-30T10:47:56.000Z</time>
      </trkpt>
      <trkpt lat="47.27025" lon="-2.32496">
        <ele>-0.80000001192093</ele>
        <time>2022-01-30T10:47:58.000Z</time>
      </trkpt>
      <trkpt lat="47.27016" lon="-2.32497">
        <ele>-0.80000001192093</ele>
        <time>2022-01-30T10:48:00.000Z</time>
      </trkpt>
      <trkpt lat="47.27012" lon="-2.32494">
        <ele>-0.80000001192093</ele>
        <time>2022-01-30T10:48:01.000Z</time>
      </trkpt>
      <trkpt lat="47.27005" lon="-2.32487">
        <ele>-0.80000001192093</ele>
        <time>2022-01-30T10:48:03.000Z</time>
      </trkpt>
      <trkpt lat="47.27" lon="-2.32477">
        <ele>-0.80000001192093</ele>
        <time>2022-01-30T10:48:05.000Z</time>
      </trkpt>
      <trkpt lat="47.26992" lon="-2.32462">
        <ele>-0.80000001192093</ele>
        <time>2022-01-30T10:48:08.000Z</time>
      </trkpt>
      <trkpt lat="47.26989" lon="-2.32457">
        <ele>-0.80000001192093</ele>
        <time>2022-01-30T10:48:09.000Z</time>
      </trkpt>
      <trkpt lat="47.26983" lon="-2.32446">
        <ele>-0.40000000596046</ele>
        <time>2022-01-30T10:48:11.000Z</time>
      </trkpt>
      <trkpt lat="47.26979" lon="-2.32442">
        <ele>5.7</ele>
        <time>2022-01-30T10:48:12.000Z</time>
      </trkpt>
      <trkpt lat="47.26976" lon="-2.32437">
        <ele>0.40000000596046</ele>
        <time>2022-01-30T10:48:13.000Z</time>
      </trkpt>
      <trkpt lat="47.26972" lon="-2.32433">
        <ele>0.80000001192093</ele>
        <time>2022-01-30T10:48:14.000Z</time>
      </trkpt>
      <trkpt lat="47.26968" lon="-2.32428">
        <ele>1.2000000476837</ele>
        <time>2022-01-30T10:48:15.000Z</time>
      </trkpt>
      <trkpt lat="47.26955" lon="-2.32411">
        <ele>1.2000000476837</ele>
        <time>2022-01-30T10:48:19.000Z</time>
      </trkpt>
      <trkpt lat="47.26952" lon="-2.32406">
        <ele>1.2000000476837</ele>
        <time>2022-01-30T10:48:20.000Z</time>
      </trkpt>
      <trkpt lat="47.26943" lon="-2.32381">
        <ele>1.2000000476837</ele>
        <time>2022-01-30T10:48:24.000Z</time>
      </trkpt>
      <trkpt lat="47.26936" lon="-2.32357">
        <ele>1.2000000476837</ele>
        <time>2022-01-30T10:48:28.000Z</time>
      </trkpt>
      <trkpt lat="47.26931" lon="-2.32346">
        <ele>1.2000000476837</ele>
        <time>2022-01-30T10:48:30.000Z</time>
      </trkpt>
      <trkpt lat="47.26918" lon="-2.32334">
        <ele>1.2000000476837</ele>
        <time>2022-01-30T10:48:34.000Z</time>
      </trkpt>
      <trkpt lat="47.2691" lon="-2.32334">
        <ele>1.6000000238419</ele>
        <time>2022-01-30T10:48:36.000Z</time>
      </trkpt>
      <trkpt lat="47.26906" lon="-2.32335">
        <ele>2</ele>
        <time>2022-01-30T10:48:37.000Z</time>
      </trkpt>
      <trkpt lat="47.26902" lon="-2.32337">
        <ele>2.4000000953674</ele>
        <time>2022-01-30T10:48:38.000Z</time>
      </trkpt>
      <trkpt lat="47.26899" lon="-2.32338">
        <ele>2.7999999523163</ele>
        <time>2022-01-30T10:48:39.000Z</time>
      </trkpt>
      <trkpt lat="47.26895" lon="-2.32339">
        <ele>3.2000000476837</ele>
        <time>2022-01-30T10:48:40.000Z</time>
      </trkpt>
      <trkpt lat="47.2688" lon="-2.32343">
        <ele>3.2000000476837</ele>
        <time>2022-01-30T10:48:44.000Z</time>
      </trkpt>
      <trkpt lat="47.26876" lon="-2.32345">
        <ele>3.5999999046326</ele>
        <time>2022-01-30T10:48:45.000Z</time>
      </trkpt>
      <trkpt lat="47.26872" lon="-2.32345">
        <ele>4</ele>
        <time>2022-01-30T10:48:46.000Z</time>
      </trkpt>
      <trkpt lat="47.26869" lon="-2.32346">
        <ele>4.5999999046326</ele>
        <time>2022-01-30T10:48:47.000Z</time>
      </trkpt>
      <trkpt lat="47.26865" lon="-2.32348">
        <ele>5</ele>
        <time>2022-01-30T10:48:48.000Z</time>
      </trkpt>
      <trkpt lat="47.26861" lon="-2.32348">
        <ele>5.4000000953674</ele>
        <time>2022-01-30T10:48:49.000Z</time>
      </trkpt>
      <trkpt lat="47.26857" lon="-2.32348">
        <ele>5.4000000953674</ele>
        <time>2022-01-30T10:48:50.000Z</time>
      </trkpt>
      <trkpt lat="47.26842" lon="-2.32349">
        <ele>5.8000001907349</ele>
        <time>2022-01-30T10:48:54.000Z</time>
      </trkpt>
      <trkpt lat="47.26838" lon="-2.32349">
        <ele>6.1999998092651</ele>
        <time>2022-01-30T10:48:55.000Z</time>
      </trkpt>
      <trkpt lat="47.26835" lon="-2.3235">
        <ele>6.5999999046326</ele>
        <time>2022-01-30T10:48:56.000Z</time>
      </trkpt>
      <trkpt lat="47.26831" lon="-2.32351">
        <ele>7</ele>
        <time>2022-01-30T10:48:57.000Z</time>
      </trkpt>
      <trkpt lat="47.26828" lon="-2.32351">
        <ele>7.4000000953674</ele>
        <time>2022-01-30T10:48:58.000Z</time>
      </trkpt>
      <trkpt lat="47.2682" lon="-2.32353">
        <ele>7.8000001907349</ele>
        <time>2022-01-30T10:49:01.000Z</time>
      </trkpt>
      <trkpt lat="47.26817" lon="-2.32354">
        <ele>8.1999998092651</ele>
        <time>2022-01-30T10:49:02.000Z</time>
      </trkpt>
      <trkpt lat="47.26815" lon="-2.32354">
        <ele>8.6000003814697</ele>
        <time>2022-01-30T10:49:03.000Z</time>
      </trkpt>
      <trkpt lat="47.26812" lon="-2.32355">
        <ele>9</ele>
        <time>2022-01-30T10:49:04.000Z</time>
      </trkpt>
      <trkpt lat="47.26808" lon="-2.32356">
        <ele>9.3999996185303</ele>
        <time>2022-01-30T10:49:05.000Z</time>
      </trkpt>
      <trkpt lat="47.26802" lon="-2.32357">
        <ele>9.3999996185303</ele>
        <time>2022-01-30T10:49:07.000Z</time>
      </trkpt>
      <trkpt lat="47.26796" lon="-2.32359">
        <ele>9.8000001907349</ele>
        <time>2022-01-30T10:49:09.000Z</time>
      </trkpt>
      <trkpt lat="47.26793" lon="-2.3236">
        <ele>10.39999961853</ele>
        <time>2022-01-30T10:49:10.000Z</time>
      </trkpt>
      <trkpt lat="47.26791" lon="-2.32362">
        <ele>10.800000190735</ele>
        <time>2022-01-30T10:49:11.000Z</time>
      </trkpt>
      <trkpt lat="47.26789" lon="-2.32363">
        <ele>11.199999809265</ele>
        <time>2022-01-30T10:49:12.000Z</time>
      </trkpt>
      <trkpt lat="47.26786" lon="-2.32364">
        <ele>11.60000038147</ele>
        <time>2022-01-30T10:49:13.000Z</time>
      </trkpt>
      <trkpt lat="47.2678" lon="-2.32368">
        <ele>11.60000038147</ele>
        <time>2022-01-30T10:49:17.000Z</time>
      </trkpt>
      <trkpt lat="47.26778" lon="-2.32372">
        <ele>11.60000038147</ele>
        <time>2022-01-30T10:49:20.000Z</time>
      </trkpt>
      <trkpt lat="47.26779" lon="-2.32378">
        <ele>11.60000038147</ele>
        <time>2022-01-30T10:49:22.000Z</time>
      </trkpt>
      <trkpt lat="47.26784" lon="-2.32397">
        <ele>12</ele>
        <time>2022-01-30T10:49:27.000Z</time>
      </trkpt>
      <trkpt lat="47.26785" lon="-2.32401">
        <ele>12.39999961853</ele>
        <time>2022-01-30T10:49:28.000Z</time>
      </trkpt>
      <trkpt lat="47.26786" lon="-2.32407">
        <ele>12.800000190735</ele>
        <time>2022-01-30T10:49:29.000Z</time>
      </trkpt>
      <trkpt lat="47.26787" lon="-2.32412">
        <ele>13.199999809265</ele>
        <time>2022-01-30T10:49:30.000Z</time>
      </trkpt>
      <trkpt lat="47.26788" lon="-2.32418">
        <ele>13.60000038147</ele>
        <time>2022-01-30T10:49:31.000Z</time>
      </trkpt>
      <trkpt lat="47.26792" lon="-2.32444">
        <ele>13.60000038147</ele>
        <time>2022-01-30T10:49:35.000Z</time>
      </trkpt>
      <trkpt lat="47.26793" lon="-2.32458">
        <ele>13.60000038147</ele>
        <time>2022-01-30T10:49:37.000Z</time>
      </trkpt>
      <trkpt lat="47.26795" lon="-2.32473">
        <ele>13.60000038147</ele>
        <time>2022-01-30T10:49:39.000Z</time>
      </trkpt>
      <trkpt lat="47.26795" lon="-2.3248">
        <ele>13.60000038147</ele>
        <time>2022-01-30T10:49:40.000Z</time>
      </trkpt>
      <trkpt lat="47.26799" lon="-2.32512">
        <ele>13.60000038147</ele>
        <time>2022-01-30T10:49:44.000Z</time>
      </trkpt>
      <trkpt lat="47.268" lon="-2.32528">
        <ele>13.60000038147</ele>
        <time>2022-01-30T10:49:46.000Z</time>
      </trkpt>
      <trkpt lat="47.26803" lon="-2.3258">
        <ele>13.60000038147</ele>
        <time>2022-01-30T10:49:52.000Z</time>
      </trkpt>
      <trkpt lat="47.2681" lon="-2.32627">
        <ele>13.60000038147</ele>
        <time>2022-01-30T10:49:58.000Z</time>
      </trkpt>
      <trkpt lat="47.26813" lon="-2.32648">
        <ele>13.60000038147</ele>
        <time>2022-01-30T10:50:01.000Z</time>
      </trkpt>
      <trkpt lat="47.26811" lon="-2.32662">
        <ele>13.60000038147</ele>
        <time>2022-01-30T10:50:03.000Z</time>
      </trkpt>
      <trkpt lat="47.26807" lon="-2.32674">
        <ele>13.60000038147</ele>
        <time>2022-01-30T10:50:05.000Z</time>
      </trkpt>
      <trkpt lat="47.26805" lon="-2.32681">
        <ele>13.60000038147</ele>
        <time>2022-01-30T10:50:06.000Z</time>
      </trkpt>
      <trkpt lat="47.26805" lon="-2.32688">
        <ele>13.60000038147</ele>
        <time>2022-01-30T10:50:07.000Z</time>
      </trkpt>
      <trkpt lat="47.26815" lon="-2.32716">
        <ele>13.60000038147</ele>
        <time>2022-01-30T10:50:11.000Z</time>
      </trkpt>
      <trkpt lat="47.26822" lon="-2.32728">
        <ele>13.199999809265</ele>
        <time>2022-01-30T10:50:13.000Z</time>
      </trkpt>
      <trkpt lat="47.26825" lon="-2.32735">
        <ele>12.800000190735</ele>
        <time>2022-01-30T10:50:14.000Z</time>
      </trkpt>
      <trkpt lat="47.26829" lon="-2.32742">
        <ele>12.39999961853</ele>
        <time>2022-01-30T10:50:15.000Z</time>
      </trkpt>
      <trkpt lat="47.26833" lon="-2.3275">
        <ele>12</ele>
        <time>2022-01-30T10:50:16.000Z</time>
      </trkpt>
      <trkpt lat="47.26836" lon="-2.32759">
        <ele>11.60000038147</ele>
        <time>2022-01-30T10:50:17.000Z</time>
      </trkpt>
      <trkpt lat="47.26839" lon="-2.32769">
        <ele>11.60000038147</ele>
        <time>2022-01-30T10:50:18.000Z</time>
      </trkpt>
      <trkpt lat="47.26842" lon="-2.32779">
        <ele>11</ele>
        <time>2022-01-30T10:50:19.000Z</time>
      </trkpt>
      <trkpt lat="47.26845" lon="-2.32789">
        <ele>10.60000038147</ele>
        <time>2022-01-30T10:50:20.000Z</time>
      </trkpt>
      <trkpt lat="47.26848" lon="-2.32799">
        <ele>10</ele>
        <time>2022-01-30T10:50:21.000Z</time>
      </trkpt>
      <trkpt lat="47.26851" lon="-2.32809">
        <ele>9.3999996185303</ele>
        <time>2022-01-30T10:50:22.000Z</time>
      </trkpt>
      <trkpt lat="47.26854" lon="-2.32819">
        <ele>8.8000001907349</ele>
        <time>2022-01-30T10:50:23.000Z</time>
      </trkpt>
      <trkpt lat="47.26857" lon="-2.32829">
        <ele>8.1999998092651</ele>
        <time>2022-01-30T10:50:24.000Z</time>
      </trkpt>
      <trkpt lat="47.2686" lon="-2.32837">
        <ele>7.5999999046326</ele>
        <time>2022-01-30T10:50:25.000Z</time>
      </trkpt>
      <trkpt lat="47.26864" lon="-2.32846">
        <ele>6.8000001907349</ele>
        <time>2022-01-30T10:50:26.000Z</time>
      </trkpt>
      <trkpt lat="47.26867" lon="-2.32853">
        <ele>6</ele>
        <time>2022-01-30T10:50:27.000Z</time>
      </trkpt>
      <trkpt lat="47.26869" lon="-2.32861">
        <ele>5</ele>
        <time>2022-01-30T10:50:28.000Z</time>
      </trkpt>
      <trkpt lat="47.26869" lon="-2.32867">
        <ele>4.1999998092651</ele>
        <time>2022-01-30T10:50:29.000Z</time>
      </trkpt>
      <trkpt lat="47.26867" lon="-2.32872">
        <ele>3.2000000476837</ele>
        <time>2022-01-30T10:50:30.000Z</time>
      </trkpt>
      <trkpt lat="47.26863" lon="-2.32875">
        <ele>1.3999999761581</ele>
        <time>2022-01-30T10:50:31.000Z</time>
      </trkpt>
      <trkpt lat="47.26852" lon="-2.32879">
        <ele>1.3999999761581</ele>
        <time>2022-01-30T10:50:33.000Z</time>
      </trkpt>
      <trkpt lat="47.26847" lon="-2.32881">
        <ele>1</ele>
        <time>2022-01-30T10:50:34.000Z</time>
      </trkpt>
      <trkpt lat="47.26841" lon="-2.32884">
        <ele>0.60000002384186</ele>
        <time>2022-01-30T10:50:35.000Z</time>
      </trkpt>
      <trkpt lat="47.26835" lon="-2.32888">
        <ele>0.20000000298023</ele>
        <time>2022-01-30T10:50:36.000Z</time>
      </trkpt>
      <trkpt lat="47.2683" lon="-2.32893">
        <ele>-0.20000000298023</ele>
        <time>2022-01-30T10:50:37.000Z</time>
      </trkpt>
      <trkpt lat="47.26825" lon="-2.32898">
        <ele>-0.80000001192093</ele>
        <time>2022-01-30T10:50:38.000Z</time>
      </trkpt>
      <trkpt lat="47.2682" lon="-2.32904">
        <ele>-0.80000001192093</ele>
        <time>2022-01-30T10:50:39.000Z</time>
      </trkpt>
      <trkpt lat="47.2681" lon="-2.32914">
        <ele>-0.80000001192093</ele>
        <time>2022-01-30T10:50:41.000Z</time>
      </trkpt>
      <trkpt lat="47.26798" lon="-2.32921">
        <ele>-0.80000001192093</ele>
        <time>2022-01-30T10:50:43.000Z</time>
      </trkpt>
      <trkpt lat="47.26786" lon="-2.32932">
        <ele>-0.80000001192093</ele>
        <time>2022-01-30T10:50:45.000Z</time>
      </trkpt>
      <trkpt lat="47.26774" lon="-2.32945">
        <ele>-0.80000001192093</ele>
        <time>2022-01-30T10:50:47.000Z</time>
      </trkpt>
      <trkpt lat="47.26767" lon="-2.32951">
        <ele>-0.80000001192093</ele>
        <time>2022-01-30T10:50:48.000Z</time>
      </trkpt>
      <trkpt lat="47.26744" lon="-2.32976">
        <ele>-0.80000001192093</ele>
        <time>2022-01-30T10:50:52.000Z</time>
      </trkpt>
      <trkpt lat="47.2674" lon="-2.32984">
        <ele>-0.80000001192093</ele>
        <time>2022-01-30T10:50:53.000Z</time>
      </trkpt>
      <trkpt lat="47.26734" lon="-2.33001">
        <ele>-0.80000001192093</ele>
        <time>2022-01-30T10:50:55.000Z</time>
      </trkpt>
      <trkpt lat="47.2673" lon="-2.33035">
        <ele>-0.80000001192093</ele>
        <time>2022-01-30T10:50:59.000Z</time>
      </trkpt>
      <trkpt lat="47.2672" lon="-2.33066">
        <ele>-0.80000001192093</ele>
        <time>2022-01-30T10:51:03.000Z</time>
      </trkpt>
      <trkpt lat="47.26706" lon="-2.33086">
        <ele>-0.80000001192093</ele>
        <time>2022-01-30T10:51:06.000Z</time>
      </trkpt>
      <trkpt lat="47.26696" lon="-2.33098">
        <ele>-0.80000001192093</ele>
        <time>2022-01-30T10:51:08.000Z</time>
      </trkpt>
      <trkpt lat="47.26675" lon="-2.33116">
        <ele>-0.80000001192093</ele>
        <time>2022-01-30T10:51:12.000Z</time>
      </trkpt>
      <trkpt lat="47.26665" lon="-2.33124">
        <ele>-0.80000001192093</ele>
        <time>2022-01-30T10:51:14.000Z</time>
      </trkpt>
      <trkpt lat="47.26655" lon="-2.33132">
        <ele>-0.80000001192093</ele>
        <time>2022-01-30T10:51:16.000Z</time>
      </trkpt>
      <trkpt lat="47.26641" lon="-2.33146">
        <ele>-0.80000001192093</ele>
        <time>2022-01-30T10:51:19.000Z</time>
      </trkpt>
      <trkpt lat="47.26621" lon="-2.3315">
        <ele>-0.80000001192093</ele>
        <time>2022-01-30T10:51:23.000Z</time>
      </trkpt>
      <trkpt lat="47.26616" lon="-2.3315">
        <ele>-0.80000001192093</ele>
        <time>2022-01-30T10:51:24.000Z</time>
      </trkpt>
      <trkpt lat="47.26611" lon="-2.33152">
        <ele>-0.80000001192093</ele>
        <time>2022-01-30T10:51:25.000Z</time>
      </trkpt>
      <trkpt lat="47.26606" lon="-2.33156">
        <ele>-0.80000001192093</ele>
        <time>2022-01-30T10:51:26.000Z</time>
      </trkpt>
      <trkpt lat="47.26598" lon="-2.33174">
        <ele>-0.80000001192093</ele>
        <time>2022-01-30T10:51:29.000Z</time>
      </trkpt>
      <trkpt lat="47.26595" lon="-2.33181">
        <ele>-0.80000001192093</ele>
        <time>2022-01-30T10:51:30.000Z</time>
      </trkpt>
      <trkpt lat="47.26593" lon="-2.33188">
        <ele>-0.80000001192093</ele>
        <time>2022-01-30T10:51:31.000Z</time>
      </trkpt>
      <trkpt lat="47.26587" lon="-2.33202">
        <ele>-0.80000001192093</ele>
        <time>2022-01-30T10:51:34.000Z</time>
      </trkpt>
      <trkpt lat="47.26584" lon="-2.33204">
        <ele>-1.2000000476837</ele>
        <time>2022-01-30T10:51:35.000Z</time>
      </trkpt>
      <trkpt lat="47.26581" lon="-2.33206">
        <ele>-1.6000000238419</ele>
        <time>2022-01-30T10:51:36.000Z</time>
      </trkpt>
      <trkpt lat="47.26577" lon="-2.33209">
        <ele>-2</ele>
        <time>2022-01-30T10:51:37.000Z</time>
      </trkpt>
      <trkpt lat="47.26572" lon="-2.33212">
        <ele>-2.4000000953674</ele>
        <time>2022-01-30T10:51:38.000Z</time>
      </trkpt>
      <trkpt lat="47.26568" lon="-2.33215">
        <ele>-2.7999999523163</ele>
        <time>2022-01-30T10:51:39.000Z</time>
      </trkpt>
      <trkpt lat="47.26543" lon="-2.33231">
        <ele>-2.7999999523163</ele>
        <time>2022-01-30T10:51:44.000Z</time>
      </trkpt>
      <trkpt lat="47.26523" lon="-2.33244">
        <ele>-2.7999999523163</ele>
        <time>2022-01-30T10:51:49.000Z</time>
      </trkpt>
      <trkpt lat="47.265" lon="-2.33261">
        <ele>-2.7999999523163</ele>
        <time>2022-01-30T10:51:56.000Z</time>
      </trkpt>
      <trkpt lat="47.26491" lon="-2.33276">
        <ele>-2.7999999523163</ele>
        <time>2022-01-30T10:52:00.000Z</time>
      </trkpt>
      <trkpt lat="47.26489" lon="-2.33277">
        <ele>-2.7999999523163</ele>
        <time>2022-01-30T10:52:01.000Z</time>
      </trkpt>
      <trkpt lat="47.26484" lon="-2.33286">
        <ele>-2.7999999523163</ele>
        <time>2022-01-30T10:52:05.000Z</time>
      </trkpt>
      <trkpt lat="47.26483" lon="-2.33291">
        <ele>-2.7999999523163</ele>
        <time>2022-01-30T10:52:07.000Z</time>
      </trkpt>
      <trkpt lat="47.26479" lon="-2.33299">
        <ele>-2.7999999523163</ele>
        <time>2022-01-30T10:52:10.000Z</time>
      </trkpt>
      <trkpt lat="47.26465" lon="-2.3331">
        <ele>-2.7999999523163</ele>
        <time>2022-01-30T10:52:15.000Z</time>
      </trkpt>
      <trkpt lat="47.26443" lon="-2.33328">
        <ele>-2.7999999523163</ele>
        <time>2022-01-30T10:52:21.000Z</time>
      </trkpt>
      <trkpt lat="47.26414" lon="-2.33349">
        <ele>-2.7999999523163</ele>
        <time>2022-01-30T10:52:28.000Z</time>
      </trkpt>
      <trkpt lat="47.26382" lon="-2.33371">
        <ele>-2.7999999523163</ele>
        <time>2022-01-30T10:52:35.000Z</time>
      </trkpt>
      <trkpt lat="47.26335" lon="-2.33394">
        <ele>-2.7999999523163</ele>
        <time>2022-01-30T10:52:44.000Z</time>
      </trkpt>
      <trkpt lat="47.26326" lon="-2.334">
        <ele>-2.7999999523163</ele>
        <time>2022-01-30T10:52:46.000Z</time>
      </trkpt>
      <trkpt lat="47.26315" lon="-2.33411">
        <ele>-2.7999999523163</ele>
        <time>2022-01-30T10:52:49.000Z</time>
      </trkpt>
      <trkpt lat="47.26308" lon="-2.33417">
        <ele>-2.7999999523163</ele>
        <time>2022-01-30T10:52:51.000Z</time>
      </trkpt>
      <trkpt lat="47.26299" lon="-2.33419">
        <ele>-2.7999999523163</ele>
        <time>2022-01-30T10:52:53.000Z</time>
      </trkpt>
      <trkpt lat="47.26293" lon="-2.3342">
        <ele>-2.7999999523163</ele>
        <time>2022-01-30T10:52:55.000Z</time>
      </trkpt>
      <trkpt lat="47.26282" lon="-2.33423">
        <ele>-2.7999999523163</ele>
        <time>2022-01-30T10:52:58.000Z</time>
      </trkpt>
      <trkpt lat="47.26257" lon="-2.33428">
        <ele>-2.7999999523163</ele>
        <time>2022-01-30T10:53:05.000Z</time>
      </trkpt>
      <trkpt lat="47.26231" lon="-2.33434">
        <ele>-2.7999999523163</ele>
        <time>2022-01-30T10:53:12.000Z</time>
      </trkpt>
      <trkpt lat="47.26205" lon="-2.33439">
        <ele>-2.7999999523163</ele>
        <time>2022-01-30T10:53:18.000Z</time>
      </trkpt>
      <trkpt lat="47.26201" lon="-2.3344">
        <ele>-2.7999999523163</ele>
        <time>2022-01-30T10:53:19.000Z</time>
      </trkpt>
      <trkpt lat="47.26186" lon="-2.33441">
        <ele>-2.7999999523163</ele>
        <time>2022-01-30T10:53:22.000Z</time>
      </trkpt>
      <trkpt lat="47.26182" lon="-2.33441">
        <ele>-2.7999999523163</ele>
        <time>2022-01-30T10:53:23.000Z</time>
      </trkpt>
      <trkpt lat="47.26168" lon="-2.33438">
        <ele>-2.7999999523163</ele>
        <time>2022-01-30T10:53:26.000Z</time>
      </trkpt>
      <trkpt lat="47.26148" lon="-2.3343">
        <ele>-2.7999999523163</ele>
        <time>2022-01-30T10:53:30.000Z</time>
      </trkpt>
      <trkpt lat="47.26144" lon="-2.3343">
        <ele>-2.7999999523163</ele>
        <time>2022-01-30T10:53:31.000Z</time>
      </trkpt>
      <trkpt lat="47.26137" lon="-2.33437">
        <ele>-2.7999999523163</ele>
        <time>2022-01-30T10:53:33.000Z</time>
      </trkpt>
      <trkpt lat="47.26122" lon="-2.33451">
        <ele>-2.7999999523163</ele>
        <time>2022-01-30T10:53:37.000Z</time>
      </trkpt>
      <trkpt lat="47.26117" lon="-2.33452">
        <ele>-2.7999999523163</ele>
        <time>2022-01-30T10:53:38.000Z</time>
      </trkpt>
      <trkpt lat="47.26112" lon="-2.33456">
        <ele>-2.7999999523163</ele>
        <time>2022-01-30T10:53:39.000Z</time>
      </trkpt>
      <trkpt lat="47.26103" lon="-2.33463">
        <ele>-2.7999999523163</ele>
        <time>2022-01-30T10:53:41.000Z</time>
      </trkpt>
      <trkpt lat="47.26087" lon="-2.33467">
        <ele>-2.7999999523163</ele>
        <time>2022-01-30T10:53:44.000Z</time>
      </trkpt>
      <trkpt lat="47.26065" lon="-2.33454">
        <ele>-2.7999999523163</ele>
        <time>2022-01-30T10:53:48.000Z</time>
      </trkpt>
      <trkpt lat="47.26049" lon="-2.33455">
        <ele>-2.7999999523163</ele>
        <time>2022-01-30T10:53:51.000Z</time>
      </trkpt>
      <trkpt lat="47.26038" lon="-2.33473">
        <ele>-2.7999999523163</ele>
        <time>2022-01-30T10:53:54.000Z</time>
      </trkpt>
      <trkpt lat="47.26033" lon="-2.33479">
        <ele>-2.7999999523163</ele>
        <time>2022-01-30T10:53:55.000Z</time>
      </trkpt>
      <trkpt lat="47.26023" lon="-2.33485">
        <ele>-2.7999999523163</ele>
        <time>2022-01-30T10:53:57.000Z</time>
      </trkpt>
      <trkpt lat="47.26005" lon="-2.33489">
        <ele>-2.7999999523163</ele>
        <time>2022-01-30T10:54:00.000Z</time>
      </trkpt>
      <trkpt lat="47.25994" lon="-2.33492">
        <ele>-2.7999999523163</ele>
        <time>2022-01-30T10:54:02.000Z</time>
      </trkpt>
      <trkpt lat="47.2599" lon="-2.33495">
        <ele>-2.7999999523163</ele>
        <time>2022-01-30T10:54:03.000Z</time>
      </trkpt>
      <trkpt lat="47.25981" lon="-2.33503">
        <ele>-2.7999999523163</ele>
        <time>2022-01-30T10:54:06.000Z</time>
      </trkpt>
      <trkpt lat="47.25971" lon="-2.3351">
        <ele>-2.7999999523163</ele>
        <time>2022-01-30T10:54:09.000Z</time>
      </trkpt>
      <trkpt lat="47.25966" lon="-2.33509">
        <ele>-2.7999999523163</ele>
        <time>2022-01-30T10:54:10.000Z</time>
      </trkpt>
      <trkpt lat="47.25951" lon="-2.33512">
        <ele>-2.7999999523163</ele>
        <time>2022-01-30T10:54:13.000Z</time>
      </trkpt>
      <trkpt lat="47.25942" lon="-2.33521">
        <ele>-2.4000000953674</ele>
        <time>2022-01-30T10:54:15.000Z</time>
      </trkpt>
      <trkpt lat="47.25937" lon="-2.33525">
        <ele>-2</ele>
        <time>2022-01-30T10:54:16.000Z</time>
      </trkpt>
      <trkpt lat="47.25933" lon="-2.33529">
        <ele>-1.3999999761581</ele>
        <time>2022-01-30T10:54:17.000Z</time>
      </trkpt>
      <trkpt lat="47.25929" lon="-2.33533">
        <ele>-1</ele>
        <time>2022-01-30T10:54:18.000Z</time>
      </trkpt>
      <trkpt lat="47.25925" lon="-2.33536">
        <ele>-0.60000002384186</ele>
        <time>2022-01-30T10:54:19.000Z</time>
      </trkpt>
      <trkpt lat="47.25902" lon="-2.33554">
        <ele>-0.60000002384186</ele>
        <time>2022-01-30T10:54:24.000Z</time>
      </trkpt>
      <trkpt lat="47.25875" lon="-2.33574">
        <ele>-0.60000002384186</ele>
        <time>2022-01-30T10:54:30.000Z</time>
      </trkpt>
      <trkpt lat="47.2587" lon="-2.33575">
        <ele>-0.60000002384186</ele>
        <time>2022-01-30T10:54:31.000Z</time>
      </trkpt>
      <trkpt lat="47.25865" lon="-2.33577">
        <ele>-0.20000000298023</ele>
        <time>2022-01-30T10:54:32.000Z</time>
      </trkpt>
      <trkpt lat="47.2586" lon="-2.33578">
        <ele>0.20000000298023</ele>
        <time>2022-01-30T10:54:33.000Z</time>
      </trkpt>
      <trkpt lat="47.25854" lon="-2.33578">
        <ele>0.60000002384186</ele>
        <time>2022-01-30T10:54:34.000Z</time>
      </trkpt>
      <trkpt lat="47.25849" lon="-2.33578">
        <ele>1</ele>
        <time>2022-01-30T10:54:35.000Z</time>
      </trkpt>
      <trkpt lat="47.25844" lon="-2.33578">
        <ele>1.3999999761581</ele>
        <time>2022-01-30T10:54:36.000Z</time>
      </trkpt>
      <trkpt lat="47.25838" lon="-2.33579">
        <ele>1.3999999761581</ele>
        <time>2022-01-30T10:54:37.000Z</time>
      </trkpt>
      <trkpt lat="47.2579" lon="-2.3358">
        <ele>1.3999999761581</ele>
        <time>2022-01-30T10:54:46.000Z</time>
      </trkpt>
      <trkpt lat="47.25751" lon="-2.33584">
        <ele>1.3999999761581</ele>
        <time>2022-01-30T10:54:53.000Z</time>
      </trkpt>
      <trkpt lat="47.25746" lon="-2.33585">
        <ele>1.3999999761581</ele>
        <time>2022-01-30T10:54:54.000Z</time>
      </trkpt>
      <trkpt lat="47.25741" lon="-2.33586">
        <ele>1.3999999761581</ele>
        <time>2022-01-30T10:54:55.000Z</time>
      </trkpt>
      <trkpt lat="47.25725" lon="-2.33584">
        <ele>1.3999999761581</ele>
        <time>2022-01-30T10:54:58.000Z</time>
      </trkpt>
      <trkpt lat="47.25685" lon="-2.33583">
        <ele>1.3999999761581</ele>
        <time>2022-01-30T10:55:05.000Z</time>
      </trkpt>
      <trkpt lat="47.2565" lon="-2.33573">
        <ele>1.3999999761581</ele>
        <time>2022-01-30T10:55:11.000Z</time>
      </trkpt>
      <trkpt lat="47.25633" lon="-2.33565">
        <ele>1.3999999761581</ele>
        <time>2022-01-30T10:55:14.000Z</time>
      </trkpt>
      <trkpt lat="47.25616" lon="-2.33554">
        <ele>1.3999999761581</ele>
        <time>2022-01-30T10:55:17.000Z</time>
      </trkpt>
      <trkpt lat="47.25585" lon="-2.33525">
        <ele>1.7999999523163</ele>
        <time>2022-01-30T10:55:23.000Z</time>
      </trkpt>
      <trkpt lat="47.25581" lon="-2.33519">
        <ele>2.2000000476837</ele>
        <time>2022-01-30T10:55:24.000Z</time>
      </trkpt>
      <trkpt lat="47.25577" lon="-2.33513">
        <ele>2.5999999046326</ele>
        <time>2022-01-30T10:55:25.000Z</time>
      </trkpt>
      <trkpt lat="47.25572" lon="-2.33507">
        <ele>3.4000000953674</ele>
        <time>2022-01-30T10:55:26.000Z</time>
      </trkpt>
      <trkpt lat="47.25561" lon="-2.33488">
        <ele>3.4000000953674</ele>
        <time>2022-01-30T10:55:29.000Z</time>
      </trkpt>
      <trkpt lat="47.25545" lon="-2.33454">
        <ele>3.4000000953674</ele>
        <time>2022-01-30T10:55:34.000Z</time>
      </trkpt>
      <trkpt lat="47.25531" lon="-2.33408">
        <ele>3.4000000953674</ele>
        <time>2022-01-30T10:55:40.000Z</time>
      </trkpt>
      <trkpt lat="47.25523" lon="-2.3334">
        <ele>3.4000000953674</ele>
        <time>2022-01-30T10:55:48.000Z</time>
      </trkpt>
      <trkpt lat="47.25518" lon="-2.33289">
        <ele>3.4000000953674</ele>
        <time>2022-01-30T10:55:54.000Z</time>
      </trkpt>
      <trkpt lat="47.25509" lon="-2.33219">
        <ele>3.4000000953674</ele>
        <time>2022-01-30T10:56:02.000Z</time>
      </trkpt>
      <trkpt lat="47.25501" lon="-2.33157">
        <ele>3.4000000953674</ele>
        <time>2022-01-30T10:56:09.000Z</time>
      </trkpt>
      <trkpt lat="47.25496" lon="-2.33108">
        <ele>3.4000000953674</ele>
        <time>2022-01-30T10:56:15.000Z</time>
      </trkpt>
      <trkpt lat="47.25492" lon="-2.33095">
        <ele>3.4000000953674</ele>
        <time>2022-01-30T10:56:17.000Z</time>
      </trkpt>
      <trkpt lat="47.25484" lon="-2.33092">
        <ele>3.4000000953674</ele>
        <time>2022-01-30T10:56:19.000Z</time>
      </trkpt>
      <trkpt lat="47.2547" lon="-2.33098">
        <ele>3.4000000953674</ele>
        <time>2022-01-30T10:56:22.000Z</time>
      </trkpt>
      <trkpt lat="47.25466" lon="-2.331">
        <ele>3.4000000953674</ele>
        <time>2022-01-30T10:56:23.000Z</time>
      </trkpt>
      <trkpt lat="47.2543" lon="-2.33117">
        <ele>3.4000000953674</ele>
        <time>2022-01-30T10:56:30.000Z</time>
      </trkpt>
      <trkpt lat="47.25416" lon="-2.33125">
        <ele>3.4000000953674</ele>
        <time>2022-01-30T10:56:33.000Z</time>
      </trkpt>
      <trkpt lat="47.25402" lon="-2.33131">
        <ele>3.4000000953674</ele>
        <time>2022-01-30T10:56:36.000Z</time>
      </trkpt>
      <trkpt lat="47.25398" lon="-2.33133">
        <ele>3.4000000953674</ele>
        <time>2022-01-30T10:56:37.000Z</time>
      </trkpt>
      <trkpt lat="47.25381" lon="-2.33135">
        <ele>3.4000000953674</ele>
        <time>2022-01-30T10:56:41.000Z</time>
      </trkpt>
      <trkpt lat="47.25376" lon="-2.33122">
        <ele>3.4000000953674</ele>
        <time>2022-01-30T10:56:44.000Z</time>
      </trkpt>
      <trkpt lat="47.25374" lon="-2.33114">
        <ele>3.4000000953674</ele>
        <time>2022-01-30T10:56:49.000Z</time>
      </trkpt>
      <trkpt lat="47.25374" lon="-2.33107">
        <ele>3.4000000953674</ele>
        <time>2022-01-30T11:16:15.000Z</time>
      </trkpt>
      <trkpt lat="47.25371" lon="-2.33101">
        <ele>3.4000000953674</ele>
        <time>2022-01-30T11:16:17.000Z</time>
      </trkpt>
      <trkpt lat="47.25362" lon="-2.33076">
        <ele>3.4000000953674</ele>
        <time>2022-01-30T11:16:23.000Z</time>
      </trkpt>
      <trkpt lat="47.25351" lon="-2.33049">
        <ele>3.4000000953674</ele>
        <time>2022-01-30T11:16:29.000Z</time>
      </trkpt>
      <trkpt lat="47.25349" lon="-2.33043">
        <ele>3.7999999523163</ele>
        <time>2022-01-30T11:16:30.000Z</time>
      </trkpt>
      <trkpt lat="47.25346" lon="-2.33038">
        <ele>4.1999998092651</ele>
        <time>2022-01-30T11:16:31.000Z</time>
      </trkpt>
      <trkpt lat="47.25344" lon="-2.33032">
        <ele>4.5999999046326</ele>
        <time>2022-01-30T11:16:32.000Z</time>
      </trkpt>
      <trkpt lat="47.25342" lon="-2.33027">
        <ele>5.1999998092651</ele>
        <time>2022-01-30T11:16:33.000Z</time>
      </trkpt>
      <trkpt lat="47.2534" lon="-2.33021">
        <ele>5.5999999046326</ele>
        <time>2022-01-30T11:16:34.000Z</time>
      </trkpt>
      <trkpt lat="47.25338" lon="-2.33015">
        <ele>5.5999999046326</ele>
        <time>2022-01-30T11:16:35.000Z</time>
      </trkpt>
      <trkpt lat="47.25335" lon="-2.3301">
        <ele>5.5999999046326</ele>
        <time>2022-01-30T11:16:36.000Z</time>
      </trkpt>
      <trkpt lat="47.25318" lon="-2.32967">
        <ele>5.5999999046326</ele>
        <time>2022-01-30T11:16:43.000Z</time>
      </trkpt>
      <trkpt lat="47.25308" lon="-2.3294">
        <ele>5.5999999046326</ele>
        <time>2022-01-30T11:16:48.000Z</time>
      </trkpt>
      <trkpt lat="47.25307" lon="-2.32933">
        <ele>5.5999999046326</ele>
        <time>2022-01-30T11:16:49.000Z</time>
      </trkpt>
      <trkpt lat="47.25313" lon="-2.32917">
        <ele>5.5999999046326</ele>
        <time>2022-01-30T11:16:52.000Z</time>
      </trkpt>
      <trkpt lat="47.25317" lon="-2.32912">
        <ele>5.5999999046326</ele>
        <time>2022-01-30T11:16:53.000Z</time>
      </trkpt>
      <trkpt lat="47.25324" lon="-2.32903">
        <ele>5.5999999046326</ele>
        <time>2022-01-30T11:16:55.000Z</time>
      </trkpt>
      <trkpt lat="47.2534" lon="-2.32889">
        <ele>5.5999999046326</ele>
        <time>2022-01-30T11:16:59.000Z</time>
      </trkpt>
      <trkpt lat="47.25371" lon="-2.32856">
        <ele>5.5999999046326</ele>
        <time>2022-01-30T11:17:07.000Z</time>
      </trkpt>
      <trkpt lat="47.25405" lon="-2.32816">
        <ele>5.5999999046326</ele>
        <time>2022-01-30T11:17:16.000Z</time>
      </trkpt>
      <trkpt lat="47.25415" lon="-2.32801">
        <ele>5.5999999046326</ele>
        <time>2022-01-30T11:17:19.000Z</time>
      </trkpt>
      <trkpt lat="47.25423" lon="-2.32785">
        <ele>5.5999999046326</ele>
        <time>2022-01-30T11:17:22.000Z</time>
      </trkpt>
      <trkpt lat="47.25427" lon="-2.32773">
        <ele>6</ele>
        <time>2022-01-30T11:17:24.000Z</time>
      </trkpt>
      <trkpt lat="47.25429" lon="-2.32769">
        <ele>6.4000000953674</ele>
        <time>2022-01-30T11:17:25.000Z</time>
      </trkpt>
      <trkpt lat="47.25433" lon="-2.32765">
        <ele>6.8000001907349</ele>
        <time>2022-01-30T11:17:26.000Z</time>
      </trkpt>
      <trkpt lat="47.25436" lon="-2.32762">
        <ele>7.1999998092651</ele>
        <time>2022-01-30T11:17:27.000Z</time>
      </trkpt>
      <trkpt lat="47.2544" lon="-2.32757">
        <ele>7.5999999046326</ele>
        <time>2022-01-30T11:17:28.000Z</time>
      </trkpt>
      <trkpt lat="47.25451" lon="-2.32743">
        <ele>7.5999999046326</ele>
        <time>2022-01-30T11:17:31.000Z</time>
      </trkpt>
      <trkpt lat="47.25481" lon="-2.32702">
        <ele>7.5999999046326</ele>
        <time>2022-01-30T11:17:40.000Z</time>
      </trkpt>
      <trkpt lat="47.25487" lon="-2.32679">
        <ele>7.5999999046326</ele>
        <time>2022-01-30T11:17:44.000Z</time>
      </trkpt>
      <trkpt lat="47.25486" lon="-2.32652">
        <ele>7.5999999046326</ele>
        <time>2022-01-30T11:17:48.000Z</time>
      </trkpt>
      <trkpt lat="47.25485" lon="-2.32645">
        <ele>7.5999999046326</ele>
        <time>2022-01-30T11:17:49.000Z</time>
      </trkpt>
      <trkpt lat="47.25483" lon="-2.32632">
        <ele>7.5999999046326</ele>
        <time>2022-01-30T11:17:51.000Z</time>
      </trkpt>
      <trkpt lat="47.25478" lon="-2.32606">
        <ele>7.5999999046326</ele>
        <time>2022-01-30T11:17:55.000Z</time>
      </trkpt>
      <trkpt lat="47.25476" lon="-2.32594">
        <ele>7.5999999046326</ele>
        <time>2022-01-30T11:17:57.000Z</time>
      </trkpt>
      <trkpt lat="47.25476" lon="-2.32576">
        <ele>7.5999999046326</ele>
        <time>2022-01-30T11:18:00.000Z</time>
      </trkpt>
      <trkpt lat="47.25484" lon="-2.32561">
        <ele>7.5999999046326</ele>
        <time>2022-01-30T11:18:03.000Z</time>
      </trkpt>
      <trkpt lat="47.25487" lon="-2.32556">
        <ele>7.5999999046326</ele>
        <time>2022-01-30T11:18:04.000Z</time>
      </trkpt>
      <trkpt lat="47.2551" lon="-2.32532">
        <ele>7.5999999046326</ele>
        <time>2022-01-30T11:18:10.000Z</time>
      </trkpt>
      <trkpt lat="47.25519" lon="-2.32525">
        <ele>7.5999999046326</ele>
        <time>2022-01-30T11:18:12.000Z</time>
      </trkpt>
      <trkpt lat="47.25537" lon="-2.32509">
        <ele>7.5999999046326</ele>
        <time>2022-01-30T11:18:16.000Z</time>
      </trkpt>
      <trkpt lat="47.25566" lon="-2.32482">
        <ele>7.5999999046326</ele>
        <time>2022-01-30T11:18:22.000Z</time>
      </trkpt>
      <trkpt lat="47.25588" lon="-2.32461">
        <ele>7.1999998092651</ele>
        <time>2022-01-30T11:18:26.000Z</time>
      </trkpt>
      <trkpt lat="47.25593" lon="-2.32455">
        <ele>6.8000001907349</ele>
        <time>2022-01-30T11:18:27.000Z</time>
      </trkpt>
      <trkpt lat="47.25598" lon="-2.3245">
        <ele>6.1999998092651</ele>
        <time>2022-01-30T11:18:28.000Z</time>
      </trkpt>
      <trkpt lat="47.25603" lon="-2.32443">
        <ele>5.8000001907349</ele>
        <time>2022-01-30T11:18:29.000Z</time>
      </trkpt>
      <trkpt lat="47.25608" lon="-2.32438">
        <ele>5.4000000953674</ele>
        <time>2022-01-30T11:18:30.000Z</time>
      </trkpt>
      <trkpt lat="47.25633" lon="-2.32411">
        <ele>4.8000001907349</ele>
        <time>2022-01-30T11:18:35.000Z</time>
      </trkpt>
      <trkpt lat="47.25638" lon="-2.32406">
        <ele>4.4000000953674</ele>
        <time>2022-01-30T11:18:36.000Z</time>
      </trkpt>
      <trkpt lat="47.25642" lon="-2.32403">
        <ele>4</ele>
        <time>2022-01-30T11:18:37.000Z</time>
      </trkpt>
      <trkpt lat="47.25647" lon="-2.32401">
        <ele>3.5999999046326</ele>
        <time>2022-01-30T11:18:38.000Z</time>
      </trkpt>
      <trkpt lat="47.25651" lon="-2.32401">
        <ele>3.2000000476837</ele>
        <time>2022-01-30T11:18:39.000Z</time>
      </trkpt>
      <trkpt lat="47.25664" lon="-2.32399">
        <ele>3.2000000476837</ele>
        <time>2022-01-30T11:18:43.000Z</time>
      </trkpt>
      <trkpt lat="47.25673" lon="-2.32412">
        <ele>3.2000000476837</ele>
        <time>2022-01-30T11:18:47.000Z</time>
      </trkpt>
      <trkpt lat="47.25686" lon="-2.32419">
        <ele>3.2000000476837</ele>
        <time>2022-01-30T11:18:51.000Z</time>
      </trkpt>
      <trkpt lat="47.25707" lon="-2.32422">
        <ele>3.2000000476837</ele>
        <time>2022-01-30T11:18:56.000Z</time>
      </trkpt>
      <trkpt lat="47.25724" lon="-2.32424">
        <ele>3.2000000476837</ele>
        <time>2022-01-30T11:19:00.000Z</time>
      </trkpt>
      <trkpt lat="47.25737" lon="-2.32425">
        <ele>3.2000000476837</ele>
        <time>2022-01-30T11:19:03.000Z</time>
      </trkpt>
      <trkpt lat="47.25741" lon="-2.32425">
        <ele>2.5999999046326</ele>
        <time>2022-01-30T11:19:04.000Z</time>
      </trkpt>
      <trkpt lat="47.25745" lon="-2.32425">
        <ele>2.2000000476837</ele>
        <time>2022-01-30T11:19:05.000Z</time>
      </trkpt>
      <trkpt lat="47.25749" lon="-2.32425">
        <ele>1.7999999523163</ele>
        <time>2022-01-30T11:19:06.000Z</time>
      </trkpt>
      <trkpt lat="47.25752" lon="-2.32425">
        <ele>1.3999999761581</ele>
        <time>2022-01-30T11:19:07.000Z</time>
      </trkpt>
      <trkpt lat="47.25756" lon="-2.32424">
        <ele>1</ele>
        <time>2022-01-30T11:19:08.000Z</time>
      </trkpt>
      <trkpt lat="47.25759" lon="-2.32423">
        <ele>1</ele>
        <time>2022-01-30T11:19:09.000Z</time>
      </trkpt>
      <trkpt lat="47.25771" lon="-2.32416">
        <ele>1</ele>
        <time>2022-01-30T11:19:12.000Z</time>
      </trkpt>
      <trkpt lat="47.2578" lon="-2.32417">
        <ele>1</ele>
        <time>2022-01-30T11:19:14.000Z</time>
      </trkpt>
      <trkpt lat="47.25792" lon="-2.32433">
        <ele>1</ele>
        <time>2022-01-30T11:19:17.000Z</time>
      </trkpt>
      <trkpt lat="47.25799" lon="-2.32446">
        <ele>1</ele>
        <time>2022-01-30T11:19:19.000Z</time>
      </trkpt>
      <trkpt lat="47.25815" lon="-2.32458">
        <ele>1</ele>
        <time>2022-01-30T11:19:22.000Z</time>
      </trkpt>
      <trkpt lat="47.25826" lon="-2.32465">
        <ele>1</ele>
        <time>2022-01-30T11:19:24.000Z</time>
      </trkpt>
      <trkpt lat="47.25848" lon="-2.32474">
        <ele>1</ele>
        <time>2022-01-30T11:19:28.000Z</time>
      </trkpt>
      <trkpt lat="47.25854" lon="-2.32475">
        <ele>1</ele>
        <time>2022-01-30T11:19:29.000Z</time>
      </trkpt>
      <trkpt lat="47.25869" lon="-2.32476">
        <ele>1</ele>
        <time>2022-01-30T11:19:32.000Z</time>
      </trkpt>
      <trkpt lat="47.25873" lon="-2.32475">
        <ele>1</ele>
        <time>2022-01-30T11:19:33.000Z</time>
      </trkpt>
      <trkpt lat="47.25888" lon="-2.3247">
        <ele>1</ele>
        <time>2022-01-30T11:19:36.000Z</time>
      </trkpt>
      <trkpt lat="47.25898" lon="-2.32461">
        <ele>1</ele>
        <time>2022-01-30T11:19:38.000Z</time>
      </trkpt>
      <trkpt lat="47.25906" lon="-2.32449">
        <ele>1</ele>
        <time>2022-01-30T11:19:40.000Z</time>
      </trkpt>
      <trkpt lat="47.25922" lon="-2.32428">
        <ele>1</ele>
        <time>2022-01-30T11:19:44.000Z</time>
      </trkpt>
      <trkpt lat="47.25957" lon="-2.32382">
        <ele>1</ele>
        <time>2022-01-30T11:19:53.000Z</time>
      </trkpt>
      <trkpt lat="47.25982" lon="-2.32352">
        <ele>1</ele>
        <time>2022-01-30T11:19:59.000Z</time>
      </trkpt>
      <trkpt lat="47.26009" lon="-2.32318">
        <ele>1</ele>
        <time>2022-01-30T11:20:06.000Z</time>
      </trkpt>
      <trkpt lat="47.26035" lon="-2.32286">
        <ele>1</ele>
        <time>2022-01-30T11:20:13.000Z</time>
      </trkpt>
      <trkpt lat="47.26069" lon="-2.32246">
        <ele>1</ele>
        <time>2022-01-30T11:20:22.000Z</time>
      </trkpt>
      <trkpt lat="47.26095" lon="-2.32211">
        <ele>1</ele>
        <time>2022-01-30T11:20:29.000Z</time>
      </trkpt>
      <trkpt lat="47.26111" lon="-2.32174">
        <ele>1</ele>
        <time>2022-01-30T11:20:35.000Z</time>
      </trkpt>
      <trkpt lat="47.26117" lon="-2.32155">
        <ele>1</ele>
        <time>2022-01-30T11:20:38.000Z</time>
      </trkpt>
      <trkpt lat="47.26122" lon="-2.32142">
        <ele>1</ele>
        <time>2022-01-30T11:20:40.000Z</time>
      </trkpt>
      <trkpt lat="47.26125" lon="-2.32129">
        <ele>1</ele>
        <time>2022-01-30T11:20:42.000Z</time>
      </trkpt>
      <trkpt lat="47.26132" lon="-2.32102">
        <ele>1</ele>
        <time>2022-01-30T11:20:46.000Z</time>
      </trkpt>
      <trkpt lat="47.26143" lon="-2.32064">
        <ele>1</ele>
        <time>2022-01-30T11:20:52.000Z</time>
      </trkpt>
      <trkpt lat="47.26147" lon="-2.32051">
        <ele>1</ele>
        <time>2022-01-30T11:20:54.000Z</time>
      </trkpt>
      <trkpt lat="47.26155" lon="-2.32033">
        <ele>1</ele>
        <time>2022-01-30T11:20:57.000Z</time>
      </trkpt>
      <trkpt lat="47.26158" lon="-2.32028">
        <ele>1</ele>
        <time>2022-01-30T11:20:58.000Z</time>
      </trkpt>
      <trkpt lat="47.26165" lon="-2.32022">
        <ele>1</ele>
        <time>2022-01-30T11:21:00.000Z</time>
      </trkpt>
      <trkpt lat="47.26169" lon="-2.32022">
        <ele>1</ele>
        <time>2022-01-30T11:21:01.000Z</time>
      </trkpt>
      <trkpt lat="47.26192" lon="-2.32024">
        <ele>1</ele>
        <time>2022-01-30T11:21:08.000Z</time>
      </trkpt>
      <trkpt lat="47.26193" lon="-2.32024">
        <ele>1</ele>
        <time>2022-01-30T11:21:09.000Z</time>
      </trkpt>
      <trkpt lat="47.26193" lon="-2.32022">
        <ele>1</ele>
        <time>2022-01-30T11:21:11.000Z</time>
      </trkpt>
      <trkpt lat="47.26193" lon="-2.32019">
        <ele>1</ele>
        <time>2022-01-30T11:21:12.000Z</time>
      </trkpt>
      <trkpt lat="47.26193" lon="-2.32011">
        <ele>1</ele>
        <time>2022-01-30T11:21:14.000Z</time>
      </trkpt>
      <trkpt lat="47.26197" lon="-2.32007">
        <ele>1</ele>
        <time>2022-01-30T11:21:16.000Z</time>
      </trkpt>
      <trkpt lat="47.26202" lon="-2.32002">
        <ele>1</ele>
        <time>2022-01-30T11:21:18.000Z</time>
      </trkpt>
      <trkpt lat="47.2621" lon="-2.31991">
        <ele>1</ele>
        <time>2022-01-30T11:21:21.000Z</time>
      </trkpt>
      <trkpt lat="47.26227" lon="-2.31973">
        <ele>1</ele>
        <time>2022-01-30T11:21:26.000Z</time>
      </trkpt>
      <trkpt lat="47.26243" lon="-2.31959">
        <ele>1</ele>
        <time>2022-01-30T11:21:31.000Z</time>
      </trkpt>
      <trkpt lat="47.26259" lon="-2.31934">
        <ele>1</ele>
        <time>2022-01-30T11:21:38.000Z</time>
      </trkpt>
      <trkpt lat="47.26273" lon="-2.31912">
        <ele>1</ele>
        <time>2022-01-30T11:21:44.000Z</time>
      </trkpt>
      <trkpt lat="47.26287" lon="-2.31899">
        <ele>1</ele>
        <time>2022-01-30T11:21:49.000Z</time>
      </trkpt>
      <trkpt lat="47.26297" lon="-2.31884">
        <ele>1</ele>
        <time>2022-01-30T11:21:53.000Z</time>
      </trkpt>
      <trkpt lat="47.26298" lon="-2.31865">
        <ele>1</ele>
        <time>2022-01-30T11:21:57.000Z</time>
      </trkpt>
      <trkpt lat="47.26298" lon="-2.31854">
        <ele>1</ele>
        <time>2022-01-30T11:21:59.000Z</time>
      </trkpt>
      <trkpt lat="47.263" lon="-2.31824">
        <ele>1</ele>
        <time>2022-01-30T11:22:05.000Z</time>
      </trkpt>
      <trkpt lat="47.26301" lon="-2.31781">
        <ele>1</ele>
        <time>2022-01-30T11:22:13.000Z</time>
      </trkpt>
      <trkpt lat="47.263" lon="-2.31744">
        <ele>1</ele>
        <time>2022-01-30T11:22:19.000Z</time>
      </trkpt>
      <trkpt lat="47.26302" lon="-2.31721">
        <ele>1</ele>
        <time>2022-01-30T11:22:23.000Z</time>
      </trkpt>
      <trkpt lat="47.26305" lon="-2.31717">
        <ele>1</ele>
        <time>2022-01-30T11:22:24.000Z</time>
      </trkpt>
      <trkpt lat="47.26322" lon="-2.31709">
        <ele>1</ele>
        <time>2022-01-30T11:22:29.000Z</time>
      </trkpt>
      <trkpt lat="47.26331" lon="-2.31702">
        <ele>1</ele>
        <time>2022-01-30T11:22:32.000Z</time>
      </trkpt>
      <trkpt lat="47.26332" lon="-2.31698">
        <ele>1</ele>
        <time>2022-01-30T11:22:33.000Z</time>
      </trkpt>
      <trkpt lat="47.26339" lon="-2.31689">
        <ele>1</ele>
        <time>2022-01-30T11:22:36.000Z</time>
      </trkpt>
      <trkpt lat="47.26342" lon="-2.31687">
        <ele>1.3999999761581</ele>
        <time>2022-01-30T11:22:37.000Z</time>
      </trkpt>
      <trkpt lat="47.26345" lon="-2.31685">
        <ele>2</ele>
        <time>2022-01-30T11:22:38.000Z</time>
      </trkpt>
      <trkpt lat="47.26347" lon="-2.31683">
        <ele>2.4000000953674</ele>
        <time>2022-01-30T11:22:39.000Z</time>
      </trkpt>
      <trkpt lat="47.2635" lon="-2.31682">
        <ele>2.7999999523163</ele>
        <time>2022-01-30T11:22:40.000Z</time>
      </trkpt>
      <trkpt lat="47.26353" lon="-2.3168">
        <ele>3.2000000476837</ele>
        <time>2022-01-30T11:22:41.000Z</time>
      </trkpt>
      <trkpt lat="47.26356" lon="-2.31679">
        <ele>3.2000000476837</ele>
        <time>2022-01-30T11:22:42.000Z</time>
      </trkpt>
      <trkpt lat="47.26382" lon="-2.31666">
        <ele>3.2000000476837</ele>
        <time>2022-01-30T11:22:50.000Z</time>
      </trkpt>
      <trkpt lat="47.26399" lon="-2.31657">
        <ele>3.2000000476837</ele>
        <time>2022-01-30T11:22:56.000Z</time>
      </trkpt>
      <trkpt lat="47.26402" lon="-2.31655">
        <ele>3.5999999046326</ele>
        <time>2022-01-30T11:22:57.000Z</time>
      </trkpt>
      <trkpt lat="47.26404" lon="-2.31653">
        <ele>4</ele>
        <time>2022-01-30T11:22:58.000Z</time>
      </trkpt>
      <trkpt lat="47.26406" lon="-2.31651">
        <ele>4.4000000953674</ele>
        <time>2022-01-30T11:22:59.000Z</time>
      </trkpt>
      <trkpt lat="47.26409" lon="-2.31649">
        <ele>4.8000001907349</ele>
        <time>2022-01-30T11:23:00.000Z</time>
      </trkpt>
      <trkpt lat="47.26411" lon="-2.31646">
        <ele>5.1999998092651</ele>
        <time>2022-01-30T11:23:01.000Z</time>
      </trkpt>
      <trkpt lat="47.26411" lon="-2.31631">
        <ele>5.1999998092651</ele>
        <time>2022-01-30T11:23:05.000Z</time>
      </trkpt>
      <trkpt lat="47.2641" lon="-2.31605">
        <ele>5.1999998092651</ele>
        <time>2022-01-30T11:23:11.000Z</time>
      </trkpt>
      <trkpt lat="47.26411" lon="-2.31571">
        <ele>5.1999998092651</ele>
        <time>2022-01-30T11:23:19.000Z</time>
      </trkpt>
      <trkpt lat="47.26412" lon="-2.31552">
        <ele>5.1999998092651</ele>
        <time>2022-01-30T11:23:24.000Z</time>
      </trkpt>
      <trkpt lat="47.26414" lon="-2.31551">
        <ele>5.1999998092651</ele>
        <time>2022-01-30T11:23:25.000Z</time>
      </trkpt>
      <trkpt lat="47.26417" lon="-2.31551">
        <ele>5.1999998092651</ele>
        <time>2022-01-30T11:23:28.000Z</time>
      </trkpt>
    </trkseg>
  </trk>
</gpx>